<?xml version='1.0' encoding='UTF-8'?><gpx version="1.1" creator="JPX - https://github.com/jenetics/jpx" xmlns="http://www.topografix.com/GPX/1/1"><trk><trkseg><trkpt lat="44.491671000998096" lon="9.768379134637359"><ele>417.0</ele><time>2026-04-04T11:11:28Z</time></trkpt><trkpt lat="44.49157240859888" lon="9.768461750866033"><ele>417.0</ele><time>2026-04-04T11:11:30Z</time></trkpt><trkpt lat="44.491505592296846" lon="9.76850597768487"><ele>417.0</ele><time>2026-04-04T11:11:31Z</time></trkpt><trkpt lat="44.491428851623475" lon="9.768563287717319"><ele>417.0</ele><time>2026-04-04T11:11:32Z</time></trkpt><trkpt lat="44.491321896859716" lon="9.768648199986961"><ele>417.0</ele><time>2026-04-04T11:11:34Z</time></trkpt><trkpt lat="44.49125943914014" lon="9.768696762682037"><ele>416.5</ele><time>2026-04-04T11:11:35Z</time></trkpt><trkpt lat="44.491153669696736" lon="9.7687825617661"><ele>416.0</ele><time>2026-04-04T11:11:37Z</time></trkpt><trkpt lat="44.491080695024785" lon="9.768830941853214"><ele>415.5</ele><time>2026-04-04T11:11:38Z</time></trkpt><trkpt lat="44.4910131502111" lon="9.768875298770318"><ele>415.0</ele><time>2026-04-04T11:11:39Z</time></trkpt><trkpt lat="44.49095248717396" lon="9.768917100521497"><ele>414.5</ele><time>2026-04-04T11:11:40Z</time></trkpt><trkpt lat="44.49088289522114" lon="9.76896504252305"><ele>414.0</ele><time>2026-04-04T11:11:41Z</time></trkpt><trkpt lat="44.49076357789792" lon="9.769050002866132"><ele>414.0</ele><time>2026-04-04T11:11:43Z</time></trkpt><trkpt lat="44.49069620274537" lon="9.769094297767639"><ele>414.0</ele><time>2026-04-04T11:11:44Z</time></trkpt><trkpt lat="44.49059155331021" lon="9.76916820947022"><ele>414.0</ele><time>2026-04-04T11:11:46Z</time></trkpt><trkpt lat="44.490491321902894" lon="9.769240208869704"><ele>414.0</ele><time>2026-04-04T11:11:48Z</time></trkpt><trkpt lat="44.49040280550607" lon="9.769300011642429"><ele>414.0</ele><time>2026-04-04T11:11:50Z</time></trkpt><trkpt lat="44.490322864252846" lon="9.769355123200237"><ele>413.5</ele><time>2026-04-04T11:11:52Z</time></trkpt><trkpt lat="44.49025957821327" lon="9.769383788170684"><ele>413.0</ele><time>2026-04-04T11:11:54Z</time></trkpt><trkpt lat="44.490188692782084" lon="9.769428830682745"><ele>412.5</ele><time>2026-04-04T11:11:56Z</time></trkpt><trkpt lat="44.49008011873186" lon="9.769392315883588"><ele>412.0</ele><time>2026-04-04T11:11:58Z</time></trkpt><trkpt lat="44.49004427894764" lon="9.769310768336107"><ele>411.5</ele><time>2026-04-04T11:11:59Z</time></trkpt><trkpt lat="44.48999631148839" lon="9.769235331722337"><ele>411.0</ele><time>2026-04-04T11:12:00Z</time></trkpt><trkpt lat="44.489952480172235" lon="9.769154338521014"><ele>411.0</ele><time>2026-04-04T11:12:01Z</time></trkpt><trkpt lat="44.48990315157831" lon="9.7690653893098"><ele>411.0</ele><time>2026-04-04T11:12:02Z</time></trkpt><trkpt lat="44.48985926190235" lon="9.768993082394205"><ele>411.0</ele><time>2026-04-04T11:12:03Z</time></trkpt><trkpt lat="44.48981064923191" lon="9.768900795914364"><ele>411.0</ele><time>2026-04-04T11:12:05Z</time></trkpt><trkpt lat="44.48977763999094" lon="9.768811627600268"><ele>411.0</ele><time>2026-04-04T11:12:08Z</time></trkpt><trkpt lat="44.48981187175769" lon="9.7686657941356"><ele>411.0</ele><time>2026-04-04T11:12:10Z</time></trkpt><trkpt lat="44.489864847072084" lon="9.768545841844976"><ele>412.3333333333333</ele><time>2026-04-04T11:12:12Z</time></trkpt><trkpt lat="44.48993436494908" lon="9.76842129515276"><ele>413.66666666666663</ele><time>2026-04-04T11:12:14Z</time></trkpt><trkpt lat="44.48997554764745" lon="9.768344976179282"><ele>415.0</ele><time>2026-04-04T11:12:15Z</time></trkpt><trkpt lat="44.49002453639576" lon="9.76825596152573"><ele>416.3333333333333</ele><time>2026-04-04T11:12:16Z</time></trkpt><trkpt lat="44.490080915318885" lon="9.768184859364267"><ele>417.66666666666663</ele><time>2026-04-04T11:12:17Z</time></trkpt><trkpt lat="44.49014830458813" lon="9.76811847904606"><ele>419.0</ele><time>2026-04-04T11:12:18Z</time></trkpt><trkpt lat="44.49022207453092" lon="9.768076290722362"><ele>419.0</ele><time>2026-04-04T11:12:19Z</time></trkpt><trkpt lat="44.49030854220173" lon="9.768010290173134"><ele>419.0</ele><time>2026-04-04T11:12:20Z</time></trkpt><trkpt lat="44.49039317772465" lon="9.767945688022802"><ele>419.0</ele><time>2026-04-04T11:12:21Z</time></trkpt><trkpt lat="44.49047172607514" lon="9.767885732226377"><ele>419.0</ele><time>2026-04-04T11:12:22Z</time></trkpt><trkpt lat="44.49054896360196" lon="9.767826399097977"><ele>419.0</ele><time>2026-04-04T11:12:23Z</time></trkpt><trkpt lat="44.49062413693007" lon="9.767767923611604"><ele>419.6</ele><time>2026-04-04T11:12:24Z</time></trkpt><trkpt lat="44.49069876603119" lon="9.767710152436129"><ele>420.2</ele><time>2026-04-04T11:12:25Z</time></trkpt><trkpt lat="44.4907912360342" lon="9.767638642769864"><ele>420.8</ele><time>2026-04-04T11:12:26Z</time></trkpt><trkpt lat="44.49087294507994" lon="9.767575454892464"><ele>421.40000000000003</ele><time>2026-04-04T11:12:27Z</time></trkpt><trkpt lat="44.490967416085425" lon="9.76750249306403"><ele>422.0</ele><time>2026-04-04T11:12:28Z</time></trkpt><trkpt lat="44.49106361595083" lon="9.76742821247362"><ele>422.0</ele><time>2026-04-04T11:12:29Z</time></trkpt><trkpt lat="44.49114954631072" lon="9.767335629009281"><ele>422.0</ele><time>2026-04-04T11:12:30Z</time></trkpt><trkpt lat="44.49124020249576" lon="9.767291861432795"><ele>422.0</ele><time>2026-04-04T11:12:31Z</time></trkpt><trkpt lat="44.49131840391809" lon="9.767231546358918"><ele>422.0</ele><time>2026-04-04T11:12:32Z</time></trkpt><trkpt lat="44.49139510064143" lon="9.767172420324766"><ele>422.0</ele><time>2026-04-04T11:12:33Z</time></trkpt><trkpt lat="44.491470137646445" lon="9.767120122482485"><ele>421.8333333333333</ele><time>2026-04-04T11:12:34Z</time></trkpt><trkpt lat="44.49154056710733" lon="9.767076755123686"><ele>421.66666666666663</ele><time>2026-04-04T11:12:35Z</time></trkpt><trkpt lat="44.4916043891225" lon="9.767053924587092"><ele>421.5</ele><time>2026-04-04T11:12:36Z</time></trkpt><trkpt lat="44.49167959288526" lon="9.767033513902522"><ele>421.33333333333337</ele><time>2026-04-04T11:12:37Z</time></trkpt><trkpt lat="44.4917631287654" lon="9.767016782674077"><ele>421.1666666666667</ele><time>2026-04-04T11:12:38Z</time></trkpt><trkpt lat="44.49184654227846" lon="9.766943430740435"><ele>421.0</ele><time>2026-04-04T11:12:39Z</time></trkpt><trkpt lat="44.49194094577207" lon="9.766903571688925"><ele>422.25</ele><time>2026-04-04T11:12:40Z</time></trkpt><trkpt lat="44.49204405544221" lon="9.766860876678754"><ele>423.5</ele><time>2026-04-04T11:12:41Z</time></trkpt><trkpt lat="44.49214764039363" lon="9.766780627557168"><ele>424.75</ele><time>2026-04-04T11:12:42Z</time></trkpt><trkpt lat="44.49226122815202" lon="9.76671453411028"><ele>426.0</ele><time>2026-04-04T11:12:43Z</time></trkpt><trkpt lat="44.492349349726354" lon="9.766586787988874"><ele>426.0</ele><time>2026-04-04T11:12:44Z</time></trkpt><trkpt lat="44.492433696124365" lon="9.766464988165374"><ele>426.0</ele><time>2026-04-04T11:12:45Z</time></trkpt><trkpt lat="44.492501217329355" lon="9.766318267289666"><ele>426.0</ele><time>2026-04-04T11:12:46Z</time></trkpt><trkpt lat="44.4925569185871" lon="9.766183348867143"><ele>426.0</ele><time>2026-04-04T11:12:47Z</time></trkpt><trkpt lat="44.492580091139864" lon="9.766023491049435"><ele>428.0</ele><time>2026-04-04T11:12:48Z</time></trkpt><trkpt lat="44.49259218593942" lon="9.765851570822614"><ele>430.0</ele><time>2026-04-04T11:12:49Z</time></trkpt><trkpt lat="44.49259929650419" lon="9.765671500889304"><ele>432.0</ele><time>2026-04-04T11:12:50Z</time></trkpt><trkpt lat="44.49260773829469" lon="9.765476599227386"><ele>434.0</ele><time>2026-04-04T11:12:51Z</time></trkpt><trkpt lat="44.49260934464987" lon="9.76530187864362"><ele>435.2</ele><time>2026-04-04T11:12:52Z</time></trkpt><trkpt lat="44.49260303086839" lon="9.765141209760106"><ele>436.4</ele><time>2026-04-04T11:12:53Z</time></trkpt><trkpt lat="44.49257625899165" lon="9.765011457504038"><ele>437.6</ele><time>2026-04-04T11:12:54Z</time></trkpt><trkpt lat="44.492525669608604" lon="9.764897425663536"><ele>438.8</ele><time>2026-04-04T11:12:55Z</time></trkpt><trkpt lat="44.492459504938" lon="9.764780560884498"><ele>440.0</ele><time>2026-04-04T11:12:56Z</time></trkpt><trkpt lat="44.49239337052855" lon="9.764662237709649"><ele>440.0</ele><time>2026-04-04T11:12:57Z</time></trkpt><trkpt lat="44.4923259041533" lon="9.76454001044909"><ele>440.0</ele><time>2026-04-04T11:12:58Z</time></trkpt><trkpt lat="44.49226021500204" lon="9.764419650268962"><ele>440.0</ele><time>2026-04-04T11:12:59Z</time></trkpt><trkpt lat="44.4922220796443" lon="9.764282183594537"><ele>440.0</ele><time>2026-04-04T11:13:00Z</time></trkpt><trkpt lat="44.49219230256908" lon="9.764183581399964"><ele>440.0</ele><time>2026-04-04T11:13:01Z</time></trkpt><trkpt lat="44.492251164487435" lon="9.764079831418593"><ele>440.8</ele><time>2026-04-04T11:13:02Z</time></trkpt><trkpt lat="44.492339169368734" lon="9.764009619790807"><ele>441.6</ele><time>2026-04-04T11:13:03Z</time></trkpt><trkpt lat="44.492422923340015" lon="9.763973320194133"><ele>442.4</ele><time>2026-04-04T11:13:04Z</time></trkpt><trkpt lat="44.49251893088731" lon="9.763915190833965"><ele>443.2</ele><time>2026-04-04T11:13:05Z</time></trkpt><trkpt lat="44.49262821079573" lon="9.763923045882477"><ele>444.0</ele><time>2026-04-04T11:13:06Z</time></trkpt><trkpt lat="44.49271869289891" lon="9.76390652745543"><ele>444.0</ele><time>2026-04-04T11:13:07Z</time></trkpt><trkpt lat="44.49282030139557" lon="9.763848889291474"><ele>444.0</ele><time>2026-04-04T11:13:09Z</time></trkpt><trkpt lat="44.49284795969913" lon="9.763754994394931"><ele>444.0</ele><time>2026-04-04T11:13:10Z</time></trkpt><trkpt lat="44.49271975990064" lon="9.763504924000706"><ele>444.0</ele><time>2026-04-04T11:13:12Z</time></trkpt><trkpt lat="44.492639627124255" lon="9.763439470317765"><ele>445.2</ele><time>2026-04-04T11:13:13Z</time></trkpt><trkpt lat="44.49254084245995" lon="9.763411835799939"><ele>446.4</ele><time>2026-04-04T11:13:14Z</time></trkpt><trkpt lat="44.49243503605121" lon="9.76339583903843"><ele>447.6</ele><time>2026-04-04T11:13:15Z</time></trkpt><trkpt lat="44.49233082743171" lon="9.763406856570537"><ele>448.8</ele><time>2026-04-04T11:13:16Z</time></trkpt><trkpt lat="44.4922185676663" lon="9.763439414724795"><ele>450.0</ele><time>2026-04-04T11:13:17Z</time></trkpt><trkpt lat="44.492105387378544" lon="9.76347122932525"><ele>450.4</ele><time>2026-04-04T11:13:18Z</time></trkpt><trkpt lat="44.491999757103244" lon="9.763481766168473"><ele>450.8</ele><time>2026-04-04T11:13:19Z</time></trkpt><trkpt lat="44.4919061133891" lon="9.763491205086355"><ele>451.20000000000005</ele><time>2026-04-04T11:13:20Z</time></trkpt><trkpt lat="44.49182234846642" lon="9.763540369900731"><ele>451.6</ele><time>2026-04-04T11:13:21Z</time></trkpt><trkpt lat="44.491760851796045" lon="9.763643616038209"><ele>452.0</ele><time>2026-04-04T11:13:22Z</time></trkpt><trkpt lat="44.49171998474856" lon="9.76376081256083"><ele>451.99999999999994</ele><time>2026-04-04T11:13:23Z</time></trkpt><trkpt lat="44.491690745708304" lon="9.763879320875617"><ele>452.0</ele><time>2026-04-04T11:13:24Z</time></trkpt><trkpt lat="44.49165959906051" lon="9.763993132715804"><ele>452.0</ele><time>2026-04-04T11:13:25Z</time></trkpt><trkpt lat="44.491609061644986" lon="9.764088076432616"><ele>452.0</ele><time>2026-04-04T11:13:26Z</time></trkpt><trkpt lat="44.49154246414923" lon="9.764135859085746"><ele>451.99999999999994</ele><time>2026-04-04T11:13:27Z</time></trkpt><trkpt lat="44.49146708991372" lon="9.764140157735609"><ele>452.0</ele><time>2026-04-04T11:13:28Z</time></trkpt><trkpt lat="44.49137862314675" lon="9.764097396256279"><ele>452.0</ele><time>2026-04-04T11:13:29Z</time></trkpt><trkpt lat="44.49129488452274" lon="9.763995843458966"><ele>452.0</ele><time>2026-04-04T11:13:30Z</time></trkpt><trkpt lat="44.491249516570235" lon="9.763830225396246"><ele>452.0</ele><time>2026-04-04T11:13:31Z</time></trkpt><trkpt lat="44.49116522467323" lon="9.763700287824982"><ele>452.0</ele><time>2026-04-04T11:13:32Z</time></trkpt><trkpt lat="44.4910976711962" lon="9.763540328863458"><ele>453.75</ele><time>2026-04-04T11:13:33Z</time></trkpt><trkpt lat="44.49098134974692" lon="9.763431760650203"><ele>455.5</ele><time>2026-04-04T11:13:34Z</time></trkpt><trkpt lat="44.49088351793319" lon="9.763319426795077"><ele>457.25</ele><time>2026-04-04T11:13:35Z</time></trkpt><trkpt lat="44.49079402479743" lon="9.763218184499996"><ele>459.0</ele><time>2026-04-04T11:13:36Z</time></trkpt><trkpt lat="44.49072382102654" lon="9.763127120250743"><ele>459.0</ele><time>2026-04-04T11:13:37Z</time></trkpt><trkpt lat="44.49068935676038" lon="9.762999935097366"><ele>459.0</ele><time>2026-04-04T11:13:38Z</time></trkpt><trkpt lat="44.49068941020284" lon="9.762878024213549"><ele>459.0</ele><time>2026-04-04T11:13:39Z</time></trkpt><trkpt lat="44.49068833194728" lon="9.762732210054818"><ele>459.0</ele><time>2026-04-04T11:13:40Z</time></trkpt><trkpt lat="44.49069804401414" lon="9.762584390973975"><ele>459.0</ele><time>2026-04-04T11:13:41Z</time></trkpt><trkpt lat="44.49071162933562" lon="9.762429820857905"><ele>460.79999999999995</ele><time>2026-04-04T11:13:42Z</time></trkpt><trkpt lat="44.49073305182021" lon="9.762287476294745"><ele>462.59999999999997</ele><time>2026-04-04T11:13:43Z</time></trkpt><trkpt lat="44.490766144235636" lon="9.762154268970246"><ele>464.4</ele><time>2026-04-04T11:13:44Z</time></trkpt><trkpt lat="44.490803391941206" lon="9.762023335467196"><ele>466.2</ele><time>2026-04-04T11:13:45Z</time></trkpt><trkpt lat="44.4908257523664" lon="9.761898733554364"><ele>468.0</ele><time>2026-04-04T11:13:46Z</time></trkpt><trkpt lat="44.49087586110449" lon="9.761783700551087"><ele>468.79999999999995</ele><time>2026-04-04T11:13:47Z</time></trkpt><trkpt lat="44.49090120245065" lon="9.76164082208985"><ele>469.59999999999997</ele><time>2026-04-04T11:13:48Z</time></trkpt><trkpt lat="44.49095984823983" lon="9.761527243284489"><ele>470.40000000000003</ele><time>2026-04-04T11:13:49Z</time></trkpt><trkpt lat="44.49101572037639" lon="9.761424905035733"><ele>471.20000000000005</ele><time>2026-04-04T11:13:50Z</time></trkpt><trkpt lat="44.491088615217144" lon="9.761337662940866"><ele>472.0</ele><time>2026-04-04T11:13:51Z</time></trkpt><trkpt lat="44.49118187778853" lon="9.761281871574774"><ele>473.40000000000003</ele><time>2026-04-04T11:13:52Z</time></trkpt><trkpt lat="44.49127602947047" lon="9.761256027880512"><ele>474.80000000000007</ele><time>2026-04-04T11:13:53Z</time></trkpt><trkpt lat="44.49137762771543" lon="9.761241262106296"><ele>476.2</ele><time>2026-04-04T11:13:54Z</time></trkpt><trkpt lat="44.49148247660518" lon="9.761250879567301"><ele>477.6</ele><time>2026-04-04T11:13:55Z</time></trkpt><trkpt lat="44.49158618148524" lon="9.761242133871134"><ele>479.0</ele><time>2026-04-04T11:13:56Z</time></trkpt><trkpt lat="44.49169144162841" lon="9.76122103329361"><ele>479.0</ele><time>2026-04-04T11:13:57Z</time></trkpt><trkpt lat="44.491808163062515" lon="9.761188779672203"><ele>479.0</ele><time>2026-04-04T11:13:58Z</time></trkpt><trkpt lat="44.49191807774341" lon="9.76112962095023"><ele>479.0</ele><time>2026-04-04T11:13:59Z</time></trkpt><trkpt lat="44.491988825692935" lon="9.760990907125286"><ele>479.0</ele><time>2026-04-04T11:14:00Z</time></trkpt><trkpt lat="44.49204896350909" lon="9.760843050277856"><ele>479.3333333333333</ele><time>2026-04-04T11:14:01Z</time></trkpt><trkpt lat="44.49212210980304" lon="9.760724993520743"><ele>479.66666666666663</ele><time>2026-04-04T11:14:02Z</time></trkpt><trkpt lat="44.492165075510734" lon="9.760618411490931"><ele>480.0</ele><time>2026-04-04T11:14:03Z</time></trkpt><trkpt lat="44.49222873071949" lon="9.760542153649272"><ele>480.33333333333337</ele><time>2026-04-04T11:14:04Z</time></trkpt><trkpt lat="44.49228979384566" lon="9.7604963531447"><ele>480.6666666666667</ele><time>2026-04-04T11:14:05Z</time></trkpt><trkpt lat="44.49234346504901" lon="9.760408846347493"><ele>481.0</ele><time>2026-04-04T11:14:06Z</time></trkpt><trkpt lat="44.492414280517465" lon="9.760327535071053"><ele>481.0</ele><time>2026-04-04T11:14:07Z</time></trkpt><trkpt lat="44.49248953519228" lon="9.760236245247421"><ele>481.0</ele><time>2026-04-04T11:14:08Z</time></trkpt><trkpt lat="44.492561561208525" lon="9.760139125111946"><ele>481.0</ele><time>2026-04-04T11:14:09Z</time></trkpt><trkpt lat="44.49264068354176" lon="9.760031345712571"><ele>481.0</ele><time>2026-04-04T11:14:10Z</time></trkpt><trkpt lat="44.49271916567014" lon="9.759920573721917"><ele>481.0</ele><time>2026-04-04T11:14:11Z</time></trkpt><trkpt lat="44.492796871211176" lon="9.759803957987941"><ele>482.6</ele><time>2026-04-04T11:14:12Z</time></trkpt><trkpt lat="44.49287613038878" lon="9.759677120600296"><ele>484.20000000000005</ele><time>2026-04-04T11:14:13Z</time></trkpt><trkpt lat="44.492943519353545" lon="9.759560709331435"><ele>485.79999999999995</ele><time>2026-04-04T11:14:14Z</time></trkpt><trkpt lat="44.49300310043458" lon="9.75945386181038"><ele>487.4</ele><time>2026-04-04T11:14:15Z</time></trkpt><trkpt lat="44.49307055617596" lon="9.759353045859957"><ele>489.0</ele><time>2026-04-04T11:14:16Z</time></trkpt><trkpt lat="44.49312980870564" lon="9.759244547812786"><ele>491.4</ele><time>2026-04-04T11:14:17Z</time></trkpt><trkpt lat="44.49317522751427" lon="9.75912387579264"><ele>493.79999999999995</ele><time>2026-04-04T11:14:18Z</time></trkpt><trkpt lat="44.49321853754792" lon="9.75899438309797"><ele>496.20000000000005</ele><time>2026-04-04T11:14:19Z</time></trkpt><trkpt lat="44.493264008973625" lon="9.758880603275392"><ele>498.6</ele><time>2026-04-04T11:14:20Z</time></trkpt><trkpt lat="44.493284126407566" lon="9.75875846747524"><ele>501.0</ele><time>2026-04-04T11:14:21Z</time></trkpt><trkpt lat="44.493336322638704" lon="9.758668027692488"><ele>501.0</ele><time>2026-04-04T11:14:22Z</time></trkpt><trkpt lat="44.493370351394205" lon="9.758559224768005"><ele>501.0</ele><time>2026-04-04T11:14:23Z</time></trkpt><trkpt lat="44.49344014989043" lon="9.758453661040392"><ele>501.0</ele><time>2026-04-04T11:14:24Z</time></trkpt><trkpt lat="44.49352838771198" lon="9.758363461848887"><ele>501.0</ele><time>2026-04-04T11:14:25Z</time></trkpt><trkpt lat="44.49359509235883" lon="9.75824799361606"><ele>501.0</ele><time>2026-04-04T11:14:26Z</time></trkpt><trkpt lat="44.49367485838151" lon="9.75814340897705"><ele>502.6</ele><time>2026-04-04T11:14:27Z</time></trkpt><trkpt lat="44.49375590169863" lon="9.758036329055578"><ele>504.20000000000005</ele><time>2026-04-04T11:14:28Z</time></trkpt><trkpt lat="44.493826947773826" lon="9.757932779811258"><ele>505.79999999999995</ele><time>2026-04-04T11:14:29Z</time></trkpt><trkpt lat="44.49388666538508" lon="9.757827900341862"><ele>507.4</ele><time>2026-04-04T11:14:30Z</time></trkpt><trkpt lat="44.493956750018164" lon="9.757743909032863"><ele>509.0</ele><time>2026-04-04T11:14:31Z</time></trkpt><trkpt lat="44.49400615157137" lon="9.757628991604856"><ele>510.79999999999995</ele><time>2026-04-04T11:14:32Z</time></trkpt><trkpt lat="44.49406223863073" lon="9.757532563838495"><ele>512.5999999999999</ele><time>2026-04-04T11:14:33Z</time></trkpt><trkpt lat="44.494119216098554" lon="9.757435385066254"><ele>514.4</ele><time>2026-04-04T11:14:34Z</time></trkpt><trkpt lat="44.4941907310407" lon="9.757362516059393"><ele>516.1999999999999</ele><time>2026-04-04T11:14:35Z</time></trkpt><trkpt lat="44.49426013984086" lon="9.757281409601172"><ele>518.0</ele><time>2026-04-04T11:14:36Z</time></trkpt><trkpt lat="44.49433905163823" lon="9.75721429761492"><ele>518.0</ele><time>2026-04-04T11:14:37Z</time></trkpt><trkpt lat="44.494424012983814" lon="9.75716547657094"><ele>518.0</ele><time>2026-04-04T11:14:38Z</time></trkpt><trkpt lat="44.4945135488219" lon="9.757134195693569"><ele>518.0</ele><time>2026-04-04T11:14:39Z</time></trkpt><trkpt lat="44.49460689238818" lon="9.757106416897166"><ele>518.0</ele><time>2026-04-04T11:14:40Z</time></trkpt><trkpt lat="44.49470496032511" lon="9.757066891596677"><ele>518.0</ele><time>2026-04-04T11:14:41Z</time></trkpt><trkpt lat="44.4947965905749" lon="9.757010780677682"><ele>518.6</ele><time>2026-04-04T11:14:42Z</time></trkpt><trkpt lat="44.49487128934705" lon="9.756929973231019"><ele>519.1999999999999</ele><time>2026-04-04T11:14:43Z</time></trkpt><trkpt lat="44.49495335664518" lon="9.756852458353732"><ele>519.8</ele><time>2026-04-04T11:14:44Z</time></trkpt><trkpt lat="44.494999622802084" lon="9.756720821291955"><ele>520.4</ele><time>2026-04-04T11:14:45Z</time></trkpt><trkpt lat="44.49505754807796" lon="9.756612620837544"><ele>521.0</ele><time>2026-04-04T11:14:46Z</time></trkpt><trkpt lat="44.495117049313734" lon="9.756509378511819"><ele>522.6666666666666</ele><time>2026-04-04T11:14:47Z</time></trkpt><trkpt lat="44.49516984119742" lon="9.75640707060872"><ele>524.3333333333333</ele><time>2026-04-04T11:14:48Z</time></trkpt><trkpt lat="44.49522075164945" lon="9.756330757266044"><ele>526.0</ele><time>2026-04-04T11:14:49Z</time></trkpt><trkpt lat="44.495283598277524" lon="9.756270815003516"><ele>527.6666666666666</ele><time>2026-04-04T11:14:50Z</time></trkpt><trkpt lat="44.49535371539774" lon="9.756231720458214"><ele>529.3333333333334</ele><time>2026-04-04T11:14:51Z</time></trkpt><trkpt lat="44.49543209081361" lon="9.756211589637584"><ele>531.0</ele><time>2026-04-04T11:14:52Z</time></trkpt><trkpt lat="44.49552207852841" lon="9.756197196048712"><ele>531.0</ele><time>2026-04-04T11:14:53Z</time></trkpt><trkpt lat="44.495613027794896" lon="9.756176487243092"><ele>531.0</ele><time>2026-04-04T11:14:54Z</time></trkpt><trkpt lat="44.49568609302916" lon="9.756126314462282"><ele>531.0</ele><time>2026-04-04T11:14:55Z</time></trkpt><trkpt lat="44.49572690495378" lon="9.756035169143473"><ele>531.0</ele><time>2026-04-04T11:14:56Z</time></trkpt><trkpt lat="44.49575625734676" lon="9.75592954567954"><ele>531.0</ele><time>2026-04-04T11:14:57Z</time></trkpt><trkpt lat="44.495708521170286" lon="9.75579190154391"><ele>531.0</ele><time>2026-04-04T11:14:58Z</time></trkpt><trkpt lat="44.495621618585574" lon="9.755689261270307"><ele>533.6</ele><time>2026-04-04T11:14:59Z</time></trkpt><trkpt lat="44.495527703719596" lon="9.75559587762608"><ele>536.2</ele><time>2026-04-04T11:15:00Z</time></trkpt><trkpt lat="44.49543681430986" lon="9.755503019737443"><ele>538.8</ele><time>2026-04-04T11:15:01Z</time></trkpt><trkpt lat="44.49535237265955" lon="9.755413679310621"><ele>541.4</ele><time>2026-04-04T11:15:02Z</time></trkpt><trkpt lat="44.49527583070806" lon="9.755328302228124"><ele>544.0</ele><time>2026-04-04T11:15:03Z</time></trkpt><trkpt lat="44.4952095986821" lon="9.755232548052385"><ele>545.2</ele><time>2026-04-04T11:15:04Z</time></trkpt><trkpt lat="44.49515820795784" lon="9.75513257159405"><ele>546.4</ele><time>2026-04-04T11:15:05Z</time></trkpt><trkpt lat="44.49519598430913" lon="9.754992664681883"><ele>547.6</ele><time>2026-04-04T11:15:06Z</time></trkpt><trkpt lat="44.49522427759531" lon="9.754848645182562"><ele>548.8</ele><time>2026-04-04T11:15:07Z</time></trkpt><trkpt lat="44.49526370038838" lon="9.754703780850232"><ele>550.0</ele><time>2026-04-04T11:15:08Z</time></trkpt><trkpt lat="44.495312566075945" lon="9.754570636307355"><ele>550.0</ele><time>2026-04-04T11:15:09Z</time></trkpt><trkpt lat="44.49538953613162" lon="9.754438843946224"><ele>550.0</ele><time>2026-04-04T11:15:10Z</time></trkpt><trkpt lat="44.495418258871545" lon="9.754283557546687"><ele>550.0</ele><time>2026-04-04T11:15:11Z</time></trkpt><trkpt lat="44.49538161699536" lon="9.754110841578404"><ele>550.0</ele><time>2026-04-04T11:15:12Z</time></trkpt><trkpt lat="44.49534806038506" lon="9.753994552192319"><ele>551.6</ele><time>2026-04-04T11:15:13Z</time></trkpt><trkpt lat="44.495345258759336" lon="9.753855264891081"><ele>553.2</ele><time>2026-04-04T11:15:14Z</time></trkpt><trkpt lat="44.495357202901516" lon="9.753714808035976"><ele>554.8</ele><time>2026-04-04T11:15:15Z</time></trkpt><trkpt lat="44.49543533529586" lon="9.753601062853381"><ele>556.4</ele><time>2026-04-04T11:15:16Z</time></trkpt><trkpt lat="44.495519090480016" lon="9.75349795482087"><ele>558.0</ele><time>2026-04-04T11:15:17Z</time></trkpt><trkpt lat="44.495594614115355" lon="9.75336832090001"><ele>560.0</ele><time>2026-04-04T11:15:18Z</time></trkpt><trkpt lat="44.49565683791799" lon="9.75325149476892"><ele>562.0</ele><time>2026-04-04T11:15:19Z</time></trkpt><trkpt lat="44.49568344175818" lon="9.753116686109694"><ele>564.0</ele><time>2026-04-04T11:15:20Z</time></trkpt><trkpt lat="44.49569898560471" lon="9.752962420150338"><ele>566.0</ele><time>2026-04-04T11:15:21Z</time></trkpt><trkpt lat="44.495713256034996" lon="9.752819177599731"><ele>568.0</ele><time>2026-04-04T11:15:22Z</time></trkpt><trkpt lat="44.495731071059176" lon="9.752663619205922"><ele>571.0</ele><time>2026-04-04T11:15:23Z</time></trkpt><trkpt lat="44.49573667331383" lon="9.7525123837794"><ele>574.0</ele><time>2026-04-04T11:15:24Z</time></trkpt><trkpt lat="44.495738780536605" lon="9.7523625588197"><ele>577.0</ele><time>2026-04-04T11:15:25Z</time></trkpt><trkpt lat="44.49574214794019" lon="9.75221941973028"><ele>580.0</ele><time>2026-04-04T11:15:26Z</time></trkpt><trkpt lat="44.49575167562946" lon="9.752084668536792"><ele>583.0</ele><time>2026-04-04T11:15:27Z</time></trkpt><trkpt lat="44.4957522945082" lon="9.751945991521021"><ele>585.25</ele><time>2026-04-04T11:15:28Z</time></trkpt><trkpt lat="44.4957296752753" lon="9.751797375348938"><ele>587.5</ele><time>2026-04-04T11:15:29Z</time></trkpt><trkpt lat="44.49570149323238" lon="9.751627040151696"><ele>589.75</ele><time>2026-04-04T11:15:30Z</time></trkpt><trkpt lat="44.49567103956287" lon="9.751468026318646"><ele>592.0</ele><time>2026-04-04T11:15:31Z</time></trkpt><trkpt lat="44.49564599208878" lon="9.751332162324905"><ele>592.0</ele><time>2026-04-04T11:15:32Z</time></trkpt><trkpt lat="44.49561776995523" lon="9.751197795102284"><ele>592.0</ele><time>2026-04-04T11:15:33Z</time></trkpt><trkpt lat="44.495586135676966" lon="9.751065211561107"><ele>592.0</ele><time>2026-04-04T11:15:34Z</time></trkpt><trkpt lat="44.495553328612885" lon="9.750932640864313"><ele>592.0</ele><time>2026-04-04T11:15:35Z</time></trkpt><trkpt lat="44.49552585508293" lon="9.750796225392435"><ele>592.0</ele><time>2026-04-04T11:15:36Z</time></trkpt><trkpt lat="44.49550301054098" lon="9.75068226850573"><ele>593.0</ele><time>2026-04-04T11:15:37Z</time></trkpt><trkpt lat="44.495493632704495" lon="9.75057227973311"><ele>594.0</ele><time>2026-04-04T11:15:38Z</time></trkpt><trkpt lat="44.49548104382115" lon="9.75046459473219"><ele>595.0</ele><time>2026-04-04T11:15:39Z</time></trkpt><trkpt lat="44.49547676367475" lon="9.750352216237482"><ele>596.0</ele><time>2026-04-04T11:15:40Z</time></trkpt><trkpt lat="44.49552347386933" lon="9.750249520332392"><ele>597.0</ele><time>2026-04-04T11:15:41Z</time></trkpt><trkpt lat="44.495615844408235" lon="9.75021408504762"><ele>598.0</ele><time>2026-04-04T11:15:42Z</time></trkpt><trkpt lat="44.49569402387878" lon="9.750236346729002"><ele>598.0</ele><time>2026-04-04T11:15:43Z</time></trkpt><trkpt lat="44.49580385522103" lon="9.750260153335155"><ele>598.0</ele><time>2026-04-04T11:15:44Z</time></trkpt><trkpt lat="44.49591840214297" lon="9.75027565766116"><ele>598.0</ele><time>2026-04-04T11:15:45Z</time></trkpt><trkpt lat="44.49602017282559" lon="9.750283668246531"><ele>598.0</ele><time>2026-04-04T11:15:46Z</time></trkpt><trkpt lat="44.496103118613306" lon="9.750273872332166"><ele>598.0</ele><time>2026-04-04T11:15:47Z</time></trkpt><trkpt lat="44.49618019709642" lon="9.750245636188621"><ele>599.8</ele><time>2026-04-04T11:15:48Z</time></trkpt><trkpt lat="44.49624526602219" lon="9.750148408842572"><ele>601.5999999999999</ele><time>2026-04-04T11:15:49Z</time></trkpt><trkpt lat="44.496277629542725" lon="9.750013574145393"><ele>603.4000000000001</ele><time>2026-04-04T11:15:50Z</time></trkpt><trkpt lat="44.49626757775569" lon="9.749850712499773"><ele>605.2</ele><time>2026-04-04T11:15:51Z</time></trkpt><trkpt lat="44.49624684053932" lon="9.74968828379171"><ele>607.0</ele><time>2026-04-04T11:15:52Z</time></trkpt><trkpt lat="44.496229275760435" lon="9.749528978614446"><ele>607.0</ele><time>2026-04-04T11:15:53Z</time></trkpt><trkpt lat="44.49621976872501" lon="9.749384855057572"><ele>607.0</ele><time>2026-04-04T11:15:54Z</time></trkpt><trkpt lat="44.49620896189021" lon="9.749252057515513"><ele>607.0</ele><time>2026-04-04T11:15:55Z</time></trkpt><trkpt lat="44.49620012073408" lon="9.749112586857448"><ele>607.0</ele><time>2026-04-04T11:15:56Z</time></trkpt><trkpt lat="44.4961878555574" lon="9.748987933302388"><ele>607.0</ele><time>2026-04-04T11:15:57Z</time></trkpt><trkpt lat="44.49617429444115" lon="9.74885241461953"><ele>608.0</ele><time>2026-04-04T11:15:58Z</time></trkpt><trkpt lat="44.49616238598241" lon="9.748721209410842"><ele>609.0</ele><time>2026-04-04T11:15:59Z</time></trkpt><trkpt lat="44.49616086898857" lon="9.748602512930809"><ele>610.0</ele><time>2026-04-04T11:16:00Z</time></trkpt><trkpt lat="44.496157915283305" lon="9.748490847008268"><ele>611.0</ele><time>2026-04-04T11:16:01Z</time></trkpt><trkpt lat="44.49615702298613" lon="9.74837702221678"><ele>612.0</ele><time>2026-04-04T11:16:02Z</time></trkpt><trkpt lat="44.49617901337394" lon="9.748277903214403"><ele>613.0</ele><time>2026-04-04T11:16:03Z</time></trkpt><trkpt lat="44.49624648388611" lon="9.748197134599163"><ele>617.4</ele><time>2026-04-04T11:16:04Z</time></trkpt><trkpt lat="44.496338560493" lon="9.74816435814871"><ele>621.8</ele><time>2026-04-04T11:16:05Z</time></trkpt><trkpt lat="44.49642316153333" lon="9.74826154870581"><ele>626.2</ele><time>2026-04-04T11:16:06Z</time></trkpt><trkpt lat="44.496522862143394" lon="9.748332520196183"><ele>630.6</ele><time>2026-04-04T11:16:07Z</time></trkpt><trkpt lat="44.49663416712593" lon="9.74840378843734"><ele>635.0</ele><time>2026-04-04T11:16:08Z</time></trkpt><trkpt lat="44.49673102424405" lon="9.748478244725902"><ele>635.0</ele><time>2026-04-04T11:16:09Z</time></trkpt><trkpt lat="44.496815441374935" lon="9.74853524517128"><ele>635.0</ele><time>2026-04-04T11:16:10Z</time></trkpt><trkpt lat="44.49689855439266" lon="9.748588244146834"><ele>635.0</ele><time>2026-04-04T11:16:11Z</time></trkpt><trkpt lat="44.49697502752311" lon="9.748660986050472"><ele>635.0</ele><time>2026-04-04T11:16:12Z</time></trkpt><trkpt lat="44.497064112730925" lon="9.748686388589084"><ele>635.0</ele><time>2026-04-04T11:16:13Z</time></trkpt><trkpt lat="44.49714482615502" lon="9.74875011004499"><ele>635.0</ele><time>2026-04-04T11:16:14Z</time></trkpt><trkpt lat="44.49723443827353" lon="9.748792583586544"><ele>635.0</ele><time>2026-04-04T11:16:15Z</time></trkpt><trkpt lat="44.49733753010909" lon="9.748813000864331"><ele>635.0</ele><time>2026-04-04T11:16:16Z</time></trkpt><trkpt lat="44.497450704845065" lon="9.748795503409212"><ele>635.0</ele><time>2026-04-04T11:16:17Z</time></trkpt><trkpt lat="44.49756389502707" lon="9.74877421249542"><ele>635.0</ele><time>2026-04-04T11:16:18Z</time></trkpt><trkpt lat="44.49766829718309" lon="9.748766494843888"><ele>635.0</ele><time>2026-04-04T11:16:19Z</time></trkpt><trkpt lat="44.497765573220995" lon="9.74877439721162"><ele>635.0</ele><time>2026-04-04T11:16:20Z</time></trkpt><trkpt lat="44.497855514610194" lon="9.748798932313173"><ele>635.0</ele><time>2026-04-04T11:16:21Z</time></trkpt><trkpt lat="44.49794789936276" lon="9.748828987467594"><ele>635.0</ele><time>2026-04-04T11:16:22Z</time></trkpt><trkpt lat="44.49804081485588" lon="9.748862877571211"><ele>635.0</ele><time>2026-04-04T11:16:23Z</time></trkpt><trkpt lat="44.498127502694125" lon="9.748896090173828"><ele>636.3333333333333</ele><time>2026-04-04T11:16:24Z</time></trkpt><trkpt lat="44.498202849590214" lon="9.748925780370971"><ele>637.6666666666666</ele><time>2026-04-04T11:16:25Z</time></trkpt><trkpt lat="44.49828638624486" lon="9.748946086754552"><ele>639.0</ele><time>2026-04-04T11:16:26Z</time></trkpt><trkpt lat="44.498373125380354" lon="9.748961482926122"><ele>640.3333333333334</ele><time>2026-04-04T11:16:27Z</time></trkpt><trkpt lat="44.49846162645936" lon="9.748977533106617"><ele>641.6666666666667</ele><time>2026-04-04T11:16:28Z</time></trkpt><trkpt lat="44.498556408170415" lon="9.74898331095141"><ele>643.0</ele><time>2026-04-04T11:16:29Z</time></trkpt><trkpt lat="44.49865341323824" lon="9.74899325618197"><ele>643.5999999999999</ele><time>2026-04-04T11:16:30Z</time></trkpt><trkpt lat="44.49875630152029" lon="9.749009332598234"><ele>644.1999999999999</ele><time>2026-04-04T11:16:31Z</time></trkpt><trkpt lat="44.498859075857354" lon="9.749012327243515"><ele>644.8</ele><time>2026-04-04T11:16:32Z</time></trkpt><trkpt lat="44.49896012603133" lon="9.748985767109238"><ele>645.4</ele><time>2026-04-04T11:16:33Z</time></trkpt><trkpt lat="44.49905631314437" lon="9.74892751927869"><ele>646.0</ele><time>2026-04-04T11:16:34Z</time></trkpt><trkpt lat="44.49913804968307" lon="9.748866132573069"><ele>646.0</ele><time>2026-04-04T11:16:35Z</time></trkpt><trkpt lat="44.4992063528428" lon="9.748804943558298"><ele>646.0</ele><time>2026-04-04T11:16:36Z</time></trkpt><trkpt lat="44.499274961696564" lon="9.748756238867877"><ele>646.0</ele><time>2026-04-04T11:16:37Z</time></trkpt><trkpt lat="44.49933456592553" lon="9.748713596681748"><ele>646.0</ele><time>2026-04-04T11:16:38Z</time></trkpt><trkpt lat="44.49938247292655" lon="9.748653694381039"><ele>646.0</ele><time>2026-04-04T11:16:39Z</time></trkpt><trkpt lat="44.49945033702329" lon="9.748550376432886"><ele>646.0</ele><time>2026-04-04T11:16:41Z</time></trkpt><trkpt lat="44.499432443653625" lon="9.748458771679035"><ele>648.0</ele><time>2026-04-04T11:16:42Z</time></trkpt><trkpt lat="44.49937379459126" lon="9.748390976706238"><ele>650.0</ele><time>2026-04-04T11:16:43Z</time></trkpt><trkpt lat="44.499281027080315" lon="9.748407064954666"><ele>652.0</ele><time>2026-04-04T11:16:44Z</time></trkpt><trkpt lat="44.499206909897566" lon="9.748414597910607"><ele>654.0</ele><time>2026-04-04T11:16:45Z</time></trkpt><trkpt lat="44.49912765318488" lon="9.748389442611572"><ele>656.0</ele><time>2026-04-04T11:16:46Z</time></trkpt><trkpt lat="44.49904669685331" lon="9.748389442616165"><ele>658.0</ele><time>2026-04-04T11:16:47Z</time></trkpt><trkpt lat="44.49896283829154" lon="9.748393174890095"><ele>658.0</ele><time>2026-04-04T11:16:48Z</time></trkpt><trkpt lat="44.49888205026538" lon="9.748406632872436"><ele>658.0</ele><time>2026-04-04T11:16:49Z</time></trkpt><trkpt lat="44.49879173680577" lon="9.748410842629948"><ele>658.0</ele><time>2026-04-04T11:16:50Z</time></trkpt><trkpt lat="44.49872155758404" lon="9.74837257055548"><ele>658.0</ele><time>2026-04-04T11:16:51Z</time></trkpt><trkpt lat="44.49864906225147" lon="9.748346208586277"><ele>658.0</ele><time>2026-04-04T11:16:52Z</time></trkpt><trkpt lat="44.498583431277844" lon="9.748331661107496"><ele>658.0</ele><time>2026-04-04T11:16:53Z</time></trkpt><trkpt lat="44.49846759793478" lon="9.748348562982102"><ele>658.3333333333334</ele><time>2026-04-04T11:16:55Z</time></trkpt><trkpt lat="44.49833850297908" lon="9.748333587438902"><ele>658.6666666666667</ele><time>2026-04-04T11:16:57Z</time></trkpt><trkpt lat="44.49826645604424" lon="9.748298415913434"><ele>659.0</ele><time>2026-04-04T11:16:58Z</time></trkpt><trkpt lat="44.49821373312218" lon="9.748202746090547"><ele>659.3333333333334</ele><time>2026-04-04T11:16:59Z</time></trkpt><trkpt lat="44.49818875467954" lon="9.748086501927686"><ele>659.6666666666666</ele><time>2026-04-04T11:17:00Z</time></trkpt><trkpt lat="44.4981486514576" lon="9.748009120025452"><ele>660.0</ele><time>2026-04-04T11:17:01Z</time></trkpt><trkpt lat="44.49820685583063" lon="9.747865803890807"><ele>660.0</ele><time>2026-04-04T11:17:03Z</time></trkpt><trkpt lat="44.4982805266328" lon="9.747850399188595"><ele>660.0</ele><time>2026-04-04T11:17:04Z</time></trkpt><trkpt lat="44.498363872771755" lon="9.747844466443121"><ele>660.0</ele><time>2026-04-04T11:17:05Z</time></trkpt><trkpt lat="44.49845742623465" lon="9.747832609066055"><ele>660.0</ele><time>2026-04-04T11:17:06Z</time></trkpt><trkpt lat="44.49855043760937" lon="9.747807910228346"><ele>660.0</ele><time>2026-04-04T11:17:07Z</time></trkpt><trkpt lat="44.49862685426477" lon="9.74778827071316"><ele>660.0</ele><time>2026-04-04T11:17:08Z</time></trkpt><trkpt lat="44.49868496002208" lon="9.747713428484651"><ele>663.8</ele><time>2026-04-04T11:17:09Z</time></trkpt><trkpt lat="44.498720857264715" lon="9.74760065335712"><ele>667.6</ele><time>2026-04-04T11:17:10Z</time></trkpt><trkpt lat="44.49869581595895" lon="9.747456980821214"><ele>671.4000000000001</ele><time>2026-04-04T11:17:11Z</time></trkpt><trkpt lat="44.49861473561346" lon="9.74736785202526"><ele>675.2</ele><time>2026-04-04T11:17:12Z</time></trkpt><trkpt lat="44.49854343392569" lon="9.74731259333443"><ele>679.0</ele><time>2026-04-04T11:17:13Z</time></trkpt><trkpt lat="44.4984620916175" lon="9.74730011454431"><ele>679.0</ele><time>2026-04-04T11:17:14Z</time></trkpt><trkpt lat="44.49838367121419" lon="9.747337494634015"><ele>679.0</ele><time>2026-04-04T11:17:15Z</time></trkpt><trkpt lat="44.49829639724821" lon="9.747372318060094"><ele>679.0</ele><time>2026-04-04T11:17:16Z</time></trkpt><trkpt lat="44.49821427927961" lon="9.747405654665078"><ele>679.0</ele><time>2026-04-04T11:17:17Z</time></trkpt><trkpt lat="44.498126233110256" lon="9.747433997633047"><ele>679.0</ele><time>2026-04-04T11:17:18Z</time></trkpt><trkpt lat="44.498043384517736" lon="9.747455500977026"><ele>679.0</ele><time>2026-04-04T11:17:19Z</time></trkpt><trkpt lat="44.49796261470764" lon="9.747413524478024"><ele>677.2</ele><time>2026-04-04T11:17:20Z</time></trkpt><trkpt lat="44.49789558474054" lon="9.747311824238421"><ele>675.4000000000001</ele><time>2026-04-04T11:17:21Z</time></trkpt><trkpt lat="44.4978253140033" lon="9.747252485240526"><ele>673.6</ele><time>2026-04-04T11:17:22Z</time></trkpt><trkpt lat="44.497769714800945" lon="9.747202127113702"><ele>671.8</ele><time>2026-04-04T11:17:23Z</time></trkpt><trkpt lat="44.497673876258844" lon="9.747104575300533"><ele>670.0</ele><time>2026-04-04T11:17:25Z</time></trkpt><trkpt lat="44.49757507145511" lon="9.74699598267767"><ele>672.6</ele><time>2026-04-04T11:17:27Z</time></trkpt><trkpt lat="44.49749883160721" lon="9.746876836369115"><ele>675.2</ele><time>2026-04-04T11:17:29Z</time></trkpt><trkpt lat="44.4974908865101" lon="9.74674865569145"><ele>677.8</ele><time>2026-04-04T11:17:31Z</time></trkpt><trkpt lat="44.49759931844381" lon="9.74668893490769"><ele>680.4</ele><time>2026-04-04T11:17:32Z</time></trkpt><trkpt lat="44.49768417549102" lon="9.746731751043894"><ele>683.0</ele><time>2026-04-04T11:17:33Z</time></trkpt><trkpt lat="44.497782206676604" lon="9.74673640880676"><ele>683.0</ele><time>2026-04-04T11:17:34Z</time></trkpt><trkpt lat="44.49785715503778" lon="9.746716636477464"><ele>683.0</ele><time>2026-04-04T11:17:35Z</time></trkpt><trkpt lat="44.497931479803896" lon="9.746680502724885"><ele>683.0</ele><time>2026-04-04T11:17:36Z</time></trkpt><trkpt lat="44.49800462066362" lon="9.746613752358275"><ele>683.0</ele><time>2026-04-04T11:17:37Z</time></trkpt><trkpt lat="44.498074085742246" lon="9.746554463114839"><ele>683.0</ele><time>2026-04-04T11:17:38Z</time></trkpt><trkpt lat="44.49817119569144" lon="9.746448148829156"><ele>683.0</ele><time>2026-04-04T11:17:40Z</time></trkpt><trkpt lat="44.49822627894969" lon="9.746376525371081"><ele>685.0</ele><time>2026-04-04T11:17:41Z</time></trkpt><trkpt lat="44.49827146442285" lon="9.746311943359512"><ele>687.0</ele><time>2026-04-04T11:17:42Z</time></trkpt><trkpt lat="44.49835977311715" lon="9.746192560444848"><ele>689.0</ele><time>2026-04-04T11:17:44Z</time></trkpt><trkpt lat="44.498473822549236" lon="9.746123059067417"><ele>691.0</ele><time>2026-04-04T11:17:46Z</time></trkpt><trkpt lat="44.498542080721975" lon="9.74606831711192"><ele>693.0</ele><time>2026-04-04T11:17:47Z</time></trkpt><trkpt lat="44.4986193431846" lon="9.745997643409957"><ele>693.8</ele><time>2026-04-04T11:17:48Z</time></trkpt><trkpt lat="44.49868538959417" lon="9.745928084980278"><ele>694.5999999999999</ele><time>2026-04-04T11:17:49Z</time></trkpt><trkpt lat="44.49875725794933" lon="9.745851656524156"><ele>695.4000000000001</ele><time>2026-04-04T11:17:50Z</time></trkpt><trkpt lat="44.49881821913101" lon="9.745735582432534"><ele>696.2</ele><time>2026-04-04T11:17:51Z</time></trkpt><trkpt lat="44.498865620284654" lon="9.74563055402418"><ele>697.0</ele><time>2026-04-04T11:17:52Z</time></trkpt><trkpt lat="44.49890018902625" lon="9.745500623222771"><ele>699.8</ele><time>2026-04-04T11:17:53Z</time></trkpt><trkpt lat="44.49892335835388" lon="9.745350830407725"><ele>702.6</ele><time>2026-04-04T11:17:54Z</time></trkpt><trkpt lat="44.49892475150925" lon="9.74519860153822"><ele>705.4</ele><time>2026-04-04T11:17:55Z</time></trkpt><trkpt lat="44.49892969978527" lon="9.745062736238793"><ele>708.1999999999999</ele><time>2026-04-04T11:17:56Z</time></trkpt><trkpt lat="44.49893834969955" lon="9.744916634696768"><ele>711.0</ele><time>2026-04-04T11:17:57Z</time></trkpt><trkpt lat="44.49894249959824" lon="9.744783596512306"><ele>712.1666666666666</ele><time>2026-04-04T11:17:58Z</time></trkpt><trkpt lat="44.498953384752554" lon="9.744634403643103"><ele>713.3333333333334</ele><time>2026-04-04T11:17:59Z</time></trkpt><trkpt lat="44.49895910372217" lon="9.744485347844398"><ele>714.5</ele><time>2026-04-04T11:18:00Z</time></trkpt><trkpt lat="44.49896141862394" lon="9.744360225460973"><ele>715.6666666666667</ele><time>2026-04-04T11:18:01Z</time></trkpt><trkpt lat="44.49896730379693" lon="9.744262647958193"><ele>716.8333333333334</ele><time>2026-04-04T11:18:02Z</time></trkpt><trkpt lat="44.498973234523696" lon="9.744160518671015"><ele>718.0</ele><time>2026-04-04T11:18:03Z</time></trkpt><trkpt lat="44.49897644144673" lon="9.744055722670977"><ele>719.0</ele><time>2026-04-04T11:18:04Z</time></trkpt><trkpt lat="44.49895630590238" lon="9.743953197087464"><ele>720.0</ele><time>2026-04-04T11:18:05Z</time></trkpt><trkpt lat="44.49891261465044" lon="9.743838112665008"><ele>721.0</ele><time>2026-04-04T11:18:06Z</time></trkpt><trkpt lat="44.49886440623544" lon="9.743718418930946"><ele>722.0</ele><time>2026-04-04T11:18:07Z</time></trkpt><trkpt lat="44.498790934423866" lon="9.743604109384291"><ele>723.0</ele><time>2026-04-04T11:18:08Z</time></trkpt><trkpt lat="44.49871591268069" lon="9.743495675446516"><ele>723.0</ele><time>2026-04-04T11:18:09Z</time></trkpt><trkpt lat="44.4986392264793" lon="9.743375025115192"><ele>723.0</ele><time>2026-04-04T11:18:10Z</time></trkpt><trkpt lat="44.49856208330293" lon="9.743247802185053"><ele>723.0</ele><time>2026-04-04T11:18:11Z</time></trkpt><trkpt lat="44.49847821887943" lon="9.74311957022136"><ele>723.0</ele><time>2026-04-04T11:18:12Z</time></trkpt><trkpt lat="44.498398367828614" lon="9.743000550373507"><ele>723.0</ele><time>2026-04-04T11:18:13Z</time></trkpt><trkpt lat="44.49831749902294" lon="9.742880506581544"><ele>723.0</ele><time>2026-04-04T11:18:14Z</time></trkpt><trkpt lat="44.498241256316554" lon="9.742767329869569"><ele>723.0</ele><time>2026-04-04T11:18:15Z</time></trkpt><trkpt lat="44.49817166129932" lon="9.742657366341902"><ele>723.0</ele><time>2026-04-04T11:18:16Z</time></trkpt><trkpt lat="44.498109412389816" lon="9.742552094625871"><ele>723.0</ele><time>2026-04-04T11:18:17Z</time></trkpt><trkpt lat="44.49804859345004" lon="9.742449241596638"><ele>721.75</ele><time>2026-04-04T11:18:18Z</time></trkpt><trkpt lat="44.49797870584565" lon="9.74234241057741"><ele>720.5</ele><time>2026-04-04T11:18:19Z</time></trkpt><trkpt lat="44.49788335246819" lon="9.74223643360724"><ele>719.25</ele><time>2026-04-04T11:18:20Z</time></trkpt><trkpt lat="44.49777701319474" lon="9.74212713117932"><ele>718.0</ele><time>2026-04-04T11:18:21Z</time></trkpt><trkpt lat="44.49767208957052" lon="9.742021739881253"><ele>718.0</ele><time>2026-04-04T11:18:22Z</time></trkpt><trkpt lat="44.497569150470184" lon="9.741919129531562"><ele>718.0</ele><time>2026-04-04T11:18:23Z</time></trkpt><trkpt lat="44.4974586056629" lon="9.741808937809003"><ele>718.0</ele><time>2026-04-04T11:18:24Z</time></trkpt><trkpt lat="44.49735068072959" lon="9.741702952916802"><ele>718.0</ele><time>2026-04-04T11:18:25Z</time></trkpt><trkpt lat="44.497244356217045" lon="9.741600002756488"><ele>717.0</ele><time>2026-04-04T11:18:26Z</time></trkpt><trkpt lat="44.49712305917116" lon="9.741513139885663"><ele>716.0</ele><time>2026-04-04T11:18:27Z</time></trkpt><trkpt lat="44.4970211240032" lon="9.741411473836523"><ele>715.0</ele><time>2026-04-04T11:18:28Z</time></trkpt><trkpt lat="44.496918275569534" lon="9.741327269016764"><ele>714.0</ele><time>2026-04-04T11:18:29Z</time></trkpt><trkpt lat="44.4968115407957" lon="9.741259671144388"><ele>714.0</ele><time>2026-04-04T11:18:30Z</time></trkpt><trkpt lat="44.496706389290985" lon="9.74119345339179"><ele>714.0</ele><time>2026-04-04T11:18:31Z</time></trkpt><trkpt lat="44.49660525063006" lon="9.741122479753388"><ele>714.0</ele><time>2026-04-04T11:18:32Z</time></trkpt><trkpt lat="44.496533684213446" lon="9.741048222055026"><ele>714.0</ele><time>2026-04-04T11:18:33Z</time></trkpt><trkpt lat="44.496495565934126" lon="9.740938540763029"><ele>714.0</ele><time>2026-04-04T11:18:34Z</time></trkpt><trkpt lat="44.49647681377168" lon="9.740833598798336"><ele>715.4000000000001</ele><time>2026-04-04T11:18:35Z</time></trkpt><trkpt lat="44.49646912808729" lon="9.740701667107075"><ele>716.8</ele><time>2026-04-04T11:18:36Z</time></trkpt><trkpt lat="44.49645208880483" lon="9.740548462758731"><ele>718.2</ele><time>2026-04-04T11:18:37Z</time></trkpt><trkpt lat="44.496426973424654" lon="9.740408822595004"><ele>719.5999999999999</ele><time>2026-04-04T11:18:38Z</time></trkpt><trkpt lat="44.4964047626529" lon="9.740296659971335"><ele>721.0</ele><time>2026-04-04T11:18:39Z</time></trkpt><trkpt lat="44.49640123346946" lon="9.740189799181215"><ele>721.0</ele><time>2026-04-04T11:18:40Z</time></trkpt><trkpt lat="44.49638610529787" lon="9.740097422971358"><ele>721.0</ele><time>2026-04-04T11:18:41Z</time></trkpt><trkpt lat="44.49641024146042" lon="9.7399938973674"><ele>721.0</ele><time>2026-04-04T11:18:42Z</time></trkpt><trkpt lat="44.49648600853269" lon="9.73990949175141"><ele>721.0</ele><time>2026-04-04T11:18:43Z</time></trkpt><trkpt lat="44.496564109249064" lon="9.739819917540233"><ele>721.0</ele><time>2026-04-04T11:18:44Z</time></trkpt><trkpt lat="44.496649240510216" lon="9.739728055491254"><ele>721.0</ele><time>2026-04-04T11:18:45Z</time></trkpt><trkpt lat="44.49674272996317" lon="9.739644722657303"><ele>721.0</ele><time>2026-04-04T11:18:46Z</time></trkpt><trkpt lat="44.49682942532154" lon="9.739547325294335"><ele>721.0</ele><time>2026-04-04T11:18:47Z</time></trkpt><trkpt lat="44.496924618844226" lon="9.739471247109275"><ele>721.0</ele><time>2026-04-04T11:18:48Z</time></trkpt><trkpt lat="44.4970104653353" lon="9.73940110118246"><ele>721.0</ele><time>2026-04-04T11:18:49Z</time></trkpt><trkpt lat="44.497094130367" lon="9.739330305396226"><ele>718.4</ele><time>2026-04-04T11:18:50Z</time></trkpt><trkpt lat="44.497178474152484" lon="9.73924615015"><ele>715.8</ele><time>2026-04-04T11:18:51Z</time></trkpt><trkpt lat="44.49726437223595" lon="9.739159787731534"><ele>713.1999999999999</ele><time>2026-04-04T11:18:52Z</time></trkpt><trkpt lat="44.497336232638595" lon="9.739070666106102"><ele>710.5999999999999</ele><time>2026-04-04T11:18:53Z</time></trkpt><trkpt lat="44.497401341393925" lon="9.738970062402503"><ele>708.0</ele><time>2026-04-04T11:18:54Z</time></trkpt><trkpt lat="44.497471665838546" lon="9.738885270058434"><ele>708.0</ele><time>2026-04-04T11:18:55Z</time></trkpt><trkpt lat="44.4975336764787" lon="9.738797986252358"><ele>708.0</ele><time>2026-04-04T11:18:56Z</time></trkpt><trkpt lat="44.497599190264275" lon="9.738732058447654"><ele>708.0</ele><time>2026-04-04T11:18:57Z</time></trkpt><trkpt lat="44.49766671893449" lon="9.73869250354634"><ele>708.0</ele><time>2026-04-04T11:18:58Z</time></trkpt><trkpt lat="44.49773840129361" lon="9.73870505884111"><ele>708.0</ele><time>2026-04-04T11:18:59Z</time></trkpt><trkpt lat="44.49782930221238" lon="9.73871292219319"><ele>708.0</ele><time>2026-04-04T11:19:00Z</time></trkpt><trkpt lat="44.49791367907688" lon="9.738722220217596"><ele>708.8333333333334</ele><time>2026-04-04T11:19:01Z</time></trkpt><trkpt lat="44.49799591090844" lon="9.738702773999966"><ele>709.6666666666666</ele><time>2026-04-04T11:19:02Z</time></trkpt><trkpt lat="44.49807233882225" lon="9.738720772722548"><ele>710.5</ele><time>2026-04-04T11:19:03Z</time></trkpt><trkpt lat="44.49813701132339" lon="9.738640029940012"><ele>711.3333333333333</ele><time>2026-04-04T11:19:04Z</time></trkpt><trkpt lat="44.49818890595836" lon="9.738558019815239"><ele>712.1666666666666</ele><time>2026-04-04T11:19:05Z</time></trkpt><trkpt lat="44.4982312504013" lon="9.738440393635466"><ele>713.0</ele><time>2026-04-04T11:19:06Z</time></trkpt><trkpt lat="44.49827951316649" lon="9.738327245646106"><ele>711.0</ele><time>2026-04-04T11:19:07Z</time></trkpt><trkpt lat="44.49834738867517" lon="9.738220895382161"><ele>709.0</ele><time>2026-04-04T11:19:08Z</time></trkpt><trkpt lat="44.49841392644443" lon="9.738113577962043"><ele>707.0</ele><time>2026-04-04T11:19:09Z</time></trkpt><trkpt lat="44.498483276303496" lon="9.738021478884717"><ele>705.0</ele><time>2026-04-04T11:19:10Z</time></trkpt><trkpt lat="44.49856162564682" lon="9.737947443094974"><ele>703.0</ele><time>2026-04-04T11:19:11Z</time></trkpt><trkpt lat="44.49865269783006" lon="9.73788165337879"><ele>704.4</ele><time>2026-04-04T11:19:12Z</time></trkpt><trkpt lat="44.49875360766072" lon="9.737853450708576"><ele>705.8</ele><time>2026-04-04T11:19:13Z</time></trkpt><trkpt lat="44.49885928926326" lon="9.737829098895403"><ele>707.2</ele><time>2026-04-04T11:19:14Z</time></trkpt><trkpt lat="44.498972280484864" lon="9.737804098037005"><ele>708.6</ele><time>2026-04-04T11:19:15Z</time></trkpt><trkpt lat="44.4990718682026" lon="9.737787961592264"><ele>710.0</ele><time>2026-04-04T11:19:16Z</time></trkpt><trkpt lat="44.49915188413227" lon="9.73774342593448"><ele>707.2</ele><time>2026-04-04T11:19:17Z</time></trkpt><trkpt lat="44.499215831151254" lon="9.737658210302824"><ele>704.4</ele><time>2026-04-04T11:19:18Z</time></trkpt><trkpt lat="44.49928314966983" lon="9.737545112894649"><ele>701.5999999999999</ele><time>2026-04-04T11:19:19Z</time></trkpt><trkpt lat="44.49935366977033" lon="9.737444794822867"><ele>698.8</ele><time>2026-04-04T11:19:20Z</time></trkpt><trkpt lat="44.49941494738699" lon="9.737338143133288"><ele>696.0</ele><time>2026-04-04T11:19:21Z</time></trkpt><trkpt lat="44.499479271853986" lon="9.737227985863717"><ele>696.0</ele><time>2026-04-04T11:19:22Z</time></trkpt><trkpt lat="44.4995508764866" lon="9.737121046431913"><ele>696.0</ele><time>2026-04-04T11:19:23Z</time></trkpt><trkpt lat="44.499628617230705" lon="9.737023858098912"><ele>696.0</ele><time>2026-04-04T11:19:24Z</time></trkpt><trkpt lat="44.49971001803326" lon="9.736913390644073"><ele>696.0</ele><time>2026-04-04T11:19:25Z</time></trkpt><trkpt lat="44.499787657666474" lon="9.736800917966272"><ele>696.0</ele><time>2026-04-04T11:19:26Z</time></trkpt><trkpt lat="44.499854949976765" lon="9.736701181334604"><ele>695.1999999999999</ele><time>2026-04-04T11:19:27Z</time></trkpt><trkpt lat="44.49992353852802" lon="9.73659901744385"><ele>694.4</ele><time>2026-04-04T11:19:28Z</time></trkpt><trkpt lat="44.500009064252474" lon="9.736505863327011"><ele>693.6</ele><time>2026-04-04T11:19:29Z</time></trkpt><trkpt lat="44.50011056122506" lon="9.736422027092805"><ele>692.8</ele><time>2026-04-04T11:19:30Z</time></trkpt><trkpt lat="44.50020468319637" lon="9.73633841279706"><ele>692.0</ele><time>2026-04-04T11:19:31Z</time></trkpt><trkpt lat="44.50028945132194" lon="9.736243565135126"><ele>692.0</ele><time>2026-04-04T11:19:32Z</time></trkpt><trkpt lat="44.50036483175416" lon="9.736156830745207"><ele>692.0</ele><time>2026-04-04T11:19:33Z</time></trkpt><trkpt lat="44.50044503238449" lon="9.736077761351934"><ele>692.0</ele><time>2026-04-04T11:19:34Z</time></trkpt><trkpt lat="44.500512253192696" lon="9.735996345053143"><ele>692.0</ele><time>2026-04-04T11:19:35Z</time></trkpt><trkpt lat="44.50058667685708" lon="9.735895753160865"><ele>692.0</ele><time>2026-04-04T11:19:36Z</time></trkpt><trkpt lat="44.50066895651064" lon="9.735815922306877"><ele>690.4000000000001</ele><time>2026-04-04T11:19:37Z</time></trkpt><trkpt lat="44.50074328619243" lon="9.735736798271308"><ele>688.8000000000001</ele><time>2026-04-04T11:19:38Z</time></trkpt><trkpt lat="44.50079627428873" lon="9.735640230965789"><ele>687.2</ele><time>2026-04-04T11:19:39Z</time></trkpt><trkpt lat="44.500830476639614" lon="9.735517405403899"><ele>685.6</ele><time>2026-04-04T11:19:40Z</time></trkpt><trkpt lat="44.500860641243555" lon="9.73537936630424"><ele>684.0</ele><time>2026-04-04T11:19:41Z</time></trkpt><trkpt lat="44.50087611946871" lon="9.735243202510743"><ele>682.8333333333334</ele><time>2026-04-04T11:19:42Z</time></trkpt><trkpt lat="44.50092214232126" lon="9.735141964489772"><ele>681.6666666666666</ele><time>2026-04-04T11:19:43Z</time></trkpt><trkpt lat="44.5009518995217" lon="9.735028859131726"><ele>680.5</ele><time>2026-04-04T11:19:44Z</time></trkpt><trkpt lat="44.50098163560032" lon="9.734923002206974"><ele>679.3333333333333</ele><time>2026-04-04T11:19:45Z</time></trkpt><trkpt lat="44.501037452769204" lon="9.734830663639482"><ele>678.1666666666666</ele><time>2026-04-04T11:19:46Z</time></trkpt><trkpt lat="44.50111516526294" lon="9.734746523017836"><ele>677.0</ele><time>2026-04-04T11:19:47Z</time></trkpt><trkpt lat="44.501176386877894" lon="9.734652067285905"><ele>677.0</ele><time>2026-04-04T11:19:48Z</time></trkpt><trkpt lat="44.50122445498373" lon="9.734554512196908"><ele>677.0</ele><time>2026-04-04T11:19:49Z</time></trkpt><trkpt lat="44.501254850109554" lon="9.734445113585489"><ele>677.0</ele><time>2026-04-04T11:19:50Z</time></trkpt><trkpt lat="44.50129263343363" lon="9.734346108772973"><ele>677.0</ele><time>2026-04-04T11:19:51Z</time></trkpt><trkpt lat="44.501327567205884" lon="9.734254116499626"><ele>677.0</ele><time>2026-04-04T11:19:52Z</time></trkpt><trkpt lat="44.50134613294468" lon="9.734148041513645"><ele>677.0</ele><time>2026-04-04T11:19:53Z</time></trkpt><trkpt lat="44.50135073687502" lon="9.734018425744091"><ele>674.6</ele><time>2026-04-04T11:19:54Z</time></trkpt><trkpt lat="44.501348150850774" lon="9.733881569440701"><ele>672.2</ele><time>2026-04-04T11:19:55Z</time></trkpt><trkpt lat="44.50135918580788" lon="9.733756527727225"><ele>669.8</ele><time>2026-04-04T11:19:56Z</time></trkpt><trkpt lat="44.50139719469418" lon="9.733646025037245"><ele>667.4</ele><time>2026-04-04T11:19:57Z</time></trkpt><trkpt lat="44.50145244663875" lon="9.733523403314402"><ele>665.0</ele><time>2026-04-04T11:19:58Z</time></trkpt><trkpt lat="44.50151352289572" lon="9.733405205460594"><ele>663.6</ele><time>2026-04-04T11:19:59Z</time></trkpt><trkpt lat="44.50156246156469" lon="9.733276928246257"><ele>662.2</ele><time>2026-04-04T11:20:00Z</time></trkpt><trkpt lat="44.501585065750334" lon="9.73313434286655"><ele>660.8</ele><time>2026-04-04T11:20:01Z</time></trkpt><trkpt lat="44.501599234924434" lon="9.732994044373084"><ele>659.4</ele><time>2026-04-04T11:20:02Z</time></trkpt><trkpt lat="44.50164687757013" lon="9.732879525617689"><ele>658.0</ele><time>2026-04-04T11:20:03Z</time></trkpt><trkpt lat="44.50170901044013" lon="9.732762563505975"><ele>657.0</ele><time>2026-04-04T11:20:04Z</time></trkpt><trkpt lat="44.50177328278536" lon="9.732645718337793"><ele>656.0</ele><time>2026-04-04T11:20:05Z</time></trkpt><trkpt lat="44.5018319266367" lon="9.732533651922399"><ele>655.0</ele><time>2026-04-04T11:20:06Z</time></trkpt><trkpt lat="44.501879979943205" lon="9.732394010691646"><ele>654.0</ele><time>2026-04-04T11:20:07Z</time></trkpt><trkpt lat="44.50190214088144" lon="9.732242465485324"><ele>653.0</ele><time>2026-04-04T11:20:08Z</time></trkpt><trkpt lat="44.50190873353156" lon="9.732103145059938"><ele>653.0</ele><time>2026-04-04T11:20:09Z</time></trkpt><trkpt lat="44.50191269798378" lon="9.73197304120889"><ele>653.0</ele><time>2026-04-04T11:20:10Z</time></trkpt><trkpt lat="44.501925898813525" lon="9.731856640689733"><ele>653.0</ele><time>2026-04-04T11:20:11Z</time></trkpt><trkpt lat="44.501945366815555" lon="9.731732359930323"><ele>653.0</ele><time>2026-04-04T11:20:12Z</time></trkpt><trkpt lat="44.5019657373546" lon="9.731593063225349"><ele>653.0</ele><time>2026-04-04T11:20:13Z</time></trkpt><trkpt lat="44.50198670204391" lon="9.731448959829077"><ele>652.2</ele><time>2026-04-04T11:20:14Z</time></trkpt><trkpt lat="44.50198240679541" lon="9.731305860195233"><ele>651.4</ele><time>2026-04-04T11:20:15Z</time></trkpt><trkpt lat="44.501962428704196" lon="9.731153167466905"><ele>650.6</ele><time>2026-04-04T11:20:16Z</time></trkpt><trkpt lat="44.501944139221564" lon="9.73099259756555"><ele>649.8000000000001</ele><time>2026-04-04T11:20:17Z</time></trkpt><trkpt lat="44.501930794949125" lon="9.730836042259524"><ele>649.0</ele><time>2026-04-04T11:20:18Z</time></trkpt><trkpt lat="44.50192396639428" lon="9.730705809780009"><ele>648.8000000000001</ele><time>2026-04-04T11:20:19Z</time></trkpt><trkpt lat="44.50192342289098" lon="9.730550352969171"><ele>648.6</ele><time>2026-04-04T11:20:20Z</time></trkpt><trkpt lat="44.50192787336059" lon="9.73040608205593"><ele>648.4</ele><time>2026-04-04T11:20:21Z</time></trkpt><trkpt lat="44.501932060509155" lon="9.73024865492862"><ele>648.2</ele><time>2026-04-04T11:20:22Z</time></trkpt><trkpt lat="44.501919367643445" lon="9.730103877416191"><ele>648.0</ele><time>2026-04-04T11:20:23Z</time></trkpt><trkpt lat="44.5018923997633" lon="9.72997447078023"><ele>648.0</ele><time>2026-04-04T11:20:24Z</time></trkpt><trkpt lat="44.50185258067154" lon="9.729851696402834"><ele>648.0</ele><time>2026-04-04T11:20:25Z</time></trkpt><trkpt lat="44.50179796081643" lon="9.729735097229405"><ele>648.0</ele><time>2026-04-04T11:20:26Z</time></trkpt><trkpt lat="44.501738607533305" lon="9.729641580669266"><ele>648.0</ele><time>2026-04-04T11:20:27Z</time></trkpt><trkpt lat="44.50173611913929" lon="9.729499247351317"><ele>648.0</ele><time>2026-04-04T11:20:28Z</time></trkpt><trkpt lat="44.50170679959521" lon="9.729385428128857"><ele>648.4</ele><time>2026-04-04T11:20:29Z</time></trkpt><trkpt lat="44.50167669109693" lon="9.72927070196877"><ele>648.8</ele><time>2026-04-04T11:20:30Z</time></trkpt><trkpt lat="44.50163445712263" lon="9.729157856507522"><ele>649.2</ele><time>2026-04-04T11:20:31Z</time></trkpt><trkpt lat="44.50158232483781" lon="9.729069845024144"><ele>649.6</ele><time>2026-04-04T11:20:32Z</time></trkpt><trkpt lat="44.50143722987977" lon="9.729034236252797"><ele>650.0</ele><time>2026-04-04T11:20:33Z</time></trkpt><trkpt lat="44.50141054846195" lon="9.728948816988744"><ele>650.0</ele><time>2026-04-04T11:20:34Z</time></trkpt><trkpt lat="44.50138213692153" lon="9.72885785885841"><ele>650.0</ele><time>2026-04-04T11:20:35Z</time></trkpt><trkpt lat="44.50134428213071" lon="9.728736668912509"><ele>650.0</ele><time>2026-04-04T11:20:37Z</time></trkpt><trkpt lat="44.501701403728546" lon="9.728501431276717"><ele>648.8571428571428</ele><time>2026-04-04T11:20:39Z</time></trkpt><trkpt lat="44.501720637040194" lon="9.728405188438126"><ele>647.7142857142858</ele><time>2026-04-04T11:20:40Z</time></trkpt><trkpt lat="44.50174651219258" lon="9.72831035417276"><ele>646.5714285714286</ele><time>2026-04-04T11:20:41Z</time></trkpt><trkpt lat="44.50177035565149" lon="9.728208278517927"><ele>645.4285714285713</ele><time>2026-04-04T11:20:42Z</time></trkpt><trkpt lat="44.50177054837674" lon="9.728118984942691"><ele>644.2857142857142</ele><time>2026-04-04T11:20:43Z</time></trkpt><trkpt lat="44.50174986542294" lon="9.728028335781941"><ele>643.1428571428571</ele><time>2026-04-04T11:20:44Z</time></trkpt><trkpt lat="44.50170978287781" lon="9.727951167642418"><ele>642.0</ele><time>2026-04-04T11:20:45Z</time></trkpt><trkpt lat="44.50165271697342" lon="9.727865150001017"><ele>642.0</ele><time>2026-04-04T11:20:46Z</time></trkpt><trkpt lat="44.501595845496105" lon="9.727790773679896"><ele>642.0</ele><time>2026-04-04T11:20:47Z</time></trkpt><trkpt lat="44.50155273856327" lon="9.727702523587189"><ele>642.0</ele><time>2026-04-04T11:20:48Z</time></trkpt><trkpt lat="44.50151247997903" lon="9.727593304326309"><ele>642.0</ele><time>2026-04-04T11:20:49Z</time></trkpt><trkpt lat="44.50147111998676" lon="9.727499292084863"><ele>642.0</ele><time>2026-04-04T11:20:50Z</time></trkpt><trkpt lat="44.501423463996936" lon="9.727430187226137"><ele>642.0</ele><time>2026-04-04T11:20:51Z</time></trkpt><trkpt lat="44.501371380151106" lon="9.727378702443735"><ele>640.1666666666666</ele><time>2026-04-04T11:20:52Z</time></trkpt><trkpt lat="44.501320523426266" lon="9.727317506154655"><ele>638.3333333333334</ele><time>2026-04-04T11:20:53Z</time></trkpt><trkpt lat="44.501264231623935" lon="9.727227516391917"><ele>636.5</ele><time>2026-04-04T11:20:54Z</time></trkpt><trkpt lat="44.501208999049624" lon="9.727151089498742"><ele>634.6666666666667</ele><time>2026-04-04T11:20:55Z</time></trkpt><trkpt lat="44.501145897050876" lon="9.72706137284547"><ele>632.8333333333334</ele><time>2026-04-04T11:20:56Z</time></trkpt><trkpt lat="44.50108450095361" lon="9.726952988483163"><ele>631.0</ele><time>2026-04-04T11:20:57Z</time></trkpt><trkpt lat="44.50102796487677" lon="9.726851761715057"><ele>628.6</ele><time>2026-04-04T11:20:58Z</time></trkpt><trkpt lat="44.50098009401457" lon="9.726752572247502"><ele>626.2</ele><time>2026-04-04T11:20:59Z</time></trkpt><trkpt lat="44.500891277966325" lon="9.72661659748533"><ele>623.8</ele><time>2026-04-04T11:21:01Z</time></trkpt><trkpt lat="44.50084338166931" lon="9.726557820553538"><ele>621.4</ele><time>2026-04-04T11:21:02Z</time></trkpt><trkpt lat="44.500777793626476" lon="9.726413150759898"><ele>619.0</ele><time>2026-04-04T11:21:04Z</time></trkpt><trkpt lat="44.50076759623538" lon="9.726319810544615"><ele>619.0</ele><time>2026-04-04T11:21:05Z</time></trkpt><trkpt lat="44.50077713199343" lon="9.726227498564034"><ele>619.0</ele><time>2026-04-04T11:21:06Z</time></trkpt><trkpt lat="44.50073889506695" lon="9.726071893146678"><ele>619.0</ele><time>2026-04-04T11:21:08Z</time></trkpt><trkpt lat="44.50068355425483" lon="9.726028746703205"><ele>619.0</ele><time>2026-04-04T11:21:09Z</time></trkpt><trkpt lat="44.50063081094664" lon="9.725965467856838"><ele>619.0</ele><time>2026-04-04T11:21:10Z</time></trkpt><trkpt lat="44.50059519971651" lon="9.725892519230413"><ele>619.0</ele><time>2026-04-04T11:21:11Z</time></trkpt><trkpt lat="44.50057978462379" lon="9.725797957589336"><ele>619.0</ele><time>2026-04-04T11:21:12Z</time></trkpt><trkpt lat="44.50056805232808" lon="9.725687175010194"><ele>617.8333333333334</ele><time>2026-04-04T11:21:13Z</time></trkpt><trkpt lat="44.50056602244994" lon="9.725577601235747"><ele>616.6666666666667</ele><time>2026-04-04T11:21:14Z</time></trkpt><trkpt lat="44.500549980378956" lon="9.72548140485124"><ele>615.5</ele><time>2026-04-04T11:21:15Z</time></trkpt><trkpt lat="44.50053276879157" lon="9.725394785457036"><ele>614.3333333333334</ele><time>2026-04-04T11:21:16Z</time></trkpt><trkpt lat="44.500500565595495" lon="9.725307103295453"><ele>613.1666666666666</ele><time>2026-04-04T11:21:17Z</time></trkpt><trkpt lat="44.50047175220701" lon="9.725214378620127"><ele>612.0</ele><time>2026-04-04T11:21:18Z</time></trkpt><trkpt lat="44.500410937460565" lon="9.725074243390548"><ele>606.4</ele><time>2026-04-04T11:21:20Z</time></trkpt><trkpt lat="44.50038176830639" lon="9.724978385883617"><ele>600.8000000000001</ele><time>2026-04-04T11:21:22Z</time></trkpt><trkpt lat="44.50033280217192" lon="9.72492120533869"><ele>595.2</ele><time>2026-04-04T11:21:24Z</time></trkpt><trkpt lat="44.50033958961897" lon="9.724754953926267"><ele>589.6</ele><time>2026-04-04T11:21:28Z</time></trkpt><trkpt lat="44.50037934936816" lon="9.724642490773617"><ele>584.0</ele><time>2026-04-04T11:21:30Z</time></trkpt><trkpt lat="44.5003459267366" lon="9.724504565536067"><ele>582.6666666666666</ele><time>2026-04-04T11:21:32Z</time></trkpt><trkpt lat="44.500341396925265" lon="9.724393596880374"><ele>581.3333333333333</ele><time>2026-04-04T11:21:34Z</time></trkpt><trkpt lat="44.500328133544876" lon="9.724292070513401"><ele>580.0</ele><time>2026-04-04T11:21:36Z</time></trkpt><trkpt lat="44.50029924551351" lon="9.724178182702492"><ele>578.6666666666666</ele><time>2026-04-04T11:21:37Z</time></trkpt><trkpt lat="44.500315439257996" lon="9.724032789650357"><ele>577.3333333333334</ele><time>2026-04-04T11:21:38Z</time></trkpt><trkpt lat="44.50030143739774" lon="9.723913313420871"><ele>576.0</ele><time>2026-04-04T11:21:39Z</time></trkpt><trkpt lat="44.500282179902094" lon="9.723798288674486"><ele>576.0</ele><time>2026-04-04T11:21:40Z</time></trkpt><trkpt lat="44.5002546284806" lon="9.72369175442247"><ele>576.0</ele><time>2026-04-04T11:21:41Z</time></trkpt><trkpt lat="44.50023805797338" lon="9.72357628861708"><ele>576.0</ele><time>2026-04-04T11:21:42Z</time></trkpt><trkpt lat="44.50020738328639" lon="9.723414271231633"><ele>576.0</ele><time>2026-04-04T11:21:44Z</time></trkpt><trkpt lat="44.50018534959087" lon="9.723260384609247"><ele>576.0</ele><time>2026-04-04T11:21:46Z</time></trkpt><trkpt lat="44.500179604572864" lon="9.723168436100801"><ele>576.0</ele><time>2026-04-04T11:21:47Z</time></trkpt><trkpt lat="44.50015294034336" lon="9.723073604416774"><ele>576.0</ele><time>2026-04-04T11:21:48Z</time></trkpt><trkpt lat="44.50012167563475" lon="9.722996471670514"><ele>576.0</ele><time>2026-04-04T11:21:49Z</time></trkpt><trkpt lat="44.50009462243357" lon="9.722909841027677"><ele>576.0</ele><time>2026-04-04T11:21:50Z</time></trkpt><trkpt lat="44.50007058457318" lon="9.722826641549394"><ele>576.0</ele><time>2026-04-04T11:21:51Z</time></trkpt><trkpt lat="44.49998098911288" lon="9.722714442056851"><ele>576.0</ele><time>2026-04-04T11:21:53Z</time></trkpt><trkpt lat="44.49995507573291" lon="9.722627880517951"><ele>575.8333333333334</ele><time>2026-04-04T11:21:54Z</time></trkpt><trkpt lat="44.49995299856983" lon="9.722516004789538"><ele>575.6666666666666</ele><time>2026-04-04T11:21:55Z</time></trkpt><trkpt lat="44.499961060430515" lon="9.722404698795083"><ele>575.5</ele><time>2026-04-04T11:21:56Z</time></trkpt><trkpt lat="44.4999618026101" lon="9.722300381690507"><ele>575.3333333333333</ele><time>2026-04-04T11:21:57Z</time></trkpt><trkpt lat="44.49995220440924" lon="9.72219835437601"><ele>575.1666666666666</ele><time>2026-04-04T11:21:58Z</time></trkpt><trkpt lat="44.49997930270084" lon="9.722028003565512"><ele>575.0</ele><time>2026-04-04T11:22:00Z</time></trkpt><trkpt lat="44.49997721583029" lon="9.721933804027321"><ele>573.1666666666666</ele><time>2026-04-04T11:22:01Z</time></trkpt><trkpt lat="44.49997379679307" lon="9.72175462085716"><ele>571.3333333333333</ele><time>2026-04-04T11:22:03Z</time></trkpt><trkpt lat="44.49997105288193" lon="9.72166108420153"><ele>569.5</ele><time>2026-04-04T11:22:04Z</time></trkpt><trkpt lat="44.49993469141207" lon="9.721559414981769"><ele>567.6666666666666</ele><time>2026-04-04T11:22:05Z</time></trkpt><trkpt lat="44.499896013572176" lon="9.721469714838875"><ele>565.8333333333334</ele><time>2026-04-04T11:22:06Z</time></trkpt><trkpt lat="44.499858532374176" lon="9.72139812799558"><ele>564.0</ele><time>2026-04-04T11:22:07Z</time></trkpt><trkpt lat="44.49978867630025" lon="9.721484020626356"><ele>564.0</ele><time>2026-04-04T11:23:17Z</time></trkpt><trkpt lat="44.499713738448584" lon="9.721510117120856"><ele>564.0</ele><time>2026-04-04T11:23:19Z</time></trkpt><trkpt lat="44.499641209933934" lon="9.721513616452802"><ele>564.0</ele><time>2026-04-04T11:23:21Z</time></trkpt><trkpt lat="44.499550580823694" lon="9.721503036813196"><ele>564.0</ele><time>2026-04-04T11:23:23Z</time></trkpt><trkpt lat="44.49946244766077" lon="9.721462957439488"><ele>564.0</ele><time>2026-04-04T11:23:25Z</time></trkpt><trkpt lat="44.4993882999095" lon="9.721380947358664"><ele>564.0</ele><time>2026-04-04T11:23:27Z</time></trkpt><trkpt lat="44.49937198438082" lon="9.72126151809453"><ele>561.2</ele><time>2026-04-04T11:23:29Z</time></trkpt><trkpt lat="44.49928887399761" lon="9.721169219085807"><ele>558.4</ele><time>2026-04-04T11:23:31Z</time></trkpt><trkpt lat="44.499175135232505" lon="9.721162273451013"><ele>555.6</ele><time>2026-04-04T11:23:33Z</time></trkpt><trkpt lat="44.49911111476271" lon="9.72118230412039"><ele>552.8</ele><time>2026-04-04T11:23:35Z</time></trkpt><trkpt lat="44.49903247600696" lon="9.721199245140777"><ele>550.0</ele><time>2026-04-04T11:24:03Z</time></trkpt><trkpt lat="44.49894782032039" lon="9.721126393733183"><ele>548.2</ele><time>2026-04-04T11:24:06Z</time></trkpt><trkpt lat="44.49885942922517" lon="9.72101686066055"><ele>546.4</ele><time>2026-04-04T11:24:08Z</time></trkpt><trkpt lat="44.49879469834568" lon="9.720931812236163"><ele>544.6</ele><time>2026-04-04T11:24:10Z</time></trkpt><trkpt lat="44.49869672181881" lon="9.720884421511666"><ele>542.8</ele><time>2026-04-04T11:24:12Z</time></trkpt><trkpt lat="44.498612302292784" lon="9.720762656264906"><ele>541.0</ele><time>2026-04-04T11:24:14Z</time></trkpt><trkpt lat="44.498587918838275" lon="9.720634508838565"><ele>537.0</ele><time>2026-04-04T11:24:16Z</time></trkpt><trkpt lat="44.49856066098242" lon="9.720495011099263"><ele>533.0</ele><time>2026-04-04T11:24:18Z</time></trkpt><trkpt lat="44.49848905186713" lon="9.7203783908889"><ele>529.0</ele><time>2026-04-04T11:24:20Z</time></trkpt><trkpt lat="44.49846149254895" lon="9.720233608551675"><ele>525.0</ele><time>2026-04-04T11:24:22Z</time></trkpt><trkpt lat="44.498456981467825" lon="9.72014551751821"><ele>521.0</ele><time>2026-04-04T11:24:23Z</time></trkpt><trkpt lat="44.498436318458204" lon="9.719983793694281"><ele>519.2</ele><time>2026-04-04T11:24:25Z</time></trkpt><trkpt lat="44.4983524103441" lon="9.71986306774154"><ele>517.4000000000001</ele><time>2026-04-04T11:24:27Z</time></trkpt><trkpt lat="44.498324807965304" lon="9.719740535982584"><ele>515.6</ele><time>2026-04-04T11:24:30Z</time></trkpt><trkpt lat="44.49830943897258" lon="9.719627210942232"><ele>513.8000000000001</ele><time>2026-04-04T11:24:32Z</time></trkpt><trkpt lat="44.498240179434696" lon="9.719538197423091"><ele>512.0</ele><time>2026-04-04T11:24:34Z</time></trkpt><trkpt lat="44.49817279739712" lon="9.719419085124512"><ele>510.20000000000005</ele><time>2026-04-04T11:24:36Z</time></trkpt><trkpt lat="44.498165702077486" lon="9.719283364262333"><ele>508.40000000000003</ele><time>2026-04-04T11:24:38Z</time></trkpt><trkpt lat="44.498079151305554" lon="9.719208432554387"><ele>506.59999999999997</ele><time>2026-04-04T11:24:40Z</time></trkpt><trkpt lat="44.49801422151981" lon="9.719136020045283"><ele>504.79999999999995</ele><time>2026-04-04T11:24:42Z</time></trkpt><trkpt lat="44.498056267555775" lon="9.718998654793165"><ele>503.0</ele><time>2026-04-04T11:24:44Z</time></trkpt><trkpt lat="44.4981301602519" lon="9.71888935855963"><ele>503.0</ele><time>2026-04-04T11:24:46Z</time></trkpt><trkpt lat="44.49817579239291" lon="9.718787509789694"><ele>502.99999999999994</ele><time>2026-04-04T11:24:48Z</time></trkpt><trkpt lat="44.49819460029593" lon="9.71866008407018"><ele>502.99999999999994</ele><time>2026-04-04T11:24:50Z</time></trkpt><trkpt lat="44.498243882481134" lon="9.718525903412875"><ele>503.0</ele><time>2026-04-04T11:24:52Z</time></trkpt><trkpt lat="44.49823008143295" lon="9.718357617925967"><ele>503.0</ele><time>2026-04-04T11:24:54Z</time></trkpt><trkpt lat="44.49819993264023" lon="9.718278105237571"><ele>501.3333333333333</ele><time>2026-04-04T11:24:55Z</time></trkpt><trkpt lat="44.49813012573304" lon="9.718181482376854"><ele>499.66666666666663</ele><time>2026-04-04T11:24:57Z</time></trkpt><trkpt lat="44.49805127793949" lon="9.71820096765598"><ele>498.0</ele><time>2026-04-04T11:25:01Z</time></trkpt><trkpt lat="44.49799708965493" lon="9.718150239386606"><ele>496.33333333333337</ele><time>2026-04-04T11:25:03Z</time></trkpt><trkpt lat="44.49792110821688" lon="9.718144464378067"><ele>494.6666666666667</ele><time>2026-04-04T11:25:06Z</time></trkpt><trkpt lat="44.497852641288794" lon="9.718102364982647"><ele>493.0</ele><time>2026-04-04T11:25:09Z</time></trkpt><trkpt lat="44.4978594328362" lon="9.718013074835396"><ele>493.0</ele><time>2026-04-04T11:25:12Z</time></trkpt><trkpt lat="44.4979354752185" lon="9.71794873251627"><ele>492.99999999999994</ele><time>2026-04-04T11:25:14Z</time></trkpt><trkpt lat="44.49800927232949" lon="9.71789565088811"><ele>492.99999999999994</ele><time>2026-04-04T11:25:15Z</time></trkpt><trkpt lat="44.49811563043738" lon="9.717853885888019"><ele>493.0</ele><time>2026-04-04T11:25:17Z</time></trkpt><trkpt lat="44.498192951489756" lon="9.717779681118635"><ele>493.0</ele><time>2026-04-04T11:25:19Z</time></trkpt><trkpt lat="44.49828576803188" lon="9.717654714372454"><ele>495.00000000000006</ele><time>2026-04-04T11:25:21Z</time></trkpt><trkpt lat="44.49832194838106" lon="9.71758223448693"><ele>497.0</ele><time>2026-04-04T11:25:22Z</time></trkpt><trkpt lat="44.49838188988485" lon="9.717451914217408"><ele>499.0</ele><time>2026-04-04T11:25:24Z</time></trkpt><trkpt lat="44.49841529453801" lon="9.717327642979097"><ele>501.0</ele><time>2026-04-04T11:25:26Z</time></trkpt><trkpt lat="44.498366928298786" lon="9.717225775938713"><ele>503.00000000000006</ele><time>2026-04-04T11:25:28Z</time></trkpt><trkpt lat="44.4982900385044" lon="9.717190305230371"><ele>505.0</ele><time>2026-04-04T11:25:30Z</time></trkpt><trkpt lat="44.49816395453897" lon="9.717179910073622"><ele>505.0</ele><time>2026-04-04T11:25:32Z</time></trkpt><trkpt lat="44.49805910057759" lon="9.71715024792354"><ele>505.0</ele><time>2026-04-04T11:25:34Z</time></trkpt><trkpt lat="44.49796568928805" lon="9.717046623646306"><ele>505.0</ele><time>2026-04-04T11:25:36Z</time></trkpt><trkpt lat="44.497951980602046" lon="9.716959578528384"><ele>505.0</ele><time>2026-04-04T11:25:37Z</time></trkpt><trkpt lat="44.497934966945955" lon="9.716854604934001"><ele>505.0</ele><time>2026-04-04T11:25:38Z</time></trkpt><trkpt lat="44.497932645221724" lon="9.716687109647324"><ele>507.71428571428567</ele><time>2026-04-04T11:25:40Z</time></trkpt><trkpt lat="44.497936708200704" lon="9.716593366397278"><ele>510.4285714285714</ele><time>2026-04-04T11:25:41Z</time></trkpt><trkpt lat="44.497947312637315" lon="9.716494548041107"><ele>513.1428571428571</ele><time>2026-04-04T11:25:42Z</time></trkpt><trkpt lat="44.497975804071125" lon="9.716401522169964"><ele>515.8571428571429</ele><time>2026-04-04T11:25:43Z</time></trkpt><trkpt lat="44.49801459505386" lon="9.716330134837406"><ele>518.5714285714287</ele><time>2026-04-04T11:25:44Z</time></trkpt><trkpt lat="44.49806805370239" lon="9.716275060445353"><ele>521.2857142857143</ele><time>2026-04-04T11:25:45Z</time></trkpt><trkpt lat="44.498128173510736" lon="9.716246334135992"><ele>524.0</ele><time>2026-04-04T11:25:46Z</time></trkpt><trkpt lat="44.49824585818329" lon="9.716210847566119"><ele>524.0</ele><time>2026-04-04T11:25:48Z</time></trkpt><trkpt lat="44.498341337446675" lon="9.71620915752336"><ele>524.0</ele><time>2026-04-04T11:25:50Z</time></trkpt><trkpt lat="44.49842738874992" lon="9.71622059153033"><ele>524.0</ele><time>2026-04-04T11:25:52Z</time></trkpt><trkpt lat="44.498537321796405" lon="9.716219648402664"><ele>524.0</ele><time>2026-04-04T11:25:54Z</time></trkpt><trkpt lat="44.49860568621931" lon="9.716235904067524"><ele>524.0</ele><time>2026-04-04T11:25:55Z</time></trkpt><trkpt lat="44.498728884861" lon="9.716283558650305"><ele>526.75</ele><time>2026-04-04T11:25:57Z</time></trkpt><trkpt lat="44.498807481280096" lon="9.716335320747207"><ele>529.5</ele><time>2026-04-04T11:25:59Z</time></trkpt><trkpt lat="44.498987793172994" lon="9.716470581642263"><ele>532.25</ele><time>2026-04-04T11:26:03Z</time></trkpt><trkpt lat="44.49908712105485" lon="9.716447767948333"><ele>535.0</ele><time>2026-04-04T11:26:05Z</time></trkpt><trkpt lat="44.49914012496761" lon="9.716387640593592"><ele>535.0</ele><time>2026-04-04T11:26:06Z</time></trkpt><trkpt lat="44.499180196574514" lon="9.716312706069731"><ele>535.0</ele><time>2026-04-04T11:26:07Z</time></trkpt><trkpt lat="44.49921884912668" lon="9.716222528604254"><ele>535.0</ele><time>2026-04-04T11:26:08Z</time></trkpt><trkpt lat="44.49925618142192" lon="9.716137290288305"><ele>535.0</ele><time>2026-04-04T11:26:09Z</time></trkpt><trkpt lat="44.499340325486855" lon="9.716012696697083"><ele>535.0</ele><time>2026-04-04T11:26:11Z</time></trkpt><trkpt lat="44.49939988300107" lon="9.715950836266977"><ele>535.0</ele><time>2026-04-04T11:26:12Z</time></trkpt><trkpt lat="44.499483623223774" lon="9.71586074659138"><ele>538.0</ele><time>2026-04-04T11:26:14Z</time></trkpt><trkpt lat="44.499543282585485" lon="9.715752893038566"><ele>541.0</ele><time>2026-04-04T11:26:16Z</time></trkpt><trkpt lat="44.49956765968799" lon="9.71566285141951"><ele>544.0</ele><time>2026-04-04T11:26:19Z</time></trkpt><trkpt lat="44.49947987741767" lon="9.715575361445103"><ele>547.0</ele><time>2026-04-04T11:26:22Z</time></trkpt><trkpt lat="44.499406966637586" lon="9.715623636675675"><ele>550.0</ele><time>2026-04-04T11:26:23Z</time></trkpt><trkpt lat="44.49930203695736" lon="9.715560401635994"><ele>550.0</ele><time>2026-04-04T11:26:25Z</time></trkpt><trkpt lat="44.49921494634361" lon="9.715511493099253"><ele>550.0</ele><time>2026-04-04T11:26:26Z</time></trkpt><trkpt lat="44.49912753392927" lon="9.715394405789555"><ele>550.0</ele><time>2026-04-04T11:26:28Z</time></trkpt><trkpt lat="44.49910807623245" lon="9.715203034188782"><ele>550.0</ele><time>2026-04-04T11:26:30Z</time></trkpt><trkpt lat="44.499093271479786" lon="9.715082931072372"><ele>550.0</ele><time>2026-04-04T11:26:31Z</time></trkpt><trkpt lat="44.499111959110614" lon="9.714904041751511"><ele>551.1428571428571</ele><time>2026-04-04T11:26:33Z</time></trkpt><trkpt lat="44.49911989189256" lon="9.71480285217132"><ele>552.2857142857142</ele><time>2026-04-04T11:26:34Z</time></trkpt><trkpt lat="44.499105912826536" lon="9.714696604995838"><ele>553.4285714285713</ele><time>2026-04-04T11:26:35Z</time></trkpt><trkpt lat="44.49907481281406" lon="9.714613228250268"><ele>554.5714285714286</ele><time>2026-04-04T11:26:36Z</time></trkpt><trkpt lat="44.499000435384254" lon="9.714522721495799"><ele>555.7142857142857</ele><time>2026-04-04T11:26:38Z</time></trkpt><trkpt lat="44.4989519114143" lon="9.714464842049885"><ele>556.8571428571428</ele><time>2026-04-04T11:26:39Z</time></trkpt><trkpt lat="44.4989002153939" lon="9.714405223175797"><ele>558.0</ele><time>2026-04-04T11:26:40Z</time></trkpt><trkpt lat="44.49885850154155" lon="9.714313793948484"><ele>558.5</ele><time>2026-04-04T11:26:41Z</time></trkpt><trkpt lat="44.4988167749532" lon="9.714217725828675"><ele>559.0</ele><time>2026-04-04T11:26:42Z</time></trkpt><trkpt lat="44.498772597713774" lon="9.714133145409104"><ele>559.5</ele><time>2026-04-04T11:26:43Z</time></trkpt><trkpt lat="44.49871134850757" lon="9.713970315967323"><ele>560.0</ele><time>2026-04-04T11:26:45Z</time></trkpt><trkpt lat="44.498677082690364" lon="9.71386926776508"><ele>560.5</ele><time>2026-04-04T11:26:46Z</time></trkpt><trkpt lat="44.498659668832" lon="9.713766937368037"><ele>561.0</ele><time>2026-04-04T11:26:47Z</time></trkpt><trkpt lat="44.498637610789054" lon="9.713656191882325"><ele>559.1666666666666</ele><time>2026-04-04T11:26:48Z</time></trkpt><trkpt lat="44.498612149405574" lon="9.713538229753347"><ele>557.3333333333334</ele><time>2026-04-04T11:26:49Z</time></trkpt><trkpt lat="44.4985935681127" lon="9.713438523503427"><ele>555.5</ele><time>2026-04-04T11:26:50Z</time></trkpt><trkpt lat="44.49856686917034" lon="9.713351283590619"><ele>553.6666666666667</ele><time>2026-04-04T11:26:51Z</time></trkpt><trkpt lat="44.498549132681255" lon="9.71324431347312"><ele>551.8333333333334</ele><time>2026-04-04T11:26:52Z</time></trkpt><trkpt lat="44.49852986533299" lon="9.713151804794705"><ele>550.0</ele><time>2026-04-04T11:26:53Z</time></trkpt><trkpt lat="44.498526387196506" lon="9.712992967463311"><ele>550.0</ele><time>2026-04-04T11:26:55Z</time></trkpt><trkpt lat="44.49856010891323" lon="9.712855469326813"><ele>550.0</ele><time>2026-04-04T11:26:57Z</time></trkpt><trkpt lat="44.49859468499267" lon="9.712714434133526"><ele>550.0</ele><time>2026-04-04T11:26:59Z</time></trkpt><trkpt lat="44.49863888327693" lon="9.712610262348239"><ele>550.0</ele><time>2026-04-04T11:27:01Z</time></trkpt><trkpt lat="44.49866881824221" lon="9.712526077212534"><ele>550.0</ele><time>2026-04-04T11:27:03Z</time></trkpt><trkpt lat="44.49864302789148" lon="9.712428906352567"><ele>550.0</ele><time>2026-04-04T11:27:06Z</time></trkpt><trkpt lat="44.49871944938681" lon="9.712479907252066"><ele>550.2</ele><time>2026-04-04T11:27:17Z</time></trkpt><trkpt lat="44.498795961365204" lon="9.712513104436455"><ele>550.4</ele><time>2026-04-04T11:27:20Z</time></trkpt><trkpt lat="44.49889134830577" lon="9.712604475290892"><ele>550.6</ele><time>2026-04-04T11:27:21Z</time></trkpt><trkpt lat="44.49899019766541" lon="9.712696089069933"><ele>550.8</ele><time>2026-04-04T11:27:22Z</time></trkpt><trkpt lat="44.49908980725757" lon="9.712752662346485"><ele>551.0</ele><time>2026-04-04T11:27:23Z</time></trkpt><trkpt lat="44.499204256872424" lon="9.712833807781358"><ele>553.0</ele><time>2026-04-04T11:27:24Z</time></trkpt><trkpt lat="44.49931670906835" lon="9.7128901587376"><ele>555.0</ele><time>2026-04-04T11:27:25Z</time></trkpt><trkpt lat="44.49941773178569" lon="9.71292991875467"><ele>557.0</ele><time>2026-04-04T11:27:26Z</time></trkpt><trkpt lat="44.49952659541975" lon="9.713009668585544"><ele>559.0</ele><time>2026-04-04T11:27:27Z</time></trkpt><trkpt lat="44.49963238247013" lon="9.713087392818903"><ele>559.0</ele><time>2026-04-04T11:27:28Z</time></trkpt><trkpt lat="44.49974103439331" lon="9.713198340607228"><ele>559.0</ele><time>2026-04-04T11:27:29Z</time></trkpt><trkpt lat="44.4998347087542" lon="9.713314554892813"><ele>559.0</ele><time>2026-04-04T11:27:30Z</time></trkpt><trkpt lat="44.49993324556559" lon="9.713454560434945"><ele>559.0</ele><time>2026-04-04T11:27:31Z</time></trkpt><trkpt lat="44.50003185442578" lon="9.713557974728362"><ele>560.4</ele><time>2026-04-04T11:27:32Z</time></trkpt><trkpt lat="44.50012380166653" lon="9.71360156018241"><ele>561.8</ele><time>2026-04-04T11:27:33Z</time></trkpt><trkpt lat="44.50023281269387" lon="9.713654668757991"><ele>563.2</ele><time>2026-04-04T11:27:34Z</time></trkpt><trkpt lat="44.500338871601635" lon="9.713682813597595"><ele>564.6</ele><time>2026-04-04T11:27:35Z</time></trkpt><trkpt lat="44.50044624087177" lon="9.713699213319552"><ele>566.0</ele><time>2026-04-04T11:27:36Z</time></trkpt><trkpt lat="44.5005630562684" lon="9.713733283447004"><ele>566.0</ele><time>2026-04-04T11:27:37Z</time></trkpt><trkpt lat="44.5006781185206" lon="9.713776822992944"><ele>566.0</ele><time>2026-04-04T11:27:38Z</time></trkpt><trkpt lat="44.50078198048893" lon="9.713831664484513"><ele>566.0</ele><time>2026-04-04T11:27:39Z</time></trkpt><trkpt lat="44.500877009462336" lon="9.713899252414766"><ele>566.0</ele><time>2026-04-04T11:27:40Z</time></trkpt><trkpt lat="44.500955568624654" lon="9.713959021453206"><ele>566.0</ele><time>2026-04-04T11:27:41Z</time></trkpt><trkpt lat="44.50104268175182" lon="9.714017253222723"><ele>566.0</ele><time>2026-04-04T11:27:42Z</time></trkpt><trkpt lat="44.501131732327515" lon="9.714070775111699"><ele>566.0</ele><time>2026-04-04T11:27:43Z</time></trkpt><trkpt lat="44.501213413997874" lon="9.714130521339227"><ele>566.0</ele><time>2026-04-04T11:27:44Z</time></trkpt><trkpt lat="44.50128544814871" lon="9.714155129729743"><ele>566.0</ele><time>2026-04-04T11:27:45Z</time></trkpt><trkpt lat="44.5013512784832" lon="9.714159312745045"><ele>566.0</ele><time>2026-04-04T11:27:46Z</time></trkpt><trkpt lat="44.50142835702634" lon="9.714165503233572"><ele>566.0</ele><time>2026-04-04T11:27:47Z</time></trkpt><trkpt lat="44.50150721497975" lon="9.714170339567918"><ele>565.6</ele><time>2026-04-04T11:27:48Z</time></trkpt><trkpt lat="44.50160181247642" lon="9.71417423370381"><ele>565.2</ele><time>2026-04-04T11:27:49Z</time></trkpt><trkpt lat="44.50170930748828" lon="9.714172809492835"><ele>564.8</ele><time>2026-04-04T11:27:50Z</time></trkpt><trkpt lat="44.50180755394638" lon="9.714177836748352"><ele>564.4</ele><time>2026-04-04T11:27:51Z</time></trkpt><trkpt lat="44.50190992281918" lon="9.714189057748483"><ele>564.0</ele><time>2026-04-04T11:27:52Z</time></trkpt><trkpt lat="44.50201601543312" lon="9.714201603868885"><ele>564.0</ele><time>2026-04-04T11:27:53Z</time></trkpt><trkpt lat="44.50211928417391" lon="9.714213689454935"><ele>564.0</ele><time>2026-04-04T11:27:54Z</time></trkpt><trkpt lat="44.50222308022908" lon="9.71424555328453"><ele>564.0</ele><time>2026-04-04T11:27:55Z</time></trkpt><trkpt lat="44.502325608077484" lon="9.714269661801902"><ele>564.0</ele><time>2026-04-04T11:27:56Z</time></trkpt><trkpt lat="44.50243079267391" lon="9.714301143584102"><ele>564.0</ele><time>2026-04-04T11:27:57Z</time></trkpt><trkpt lat="44.5025219906288" lon="9.714322889890694"><ele>564.0</ele><time>2026-04-04T11:27:58Z</time></trkpt><trkpt lat="44.502627269423044" lon="9.714373340632148"><ele>564.0</ele><time>2026-04-04T11:27:59Z</time></trkpt><trkpt lat="44.50273138871544" lon="9.714401810972465"><ele>564.0</ele><time>2026-04-04T11:28:00Z</time></trkpt><trkpt lat="44.50283209086648" lon="9.714418404205546"><ele>564.0</ele><time>2026-04-04T11:28:01Z</time></trkpt><trkpt lat="44.50293660969598" lon="9.714442461143992"><ele>564.0</ele><time>2026-04-04T11:28:02Z</time></trkpt><trkpt lat="44.50303930651158" lon="9.714463077864325"><ele>564.2</ele><time>2026-04-04T11:28:03Z</time></trkpt><trkpt lat="44.503141553440656" lon="9.714484953898902"><ele>564.4</ele><time>2026-04-04T11:28:04Z</time></trkpt><trkpt lat="44.50322865457125" lon="9.714526858146202"><ele>564.6</ele><time>2026-04-04T11:28:05Z</time></trkpt><trkpt lat="44.5033029829899" lon="9.7145605154061"><ele>564.8</ele><time>2026-04-04T11:28:06Z</time></trkpt><trkpt lat="44.50337188365288" lon="9.714594503291561"><ele>565.0</ele><time>2026-04-04T11:28:07Z</time></trkpt><trkpt lat="44.503487290494256" lon="9.714638149216665"><ele>565.0</ele><time>2026-04-04T11:28:09Z</time></trkpt><trkpt lat="44.50356802063948" lon="9.71467085421168"><ele>565.0</ele><time>2026-04-04T11:28:11Z</time></trkpt><trkpt lat="44.503591760083374" lon="9.714582208089642"><ele>565.0</ele><time>2026-04-04T11:28:14Z</time></trkpt><trkpt lat="44.50352580616871" lon="9.714544756849762"><ele>565.0</ele><time>2026-04-04T11:28:16Z</time></trkpt><trkpt lat="44.503471312516716" lon="9.714469507654005"><ele>565.0</ele><time>2026-04-04T11:28:18Z</time></trkpt><trkpt lat="44.50345262207318" lon="9.714338746002543"><ele>565.0</ele><time>2026-04-04T11:28:20Z</time></trkpt><trkpt lat="44.50350357560537" lon="9.714003522991746"><ele>565.0</ele><time>2026-04-04T11:28:21Z</time></trkpt><trkpt lat="44.50350661526113" lon="9.713823813442058"><ele>565.0</ele><time>2026-04-04T11:28:23Z</time></trkpt><trkpt lat="44.50351302457367" lon="9.713644204205515"><ele>565.0</ele><time>2026-04-04T11:28:25Z</time></trkpt><trkpt lat="44.50351645543676" lon="9.713553874662676"><ele>565.0</ele><time>2026-04-04T11:28:26Z</time></trkpt><trkpt lat="44.503523558924755" lon="9.713381969319684"><ele>565.0</ele><time>2026-04-04T11:28:28Z</time></trkpt><trkpt lat="44.50351666409239" lon="9.71328023375645"><ele>562.8</ele><time>2026-04-04T11:28:29Z</time></trkpt><trkpt lat="44.503506281805855" lon="9.713183372089114"><ele>560.6</ele><time>2026-04-04T11:28:30Z</time></trkpt><trkpt lat="44.5034779862127" lon="9.713012341164317"><ele>558.4</ele><time>2026-04-04T11:28:32Z</time></trkpt><trkpt lat="44.503443141629624" lon="9.712840479912888"><ele>556.2</ele><time>2026-04-04T11:28:34Z</time></trkpt><trkpt lat="44.503406431693115" lon="9.7126832724832"><ele>554.0</ele><time>2026-04-04T11:28:36Z</time></trkpt><trkpt lat="44.50339172644943" lon="9.712508759443706"><ele>552.0</ele><time>2026-04-04T11:28:38Z</time></trkpt><trkpt lat="44.503406928256084" lon="9.7123445968023"><ele>550.0</ele><time>2026-04-04T11:28:40Z</time></trkpt><trkpt lat="44.503461516049924" lon="9.7122210186102"><ele>548.0</ele><time>2026-04-04T11:28:42Z</time></trkpt><trkpt lat="44.50356579858457" lon="9.712161852723053"><ele>546.0</ele><time>2026-04-04T11:28:44Z</time></trkpt><trkpt lat="44.50366438266356" lon="9.712108388687314"><ele>544.0</ele><time>2026-04-04T11:28:46Z</time></trkpt><trkpt lat="44.50371717835311" lon="9.712037476376747"><ele>544.6666666666667</ele><time>2026-04-04T11:28:47Z</time></trkpt><trkpt lat="44.50377863521124" lon="9.711964096507568"><ele>545.3333333333334</ele><time>2026-04-04T11:28:48Z</time></trkpt><trkpt lat="44.50382527617181" lon="9.711888722567926"><ele>546.0</ele><time>2026-04-04T11:28:49Z</time></trkpt><trkpt lat="44.50392076982749" lon="9.711812280853797"><ele>546.6666666666666</ele><time>2026-04-04T11:28:51Z</time></trkpt><trkpt lat="44.503971387005095" lon="9.71174472440958"><ele>547.3333333333333</ele><time>2026-04-04T11:28:52Z</time></trkpt><trkpt lat="44.504052256197916" lon="9.71162799411958"><ele>548.0</ele><time>2026-04-04T11:28:54Z</time></trkpt><trkpt lat="44.504144466714784" lon="9.711518313897706"><ele>545.8</ele><time>2026-04-04T11:28:56Z</time></trkpt><trkpt lat="44.50422799381969" lon="9.711405379552126"><ele>543.5999999999999</ele><time>2026-04-04T11:28:58Z</time></trkpt><trkpt lat="44.5042656685883" lon="9.711328411737425"><ele>541.4000000000001</ele><time>2026-04-04T11:28:59Z</time></trkpt><trkpt lat="44.50427523123653" lon="9.71123739597814"><ele>539.2</ele><time>2026-04-04T11:29:00Z</time></trkpt><trkpt lat="44.50424900739597" lon="9.711076418420665"><ele>537.0</ele><time>2026-04-04T11:29:02Z</time></trkpt><trkpt lat="44.504247213151096" lon="9.710924473272696"><ele>535.0</ele><time>2026-04-04T11:29:04Z</time></trkpt><trkpt lat="44.50431588401306" lon="9.710781085776729"><ele>533.0</ele><time>2026-04-04T11:29:06Z</time></trkpt><trkpt lat="44.50435928394434" lon="9.710714768068339"><ele>531.0</ele><time>2026-04-04T11:29:07Z</time></trkpt><trkpt lat="44.50440591994742" lon="9.710572298740777"><ele>529.0</ele><time>2026-04-04T11:29:09Z</time></trkpt><trkpt lat="44.50439112380432" lon="9.710417915515686"><ele>527.0</ele><time>2026-04-04T11:29:11Z</time></trkpt><trkpt lat="44.50437722759269" lon="9.710250595554914"><ele>523.75</ele><time>2026-04-04T11:29:13Z</time></trkpt><trkpt lat="44.504381126134255" lon="9.710090459342146"><ele>520.5</ele><time>2026-04-04T11:29:15Z</time></trkpt><trkpt lat="44.504380346955855" lon="9.70992034021174"><ele>517.25</ele><time>2026-04-04T11:29:17Z</time></trkpt><trkpt lat="44.50439205214402" lon="9.709758132463449"><ele>514.0</ele><time>2026-04-04T11:29:19Z</time></trkpt><trkpt lat="44.50441863397028" lon="9.70958634429289"><ele>514.0</ele><time>2026-04-04T11:29:21Z</time></trkpt><trkpt lat="44.504433769692206" lon="9.709494377224484"><ele>514.0</ele><time>2026-04-04T11:29:22Z</time></trkpt><trkpt lat="44.50444288310577" lon="9.709402884486234"><ele>514.0</ele><time>2026-04-04T11:29:23Z</time></trkpt><trkpt lat="44.504451230136894" lon="9.709308818471245"><ele>514.0</ele><time>2026-04-04T11:29:24Z</time></trkpt><trkpt lat="44.50446381144849" lon="9.70921491049784"><ele>514.0</ele><time>2026-04-04T11:29:25Z</time></trkpt><trkpt lat="44.504480555115286" lon="9.709123180922624"><ele>514.0</ele><time>2026-04-04T11:29:26Z</time></trkpt><trkpt lat="44.50449676811121" lon="9.709033371830511"><ele>514.0</ele><time>2026-04-04T11:29:27Z</time></trkpt><trkpt lat="44.50451444683704" lon="9.708939330922632"><ele>511.2</ele><time>2026-04-04T11:29:28Z</time></trkpt><trkpt lat="44.50453216405142" lon="9.70884833125502"><ele>508.4</ele><time>2026-04-04T11:29:29Z</time></trkpt><trkpt lat="44.504566311646535" lon="9.708674578911957"><ele>505.6</ele><time>2026-04-04T11:29:31Z</time></trkpt><trkpt lat="44.504618994999305" lon="9.708512212070504"><ele>502.8</ele><time>2026-04-04T11:29:33Z</time></trkpt><trkpt lat="44.50464951910399" lon="9.70842863046034"><ele>500.0</ele><time>2026-04-04T11:29:34Z</time></trkpt><trkpt lat="44.50468024007085" lon="9.70834325061467"><ele>497.4</ele><time>2026-04-04T11:29:35Z</time></trkpt><trkpt lat="44.504722218107915" lon="9.708259870241212"><ele>494.8</ele><time>2026-04-04T11:29:36Z</time></trkpt><trkpt lat="44.50476523354428" lon="9.708178278028502"><ele>492.20000000000005</ele><time>2026-04-04T11:29:37Z</time></trkpt><trkpt lat="44.50484678965333" lon="9.708061296491515"><ele>489.6</ele><time>2026-04-04T11:29:39Z</time></trkpt><trkpt lat="44.504903297869305" lon="9.707949908358994"><ele>487.0</ele><time>2026-04-04T11:29:41Z</time></trkpt><trkpt lat="44.504855399608736" lon="9.707842724020542"><ele>487.0</ele><time>2026-04-04T11:29:43Z</time></trkpt><trkpt lat="44.50475673830934" lon="9.707774584551279"><ele>487.00000000000006</ele><time>2026-04-04T11:29:45Z</time></trkpt><trkpt lat="44.50469681414788" lon="9.70765340339359"><ele>487.00000000000006</ele><time>2026-04-04T11:29:47Z</time></trkpt><trkpt lat="44.50462120445532" lon="9.70753637019194"><ele>487.0</ele><time>2026-04-04T11:29:49Z</time></trkpt><trkpt lat="44.504582619538255" lon="9.707404029475626"><ele>487.0</ele><time>2026-04-04T11:29:51Z</time></trkpt><trkpt lat="44.50453969342833" lon="9.707264142116907"><ele>486.0</ele><time>2026-04-04T11:29:53Z</time></trkpt><trkpt lat="44.50449988305008" lon="9.70711975230812"><ele>485.00000000000006</ele><time>2026-04-04T11:29:55Z</time></trkpt><trkpt lat="44.50449239793091" lon="9.706974037377606"><ele>484.00000000000006</ele><time>2026-04-04T11:29:57Z</time></trkpt><trkpt lat="44.5045182579013" lon="9.706862509042526"><ele>483.0</ele><time>2026-04-04T11:29:59Z</time></trkpt><trkpt lat="44.504556586067956" lon="9.706775313389576"><ele>482.0</ele><time>2026-04-04T11:30:01Z</time></trkpt><trkpt lat="44.5045870947758" lon="9.706666251440135"><ele>481.66666666666663</ele><time>2026-04-04T11:30:03Z</time></trkpt><trkpt lat="44.50458348084674" lon="9.70656046169276"><ele>481.3333333333333</ele><time>2026-04-04T11:30:05Z</time></trkpt><trkpt lat="44.5045882780664" lon="9.7064408718806"><ele>481.0</ele><time>2026-04-04T11:30:07Z</time></trkpt><trkpt lat="44.504613525077275" lon="9.706359146714243"><ele>480.66666666666663</ele><time>2026-04-04T11:30:10Z</time></trkpt><trkpt lat="44.504687488413275" lon="9.70620869908258"><ele>480.3333333333333</ele><time>2026-04-04T11:30:13Z</time></trkpt><trkpt lat="44.504689808278734" lon="9.706103050859289"><ele>480.0</ele><time>2026-04-04T11:30:15Z</time></trkpt><trkpt lat="44.50465021355978" lon="9.706013902665662"><ele>479.8571428571429</ele><time>2026-04-04T11:30:18Z</time></trkpt><trkpt lat="44.50467529792514" lon="9.705906587164177"><ele>479.71428571428567</ele><time>2026-04-04T11:30:21Z</time></trkpt><trkpt lat="44.504692031739154" lon="9.705815811385014"><ele>479.57142857142856</ele><time>2026-04-04T11:30:48Z</time></trkpt><trkpt lat="44.5047451166957" lon="9.705742366420038"><ele>479.42857142857144</ele><time>2026-04-04T11:31:02Z</time></trkpt><trkpt lat="44.50480450324262" lon="9.705678498302197"><ele>479.28571428571433</ele><time>2026-04-04T11:31:06Z</time></trkpt><trkpt lat="44.50484599066911" lon="9.705601448335782"><ele>479.1428571428571</ele><time>2026-04-04T11:31:49Z</time></trkpt><trkpt lat="44.504880349167415" lon="9.705525966532424"><ele>479.0</ele><time>2026-04-04T11:32:05Z</time></trkpt><trkpt lat="44.50495504282689" lon="9.705370019504336"><ele>479.0</ele><time>2026-04-04T11:32:07Z</time></trkpt><trkpt lat="44.50501776085347" lon="9.70526565377922"><ele>479.0</ele><time>2026-04-04T11:32:08Z</time></trkpt><trkpt lat="44.50508119383306" lon="9.705157711421935"><ele>479.0</ele><time>2026-04-04T11:32:09Z</time></trkpt><trkpt lat="44.50514330547897" lon="9.7050515810241"><ele>479.0</ele><time>2026-04-04T11:32:10Z</time></trkpt><trkpt lat="44.50520263532937" lon="9.704961825025949"><ele>479.0</ele><time>2026-04-04T11:32:11Z</time></trkpt><trkpt lat="44.505269745927876" lon="9.70488993652172"><ele>478.99999999999994</ele><time>2026-04-04T11:32:12Z</time></trkpt><trkpt lat="44.50533466201418" lon="9.704832539342478"><ele>479.0</ele><time>2026-04-04T11:32:13Z</time></trkpt><trkpt lat="44.50539912535788" lon="9.70477066910145"><ele>479.0</ele><time>2026-04-04T11:32:14Z</time></trkpt><trkpt lat="44.505463874074174" lon="9.704702356992074"><ele>479.0</ele><time>2026-04-04T11:32:15Z</time></trkpt><trkpt lat="44.505533908652275" lon="9.704614127252867"><ele>478.99999999999994</ele><time>2026-04-04T11:32:16Z</time></trkpt><trkpt lat="44.50559886903799" lon="9.704501616081627"><ele>479.0</ele><time>2026-04-04T11:32:17Z</time></trkpt><trkpt lat="44.505648866038285" lon="9.704383237055541"><ele>479.79999999999995</ele><time>2026-04-04T11:32:18Z</time></trkpt><trkpt lat="44.50568816588022" lon="9.70425259623959"><ele>480.59999999999997</ele><time>2026-04-04T11:32:19Z</time></trkpt><trkpt lat="44.50572476335818" lon="9.704123957705995"><ele>481.4</ele><time>2026-04-04T11:32:20Z</time></trkpt><trkpt lat="44.50578297003044" lon="9.70401056478534"><ele>482.2</ele><time>2026-04-04T11:32:21Z</time></trkpt><trkpt lat="44.50585417967643" lon="9.703914407776661"><ele>483.0</ele><time>2026-04-04T11:32:22Z</time></trkpt><trkpt lat="44.50592385110767" lon="9.70381183942608"><ele>483.0</ele><time>2026-04-04T11:32:23Z</time></trkpt><trkpt lat="44.50598895919934" lon="9.703712149067622"><ele>482.99999999999994</ele><time>2026-04-04T11:32:24Z</time></trkpt><trkpt lat="44.50606374943263" lon="9.703637809075907"><ele>482.99999999999994</ele><time>2026-04-04T11:32:25Z</time></trkpt><trkpt lat="44.50615052474526" lon="9.70358644292352"><ele>483.0</ele><time>2026-04-04T11:32:26Z</time></trkpt><trkpt lat="44.50624679924446" lon="9.703546233780942"><ele>483.0</ele><time>2026-04-04T11:32:27Z</time></trkpt><trkpt lat="44.50632338023393" lon="9.703470414023943"><ele>483.4</ele><time>2026-04-04T11:32:28Z</time></trkpt><trkpt lat="44.5063866412221" lon="9.70337216346839"><ele>483.79999999999995</ele><time>2026-04-04T11:32:29Z</time></trkpt><trkpt lat="44.50644892095842" lon="9.703262503324224"><ele>484.2</ele><time>2026-04-04T11:32:30Z</time></trkpt><trkpt lat="44.50651397177222" lon="9.70317122800084"><ele>484.6</ele><time>2026-04-04T11:32:31Z</time></trkpt><trkpt lat="44.5065558678203" lon="9.703096015626535"><ele>485.0</ele><time>2026-04-04T11:32:32Z</time></trkpt><trkpt lat="44.506581966154904" lon="9.70293450175444"><ele>484.99999999999994</ele><time>2026-04-04T11:32:34Z</time></trkpt><trkpt lat="44.50657389690267" lon="9.702843467701042"><ele>485.0</ele><time>2026-04-04T11:32:35Z</time></trkpt><trkpt lat="44.50652594003068" lon="9.702763112714367"><ele>485.0</ele><time>2026-04-04T11:32:36Z</time></trkpt><trkpt lat="44.50647987264434" lon="9.702671653741143"><ele>485.0</ele><time>2026-04-04T11:32:37Z</time></trkpt><trkpt lat="44.50643814582815" lon="9.702578141084361"><ele>484.99999999999994</ele><time>2026-04-04T11:32:38Z</time></trkpt><trkpt lat="44.50639343713633" lon="9.702470901871406"><ele>485.0</ele><time>2026-04-04T11:32:39Z</time></trkpt><trkpt lat="44.50634585303322" lon="9.702365038890884"><ele>484.99999999999994</ele><time>2026-04-04T11:32:40Z</time></trkpt><trkpt lat="44.50629590374665" lon="9.702255172116907"><ele>485.0</ele><time>2026-04-04T11:32:41Z</time></trkpt><trkpt lat="44.50623830406575" lon="9.702173607999587"><ele>485.0</ele><time>2026-04-04T11:32:42Z</time></trkpt><trkpt lat="44.50620104794041" lon="9.702093845997439"><ele>485.0</ele><time>2026-04-04T11:32:43Z</time></trkpt><trkpt lat="44.50613719779653" lon="9.701954630415091"><ele>484.99999999999994</ele><time>2026-04-04T11:32:45Z</time></trkpt><trkpt lat="44.50610108718072" lon="9.701871737971052"><ele>485.0</ele><time>2026-04-04T11:32:46Z</time></trkpt><trkpt lat="44.506047958515026" lon="9.701766842001794"><ele>485.4</ele><time>2026-04-04T11:32:47Z</time></trkpt><trkpt lat="44.505993923685956" lon="9.70165561322307"><ele>485.8</ele><time>2026-04-04T11:32:48Z</time></trkpt><trkpt lat="44.505951498923615" lon="9.701526904395442"><ele>486.20000000000005</ele><time>2026-04-04T11:32:49Z</time></trkpt><trkpt lat="44.50588914173189" lon="9.701409879897668"><ele>486.6</ele><time>2026-04-04T11:32:50Z</time></trkpt><trkpt lat="44.50586228163592" lon="9.701272120454512"><ele>487.0</ele><time>2026-04-04T11:32:51Z</time></trkpt><trkpt lat="44.505872147069056" lon="9.701154244478113"><ele>488.20000000000005</ele><time>2026-04-04T11:32:52Z</time></trkpt><trkpt lat="44.50585748897541" lon="9.7010175041057"><ele>489.40000000000003</ele><time>2026-04-04T11:32:53Z</time></trkpt><trkpt lat="44.505863022392354" lon="9.700877919346372"><ele>490.59999999999997</ele><time>2026-04-04T11:32:54Z</time></trkpt><trkpt lat="44.50586007394727" lon="9.700729891617117"><ele>491.79999999999995</ele><time>2026-04-04T11:32:55Z</time></trkpt><trkpt lat="44.50585912585842" lon="9.700571848646586"><ele>493.0</ele><time>2026-04-04T11:32:56Z</time></trkpt><trkpt lat="44.50586007263366" lon="9.700422008730172"><ele>493.0</ele><time>2026-04-04T11:32:57Z</time></trkpt><trkpt lat="44.50585772313067" lon="9.700307378637184"><ele>492.99999999999994</ele><time>2026-04-04T11:32:58Z</time></trkpt><trkpt lat="44.505857610800426" lon="9.700183579203932"><ele>492.99999999999994</ele><time>2026-04-04T11:32:59Z</time></trkpt><trkpt lat="44.50585892482479" lon="9.700055551892898"><ele>493.0</ele><time>2026-04-04T11:33:00Z</time></trkpt><trkpt lat="44.505856652902544" lon="9.699929433885325"><ele>493.0</ele><time>2026-04-04T11:33:01Z</time></trkpt><trkpt lat="44.505858723753306" lon="9.699787025100612"><ele>493.6666666666667</ele><time>2026-04-04T11:33:02Z</time></trkpt><trkpt lat="44.50585703178903" lon="9.699656263545743"><ele>494.33333333333337</ele><time>2026-04-04T11:33:03Z</time></trkpt><trkpt lat="44.50587314704303" lon="9.699534873727856"><ele>495.0</ele><time>2026-04-04T11:33:04Z</time></trkpt><trkpt lat="44.50587287332863" lon="9.69943784132794"><ele>495.66666666666663</ele><time>2026-04-04T11:33:05Z</time></trkpt><trkpt lat="44.505871615308195" lon="9.699329044611877"><ele>496.3333333333333</ele><time>2026-04-04T11:33:06Z</time></trkpt><trkpt lat="44.5058703427914" lon="9.699218994269483"><ele>497.0</ele><time>2026-04-04T11:33:07Z</time></trkpt><trkpt lat="44.50586916003552" lon="9.699116706164313"><ele>499.0</ele><time>2026-04-04T11:33:08Z</time></trkpt><trkpt lat="44.50581358319149" lon="9.699011426872824"><ele>501.00000000000006</ele><time>2026-04-04T11:33:09Z</time></trkpt><trkpt lat="44.505751547779674" lon="9.698953426104902"><ele>503.00000000000006</ele><time>2026-04-04T11:33:10Z</time></trkpt><trkpt lat="44.50568653953028" lon="9.698890042332842"><ele>505.0</ele><time>2026-04-04T11:33:11Z</time></trkpt><trkpt lat="44.50556886082433" lon="9.698928496716748"><ele>507.0</ele><time>2026-04-04T11:33:12Z</time></trkpt><trkpt lat="44.50546128402928" lon="9.698923079561462"><ele>507.0</ele><time>2026-04-04T11:33:13Z</time></trkpt><trkpt lat="44.50534301157686" lon="9.698919722371011"><ele>507.00000000000006</ele><time>2026-04-04T11:33:14Z</time></trkpt><trkpt lat="44.50524515617849" lon="9.69892543880604"><ele>507.00000000000006</ele><time>2026-04-04T11:33:15Z</time></trkpt><trkpt lat="44.50515242676144" lon="9.69895249657879"><ele>507.0</ele><time>2026-04-04T11:33:16Z</time></trkpt><trkpt lat="44.50506280657714" lon="9.698983910067636"><ele>507.0</ele><time>2026-04-04T11:33:17Z</time></trkpt><trkpt lat="44.50497775931219" lon="9.699017933051397"><ele>507.0</ele><time>2026-04-04T11:33:18Z</time></trkpt><trkpt lat="44.50488674498951" lon="9.69900055969354"><ele>507.00000000000006</ele><time>2026-04-04T11:33:19Z</time></trkpt><trkpt lat="44.5047945355307" lon="9.698977479147366"><ele>507.00000000000006</ele><time>2026-04-04T11:33:20Z</time></trkpt><trkpt lat="44.50470025939596" lon="9.698915935853291"><ele>507.0</ele><time>2026-04-04T11:33:21Z</time></trkpt><trkpt lat="44.50460939833039" lon="9.698892073081133"><ele>507.0</ele><time>2026-04-04T11:33:22Z</time></trkpt><trkpt lat="44.50452204455358" lon="9.698871002572773"><ele>507.0</ele><time>2026-04-04T11:33:23Z</time></trkpt><trkpt lat="44.504430525395" lon="9.698887810865806"><ele>507.00000000000006</ele><time>2026-04-04T11:33:24Z</time></trkpt><trkpt lat="44.50433156260114" lon="9.69889119802079"><ele>507.00000000000006</ele><time>2026-04-04T11:33:25Z</time></trkpt><trkpt lat="44.50423970739934" lon="9.698880898408836"><ele>507.0</ele><time>2026-04-04T11:33:26Z</time></trkpt><trkpt lat="44.50415126181061" lon="9.698851462226532"><ele>507.0</ele><time>2026-04-04T11:33:27Z</time></trkpt><trkpt lat="44.50405857717095" lon="9.698794538264647"><ele>507.0</ele><time>2026-04-04T11:33:28Z</time></trkpt><trkpt lat="44.503963284930606" lon="9.698737058431352"><ele>507.00000000000006</ele><time>2026-04-04T11:33:29Z</time></trkpt><trkpt lat="44.50386879855417" lon="9.698687016779754"><ele>507.00000000000006</ele><time>2026-04-04T11:33:30Z</time></trkpt><trkpt lat="44.50376644983556" lon="9.698647230777327"><ele>507.0</ele><time>2026-04-04T11:33:31Z</time></trkpt><trkpt lat="44.50366161095467" lon="9.698614237972706"><ele>507.0</ele><time>2026-04-04T11:33:32Z</time></trkpt><trkpt lat="44.50355295265615" lon="9.698599728866308"><ele>507.0</ele><time>2026-04-04T11:33:33Z</time></trkpt><trkpt lat="44.50344929601406" lon="9.69861590877177"><ele>507.00000000000006</ele><time>2026-04-04T11:33:34Z</time></trkpt><trkpt lat="44.50334868892647" lon="9.698656248692004"><ele>507.00000000000006</ele><time>2026-04-04T11:33:35Z</time></trkpt><trkpt lat="44.503256894952855" lon="9.698713693069886"><ele>507.0</ele><time>2026-04-04T11:33:36Z</time></trkpt><trkpt lat="44.50317042292108" lon="9.6987672535655"><ele>507.0</ele><time>2026-04-04T11:33:37Z</time></trkpt><trkpt lat="44.5030964477576" lon="9.698840340020661"><ele>507.0</ele><time>2026-04-04T11:33:38Z</time></trkpt><trkpt lat="44.50301293618138" lon="9.698910270842065"><ele>507.00000000000006</ele><time>2026-04-04T11:33:39Z</time></trkpt><trkpt lat="44.502936712300595" lon="9.69897484376071"><ele>507.00000000000006</ele><time>2026-04-04T11:33:40Z</time></trkpt><trkpt lat="44.502866142057826" lon="9.69901677571588"><ele>507.0</ele><time>2026-04-04T11:33:41Z</time></trkpt><trkpt lat="44.50275582624347" lon="9.699050463818224"><ele>507.0</ele><time>2026-04-04T11:33:43Z</time></trkpt><trkpt lat="44.502651223541555" lon="9.699092397508343"><ele>509.0</ele><time>2026-04-04T11:33:45Z</time></trkpt><trkpt lat="44.50258525376468" lon="9.699054232218618"><ele>511.00000000000006</ele><time>2026-04-04T11:33:47Z</time></trkpt><trkpt lat="44.50269617573931" lon="9.69887530404265"><ele>513.0</ele><time>2026-04-04T11:33:49Z</time></trkpt><trkpt lat="44.50275768133245" lon="9.698764550494186"><ele>515.0</ele><time>2026-04-04T11:33:50Z</time></trkpt><trkpt lat="44.50281810514736" lon="9.698639742756319"><ele>517.0</ele><time>2026-04-04T11:33:51Z</time></trkpt><trkpt lat="44.50286215371518" lon="9.69848613063719"><ele>516.6</ele><time>2026-04-04T11:33:52Z</time></trkpt><trkpt lat="44.50290113742179" lon="9.698337296648297"><ele>516.2</ele><time>2026-04-04T11:33:53Z</time></trkpt><trkpt lat="44.50294053071594" lon="9.698203541054184"><ele>515.8</ele><time>2026-04-04T11:33:54Z</time></trkpt><trkpt lat="44.502980536678216" lon="9.698070868701643"><ele>515.4</ele><time>2026-04-04T11:33:55Z</time></trkpt><trkpt lat="44.5030237770544" lon="9.697928077310378"><ele>515.0</ele><time>2026-04-04T11:33:56Z</time></trkpt><trkpt lat="44.5030681407783" lon="9.697781576519867"><ele>518.0</ele><time>2026-04-04T11:33:57Z</time></trkpt><trkpt lat="44.503112287769056" lon="9.697637275534813"><ele>521.0</ele><time>2026-04-04T11:33:58Z</time></trkpt><trkpt lat="44.50316599320513" lon="9.697476547177978"><ele>524.0</ele><time>2026-04-04T11:33:59Z</time></trkpt><trkpt lat="44.503205027909964" lon="9.697336915272242"><ele>527.0</ele><time>2026-04-04T11:34:00Z</time></trkpt><trkpt lat="44.50326212876054" lon="9.69723064929048"><ele>530.0</ele><time>2026-04-04T11:34:01Z</time></trkpt><trkpt lat="44.503330424693125" lon="9.697141881235027"><ele>530.0</ele><time>2026-04-04T11:34:02Z</time></trkpt><trkpt lat="44.503431044402916" lon="9.697119212728152"><ele>530.0</ele><time>2026-04-04T11:34:03Z</time></trkpt><trkpt lat="44.50353653606079" lon="9.697105569670496"><ele>530.0</ele><time>2026-04-04T11:34:04Z</time></trkpt><trkpt lat="44.50365065247886" lon="9.697085443901099"><ele>530.0</ele><time>2026-04-04T11:34:05Z</time></trkpt><trkpt lat="44.50376599604791" lon="9.697111020036573"><ele>530.0</ele><time>2026-04-04T11:34:06Z</time></trkpt><trkpt lat="44.50388520715165" lon="9.697142982741862"><ele>529.75</ele><time>2026-04-04T11:34:07Z</time></trkpt><trkpt lat="44.50400567598442" lon="9.697155813188372"><ele>529.5</ele><time>2026-04-04T11:34:08Z</time></trkpt><trkpt lat="44.50412503787691" lon="9.697116797013205"><ele>529.25</ele><time>2026-04-04T11:34:09Z</time></trkpt><trkpt lat="44.50423151881474" lon="9.697052718371062"><ele>529.0</ele><time>2026-04-04T11:34:10Z</time></trkpt><trkpt lat="44.50432964908117" lon="9.69702530391711"><ele>529.0</ele><time>2026-04-04T11:34:11Z</time></trkpt><trkpt lat="44.504401894303" lon="9.697020577232006"><ele>529.0</ele><time>2026-04-04T11:34:12Z</time></trkpt><trkpt lat="44.50449723843682" lon="9.6970290079194"><ele>529.0</ele><time>2026-04-04T11:34:13Z</time></trkpt><trkpt lat="44.5045674642944" lon="9.697152422172792"><ele>529.0</ele><time>2026-04-04T11:34:14Z</time></trkpt><trkpt lat="44.50466865089567" lon="9.697232969315012"><ele>529.0</ele><time>2026-04-04T11:34:15Z</time></trkpt><trkpt lat="44.504754629142056" lon="9.697341778418425"><ele>530.6</ele><time>2026-04-04T11:34:16Z</time></trkpt><trkpt lat="44.50485907046056" lon="9.697413574337952"><ele>532.2</ele><time>2026-04-04T11:34:17Z</time></trkpt><trkpt lat="44.50493891988918" lon="9.697456058738172"><ele>533.8000000000001</ele><time>2026-04-04T11:34:18Z</time></trkpt><trkpt lat="44.50502558605496" lon="9.697451804543022"><ele>535.4</ele><time>2026-04-04T11:34:19Z</time></trkpt><trkpt lat="44.5051278086798" lon="9.697433033096019"><ele>537.0</ele><time>2026-04-04T11:34:20Z</time></trkpt><trkpt lat="44.505224285588184" lon="9.697337063362816"><ele>537.0</ele><time>2026-04-04T11:34:21Z</time></trkpt><trkpt lat="44.50530799145424" lon="9.697221771308552"><ele>537.0</ele><time>2026-04-04T11:34:22Z</time></trkpt><trkpt lat="44.50539738283239" lon="9.697100914736607"><ele>537.0</ele><time>2026-04-04T11:34:23Z</time></trkpt><trkpt lat="44.5054804838035" lon="9.696967732365867"><ele>537.0</ele><time>2026-04-04T11:34:24Z</time></trkpt><trkpt lat="44.50557153556014" lon="9.696860473568353"><ele>541.8000000000001</ele><time>2026-04-04T11:34:25Z</time></trkpt><trkpt lat="44.505657882180046" lon="9.696811900705963"><ele>546.6</ele><time>2026-04-04T11:34:26Z</time></trkpt><trkpt lat="44.50574733085477" lon="9.696802147180234"><ele>551.4000000000001</ele><time>2026-04-04T11:34:27Z</time></trkpt><trkpt lat="44.50587382620834" lon="9.696791402840189"><ele>556.2</ele><time>2026-04-04T11:34:28Z</time></trkpt><trkpt lat="44.505992929840396" lon="9.696793468468929"><ele>561.0</ele><time>2026-04-04T11:34:29Z</time></trkpt><trkpt lat="44.50612304224994" lon="9.69680695871315"><ele>561.0</ele><time>2026-04-04T11:34:30Z</time></trkpt><trkpt lat="44.50623457133945" lon="9.696822441934243"><ele>561.0</ele><time>2026-04-04T11:34:31Z</time></trkpt><trkpt lat="44.50633393480481" lon="9.69682673495005"><ele>561.0</ele><time>2026-04-04T11:34:32Z</time></trkpt><trkpt lat="44.506415237658054" lon="9.696796633840865"><ele>561.0</ele><time>2026-04-04T11:34:33Z</time></trkpt><trkpt lat="44.50650077131396" lon="9.696775460284755"><ele>561.0</ele><time>2026-04-04T11:34:34Z</time></trkpt><trkpt lat="44.50658161808749" lon="9.696673345927845"><ele>558.75</ele><time>2026-04-04T11:34:35Z</time></trkpt><trkpt lat="44.50665142624254" lon="9.69655962548645"><ele>556.5</ele><time>2026-04-04T11:34:36Z</time></trkpt><trkpt lat="44.50670267573492" lon="9.696411475146261"><ele>554.25</ele><time>2026-04-04T11:34:37Z</time></trkpt><trkpt lat="44.50677047108871" lon="9.696282516864473"><ele>552.0</ele><time>2026-04-04T11:34:38Z</time></trkpt><trkpt lat="44.50683822388857" lon="9.696156519332611"><ele>554.5</ele><time>2026-04-04T11:34:39Z</time></trkpt><trkpt lat="44.50692238668004" lon="9.696055402547278"><ele>557.0</ele><time>2026-04-04T11:34:40Z</time></trkpt><trkpt lat="44.507033822263594" lon="9.695984708059775"><ele>559.5</ele><time>2026-04-04T11:34:41Z</time></trkpt><trkpt lat="44.50714997102466" lon="9.695940483126149"><ele>562.0</ele><time>2026-04-04T11:34:42Z</time></trkpt><trkpt lat="44.50726444665278" lon="9.695930319705807"><ele>562.0</ele><time>2026-04-04T11:34:43Z</time></trkpt><trkpt lat="44.50738494715481" lon="9.695932635965766"><ele>562.0</ele><time>2026-04-04T11:34:44Z</time></trkpt><trkpt lat="44.50750706669731" lon="9.695929832471515"><ele>562.0</ele><time>2026-04-04T11:34:45Z</time></trkpt><trkpt lat="44.50762401864979" lon="9.695889056080956"><ele>562.0</ele><time>2026-04-04T11:34:46Z</time></trkpt><trkpt lat="44.507727114274054" lon="9.69580039722495"><ele>562.0</ele><time>2026-04-04T11:34:47Z</time></trkpt><trkpt lat="44.50783775808084" lon="9.695672012116802"><ele>562.0</ele><time>2026-04-04T11:34:48Z</time></trkpt><trkpt lat="44.507925503239264" lon="9.695535401243294"><ele>562.0</ele><time>2026-04-04T11:34:49Z</time></trkpt><trkpt lat="44.50802667377279" lon="9.695397592407984"><ele>562.0</ele><time>2026-04-04T11:34:50Z</time></trkpt><trkpt lat="44.508130649370734" lon="9.695258535312224"><ele>563.75</ele><time>2026-04-04T11:34:51Z</time></trkpt><trkpt lat="44.508231585874384" lon="9.695130370304838"><ele>565.5</ele><time>2026-04-04T11:34:52Z</time></trkpt><trkpt lat="44.5083334386896" lon="9.695003470901893"><ele>567.25</ele><time>2026-04-04T11:34:53Z</time></trkpt><trkpt lat="44.508420529161704" lon="9.694889844026772"><ele>569.0</ele><time>2026-04-04T11:34:54Z</time></trkpt><trkpt lat="44.50851007391686" lon="9.694788730878274"><ele>569.0</ele><time>2026-04-04T11:34:55Z</time></trkpt><trkpt lat="44.50860226134541" lon="9.694719592851643"><ele>569.0</ele><time>2026-04-04T11:34:56Z</time></trkpt><trkpt lat="44.50871184731688" lon="9.694668169444315"><ele>569.0</ele><time>2026-04-04T11:34:57Z</time></trkpt><trkpt lat="44.50883382769176" lon="9.69461127594374"><ele>569.0</ele><time>2026-04-04T11:34:58Z</time></trkpt><trkpt lat="44.508956302552676" lon="9.694555131362842"><ele>567.5</ele><time>2026-04-04T11:34:59Z</time></trkpt><trkpt lat="44.50908186406654" lon="9.694496755344655"><ele>566.0</ele><time>2026-04-04T11:35:00Z</time></trkpt><trkpt lat="44.50920667668037" lon="9.694438727528546"><ele>564.5</ele><time>2026-04-04T11:35:01Z</time></trkpt><trkpt lat="44.50933133731564" lon="9.69437833573782"><ele>563.0</ele><time>2026-04-04T11:35:02Z</time></trkpt><trkpt lat="44.50945186690361" lon="9.69431826934825"><ele>567.25</ele><time>2026-04-04T11:35:03Z</time></trkpt><trkpt lat="44.50956952227003" lon="9.69426296305225"><ele>571.5</ele><time>2026-04-04T11:35:04Z</time></trkpt><trkpt lat="44.50968677016548" lon="9.694213197539197"><ele>575.75</ele><time>2026-04-04T11:35:05Z</time></trkpt><trkpt lat="44.509788029703806" lon="9.694185313106956"><ele>580.0</ele><time>2026-04-04T11:35:06Z</time></trkpt><trkpt lat="44.50989649474646" lon="9.694165709426539"><ele>580.25</ele><time>2026-04-04T11:35:07Z</time></trkpt><trkpt lat="44.510008522697056" lon="9.694130142283537"><ele>580.5</ele><time>2026-04-04T11:35:08Z</time></trkpt><trkpt lat="44.51012389460768" lon="9.694141872527785"><ele>580.75</ele><time>2026-04-04T11:35:09Z</time></trkpt><trkpt lat="44.510240864682935" lon="9.694131501556601"><ele>581.0</ele><time>2026-04-04T11:35:10Z</time></trkpt><trkpt lat="44.510352487269685" lon="9.694109711093676"><ele>583.0</ele><time>2026-04-04T11:35:11Z</time></trkpt><trkpt lat="44.510455241274386" lon="9.694043950050618"><ele>585.0</ele><time>2026-04-04T11:35:12Z</time></trkpt><trkpt lat="44.5105454135676" lon="9.693935158556654"><ele>587.0</ele><time>2026-04-04T11:35:13Z</time></trkpt><trkpt lat="44.51063781466443" lon="9.693822200030489"><ele>589.0</ele><time>2026-04-04T11:35:14Z</time></trkpt><trkpt lat="44.51072868477656" lon="9.693715157822599"><ele>589.0</ele><time>2026-04-04T11:35:15Z</time></trkpt><trkpt lat="44.51082422794041" lon="9.693606816233498"><ele>589.0</ele><time>2026-04-04T11:35:16Z</time></trkpt><trkpt lat="44.51091482393261" lon="9.693500482785263"><ele>589.0</ele><time>2026-04-04T11:35:17Z</time></trkpt><trkpt lat="44.511000242880485" lon="9.69340327342817"><ele>589.0</ele><time>2026-04-04T11:35:18Z</time></trkpt><trkpt lat="44.511092277787384" lon="9.69331479932046"><ele>589.0</ele><time>2026-04-04T11:35:19Z</time></trkpt><trkpt lat="44.51119767804744" lon="9.693249785850377"><ele>589.0</ele><time>2026-04-04T11:35:20Z</time></trkpt><trkpt lat="44.51131080535255" lon="9.69318230229239"><ele>589.0</ele><time>2026-04-04T11:35:21Z</time></trkpt><trkpt lat="44.51142435986918" lon="9.693114208641507"><ele>589.0</ele><time>2026-04-04T11:35:22Z</time></trkpt><trkpt lat="44.51152844344951" lon="9.693026632232513"><ele>590.25</ele><time>2026-04-04T11:35:23Z</time></trkpt><trkpt lat="44.51164471134147" lon="9.692983902065054"><ele>591.5</ele><time>2026-04-04T11:35:24Z</time></trkpt><trkpt lat="44.51175596965578" lon="9.692912136989927"><ele>592.75</ele><time>2026-04-04T11:35:25Z</time></trkpt><trkpt lat="44.51186035154321" lon="9.692836435685791"><ele>594.0</ele><time>2026-04-04T11:35:26Z</time></trkpt><trkpt lat="44.51195779822557" lon="9.692737643177509"><ele>594.0</ele><time>2026-04-04T11:35:27Z</time></trkpt><trkpt lat="44.51202020233919" lon="9.692589552565416"><ele>594.0</ele><time>2026-04-04T11:35:28Z</time></trkpt><trkpt lat="44.51205199585323" lon="9.692422450916567"><ele>594.0</ele><time>2026-04-04T11:35:29Z</time></trkpt><trkpt lat="44.51209178080501" lon="9.692263217560258"><ele>594.0</ele><time>2026-04-04T11:35:30Z</time></trkpt><trkpt lat="44.512123420289115" lon="9.692102892777207"><ele>598.0</ele><time>2026-04-04T11:35:31Z</time></trkpt><trkpt lat="44.51216040101237" lon="9.691942849978433"><ele>602.0</ele><time>2026-04-04T11:35:32Z</time></trkpt><trkpt lat="44.5121709935759" lon="9.69176903301947"><ele>606.0</ele><time>2026-04-04T11:35:33Z</time></trkpt><trkpt lat="44.512164681628924" lon="9.691598665158244"><ele>610.0</ele><time>2026-04-04T11:35:34Z</time></trkpt><trkpt lat="44.51215021906288" lon="9.691432203678428"><ele>611.25</ele><time>2026-04-04T11:35:35Z</time></trkpt><trkpt lat="44.51213196353333" lon="9.691275230795666"><ele>612.5</ele><time>2026-04-04T11:35:36Z</time></trkpt><trkpt lat="44.51211191652612" lon="9.69110849675737"><ele>613.75</ele><time>2026-04-04T11:35:37Z</time></trkpt><trkpt lat="44.512091431449306" lon="9.690950332942286"><ele>615.0</ele><time>2026-04-04T11:35:38Z</time></trkpt><trkpt lat="44.51205604637422" lon="9.69078780263105"><ele>612.8</ele><time>2026-04-04T11:35:39Z</time></trkpt><trkpt lat="44.51205498357175" lon="9.690626604984823"><ele>610.6</ele><time>2026-04-04T11:35:40Z</time></trkpt><trkpt lat="44.512025474754175" lon="9.690475983540809"><ele>608.4</ele><time>2026-04-04T11:35:41Z</time></trkpt><trkpt lat="44.512019749234184" lon="9.690337675955927"><ele>606.2</ele><time>2026-04-04T11:35:42Z</time></trkpt><trkpt lat="44.51201339224427" lon="9.690225936162284"><ele>604.0</ele><time>2026-04-04T11:35:43Z</time></trkpt><trkpt lat="44.512011919381486" lon="9.690128151836593"><ele>604.0</ele><time>2026-04-04T11:35:44Z</time></trkpt><trkpt lat="44.51201560795358" lon="9.690035514354275"><ele>604.0</ele><time>2026-04-04T11:35:45Z</time></trkpt><trkpt lat="44.512075489126566" lon="9.68991910046022"><ele>604.0</ele><time>2026-04-04T11:35:47Z</time></trkpt><trkpt lat="44.51214941750866" lon="9.689900898046822"><ele>604.0</ele><time>2026-04-04T11:35:48Z</time></trkpt><trkpt lat="44.51222217621744" lon="9.689987742180808"><ele>604.0</ele><time>2026-04-04T11:35:49Z</time></trkpt><trkpt lat="44.51231186874244" lon="9.690043605527798"><ele>604.0</ele><time>2026-04-04T11:35:50Z</time></trkpt><trkpt lat="44.51240605116226" lon="9.690076605749404"><ele>608.0</ele><time>2026-04-04T11:35:51Z</time></trkpt><trkpt lat="44.51252126850379" lon="9.69005342357705"><ele>612.0</ele><time>2026-04-04T11:35:52Z</time></trkpt><trkpt lat="44.512638589048386" lon="9.690026156366915"><ele>616.0</ele><time>2026-04-04T11:35:53Z</time></trkpt><trkpt lat="44.51274998535814" lon="9.6899781022582"><ele>620.0</ele><time>2026-04-04T11:35:54Z</time></trkpt><trkpt lat="44.512865893671325" lon="9.689925114583728"><ele>623.0</ele><time>2026-04-04T11:35:55Z</time></trkpt><trkpt lat="44.51297835614695" lon="9.689887244275413"><ele>626.0</ele><time>2026-04-04T11:35:56Z</time></trkpt><trkpt lat="44.51308822544902" lon="9.689855298305034"><ele>629.0</ele><time>2026-04-04T11:35:57Z</time></trkpt><trkpt lat="44.513184833910714" lon="9.689819718289668"><ele>632.0</ele><time>2026-04-04T11:35:58Z</time></trkpt><trkpt lat="44.51325731402458" lon="9.68979086346694"><ele>635.0</ele><time>2026-04-04T11:35:59Z</time></trkpt><trkpt lat="44.513322562941035" lon="9.689748008929808"><ele>635.0</ele><time>2026-04-04T11:36:00Z</time></trkpt><trkpt lat="44.51338463570542" lon="9.689674322916368"><ele>635.0</ele><time>2026-04-04T11:36:01Z</time></trkpt><trkpt lat="44.51343555922516" lon="9.689573901440053"><ele>635.0</ele><time>2026-04-04T11:36:02Z</time></trkpt><trkpt lat="44.51346529742429" lon="9.689458135082077"><ele>635.0</ele><time>2026-04-04T11:36:03Z</time></trkpt><trkpt lat="44.513476468052005" lon="9.68931265767552"><ele>635.0</ele><time>2026-04-04T11:36:04Z</time></trkpt><trkpt lat="44.51346437280778" lon="9.689171609886424"><ele>634.4</ele><time>2026-04-04T11:36:05Z</time></trkpt><trkpt lat="44.51346246332906" lon="9.68901682026573"><ele>633.8</ele><time>2026-04-04T11:36:06Z</time></trkpt><trkpt lat="44.5134679812104" lon="9.688869733936404"><ele>633.2</ele><time>2026-04-04T11:36:07Z</time></trkpt><trkpt lat="44.5134794303368" lon="9.688751319584943"><ele>632.6</ele><time>2026-04-04T11:36:08Z</time></trkpt><trkpt lat="44.51348912756521" lon="9.688661499181894"><ele>632.0</ele><time>2026-04-04T11:36:09Z</time></trkpt><trkpt lat="44.513526022599194" lon="9.6885235323093"><ele>632.0</ele><time>2026-04-04T11:36:11Z</time></trkpt><trkpt lat="44.51356754877729" lon="9.68845352403783"><ele>632.0</ele><time>2026-04-04T11:36:12Z</time></trkpt><trkpt lat="44.513575281089295" lon="9.68834247426191"><ele>632.0</ele><time>2026-04-04T11:36:13Z</time></trkpt><trkpt lat="44.51359267093036" lon="9.688234802383885"><ele>632.0</ele><time>2026-04-04T11:36:14Z</time></trkpt><trkpt lat="44.5136280425502" lon="9.688124206285005"><ele>632.0</ele><time>2026-04-04T11:36:15Z</time></trkpt><trkpt lat="44.51369606810988" lon="9.688009241966364"><ele>632.0</ele><time>2026-04-04T11:36:16Z</time></trkpt><trkpt lat="44.5137983848139" lon="9.687935534746739"><ele>634.0</ele><time>2026-04-04T11:36:17Z</time></trkpt><trkpt lat="44.51390643080519" lon="9.687907466876176"><ele>636.0</ele><time>2026-04-04T11:36:18Z</time></trkpt><trkpt lat="44.51402135038909" lon="9.687938165556249"><ele>638.0</ele><time>2026-04-04T11:36:19Z</time></trkpt><trkpt lat="44.51413109559865" lon="9.687951166862792"><ele>640.0</ele><time>2026-04-04T11:36:20Z</time></trkpt><trkpt lat="44.51423402311281" lon="9.687992898727423"><ele>642.0</ele><time>2026-04-04T11:36:21Z</time></trkpt><trkpt lat="44.514350804836525" lon="9.687994449989196"><ele>642.0</ele><time>2026-04-04T11:36:22Z</time></trkpt><trkpt lat="44.51446711139466" lon="9.687949090692177"><ele>642.0</ele><time>2026-04-04T11:36:23Z</time></trkpt><trkpt lat="44.514585685778556" lon="9.687880592195363"><ele>642.0</ele><time>2026-04-04T11:36:24Z</time></trkpt><trkpt lat="44.51470659831525" lon="9.687814969586675"><ele>642.0</ele><time>2026-04-04T11:36:25Z</time></trkpt><trkpt lat="44.51482243117733" lon="9.687732349298019"><ele>637.25</ele><time>2026-04-04T11:36:26Z</time></trkpt><trkpt lat="44.51492822825147" lon="9.687661331656516"><ele>632.5</ele><time>2026-04-04T11:36:27Z</time></trkpt><trkpt lat="44.51502898659584" lon="9.687576586410131"><ele>627.75</ele><time>2026-04-04T11:36:28Z</time></trkpt><trkpt lat="44.51513964196172" lon="9.687555339382873"><ele>623.0</ele><time>2026-04-04T11:36:29Z</time></trkpt><trkpt lat="44.515243949898256" lon="9.687514848146016"><ele>623.0</ele><time>2026-04-04T11:36:30Z</time></trkpt><trkpt lat="44.51535834597763" lon="9.687506755206385"><ele>623.0</ele><time>2026-04-04T11:36:31Z</time></trkpt><trkpt lat="44.51546750816372" lon="9.687481321796993"><ele>623.0</ele><time>2026-04-04T11:36:32Z</time></trkpt><trkpt lat="44.51558426820494" lon="9.68745861668038"><ele>623.0</ele><time>2026-04-04T11:36:33Z</time></trkpt><trkpt lat="44.515696037908015" lon="9.687441949396066"><ele>624.0</ele><time>2026-04-04T11:36:34Z</time></trkpt><trkpt lat="44.515805338770264" lon="9.687383843353974"><ele>625.0</ele><time>2026-04-04T11:36:35Z</time></trkpt><trkpt lat="44.51590820934239" lon="9.687291785984524"><ele>626.0</ele><time>2026-04-04T11:36:36Z</time></trkpt><trkpt lat="44.51599618641093" lon="9.687160297348056"><ele>627.0</ele><time>2026-04-04T11:36:37Z</time></trkpt><trkpt lat="44.51604058607228" lon="9.686979867626087"><ele>624.0</ele><time>2026-04-04T11:36:38Z</time></trkpt><trkpt lat="44.51608707811289" lon="9.686800125555328"><ele>621.0</ele><time>2026-04-04T11:36:39Z</time></trkpt><trkpt lat="44.51612760415757" lon="9.686629778187106"><ele>618.0</ele><time>2026-04-04T11:36:40Z</time></trkpt><trkpt lat="44.51617199518107" lon="9.686469000409797"><ele>615.0</ele><time>2026-04-04T11:36:41Z</time></trkpt><trkpt lat="44.51621035359" lon="9.686315894206327"><ele>615.0</ele><time>2026-04-04T11:36:42Z</time></trkpt><trkpt lat="44.516224219351294" lon="9.686175894395225"><ele>615.0</ele><time>2026-04-04T11:36:43Z</time></trkpt><trkpt lat="44.5162262203901" lon="9.686033453447358"><ele>615.0</ele><time>2026-04-04T11:36:44Z</time></trkpt><trkpt lat="44.51617699288044" lon="9.685881904109587"><ele>615.0</ele><time>2026-04-04T11:36:45Z</time></trkpt><trkpt lat="44.51611309186745" lon="9.685731811882704"><ele>615.0</ele><time>2026-04-04T11:36:46Z</time></trkpt><trkpt lat="44.516036837893786" lon="9.685595309819867"><ele>614.75</ele><time>2026-04-04T11:36:47Z</time></trkpt><trkpt lat="44.51598142284699" lon="9.685441806187914"><ele>614.5</ele><time>2026-04-04T11:36:48Z</time></trkpt><trkpt lat="44.51592047059423" lon="9.68528459106983"><ele>614.25</ele><time>2026-04-04T11:36:49Z</time></trkpt><trkpt lat="44.515864507370104" lon="9.685126811008335"><ele>614.0</ele><time>2026-04-04T11:36:50Z</time></trkpt><trkpt lat="44.51584186645468" lon="9.684953198576377"><ele>615.75</ele><time>2026-04-04T11:36:51Z</time></trkpt><trkpt lat="44.51581297513459" lon="9.6848009499501"><ele>617.5</ele><time>2026-04-04T11:36:52Z</time></trkpt><trkpt lat="44.51576233680723" lon="9.684630099367734"><ele>619.25</ele><time>2026-04-04T11:36:53Z</time></trkpt><trkpt lat="44.51570157128938" lon="9.684498776827628"><ele>621.0</ele><time>2026-04-04T11:36:54Z</time></trkpt><trkpt lat="44.515615521383666" lon="9.684367393044365"><ele>621.0</ele><time>2026-04-04T11:36:55Z</time></trkpt><trkpt lat="44.515501692800186" lon="9.684282159195776"><ele>621.0</ele><time>2026-04-04T11:36:56Z</time></trkpt><trkpt lat="44.51541052254231" lon="9.68418137276114"><ele>621.0</ele><time>2026-04-04T11:36:57Z</time></trkpt><trkpt lat="44.515310780357424" lon="9.684104317505794"><ele>621.0</ele><time>2026-04-04T11:36:58Z</time></trkpt><trkpt lat="44.515215781939844" lon="9.684031649350587"><ele>619.0</ele><time>2026-04-04T11:36:59Z</time></trkpt><trkpt lat="44.515142471911254" lon="9.683975276027551"><ele>617.0</ele><time>2026-04-04T11:37:00Z</time></trkpt><trkpt lat="44.515075806852316" lon="9.683941585795113"><ele>615.0</ele><time>2026-04-04T11:37:01Z</time></trkpt><trkpt lat="44.51502976269382" lon="9.683877708739713"><ele>613.0</ele><time>2026-04-04T11:37:02Z</time></trkpt><trkpt lat="44.515005612671594" lon="9.683720987845469"><ele>611.0</ele><time>2026-04-04T11:37:04Z</time></trkpt><trkpt lat="44.51506412598004" lon="9.68365001224868"><ele>609.0</ele><time>2026-04-04T11:37:05Z</time></trkpt><trkpt lat="44.5151525764696" lon="9.683632016221914"><ele>609.0</ele><time>2026-04-04T11:37:06Z</time></trkpt><trkpt lat="44.51524045973823" lon="9.68367889733956"><ele>609.0</ele><time>2026-04-04T11:37:07Z</time></trkpt><trkpt lat="44.515340083982544" lon="9.683682620572672"><ele>609.0</ele><time>2026-04-04T11:37:08Z</time></trkpt><trkpt lat="44.51543938646894" lon="9.683715388989983"><ele>609.0</ele><time>2026-04-04T11:37:09Z</time></trkpt><trkpt lat="44.51554984605455" lon="9.683722364431773"><ele>609.0</ele><time>2026-04-04T11:37:10Z</time></trkpt><trkpt lat="44.51566127616204" lon="9.683696320160857"><ele>609.0</ele><time>2026-04-04T11:37:11Z</time></trkpt><trkpt lat="44.515760742604755" lon="9.683660539278387"><ele>609.0</ele><time>2026-04-04T11:37:12Z</time></trkpt><trkpt lat="44.51584696542693" lon="9.683615751467261"><ele>609.0</ele><time>2026-04-04T11:37:13Z</time></trkpt><trkpt lat="44.51591838532417" lon="9.683491148573689"><ele>609.0</ele><time>2026-04-04T11:37:14Z</time></trkpt><trkpt lat="44.51592997711647" lon="9.68330782430405"><ele>609.0</ele><time>2026-04-04T11:37:15Z</time></trkpt><trkpt lat="44.51598220500701" lon="9.683162680906964"><ele>609.0</ele><time>2026-04-04T11:37:16Z</time></trkpt><trkpt lat="44.51604164515028" lon="9.683024979945028"><ele>609.0</ele><time>2026-04-04T11:37:17Z</time></trkpt><trkpt lat="44.51612112607342" lon="9.682914951410138"><ele>609.0</ele><time>2026-04-04T11:37:18Z</time></trkpt><trkpt lat="44.516219160550854" lon="9.682845560260834"><ele>609.0</ele><time>2026-04-04T11:37:19Z</time></trkpt><trkpt lat="44.516345705628005" lon="9.682799117948408"><ele>607.25</ele><time>2026-04-04T11:37:20Z</time></trkpt><trkpt lat="44.51645191913541" lon="9.682733056679165"><ele>605.5</ele><time>2026-04-04T11:37:21Z</time></trkpt><trkpt lat="44.51655789486278" lon="9.682680617861411"><ele>603.75</ele><time>2026-04-04T11:37:22Z</time></trkpt><trkpt lat="44.516666798830485" lon="9.682618217834165"><ele>602.0</ele><time>2026-04-04T11:37:23Z</time></trkpt><trkpt lat="44.51675992341036" lon="9.682495574691172"><ele>602.0</ele><time>2026-04-04T11:37:24Z</time></trkpt><trkpt lat="44.51683775228834" lon="9.682353128536763"><ele>602.0</ele><time>2026-04-04T11:37:25Z</time></trkpt><trkpt lat="44.5169122310006" lon="9.682208594950502"><ele>602.0</ele><time>2026-04-04T11:37:26Z</time></trkpt><trkpt lat="44.516975131710005" lon="9.682081671480738"><ele>602.0</ele><time>2026-04-04T11:37:27Z</time></trkpt><trkpt lat="44.51703314601152" lon="9.681955511367898"><ele>601.25</ele><time>2026-04-04T11:37:28Z</time></trkpt><trkpt lat="44.51707009454595" lon="9.681810404749784"><ele>600.5</ele><time>2026-04-04T11:37:29Z</time></trkpt><trkpt lat="44.51710063514054" lon="9.681674582523787"><ele>599.75</ele><time>2026-04-04T11:37:30Z</time></trkpt><trkpt lat="44.517107294776075" lon="9.681499581063413"><ele>599.0</ele><time>2026-04-04T11:37:31Z</time></trkpt><trkpt lat="44.51707833942512" lon="9.681339757601311"><ele>598.25</ele><time>2026-04-04T11:37:32Z</time></trkpt><trkpt lat="44.51702500104361" lon="9.68119476804161"><ele>597.5</ele><time>2026-04-04T11:37:33Z</time></trkpt><trkpt lat="44.51693970116497" lon="9.68107028916923"><ele>596.75</ele><time>2026-04-04T11:37:34Z</time></trkpt><trkpt lat="44.51684140962871" lon="9.680963105444993"><ele>596.0</ele><time>2026-04-04T11:37:35Z</time></trkpt><trkpt lat="44.516733840005614" lon="9.680879043541426"><ele>596.0</ele><time>2026-04-04T11:37:36Z</time></trkpt><trkpt lat="44.516623589943876" lon="9.680798224641425"><ele>596.0</ele><time>2026-04-04T11:37:37Z</time></trkpt><trkpt lat="44.516510005570545" lon="9.680705754802846"><ele>596.0</ele><time>2026-04-04T11:37:38Z</time></trkpt><trkpt lat="44.51639602798612" lon="9.680588675441427"><ele>596.0</ele><time>2026-04-04T11:37:39Z</time></trkpt><trkpt lat="44.51627986651216" lon="9.680454846884633"><ele>596.75</ele><time>2026-04-04T11:37:40Z</time></trkpt><trkpt lat="44.516169313300836" lon="9.68032210788626"><ele>597.5</ele><time>2026-04-04T11:37:41Z</time></trkpt><trkpt lat="44.51606852747997" lon="9.68018902872797"><ele>598.25</ele><time>2026-04-04T11:37:42Z</time></trkpt><trkpt lat="44.51597657470668" lon="9.68006601962479"><ele>599.0</ele><time>2026-04-04T11:37:43Z</time></trkpt><trkpt lat="44.51589681602076" lon="9.67995431960126"><ele>599.0</ele><time>2026-04-04T11:37:44Z</time></trkpt><trkpt lat="44.51582285924495" lon="9.679829333019873"><ele>599.0</ele><time>2026-04-04T11:37:45Z</time></trkpt><trkpt lat="44.515758425088286" lon="9.679681238062662"><ele>599.0</ele><time>2026-04-04T11:37:46Z</time></trkpt><trkpt lat="44.515711252354365" lon="9.679506801896295"><ele>599.0</ele><time>2026-04-04T11:37:47Z</time></trkpt><trkpt lat="44.5156650015327" lon="9.67932241413355"><ele>599.75</ele><time>2026-04-04T11:37:48Z</time></trkpt><trkpt lat="44.5156140788359" lon="9.679133127945986"><ele>600.5</ele><time>2026-04-04T11:37:49Z</time></trkpt><trkpt lat="44.51555672137356" lon="9.678938932562948"><ele>601.25</ele><time>2026-04-04T11:37:50Z</time></trkpt><trkpt lat="44.51550026940869" lon="9.678739255920613"><ele>602.0</ele><time>2026-04-04T11:37:51Z</time></trkpt><trkpt lat="44.51545417342124" lon="9.678546223600392"><ele>600.25</ele><time>2026-04-04T11:37:52Z</time></trkpt><trkpt lat="44.51540158408948" lon="9.678359666242528"><ele>598.5</ele><time>2026-04-04T11:37:53Z</time></trkpt><trkpt lat="44.515334869837325" lon="9.67819672453693"><ele>596.75</ele><time>2026-04-04T11:37:54Z</time></trkpt><trkpt lat="44.51525063634074" lon="9.67804950684016"><ele>595.0</ele><time>2026-04-04T11:37:55Z</time></trkpt><trkpt lat="44.515160873435725" lon="9.677904682361216"><ele>595.0</ele><time>2026-04-04T11:37:56Z</time></trkpt><trkpt lat="44.515067248484904" lon="9.677775206617499"><ele>595.0</ele><time>2026-04-04T11:37:57Z</time></trkpt><trkpt lat="44.51498515096677" lon="9.677665866827748"><ele>595.0</ele><time>2026-04-04T11:37:58Z</time></trkpt><trkpt lat="44.514913213694555" lon="9.677543283450486"><ele>595.0</ele><time>2026-04-04T11:37:59Z</time></trkpt><trkpt lat="44.514852417170346" lon="9.677401907388981"><ele>596.2</ele><time>2026-04-04T11:38:00Z</time></trkpt><trkpt lat="44.51479234544635" lon="9.677277500837905"><ele>597.4</ele><time>2026-04-04T11:38:01Z</time></trkpt><trkpt lat="44.51474711381608" lon="9.677152328811252"><ele>598.6</ele><time>2026-04-04T11:38:02Z</time></trkpt><trkpt lat="44.51471090474352" lon="9.677022955035204"><ele>599.8</ele><time>2026-04-04T11:38:03Z</time></trkpt><trkpt lat="44.5147000085419" lon="9.67687585919445"><ele>601.0</ele><time>2026-04-04T11:38:04Z</time></trkpt><trkpt lat="44.51471377752942" lon="9.676710528082415"><ele>601.5</ele><time>2026-04-04T11:38:05Z</time></trkpt><trkpt lat="44.51473335203165" lon="9.676542752516756"><ele>602.0</ele><time>2026-04-04T11:38:06Z</time></trkpt><trkpt lat="44.514747600088775" lon="9.676369150831432"><ele>602.5</ele><time>2026-04-04T11:38:07Z</time></trkpt><trkpt lat="44.5147680071334" lon="9.67619693245924"><ele>603.0</ele><time>2026-04-04T11:38:08Z</time></trkpt><trkpt lat="44.51479284274539" lon="9.676020236269299"><ele>603.0</ele><time>2026-04-04T11:38:09Z</time></trkpt><trkpt lat="44.51481305410379" lon="9.675841289219507"><ele>603.0</ele><time>2026-04-04T11:38:10Z</time></trkpt><trkpt lat="44.51482173388744" lon="9.675669288338646"><ele>603.0</ele><time>2026-04-04T11:38:11Z</time></trkpt><trkpt lat="44.51481773398037" lon="9.675493669816198"><ele>603.0</ele><time>2026-04-04T11:38:12Z</time></trkpt><trkpt lat="44.51478111040806" lon="9.675326716203665"><ele>603.75</ele><time>2026-04-04T11:38:13Z</time></trkpt><trkpt lat="44.514704656141255" lon="9.67517082119735"><ele>604.5</ele><time>2026-04-04T11:38:14Z</time></trkpt><trkpt lat="44.51459987090806" lon="9.675053118961321"><ele>605.25</ele><time>2026-04-04T11:38:15Z</time></trkpt><trkpt lat="44.51450272422858" lon="9.674918735396513"><ele>606.0</ele><time>2026-04-04T11:38:16Z</time></trkpt><trkpt lat="44.51440592850113" lon="9.67477260651971"><ele>603.75</ele><time>2026-04-04T11:38:17Z</time></trkpt><trkpt lat="44.51431274467316" lon="9.674636573554592"><ele>601.5</ele><time>2026-04-04T11:38:18Z</time></trkpt><trkpt lat="44.51423563407376" lon="9.674517095624342"><ele>599.25</ele><time>2026-04-04T11:38:19Z</time></trkpt><trkpt lat="44.51416865297442" lon="9.674395196933403"><ele>597.0</ele><time>2026-04-04T11:38:20Z</time></trkpt><trkpt lat="44.51412401757866" lon="9.674250153447222"><ele>597.0</ele><time>2026-04-04T11:38:21Z</time></trkpt><trkpt lat="44.51412021643134" lon="9.674105742741574"><ele>597.0</ele><time>2026-04-04T11:38:22Z</time></trkpt><trkpt lat="44.514194635796" lon="9.673993252853501"><ele>597.0</ele><time>2026-04-04T11:38:23Z</time></trkpt><trkpt lat="44.51424581602394" lon="9.67385671153304"><ele>597.0</ele><time>2026-04-04T11:38:24Z</time></trkpt><trkpt lat="44.51431800071766" lon="9.673729348609385"><ele>597.0</ele><time>2026-04-04T11:38:25Z</time></trkpt><trkpt lat="44.51437028807051" lon="9.67358997855054"><ele>597.25</ele><time>2026-04-04T11:38:26Z</time></trkpt><trkpt lat="44.514405030243026" lon="9.67342614306333"><ele>597.5</ele><time>2026-04-04T11:38:27Z</time></trkpt><trkpt lat="44.514400703492605" lon="9.673256096252327"><ele>597.75</ele><time>2026-04-04T11:38:28Z</time></trkpt><trkpt lat="44.51436019027358" lon="9.673103808475616"><ele>598.0</ele><time>2026-04-04T11:38:29Z</time></trkpt><trkpt lat="44.514301743038374" lon="9.672998971834879"><ele>598.0</ele><time>2026-04-04T11:38:30Z</time></trkpt><trkpt lat="44.514259656573806" lon="9.672919431016178"><ele>598.0</ele><time>2026-04-04T11:38:31Z</time></trkpt><trkpt lat="44.514237506013004" lon="9.672824110970588"><ele>598.0</ele><time>2026-04-04T11:38:32Z</time></trkpt><trkpt lat="44.51416763295407" lon="9.672684204085977"><ele>598.0</ele><time>2026-04-04T11:38:34Z</time></trkpt><trkpt lat="44.51412759652654" lon="9.67256503917081"><ele>598.0</ele><time>2026-04-04T11:38:36Z</time></trkpt><trkpt lat="44.514213593745374" lon="9.67248232886185"><ele>600.1999999999999</ele><time>2026-04-04T11:38:37Z</time></trkpt><trkpt lat="44.51424499121455" lon="9.672398066567322"><ele>602.4</ele><time>2026-04-04T11:38:38Z</time></trkpt><trkpt lat="44.514326793661326" lon="9.672229159030799"><ele>604.5999999999999</ele><time>2026-04-04T11:38:40Z</time></trkpt><trkpt lat="44.51439476047742" lon="9.672152957674875"><ele>606.8</ele><time>2026-04-04T11:38:41Z</time></trkpt><trkpt lat="44.51445664044403" lon="9.672089430146064"><ele>609.0</ele><time>2026-04-04T11:38:42Z</time></trkpt><trkpt lat="44.51453200337614" lon="9.672044972746816"><ele>609.8333333333334</ele><time>2026-04-04T11:38:43Z</time></trkpt><trkpt lat="44.514612691537614" lon="9.671992348136621"><ele>610.6666666666666</ele><time>2026-04-04T11:38:44Z</time></trkpt><trkpt lat="44.5146804074983" lon="9.671913858432674"><ele>611.5</ele><time>2026-04-04T11:38:45Z</time></trkpt><trkpt lat="44.514755875078265" lon="9.67187835814281"><ele>612.3333333333333</ele><time>2026-04-04T11:38:46Z</time></trkpt><trkpt lat="44.51482338628443" lon="9.671831067631008"><ele>613.1666666666666</ele><time>2026-04-04T11:38:47Z</time></trkpt><trkpt lat="44.5148944095809" lon="9.671805256989154"><ele>614.0</ele><time>2026-04-04T11:38:48Z</time></trkpt><trkpt lat="44.51496259240983" lon="9.671803589328967"><ele>616.0</ele><time>2026-04-04T11:38:49Z</time></trkpt><trkpt lat="44.51502036253539" lon="9.671866330178274"><ele>618.0</ele><time>2026-04-04T11:38:50Z</time></trkpt><trkpt lat="44.51509152563976" lon="9.671887496355648"><ele>620.0</ele><time>2026-04-04T11:38:51Z</time></trkpt><trkpt lat="44.515149824411694" lon="9.671928687815452"><ele>622.0</ele><time>2026-04-04T11:38:52Z</time></trkpt><trkpt lat="44.515221338617415" lon="9.671793295133025"><ele>624.0</ele><time>2026-04-04T11:38:54Z</time></trkpt><trkpt lat="44.515195726634985" lon="9.671694670376937"><ele>626.0</ele><time>2026-04-04T11:38:55Z</time></trkpt><trkpt lat="44.515122537021945" lon="9.671641618840342"><ele>626.0</ele><time>2026-04-04T11:38:56Z</time></trkpt><trkpt lat="44.51507647321127" lon="9.671562023411374"><ele>626.0</ele><time>2026-04-04T11:38:57Z</time></trkpt><trkpt lat="44.51502800832918" lon="9.671483586544394"><ele>626.0</ele><time>2026-04-04T11:38:58Z</time></trkpt><trkpt lat="44.51496505643923" lon="9.671410281201236"><ele>626.0</ele><time>2026-04-04T11:38:59Z</time></trkpt><trkpt lat="44.51491971243785" lon="9.671307073381382"><ele>626.0</ele><time>2026-04-04T11:39:00Z</time></trkpt><trkpt lat="44.51488170234105" lon="9.67119356245662"><ele>626.0</ele><time>2026-04-04T11:39:01Z</time></trkpt><trkpt lat="44.51486077085429" lon="9.671092580924418"><ele>628.0</ele><time>2026-04-04T11:39:02Z</time></trkpt><trkpt lat="44.514867226781405" lon="9.670986421681576"><ele>630.0</ele><time>2026-04-04T11:39:03Z</time></trkpt><trkpt lat="44.51488335549927" lon="9.670895781463305"><ele>632.0</ele><time>2026-04-04T11:39:04Z</time></trkpt><trkpt lat="44.514903988633606" lon="9.670797700604334"><ele>634.0</ele><time>2026-04-04T11:39:05Z</time></trkpt><trkpt lat="44.51492039407237" lon="9.670705561883624"><ele>636.0</ele><time>2026-04-04T11:39:06Z</time></trkpt><trkpt lat="44.51493870372222" lon="9.67061351847317"><ele>638.0</ele><time>2026-04-04T11:39:07Z</time></trkpt><trkpt lat="44.5149715261667" lon="9.670519734885286"><ele>640.0</ele><time>2026-04-04T11:39:08Z</time></trkpt><trkpt lat="44.51501220380627" lon="9.670437279732262"><ele>640.0</ele><time>2026-04-04T11:39:09Z</time></trkpt><trkpt lat="44.51505331517637" lon="9.670365608397596"><ele>640.0</ele><time>2026-04-04T11:39:10Z</time></trkpt><trkpt lat="44.51510645412585" lon="9.670305204936588"><ele>640.0</ele><time>2026-04-04T11:39:12Z</time></trkpt><trkpt lat="44.51511556678354" lon="9.670184225702432"><ele>640.0</ele><time>2026-04-04T11:39:15Z</time></trkpt><trkpt lat="44.51498975315229" lon="9.67004069547546"><ele>640.0</ele><time>2026-04-04T11:39:16Z</time></trkpt><trkpt lat="44.5149192341306" lon="9.669917292621076"><ele>640.5</ele><time>2026-04-04T11:39:18Z</time></trkpt><trkpt lat="44.51481677856468" lon="9.669830932897428"><ele>641.0</ele><time>2026-04-04T11:39:20Z</time></trkpt><trkpt lat="44.51472940984075" lon="9.669724047249188"><ele>641.5</ele><time>2026-04-04T11:39:22Z</time></trkpt><trkpt lat="44.51472245561331" lon="9.669567074611836"><ele>642.0</ele><time>2026-04-04T11:39:24Z</time></trkpt><trkpt lat="44.514766372258094" lon="9.669431237425998"><ele>642.0</ele><time>2026-04-04T11:39:26Z</time></trkpt><trkpt lat="44.51471725305486" lon="9.66932465419986"><ele>642.0</ele><time>2026-04-04T11:39:28Z</time></trkpt><trkpt lat="44.51460779501611" lon="9.669251954758886"><ele>642.0</ele><time>2026-04-04T11:39:30Z</time></trkpt><trkpt lat="44.51450100215463" lon="9.669171506756934"><ele>642.0</ele><time>2026-04-04T11:39:32Z</time></trkpt><trkpt lat="44.51445106786632" lon="9.669108797902561"><ele>642.0</ele><time>2026-04-04T11:39:33Z</time></trkpt><trkpt lat="44.514397811914456" lon="9.669052599607323"><ele>639.6</ele><time>2026-04-04T11:39:34Z</time></trkpt><trkpt lat="44.514319747126414" lon="9.668929996794043"><ele>637.2</ele><time>2026-04-04T11:39:36Z</time></trkpt><trkpt lat="44.51423973050794" lon="9.668789964768571"><ele>634.8</ele><time>2026-04-04T11:39:38Z</time></trkpt><trkpt lat="44.514192389081806" lon="9.668722340682486"><ele>632.4</ele><time>2026-04-04T11:39:39Z</time></trkpt><trkpt lat="44.514150534863845" lon="9.668641553892062"><ele>630.0</ele><time>2026-04-04T11:39:40Z</time></trkpt><trkpt lat="44.514088187201" lon="9.668573275445072"><ele>630.0</ele><time>2026-04-04T11:39:41Z</time></trkpt><trkpt lat="44.5140239006326" lon="9.66851284932477"><ele>630.0</ele><time>2026-04-04T11:39:42Z</time></trkpt><trkpt lat="44.5139499169639" lon="9.668422110970097"><ele>630.0</ele><time>2026-04-04T11:39:43Z</time></trkpt><trkpt lat="44.51388346325403" lon="9.668311504591701"><ele>630.0</ele><time>2026-04-04T11:39:44Z</time></trkpt><trkpt lat="44.51383680887327" lon="9.668185580375365"><ele>630.0</ele><time>2026-04-04T11:39:45Z</time></trkpt><trkpt lat="44.513789185362924" lon="9.668068579880707"><ele>630.0</ele><time>2026-04-04T11:39:46Z</time></trkpt><trkpt lat="44.513740843271435" lon="9.667961483904572"><ele>630.0</ele><time>2026-04-04T11:39:47Z</time></trkpt><trkpt lat="44.51371534997147" lon="9.667802067933946"><ele>630.0</ele><time>2026-04-04T11:39:48Z</time></trkpt><trkpt lat="44.51367298709286" lon="9.667664020208194"><ele>630.0</ele><time>2026-04-04T11:39:49Z</time></trkpt><trkpt lat="44.51363147902507" lon="9.667548987037403"><ele>630.0</ele><time>2026-04-04T11:39:50Z</time></trkpt><trkpt lat="44.51357673263622" lon="9.667453387346564"><ele>627.6666666666666</ele><time>2026-04-04T11:39:51Z</time></trkpt><trkpt lat="44.51352202491146" lon="9.66737267468801"><ele>625.3333333333334</ele><time>2026-04-04T11:39:52Z</time></trkpt><trkpt lat="44.513473100290994" lon="9.667305816117747"><ele>623.0</ele><time>2026-04-04T11:39:53Z</time></trkpt><trkpt lat="44.513420451227795" lon="9.667223712834803"><ele>620.6666666666667</ele><time>2026-04-04T11:39:54Z</time></trkpt><trkpt lat="44.513387202640054" lon="9.66712365029127"><ele>618.3333333333334</ele><time>2026-04-04T11:39:55Z</time></trkpt><trkpt lat="44.513341391616606" lon="9.667038529507433"><ele>616.0</ele><time>2026-04-04T11:39:56Z</time></trkpt><trkpt lat="44.513269279324724" lon="9.666955024897543"><ele>616.0</ele><time>2026-04-04T11:39:57Z</time></trkpt><trkpt lat="44.51319033974764" lon="9.666903854325364"><ele>616.0</ele><time>2026-04-04T11:39:58Z</time></trkpt><trkpt lat="44.51311707979043" lon="9.666864322193407"><ele>616.0</ele><time>2026-04-04T11:39:59Z</time></trkpt><trkpt lat="44.513038649919196" lon="9.666848979140486"><ele>616.0</ele><time>2026-04-04T11:40:00Z</time></trkpt><trkpt lat="44.512942971805884" lon="9.66681198402353"><ele>616.0</ele><time>2026-04-04T11:40:01Z</time></trkpt><trkpt lat="44.51285217211805" lon="9.666748948879269"><ele>616.0</ele><time>2026-04-04T11:40:02Z</time></trkpt><trkpt lat="44.512760464838614" lon="9.666661680656725"><ele>616.0</ele><time>2026-04-04T11:40:03Z</time></trkpt><trkpt lat="44.512685347226025" lon="9.666575248267776"><ele>616.0</ele><time>2026-04-04T11:40:04Z</time></trkpt><trkpt lat="44.51261351660049" lon="9.666486701572635"><ele>616.0</ele><time>2026-04-04T11:40:05Z</time></trkpt><trkpt lat="44.512544153207955" lon="9.666385792023071"><ele>616.0</ele><time>2026-04-04T11:40:06Z</time></trkpt><trkpt lat="44.51247874363609" lon="9.666291852757112"><ele>616.0</ele><time>2026-04-04T11:40:07Z</time></trkpt><trkpt lat="44.51242154841197" lon="9.666181654868211"><ele>618.0</ele><time>2026-04-04T11:40:08Z</time></trkpt><trkpt lat="44.512372720285626" lon="9.666079406011892"><ele>620.0</ele><time>2026-04-04T11:40:09Z</time></trkpt><trkpt lat="44.512329555690556" lon="9.665970306963265"><ele>622.0</ele><time>2026-04-04T11:40:10Z</time></trkpt><trkpt lat="44.51229314928063" lon="9.665845207653962"><ele>624.0</ele><time>2026-04-04T11:40:11Z</time></trkpt><trkpt lat="44.512265841625684" lon="9.665713757604841"><ele>626.0</ele><time>2026-04-04T11:40:12Z</time></trkpt><trkpt lat="44.51224190459506" lon="9.665587756117787"><ele>626.0</ele><time>2026-04-04T11:40:13Z</time></trkpt><trkpt lat="44.51222845972007" lon="9.665453719039007"><ele>626.0</ele><time>2026-04-04T11:40:14Z</time></trkpt><trkpt lat="44.5122295560153" lon="9.665314479577281"><ele>626.0</ele><time>2026-04-04T11:40:15Z</time></trkpt><trkpt lat="44.51222693312757" lon="9.665178027475188"><ele>626.0</ele><time>2026-04-04T11:40:16Z</time></trkpt><trkpt lat="44.51220906565799" lon="9.665033389781804"><ele>626.0</ele><time>2026-04-04T11:40:17Z</time></trkpt><trkpt lat="44.512164513306" lon="9.664890270823598"><ele>626.25</ele><time>2026-04-04T11:40:18Z</time></trkpt><trkpt lat="44.51209760284246" lon="9.664748569719318"><ele>626.5</ele><time>2026-04-04T11:40:19Z</time></trkpt><trkpt lat="44.51203500116185" lon="9.664609336199119"><ele>626.75</ele><time>2026-04-04T11:40:20Z</time></trkpt><trkpt lat="44.51197942449583" lon="9.66446051512231"><ele>627.0</ele><time>2026-04-04T11:40:21Z</time></trkpt><trkpt lat="44.511923564837154" lon="9.664314317637102"><ele>623.25</ele><time>2026-04-04T11:40:22Z</time></trkpt><trkpt lat="44.51186268164872" lon="9.664173394283647"><ele>619.5</ele><time>2026-04-04T11:40:23Z</time></trkpt><trkpt lat="44.51179013939835" lon="9.664043491762051"><ele>615.75</ele><time>2026-04-04T11:40:24Z</time></trkpt><trkpt lat="44.511709341679506" lon="9.663925061633046"><ele>612.0</ele><time>2026-04-04T11:40:25Z</time></trkpt><trkpt lat="44.5116244372231" lon="9.663812850439866"><ele>612.0</ele><time>2026-04-04T11:40:26Z</time></trkpt><trkpt lat="44.51154530250505" lon="9.663689632761614"><ele>612.0</ele><time>2026-04-04T11:40:27Z</time></trkpt><trkpt lat="44.5114781197903" lon="9.663568640698148"><ele>612.0</ele><time>2026-04-04T11:40:28Z</time></trkpt><trkpt lat="44.51142262628575" lon="9.66347174161913"><ele>612.0</ele><time>2026-04-04T11:40:29Z</time></trkpt><trkpt lat="44.511375834277366" lon="9.663393948072864"><ele>612.0</ele><time>2026-04-04T11:40:30Z</time></trkpt><trkpt lat="44.51132362075184" lon="9.66332296184396"><ele>611.5</ele><time>2026-04-04T11:40:31Z</time></trkpt><trkpt lat="44.51127666478966" lon="9.66324462634425"><ele>611.0</ele><time>2026-04-04T11:40:32Z</time></trkpt><trkpt lat="44.5112355622579" lon="9.663168917735865"><ele>610.5</ele><time>2026-04-04T11:40:33Z</time></trkpt><trkpt lat="44.51121063259373" lon="9.66308194402416"><ele>610.0</ele><time>2026-04-04T11:40:34Z</time></trkpt><trkpt lat="44.51121694902868" lon="9.66292365975782"><ele>609.5</ele><time>2026-04-04T11:40:36Z</time></trkpt><trkpt lat="44.51124583670709" lon="9.662825629922429"><ele>609.0</ele><time>2026-04-04T11:40:37Z</time></trkpt><trkpt lat="44.5112866255546" lon="9.662730353873505"><ele>610.3333333333334</ele><time>2026-04-04T11:40:38Z</time></trkpt><trkpt lat="44.511334530753345" lon="9.662638468493208"><ele>611.6666666666666</ele><time>2026-04-04T11:40:39Z</time></trkpt><trkpt lat="44.51138939864647" lon="9.662545274804573"><ele>613.0</ele><time>2026-04-04T11:40:40Z</time></trkpt><trkpt lat="44.5114506111375" lon="9.662453603526425"><ele>614.3333333333333</ele><time>2026-04-04T11:40:41Z</time></trkpt><trkpt lat="44.51151507952514" lon="9.662358689949198"><ele>615.6666666666666</ele><time>2026-04-04T11:40:42Z</time></trkpt><trkpt lat="44.51156892482938" lon="9.66226476454592"><ele>617.0</ele><time>2026-04-04T11:40:43Z</time></trkpt><trkpt lat="44.51163071667881" lon="9.662178285218864"><ele>617.0</ele><time>2026-04-04T11:40:44Z</time></trkpt><trkpt lat="44.51169547511597" lon="9.662098053957788"><ele>617.0</ele><time>2026-04-04T11:40:45Z</time></trkpt><trkpt lat="44.5117654194974" lon="9.662009548493128"><ele>617.0</ele><time>2026-04-04T11:40:46Z</time></trkpt><trkpt lat="44.511839227539994" lon="9.661929287072708"><ele>617.0</ele><time>2026-04-04T11:40:47Z</time></trkpt><trkpt lat="44.51191137256861" lon="9.661858792809431"><ele>617.0</ele><time>2026-04-04T11:40:48Z</time></trkpt><trkpt lat="44.5119780975948" lon="9.661797416321312"><ele>617.0</ele><time>2026-04-04T11:40:49Z</time></trkpt><trkpt lat="44.5120299552699" lon="9.661726625098812"><ele>616.0</ele><time>2026-04-04T11:40:50Z</time></trkpt><trkpt lat="44.51206840022473" lon="9.661641321769567"><ele>615.0</ele><time>2026-04-04T11:40:51Z</time></trkpt><trkpt lat="44.51208269596886" lon="9.66152440182592"><ele>614.0</ele><time>2026-04-04T11:40:52Z</time></trkpt><trkpt lat="44.512080451749405" lon="9.66140565004977"><ele>613.0</ele><time>2026-04-04T11:40:53Z</time></trkpt><trkpt lat="44.51209234502998" lon="9.661287057470023"><ele>612.0</ele><time>2026-04-04T11:40:54Z</time></trkpt><trkpt lat="44.51211268394848" lon="9.661182798339077"><ele>611.0</ele><time>2026-04-04T11:40:55Z</time></trkpt><trkpt lat="44.51214916806284" lon="9.661073156488193"><ele>613.1428571428572</ele><time>2026-04-04T11:40:56Z</time></trkpt><trkpt lat="44.5121743189933" lon="9.66097852336312"><ele>615.2857142857143</ele><time>2026-04-04T11:40:57Z</time></trkpt><trkpt lat="44.512198039251864" lon="9.660882248768294"><ele>617.4285714285714</ele><time>2026-04-04T11:40:58Z</time></trkpt><trkpt lat="44.51222398141931" lon="9.660794147900438"><ele>619.5714285714287</ele><time>2026-04-04T11:40:59Z</time></trkpt><trkpt lat="44.51224756026181" lon="9.660696341403137"><ele>621.7142857142858</ele><time>2026-04-04T11:41:00Z</time></trkpt><trkpt lat="44.51226879013523" lon="9.660606527830975"><ele>623.8571428571429</ele><time>2026-04-04T11:41:01Z</time></trkpt><trkpt lat="44.51229808495145" lon="9.660509435846786"><ele>626.0</ele><time>2026-04-04T11:41:02Z</time></trkpt><trkpt lat="44.51230714577287" lon="9.660420097470384"><ele>624.2</ele><time>2026-04-04T11:41:03Z</time></trkpt><trkpt lat="44.512337952027934" lon="9.660270212930383"><ele>622.4000000000001</ele><time>2026-04-04T11:41:05Z</time></trkpt><trkpt lat="44.5124600081863" lon="9.66017196650708"><ele>620.6</ele><time>2026-04-04T11:41:07Z</time></trkpt><trkpt lat="44.512532597211845" lon="9.660125485652499"><ele>618.8000000000001</ele><time>2026-04-04T11:41:08Z</time></trkpt><trkpt lat="44.51261516133297" lon="9.660066519630249"><ele>617.0</ele><time>2026-04-04T11:41:09Z</time></trkpt><trkpt lat="44.512699371096204" lon="9.65998969504243"><ele>617.0</ele><time>2026-04-04T11:41:10Z</time></trkpt><trkpt lat="44.51278148856743" lon="9.65990947142997"><ele>617.0</ele><time>2026-04-04T11:41:11Z</time></trkpt><trkpt lat="44.512855029048865" lon="9.659831218967135"><ele>617.0</ele><time>2026-04-04T11:41:12Z</time></trkpt><trkpt lat="44.512927782531555" lon="9.6597538228359"><ele>617.0</ele><time>2026-04-04T11:41:13Z</time></trkpt><trkpt lat="44.51299372267482" lon="9.659683694247345"><ele>617.0</ele><time>2026-04-04T11:41:14Z</time></trkpt><trkpt lat="44.513064679730974" lon="9.659608230095532"><ele>617.8333333333333</ele><time>2026-04-04T11:41:15Z</time></trkpt><trkpt lat="44.513139773492114" lon="9.659529221417621"><ele>618.6666666666666</ele><time>2026-04-04T11:41:16Z</time></trkpt><trkpt lat="44.51320370270978" lon="9.659469760098114"><ele>619.5</ele><time>2026-04-04T11:41:17Z</time></trkpt><trkpt lat="44.51326896045538" lon="9.659418339756915"><ele>620.3333333333334</ele><time>2026-04-04T11:41:18Z</time></trkpt><trkpt lat="44.51333705691888" lon="9.65936356250723"><ele>621.1666666666667</ele><time>2026-04-04T11:41:19Z</time></trkpt><trkpt lat="44.51343773190481" lon="9.65927754244966"><ele>622.0</ele><time>2026-04-04T11:41:21Z</time></trkpt><trkpt lat="44.51354708576005" lon="9.659188972441935"><ele>619.5</ele><time>2026-04-04T11:41:23Z</time></trkpt><trkpt lat="44.513612068841326" lon="9.659158348468988"><ele>617.0</ele><time>2026-04-04T11:41:24Z</time></trkpt><trkpt lat="44.513698327087695" lon="9.659135201726674"><ele>614.5</ele><time>2026-04-04T11:41:25Z</time></trkpt><trkpt lat="44.51378501495679" lon="9.65912909333924"><ele>612.0</ele><time>2026-04-04T11:41:26Z</time></trkpt><trkpt lat="44.51387800593462" lon="9.65912233117999"><ele>609.5</ele><time>2026-04-04T11:41:27Z</time></trkpt><trkpt lat="44.51396376745694" lon="9.659095531806491"><ele>607.0</ele><time>2026-04-04T11:41:28Z</time></trkpt><trkpt lat="44.51405075261104" lon="9.659065707710528"><ele>606.8333333333334</ele><time>2026-04-04T11:41:29Z</time></trkpt><trkpt lat="44.51413671649016" lon="9.659030500377488"><ele>606.6666666666667</ele><time>2026-04-04T11:41:30Z</time></trkpt><trkpt lat="44.514204615639144" lon="9.65899041520873"><ele>606.5</ele><time>2026-04-04T11:41:31Z</time></trkpt><trkpt lat="44.51426778472" lon="9.658951903369694"><ele>606.3333333333334</ele><time>2026-04-04T11:41:32Z</time></trkpt><trkpt lat="44.51434325447652" lon="9.658907592226365"><ele>606.1666666666666</ele><time>2026-04-04T11:41:33Z</time></trkpt><trkpt lat="44.51442445768067" lon="9.65887527163204"><ele>606.0</ele><time>2026-04-04T11:41:34Z</time></trkpt><trkpt lat="44.514508745655974" lon="9.65884475389131"><ele>607.0</ele><time>2026-04-04T11:41:35Z</time></trkpt><trkpt lat="44.51459236584592" lon="9.658822538564168"><ele>608.0</ele><time>2026-04-04T11:41:36Z</time></trkpt><trkpt lat="44.514668172382656" lon="9.658831904571947"><ele>609.0</ele><time>2026-04-04T11:41:37Z</time></trkpt><trkpt lat="44.51473448417424" lon="9.658848886227188"><ele>610.0</ele><time>2026-04-04T11:41:38Z</time></trkpt><trkpt lat="44.5148504153973" lon="9.658842494685967"><ele>611.0</ele><time>2026-04-04T11:41:40Z</time></trkpt><trkpt lat="44.51493408449393" lon="9.658752101274947"><ele>611.0</ele><time>2026-04-04T11:41:42Z</time></trkpt><trkpt lat="44.514968784135085" lon="9.658668527286226"><ele>611.0</ele><time>2026-04-04T11:41:43Z</time></trkpt><trkpt lat="44.51501764950186" lon="9.658579712281231"><ele>611.0</ele><time>2026-04-04T11:41:44Z</time></trkpt><trkpt lat="44.515070632382155" lon="9.658502458445549"><ele>611.0</ele><time>2026-04-04T11:41:45Z</time></trkpt><trkpt lat="44.51514051062989" lon="9.658440960238133"><ele>611.0</ele><time>2026-04-04T11:41:46Z</time></trkpt><trkpt lat="44.515213247103304" lon="9.658391052644847"><ele>611.0</ele><time>2026-04-04T11:41:47Z</time></trkpt><trkpt lat="44.515280598815735" lon="9.658338187644999"><ele>608.3333333333333</ele><time>2026-04-04T11:41:48Z</time></trkpt><trkpt lat="44.51534338265099" lon="9.658268683927028"><ele>605.6666666666666</ele><time>2026-04-04T11:41:49Z</time></trkpt><trkpt lat="44.51539467651133" lon="9.65819640469128"><ele>603.0</ele><time>2026-04-04T11:41:50Z</time></trkpt><trkpt lat="44.515441359079006" lon="9.658118072490781"><ele>600.3333333333334</ele><time>2026-04-04T11:41:51Z</time></trkpt><trkpt lat="44.515482328278466" lon="9.658031684469115"><ele>597.6666666666667</ele><time>2026-04-04T11:41:52Z</time></trkpt><trkpt lat="44.5155573896729" lon="9.657909638687014"><ele>595.0</ele><time>2026-04-04T11:41:54Z</time></trkpt><trkpt lat="44.51565058063469" lon="9.657859602994256"><ele>593.2</ele><time>2026-04-04T11:41:56Z</time></trkpt><trkpt lat="44.51568537391785" lon="9.657730754049854"><ele>591.4</ele><time>2026-04-04T11:41:58Z</time></trkpt><trkpt lat="44.51573097557951" lon="9.657607687032375"><ele>589.6</ele><time>2026-04-04T11:42:00Z</time></trkpt><trkpt lat="44.51580541987652" lon="9.65755649703592"><ele>587.8</ele><time>2026-04-04T11:42:02Z</time></trkpt><trkpt lat="44.515914195468035" lon="9.657587047805292"><ele>586.0</ele><time>2026-04-04T11:42:04Z</time></trkpt><trkpt lat="44.515975881216434" lon="9.657607873603325"><ele>586.0</ele><time>2026-04-04T11:42:05Z</time></trkpt><trkpt lat="44.5160899352252" lon="9.657636991317913"><ele>586.0</ele><time>2026-04-04T11:42:07Z</time></trkpt><trkpt lat="44.51617536297999" lon="9.657597705384001"><ele>586.0</ele><time>2026-04-04T11:42:09Z</time></trkpt><trkpt lat="44.51626155179618" lon="9.657516042285579"><ele>586.0</ele><time>2026-04-04T11:42:11Z</time></trkpt><trkpt lat="44.516312648084146" lon="9.65745170904586"><ele>586.0</ele><time>2026-04-04T11:42:12Z</time></trkpt><trkpt lat="44.516369120913154" lon="9.65738082995417"><ele>586.8571428571428</ele><time>2026-04-04T11:42:13Z</time></trkpt><trkpt lat="44.51642657930238" lon="9.657321728767663"><ele>587.7142857142857</ele><time>2026-04-04T11:42:14Z</time></trkpt><trkpt lat="44.51647552224213" lon="9.657259249032212"><ele>588.5714285714286</ele><time>2026-04-04T11:42:15Z</time></trkpt><trkpt lat="44.516542454766444" lon="9.65720998750962"><ele>589.4285714285713</ele><time>2026-04-04T11:42:16Z</time></trkpt><trkpt lat="44.51660125818099" lon="9.657170586616033"><ele>590.2857142857142</ele><time>2026-04-04T11:42:17Z</time></trkpt><trkpt lat="44.516657310804966" lon="9.657125399668127"><ele>591.1428571428571</ele><time>2026-04-04T11:42:18Z</time></trkpt><trkpt lat="44.516729302657446" lon="9.657050159737977"><ele>592.0</ele><time>2026-04-04T11:42:20Z</time></trkpt><trkpt lat="44.51678120677037" lon="9.656989085877667"><ele>593.5</ele><time>2026-04-04T11:42:22Z</time></trkpt><trkpt lat="44.516806371198236" lon="9.656877501079574"><ele>595.0</ele><time>2026-04-04T11:42:24Z</time></trkpt><trkpt lat="44.5167305244325" lon="9.656781260432359"><ele>596.5</ele><time>2026-04-04T11:42:26Z</time></trkpt><trkpt lat="44.516662630003026" lon="9.656772447632989"><ele>598.0</ele><time>2026-04-04T11:42:27Z</time></trkpt><trkpt lat="44.51658349625351" lon="9.65672478113362"><ele>599.5</ele><time>2026-04-04T11:42:28Z</time></trkpt><trkpt lat="44.51650388343071" lon="9.656663390405608"><ele>601.0</ele><time>2026-04-04T11:42:29Z</time></trkpt><trkpt lat="44.51646156258507" lon="9.656537265027229"><ele>601.0</ele><time>2026-04-04T11:42:30Z</time></trkpt><trkpt lat="44.51639712299721" lon="9.656498803149931"><ele>601.0</ele><time>2026-04-04T11:42:31Z</time></trkpt><trkpt lat="44.516320007156715" lon="9.65646662250245"><ele>601.0</ele><time>2026-04-04T11:42:32Z</time></trkpt><trkpt lat="44.51624695166591" lon="9.656455737054513"><ele>601.0</ele><time>2026-04-04T11:42:33Z</time></trkpt><trkpt lat="44.516175633292995" lon="9.656409520628012"><ele>601.0</ele><time>2026-04-04T11:42:34Z</time></trkpt><trkpt lat="44.5160848849939" lon="9.656388787674397"><ele>601.0</ele><time>2026-04-04T11:42:35Z</time></trkpt><trkpt lat="44.51602702695913" lon="9.65631629345263"><ele>601.0</ele><time>2026-04-04T11:42:36Z</time></trkpt><trkpt lat="44.51597910273004" lon="9.65623843381563"><ele>601.0</ele><time>2026-04-04T11:42:37Z</time></trkpt><trkpt lat="44.515946558426556" lon="9.656141519246333"><ele>601.0</ele><time>2026-04-04T11:42:38Z</time></trkpt><trkpt lat="44.51592480003536" lon="9.656020739650524"><ele>601.0</ele><time>2026-04-04T11:42:39Z</time></trkpt><trkpt lat="44.51590247076506" lon="9.65590649611617"><ele>601.0</ele><time>2026-04-04T11:42:40Z</time></trkpt><trkpt lat="44.51587177576636" lon="9.655796987345425"><ele>601.0</ele><time>2026-04-04T11:42:41Z</time></trkpt><trkpt lat="44.5158520505154" lon="9.655702182603685"><ele>601.0</ele><time>2026-04-04T11:42:42Z</time></trkpt><trkpt lat="44.515828647377624" lon="9.655616374425179"><ele>601.0</ele><time>2026-04-04T11:42:43Z</time></trkpt><trkpt lat="44.51581577623872" lon="9.655511412024367"><ele>601.0</ele><time>2026-04-04T11:42:44Z</time></trkpt><trkpt lat="44.515794288266186" lon="9.655416628660122"><ele>601.0</ele><time>2026-04-04T11:42:45Z</time></trkpt><trkpt lat="44.5157946356591" lon="9.65531303952594"><ele>601.0</ele><time>2026-04-04T11:42:46Z</time></trkpt><trkpt lat="44.515764016662025" lon="9.655213319622344"><ele>601.0</ele><time>2026-04-04T11:42:47Z</time></trkpt><trkpt lat="44.5157263440797" lon="9.655134713168207"><ele>601.0</ele><time>2026-04-04T11:42:48Z</time></trkpt><trkpt lat="44.5156785765731" lon="9.655039264196413"><ele>601.1666666666667</ele><time>2026-04-04T11:42:49Z</time></trkpt><trkpt lat="44.51562438201447" lon="9.654939234818173"><ele>601.3333333333334</ele><time>2026-04-04T11:42:50Z</time></trkpt><trkpt lat="44.51556641464492" lon="9.654841453599724"><ele>601.5</ele><time>2026-04-04T11:42:51Z</time></trkpt><trkpt lat="44.515507583638254" lon="9.65474663683412"><ele>601.6666666666666</ele><time>2026-04-04T11:42:52Z</time></trkpt><trkpt lat="44.51545245496617" lon="9.654657787122717"><ele>601.8333333333333</ele><time>2026-04-04T11:42:53Z</time></trkpt><trkpt lat="44.515395206043344" lon="9.654559581408758"><ele>602.0</ele><time>2026-04-04T11:42:54Z</time></trkpt><trkpt lat="44.51533853612348" lon="9.65449190019883"><ele>604.3333333333333</ele><time>2026-04-04T11:42:55Z</time></trkpt><trkpt lat="44.51528606338764" lon="9.654402830509321"><ele>606.6666666666666</ele><time>2026-04-04T11:42:57Z</time></trkpt><trkpt lat="44.51526363150921" lon="9.65431472795252"><ele>609.0</ele><time>2026-04-04T11:42:59Z</time></trkpt><trkpt lat="44.51527448696482" lon="9.654161290599731"><ele>611.3333333333334</ele><time>2026-04-04T11:43:01Z</time></trkpt><trkpt lat="44.51526998928665" lon="9.654069744146126"><ele>613.6666666666667</ele><time>2026-04-04T11:43:02Z</time></trkpt><trkpt lat="44.51526347972373" lon="9.653977854115489"><ele>616.0</ele><time>2026-04-04T11:43:03Z</time></trkpt><trkpt lat="44.51525702558492" lon="9.653888853810601"><ele>616.0</ele><time>2026-04-04T11:43:04Z</time></trkpt><trkpt lat="44.51525727866957" lon="9.653800434079137"><ele>616.0</ele><time>2026-04-04T11:43:05Z</time></trkpt><trkpt lat="44.515284386961675" lon="9.65362714011745"><ele>616.0</ele><time>2026-04-04T11:43:07Z</time></trkpt><trkpt lat="44.5152583445777" lon="9.653532505769345"><ele>616.0</ele><time>2026-04-04T11:43:08Z</time></trkpt><trkpt lat="44.51524662696344" lon="9.653424150484035"><ele>616.0</ele><time>2026-04-04T11:43:09Z</time></trkpt><trkpt lat="44.51525967296817" lon="9.653299506273239"><ele>616.0</ele><time>2026-04-04T11:43:10Z</time></trkpt><trkpt lat="44.51531457635841" lon="9.653215863494312"><ele>617.6666666666667</ele><time>2026-04-04T11:43:11Z</time></trkpt><trkpt lat="44.51535991272216" lon="9.653076779684133"><ele>619.3333333333334</ele><time>2026-04-04T11:43:13Z</time></trkpt><trkpt lat="44.51539582253668" lon="9.65297755536747"><ele>621.0</ele><time>2026-04-04T11:43:14Z</time></trkpt><trkpt lat="44.515432860512014" lon="9.65286098021121"><ele>622.6666666666666</ele><time>2026-04-04T11:43:15Z</time></trkpt><trkpt lat="44.51546457412747" lon="9.652745232153084"><ele>624.3333333333333</ele><time>2026-04-04T11:43:16Z</time></trkpt><trkpt lat="44.5154824385234" lon="9.652638367760549"><ele>626.0</ele><time>2026-04-04T11:43:17Z</time></trkpt><trkpt lat="44.51553049919297" lon="9.652489410779495"><ele>626.1666666666666</ele><time>2026-04-04T11:43:19Z</time></trkpt><trkpt lat="44.51559337033116" lon="9.652455119533037"><ele>626.3333333333333</ele><time>2026-04-04T11:43:21Z</time></trkpt><trkpt lat="44.515650592896" lon="9.652526543841914"><ele>626.5</ele><time>2026-04-04T11:43:23Z</time></trkpt><trkpt lat="44.515739420936235" lon="9.652618032804224"><ele>626.6666666666666</ele><time>2026-04-04T11:43:25Z</time></trkpt><trkpt lat="44.515789993734145" lon="9.652686359496313"><ele>626.8333333333334</ele><time>2026-04-04T11:43:26Z</time></trkpt><trkpt lat="44.51584510893205" lon="9.652747438579343"><ele>627.0</ele><time>2026-04-04T11:43:27Z</time></trkpt><trkpt lat="44.51591663335561" lon="9.652818063516598"><ele>627.8333333333334</ele><time>2026-04-04T11:43:28Z</time></trkpt><trkpt lat="44.515985361040535" lon="9.652880814745654"><ele>628.6666666666666</ele><time>2026-04-04T11:43:29Z</time></trkpt><trkpt lat="44.516054392243866" lon="9.65294593050292"><ele>629.5</ele><time>2026-04-04T11:43:30Z</time></trkpt><trkpt lat="44.516132971611185" lon="9.653015966736584"><ele>630.3333333333333</ele><time>2026-04-04T11:43:31Z</time></trkpt><trkpt lat="44.51619948533722" lon="9.653076943016874"><ele>631.1666666666666</ele><time>2026-04-04T11:43:32Z</time></trkpt><trkpt lat="44.516269034789374" lon="9.653138930595409"><ele>632.0</ele><time>2026-04-04T11:43:33Z</time></trkpt><trkpt lat="44.51633711085216" lon="9.65319722996252"><ele>634.1666666666666</ele><time>2026-04-04T11:43:34Z</time></trkpt><trkpt lat="44.516404732215264" lon="9.653246626037612"><ele>636.3333333333333</ele><time>2026-04-04T11:43:35Z</time></trkpt><trkpt lat="44.51647425090034" lon="9.653308915043064"><ele>638.5</ele><time>2026-04-04T11:43:36Z</time></trkpt><trkpt lat="44.516563526176874" lon="9.653370446621109"><ele>640.6666666666666</ele><time>2026-04-04T11:43:38Z</time></trkpt><trkpt lat="44.51662386924763" lon="9.653311541805955"><ele>642.8333333333334</ele><time>2026-04-04T11:45:20Z</time></trkpt><trkpt lat="44.51670015348466" lon="9.653313341338889"><ele>645.0</ele><time>2026-04-04T11:45:22Z</time></trkpt><trkpt lat="44.51669499447136" lon="9.65341311938386"><ele>645.0</ele><time>2026-04-04T11:46:39Z</time></trkpt><trkpt lat="44.516622725198104" lon="9.653414365453482"><ele>645.0</ele><time>2026-04-04T11:46:42Z</time></trkpt><trkpt lat="44.51660382949448" lon="9.653305269209826"><ele>645.0</ele><time>2026-04-04T11:47:00Z</time></trkpt><trkpt lat="44.51666297352558" lon="9.653196611327582"><ele>645.0</ele><time>2026-04-04T11:47:03Z</time></trkpt><trkpt lat="44.51672834842815" lon="9.653146194602565"><ele>645.0</ele><time>2026-04-04T11:47:05Z</time></trkpt><trkpt lat="44.516818975861725" lon="9.65312336860572"><ele>645.0</ele><time>2026-04-04T11:47:07Z</time></trkpt><trkpt lat="44.51691613660311" lon="9.653071176246433"><ele>645.0</ele><time>2026-04-04T11:47:11Z</time></trkpt><trkpt lat="44.51699142299283" lon="9.653073898259585"><ele>645.0</ele><time>2026-04-04T11:47:14Z</time></trkpt><trkpt lat="44.51708612396142" lon="9.65303638084282"><ele>645.0</ele><time>2026-04-04T11:47:17Z</time></trkpt><trkpt lat="44.517158131478155" lon="9.653080254614922"><ele>645.0</ele><time>2026-04-04T11:47:18Z</time></trkpt><trkpt lat="44.51720975418693" lon="9.653138884259413"><ele>645.0</ele><time>2026-04-04T11:47:20Z</time></trkpt><trkpt lat="44.51726949532647" lon="9.653217024491918"><ele>645.0</ele><time>2026-04-04T11:47:22Z</time></trkpt><trkpt lat="44.51734592635687" lon="9.653281294999818"><ele>647.25</ele><time>2026-04-04T11:47:24Z</time></trkpt><trkpt lat="44.517400392089655" lon="9.653406021099473"><ele>649.5</ele><time>2026-04-04T11:47:26Z</time></trkpt><trkpt lat="44.51750389171321" lon="9.653513342121933"><ele>651.75</ele><time>2026-04-04T11:47:28Z</time></trkpt><trkpt lat="44.51758746583598" lon="9.65357091268675"><ele>654.0</ele><time>2026-04-04T11:47:32Z</time></trkpt><trkpt lat="44.51770542834989" lon="9.653798863291192"><ele>655.0</ele><time>2026-04-04T11:47:35Z</time></trkpt><trkpt lat="44.51775866258334" lon="9.653936867755325"><ele>656.0</ele><time>2026-04-04T11:47:37Z</time></trkpt><trkpt lat="44.51780088153275" lon="9.654034064061909"><ele>657.0</ele><time>2026-04-04T11:47:40Z</time></trkpt><trkpt lat="44.51787152807592" lon="9.654045475046638"><ele>658.0</ele><time>2026-04-04T11:47:43Z</time></trkpt><trkpt lat="44.51793761830474" lon="9.6540639163485"><ele>659.0</ele><time>2026-04-04T11:47:45Z</time></trkpt><trkpt lat="44.51800137317337" lon="9.654135778482791"><ele>660.0</ele><time>2026-04-04T11:47:47Z</time></trkpt><trkpt lat="44.51805480113781" lon="9.654217305039595"><ele>661.4</ele><time>2026-04-04T11:47:49Z</time></trkpt><trkpt lat="44.51810871041381" lon="9.654309138600523"><ele>662.8</ele><time>2026-04-04T11:47:51Z</time></trkpt><trkpt lat="44.51818718467059" lon="9.654400576636522"><ele>664.2</ele><time>2026-04-04T11:47:53Z</time></trkpt><trkpt lat="44.51827877565168" lon="9.654422165291127"><ele>665.6</ele><time>2026-04-04T11:47:55Z</time></trkpt><trkpt lat="44.518375762173456" lon="9.654438811957819"><ele>667.0</ele><time>2026-04-04T11:47:57Z</time></trkpt><trkpt lat="44.51846878431384" lon="9.654461063949924"><ele>667.0</ele><time>2026-04-04T11:47:59Z</time></trkpt><trkpt lat="44.51857423679671" lon="9.65448202828758"><ele>667.0</ele><time>2026-04-04T11:48:01Z</time></trkpt><trkpt lat="44.518676364958154" lon="9.654499822235433"><ele>667.0</ele><time>2026-04-04T11:48:03Z</time></trkpt><trkpt lat="44.51877808101272" lon="9.654559587860911"><ele>667.0</ele><time>2026-04-04T11:48:05Z</time></trkpt><trkpt lat="44.51886861597167" lon="9.654619546398704"><ele>667.0</ele><time>2026-04-04T11:48:07Z</time></trkpt><trkpt lat="44.518946978962084" lon="9.65474637917378"><ele>669.0</ele><time>2026-04-04T11:48:09Z</time></trkpt><trkpt lat="44.51906920770555" lon="9.654792384504297"><ele>671.0</ele><time>2026-04-04T11:48:13Z</time></trkpt><trkpt lat="44.519189843005584" lon="9.654819937352888"><ele>673.0</ele><time>2026-04-04T11:48:15Z</time></trkpt><trkpt lat="44.51929501930189" lon="9.654902689714275"><ele>675.0</ele><time>2026-04-04T11:48:17Z</time></trkpt><trkpt lat="44.519363474824196" lon="9.654929870398634"><ele>677.0</ele><time>2026-04-04T11:48:19Z</time></trkpt><trkpt lat="44.519456205087494" lon="9.654981863924968"><ele>677.6</ele><time>2026-04-04T11:48:21Z</time></trkpt><trkpt lat="44.51958559378595" lon="9.6550563068339"><ele>678.2</ele><time>2026-04-04T11:48:23Z</time></trkpt><trkpt lat="44.5196436394227" lon="9.655094801525284"><ele>678.8</ele><time>2026-04-04T11:48:25Z</time></trkpt><trkpt lat="44.51970289307116" lon="9.655141013373228"><ele>679.4</ele><time>2026-04-04T11:48:26Z</time></trkpt><trkpt lat="44.519841256210604" lon="9.655243960369631"><ele>680.0</ele><time>2026-04-04T11:48:28Z</time></trkpt><trkpt lat="44.519910437900585" lon="9.655321312232696"><ele>680.0</ele><time>2026-04-04T11:48:30Z</time></trkpt><trkpt lat="44.51999510491412" lon="9.655361069772773"><ele>680.0</ele><time>2026-04-04T11:48:32Z</time></trkpt><trkpt lat="44.519918458891304" lon="9.655385016105495"><ele>680.0</ele><time>2026-04-04T11:48:43Z</time></trkpt><trkpt lat="44.520012744295386" lon="9.655387864165075"><ele>680.0</ele><time>2026-04-04T11:51:21Z</time></trkpt><trkpt lat="44.519951824831004" lon="9.655444573375986"><ele>680.0</ele><time>2026-04-04T11:51:54Z</time></trkpt><trkpt lat="44.51988886345908" lon="9.655419515931015"><ele>680.0</ele><time>2026-04-04T11:52:03Z</time></trkpt><trkpt lat="44.5198011634079" lon="9.65526718551948"><ele>680.0</ele><time>2026-04-04T11:52:19Z</time></trkpt><trkpt lat="44.519719462394036" lon="9.655235838171032"><ele>680.0</ele><time>2026-04-04T11:52:50Z</time></trkpt><trkpt lat="44.51978122213224" lon="9.655218346111539"><ele>680.0</ele><time>2026-04-04T11:54:08Z</time></trkpt><trkpt lat="44.51985773418664" lon="9.655270809071842"><ele>680.0</ele><time>2026-04-04T11:54:10Z</time></trkpt><trkpt lat="44.51994153547007" lon="9.65532388270713"><ele>680.0</ele><time>2026-04-04T11:54:12Z</time></trkpt><trkpt lat="44.51998310042678" lon="9.655393035725934"><ele>680.0</ele><time>2026-04-04T11:58:22Z</time></trkpt><trkpt lat="44.52004620015704" lon="9.655436857405025"><ele>680.8333333333333</ele><time>2026-04-04T11:59:53Z</time></trkpt><trkpt lat="44.52011829668193" lon="9.655465495359064"><ele>681.6666666666666</ele><time>2026-04-04T12:00:10Z</time></trkpt><trkpt lat="44.52018857357653" lon="9.65550572465714"><ele>682.5</ele><time>2026-04-04T12:01:11Z</time></trkpt><trkpt lat="44.52024449216784" lon="9.655557204471474"><ele>683.3333333333334</ele><time>2026-04-04T12:01:16Z</time></trkpt><trkpt lat="44.520318647661355" lon="9.655603641724946"><ele>684.1666666666667</ele><time>2026-04-04T12:01:48Z</time></trkpt><trkpt lat="44.52040676849078" lon="9.655634447268588"><ele>685.0</ele><time>2026-04-04T12:01:50Z</time></trkpt><trkpt lat="44.520458077033574" lon="9.655717466061175"><ele>685.6</ele><time>2026-04-04T12:01:53Z</time></trkpt><trkpt lat="44.52052717104513" lon="9.655823244154123"><ele>686.2</ele><time>2026-04-04T12:01:56Z</time></trkpt><trkpt lat="44.520594540891224" lon="9.655907585335417"><ele>686.8</ele><time>2026-04-04T12:01:58Z</time></trkpt><trkpt lat="44.5206726773792" lon="9.656011480852614"><ele>687.4</ele><time>2026-04-04T12:02:00Z</time></trkpt><trkpt lat="44.520735780248884" lon="9.656070132638348"><ele>688.0</ele><time>2026-04-04T12:02:01Z</time></trkpt><trkpt lat="44.52083840920003" lon="9.656182839028054"><ele>688.0</ele><time>2026-04-04T12:02:03Z</time></trkpt><trkpt lat="44.52092067804952" lon="9.65630372917272"><ele>688.0</ele><time>2026-04-04T12:02:05Z</time></trkpt><trkpt lat="44.520999357770656" lon="9.656374375742907"><ele>688.0</ele><time>2026-04-04T12:02:07Z</time></trkpt><trkpt lat="44.52111584825175" lon="9.656455235599239"><ele>688.0</ele><time>2026-04-04T12:02:09Z</time></trkpt><trkpt lat="44.52121567079992" lon="9.65647785269366"><ele>688.0</ele><time>2026-04-04T12:02:11Z</time></trkpt><trkpt lat="44.52129760388145" lon="9.656513705780801"><ele>690.0</ele><time>2026-04-04T12:02:13Z</time></trkpt><trkpt lat="44.52138265274547" lon="9.656595245867306"><ele>692.0</ele><time>2026-04-04T12:02:15Z</time></trkpt><trkpt lat="44.52147249609998" lon="9.656656867752972"><ele>694.0</ele><time>2026-04-04T12:02:17Z</time></trkpt><trkpt lat="44.52157436012477" lon="9.656720073287824"><ele>696.0</ele><time>2026-04-04T12:02:19Z</time></trkpt><trkpt lat="44.52166382534711" lon="9.656790438776863"><ele>698.0</ele><time>2026-04-04T12:02:21Z</time></trkpt><trkpt lat="44.52176040401482" lon="9.656839713733815"><ele>698.0</ele><time>2026-04-04T12:02:23Z</time></trkpt><trkpt lat="44.52187849292204" lon="9.656894109987752"><ele>698.0</ele><time>2026-04-04T12:02:25Z</time></trkpt><trkpt lat="44.52198531658433" lon="9.656945029639473"><ele>698.0</ele><time>2026-04-04T12:02:27Z</time></trkpt><trkpt lat="44.52205986332664" lon="9.656975567449843"><ele>698.0</ele><time>2026-04-04T12:02:29Z</time></trkpt><trkpt lat="44.522136385975394" lon="9.656975151250386"><ele>698.0</ele><time>2026-04-04T12:02:31Z</time></trkpt><trkpt lat="44.52220196429783" lon="9.656972742081598"><ele>699.0</ele><time>2026-04-04T12:02:34Z</time></trkpt><trkpt lat="44.5223883057874" lon="9.65696289572393"><ele>700.0</ele><time>2026-04-04T12:02:36Z</time></trkpt><trkpt lat="44.52250904321053" lon="9.656870838922226"><ele>701.0</ele><time>2026-04-04T12:02:38Z</time></trkpt><trkpt lat="44.52256764835865" lon="9.65681777404858"><ele>702.0</ele><time>2026-04-04T12:02:39Z</time></trkpt><trkpt lat="44.52262059862265" lon="9.656766421188372"><ele>702.0</ele><time>2026-04-04T12:02:40Z</time></trkpt><trkpt lat="44.522691141152606" lon="9.656683367947794"><ele>702.0</ele><time>2026-04-04T12:02:42Z</time></trkpt><trkpt lat="44.52273855182486" lon="9.656602280079865"><ele>702.0</ele><time>2026-04-04T12:02:44Z</time></trkpt><trkpt lat="44.52278843055465" lon="9.65654320027318"><ele>702.0</ele><time>2026-04-04T12:02:46Z</time></trkpt><trkpt lat="44.522847678800694" lon="9.656465807848605"><ele>702.0</ele><time>2026-04-04T12:02:49Z</time></trkpt><trkpt lat="44.52292149294481" lon="9.656382091277042"><ele>702.0</ele><time>2026-04-04T12:02:51Z</time></trkpt><trkpt lat="44.52301051901924" lon="9.656342571671596"><ele>704.8333333333334</ele><time>2026-04-04T12:02:53Z</time></trkpt><trkpt lat="44.52310716477188" lon="9.6563343418857"><ele>707.6666666666666</ele><time>2026-04-04T12:02:57Z</time></trkpt><trkpt lat="44.52318901816415" lon="9.656337180776438"><ele>710.5</ele><time>2026-04-04T12:02:59Z</time></trkpt><trkpt lat="44.52328066757189" lon="9.65628764823374"><ele>713.3333333333333</ele><time>2026-04-04T12:03:01Z</time></trkpt><trkpt lat="44.52331959142827" lon="9.656197204688464"><ele>716.1666666666666</ele><time>2026-04-04T12:03:03Z</time></trkpt><trkpt lat="44.5234018849327" lon="9.656156637119324"><ele>719.0</ele><time>2026-04-04T12:03:05Z</time></trkpt><trkpt lat="44.5234648645182" lon="9.656101197045015"><ele>720.2</ele><time>2026-04-04T12:03:07Z</time></trkpt><trkpt lat="44.52353283641499" lon="9.656032294795562"><ele>721.4000000000001</ele><time>2026-04-04T12:03:29Z</time></trkpt><trkpt lat="44.523540472905765" lon="9.655866176047313"><ele>722.6</ele><time>2026-04-04T12:03:31Z</time></trkpt><trkpt lat="44.52351221808233" lon="9.655761090093447"><ele>723.8</ele><time>2026-04-04T12:03:32Z</time></trkpt><trkpt lat="44.5234604139606" lon="9.65567029639402"><ele>725.0</ele><time>2026-04-04T12:03:33Z</time></trkpt><trkpt lat="44.52338460868388" lon="9.655609738810895"><ele>725.0</ele><time>2026-04-04T12:03:34Z</time></trkpt><trkpt lat="44.52329413790604" lon="9.655574539703892"><ele>725.0</ele><time>2026-04-04T12:03:35Z</time></trkpt><trkpt lat="44.523193561651354" lon="9.655568046379276"><ele>725.0</ele><time>2026-04-04T12:03:36Z</time></trkpt><trkpt lat="44.52309705593572" lon="9.655572404132934"><ele>725.0</ele><time>2026-04-04T12:03:37Z</time></trkpt><trkpt lat="44.52302639572347" lon="9.655577056043303"><ele>725.0</ele><time>2026-04-04T12:03:38Z</time></trkpt><trkpt lat="44.52296234712751" lon="9.655570359037378"><ele>725.0</ele><time>2026-04-04T12:03:39Z</time></trkpt><trkpt lat="44.52289465496559" lon="9.655561877819261"><ele>725.1666666666666</ele><time>2026-04-04T12:03:40Z</time></trkpt><trkpt lat="44.522830586967466" lon="9.655546824336113"><ele>725.3333333333333</ele><time>2026-04-04T12:03:41Z</time></trkpt><trkpt lat="44.52273643530288" lon="9.655513273567436"><ele>725.5</ele><time>2026-04-04T12:03:43Z</time></trkpt><trkpt lat="44.52265909907828" lon="9.65550027293727"><ele>725.6666666666666</ele><time>2026-04-04T12:03:45Z</time></trkpt><trkpt lat="44.52260002199548" lon="9.655440846345076"><ele>725.8333333333334</ele><time>2026-04-04T12:03:47Z</time></trkpt><trkpt lat="44.522562889738474" lon="9.655301675974505"><ele>726.0</ele><time>2026-04-04T12:03:49Z</time></trkpt><trkpt lat="44.52252305855558" lon="9.655224764351413"><ele>726.0</ele><time>2026-04-04T12:03:52Z</time></trkpt><trkpt lat="44.52246300095804" lon="9.655117137669428"><ele>726.0</ele><time>2026-04-04T12:03:54Z</time></trkpt><trkpt lat="44.522379886183664" lon="9.655005382374885"><ele>726.0</ele><time>2026-04-04T12:03:56Z</time></trkpt><trkpt lat="44.52233350578619" lon="9.654942144065474"><ele>726.0</ele><time>2026-04-04T12:03:57Z</time></trkpt><trkpt lat="44.52230622043095" lon="9.65481573333598"><ele>726.0</ele><time>2026-04-04T12:03:59Z</time></trkpt><trkpt lat="44.52224899331984" lon="9.654668876697942"><ele>726.0</ele><time>2026-04-04T12:04:01Z</time></trkpt><trkpt lat="44.52218900976037" lon="9.654537641735196"><ele>726.0</ele><time>2026-04-04T12:04:03Z</time></trkpt><trkpt lat="44.522154204532924" lon="9.654364714592147"><ele>726.0</ele><time>2026-04-04T12:04:05Z</time></trkpt><trkpt lat="44.52209908127862" lon="9.65420833265836"><ele>726.0</ele><time>2026-04-04T12:04:07Z</time></trkpt><trkpt lat="44.522053425172125" lon="9.654107190347553"><ele>726.0</ele><time>2026-04-04T12:04:08Z</time></trkpt><trkpt lat="44.522024270196226" lon="9.654008036902328"><ele>724.9999999999999</ele><time>2026-04-04T12:04:09Z</time></trkpt><trkpt lat="44.52198456306569" lon="9.653927265151957"><ele>724.0</ele><time>2026-04-04T12:04:10Z</time></trkpt><trkpt lat="44.52195244417079" lon="9.653844544183654"><ele>723.0</ele><time>2026-04-04T12:04:11Z</time></trkpt><trkpt lat="44.5219287170281" lon="9.653749532105051"><ele>722.0</ele><time>2026-04-04T12:04:12Z</time></trkpt><trkpt lat="44.52192985317803" lon="9.65364613201625"><ele>721.0</ele><time>2026-04-04T12:04:13Z</time></trkpt><trkpt lat="44.52195248444626" lon="9.653545812099953"><ele>719.9999999999999</ele><time>2026-04-04T12:04:14Z</time></trkpt><trkpt lat="44.5220030447327" lon="9.653453635328091"><ele>719.0</ele><time>2026-04-04T12:04:15Z</time></trkpt><trkpt lat="44.52204789404395" lon="9.653365227918732"><ele>722.0</ele><time>2026-04-04T12:04:16Z</time></trkpt><trkpt lat="44.522072474980234" lon="9.65326487385929"><ele>725.0</ele><time>2026-04-04T12:04:17Z</time></trkpt><trkpt lat="44.52210361983132" lon="9.653184153315864"><ele>728.0</ele><time>2026-04-04T12:04:18Z</time></trkpt><trkpt lat="44.52214284421425" lon="9.653065216422506"><ele>731.0</ele><time>2026-04-04T12:04:20Z</time></trkpt><trkpt lat="44.522172037133736" lon="9.652911637159857"><ele>734.0</ele><time>2026-04-04T12:04:22Z</time></trkpt><trkpt lat="44.52217873434222" lon="9.652775526343557"><ele>737.0</ele><time>2026-04-04T12:04:24Z</time></trkpt><trkpt lat="44.52216675631611" lon="9.65264411324124"><ele>737.6</ele><time>2026-04-04T12:04:26Z</time></trkpt><trkpt lat="44.52212196298349" lon="9.652559895088864"><ele>738.2</ele><time>2026-04-04T12:04:28Z</time></trkpt><trkpt lat="44.522024909688525" lon="9.652434675775826"><ele>738.8</ele><time>2026-04-04T12:04:30Z</time></trkpt><trkpt lat="44.5219179911413" lon="9.652361284686535"><ele>739.4</ele><time>2026-04-04T12:04:32Z</time></trkpt><trkpt lat="44.52182377616819" lon="9.652259028843572"><ele>740.0</ele><time>2026-04-04T12:04:34Z</time></trkpt><trkpt lat="44.52175881529071" lon="9.652137640186774"><ele>738.8</ele><time>2026-04-04T12:04:36Z</time></trkpt><trkpt lat="44.52170102818579" lon="9.651993601311865"><ele>737.6</ele><time>2026-04-04T12:04:38Z</time></trkpt><trkpt lat="44.52167226721014" lon="9.651839180227364"><ele>736.4000000000001</ele><time>2026-04-04T12:04:40Z</time></trkpt><trkpt lat="44.521657668096616" lon="9.651739885348315"><ele>735.2</ele><time>2026-04-04T12:05:02Z</time></trkpt><trkpt lat="44.521698690649124" lon="9.651606199262902"><ele>734.0</ele><time>2026-04-04T12:05:04Z</time></trkpt><trkpt lat="44.52172759596737" lon="9.651504554020619"><ele>734.0</ele><time>2026-04-04T12:05:06Z</time></trkpt><trkpt lat="44.521742937839974" lon="9.65138513082814"><ele>734.0</ele><time>2026-04-04T12:05:09Z</time></trkpt><trkpt lat="44.52178133586114" lon="9.651265558217837"><ele>734.0</ele><time>2026-04-04T12:05:11Z</time></trkpt><trkpt lat="44.521813320929795" lon="9.651168763471132"><ele>734.0</ele><time>2026-04-04T12:05:13Z</time></trkpt><trkpt lat="44.5218782377106" lon="9.65104940804605"><ele>734.0</ele><time>2026-04-04T12:05:16Z</time></trkpt><trkpt lat="44.52194066842487" lon="9.650958030543766"><ele>732.8333333333333</ele><time>2026-04-04T12:05:18Z</time></trkpt><trkpt lat="44.521965646416014" lon="9.65084498325043"><ele>731.6666666666666</ele><time>2026-04-04T12:05:20Z</time></trkpt><trkpt lat="44.521937636957176" lon="9.650763584103577"><ele>730.5</ele><time>2026-04-04T12:05:23Z</time></trkpt><trkpt lat="44.52186552132857" lon="9.650719709309373"><ele>729.3333333333334</ele><time>2026-04-04T12:05:25Z</time></trkpt><trkpt lat="44.52178949214074" lon="9.650640693076346"><ele>728.1666666666667</ele><time>2026-04-04T12:05:27Z</time></trkpt><trkpt lat="44.521743524971846" lon="9.650570435402958"><ele>727.0</ele><time>2026-04-04T12:05:29Z</time></trkpt><trkpt lat="44.52165545795378" lon="9.650498464335284"><ele>727.0</ele><time>2026-04-04T12:05:31Z</time></trkpt><trkpt lat="44.52159782463434" lon="9.650366575155918"><ele>727.0</ele><time>2026-04-04T12:05:33Z</time></trkpt><trkpt lat="44.52155902550872" lon="9.650282593907928"><ele>727.0</ele><time>2026-04-04T12:05:34Z</time></trkpt><trkpt lat="44.52151441238655" lon="9.650186131333442"><ele>727.0</ele><time>2026-04-04T12:05:36Z</time></trkpt><trkpt lat="44.521455798843945" lon="9.650118547760579"><ele>727.0</ele><time>2026-04-04T12:05:37Z</time></trkpt><trkpt lat="44.52132181808964" lon="9.65000669922596"><ele>727.1666666666667</ele><time>2026-04-04T12:05:38Z</time></trkpt><trkpt lat="44.5212482136732" lon="9.649954394264634"><ele>727.3333333333334</ele><time>2026-04-04T12:05:39Z</time></trkpt><trkpt lat="44.5211836536485" lon="9.649907522712377"><ele>727.5</ele><time>2026-04-04T12:05:40Z</time></trkpt><trkpt lat="44.52112244248287" lon="9.649876516098145"><ele>727.6666666666666</ele><time>2026-04-04T12:05:41Z</time></trkpt><trkpt lat="44.521038032845276" lon="9.649801037804368"><ele>727.8333333333333</ele><time>2026-04-04T12:05:42Z</time></trkpt><trkpt lat="44.5209821234151" lon="9.6497444867315"><ele>728.0</ele><time>2026-04-04T12:05:43Z</time></trkpt><trkpt lat="44.52096938750208" lon="9.649656440787679"><ele>728.0</ele><time>2026-04-04T12:05:57Z</time></trkpt><trkpt lat="44.521041212826646" lon="9.649635160421258"><ele>728.0</ele><time>2026-04-04T12:06:01Z</time></trkpt><trkpt lat="44.52112881969843" lon="9.649593338096746"><ele>728.0</ele><time>2026-04-04T12:06:04Z</time></trkpt><trkpt lat="44.521235820686584" lon="9.649501618193284"><ele>728.0</ele><time>2026-04-04T12:06:06Z</time></trkpt><trkpt lat="44.52134921745533" lon="9.64942063806486"><ele>728.0</ele><time>2026-04-04T12:06:08Z</time></trkpt><trkpt lat="44.52141208035974" lon="9.649400887979162"><ele>728.6666666666666</ele><time>2026-04-04T12:06:09Z</time></trkpt><trkpt lat="44.521511194689126" lon="9.649320890711023"><ele>729.3333333333333</ele><time>2026-04-04T12:06:11Z</time></trkpt><trkpt lat="44.52157465864365" lon="9.649279780379999"><ele>730.0</ele><time>2026-04-04T12:06:12Z</time></trkpt><trkpt lat="44.52165827070336" lon="9.649210845700244"><ele>730.6666666666666</ele><time>2026-04-04T12:06:14Z</time></trkpt><trkpt lat="44.5217100538066" lon="9.649155712344417"><ele>731.3333333333334</ele><time>2026-04-04T12:06:15Z</time></trkpt><trkpt lat="44.52176521425668" lon="9.649109965132014"><ele>732.0</ele><time>2026-04-04T12:06:16Z</time></trkpt><trkpt lat="44.52182564800293" lon="9.649076298462257"><ele>732.0</ele><time>2026-04-04T12:06:18Z</time></trkpt><trkpt lat="44.52188563990466" lon="9.649027390849238"><ele>732.0</ele><time>2026-04-04T12:06:20Z</time></trkpt><trkpt lat="44.52195167134478" lon="9.64899171179307"><ele>732.0</ele><time>2026-04-04T12:06:22Z</time></trkpt><trkpt lat="44.52204205403526" lon="9.648904239337156"><ele>732.0</ele><time>2026-04-04T12:06:24Z</time></trkpt><trkpt lat="44.522150244714915" lon="9.648885753806214"><ele>732.0</ele><time>2026-04-04T12:06:26Z</time></trkpt><trkpt lat="44.52224298007438" lon="9.648904381493974"><ele>736.2</ele><time>2026-04-04T12:06:29Z</time></trkpt><trkpt lat="44.5223313302741" lon="9.648921848391153"><ele>740.4000000000001</ele><time>2026-04-04T12:06:31Z</time></trkpt><trkpt lat="44.52243000146684" lon="9.648921627845146"><ele>744.5999999999999</ele><time>2026-04-04T12:06:33Z</time></trkpt><trkpt lat="44.522533114583524" lon="9.648924831428928"><ele>748.8</ele><time>2026-04-04T12:06:35Z</time></trkpt><trkpt lat="44.52263443674851" lon="9.648959657141448"><ele>753.0</ele><time>2026-04-04T12:06:37Z</time></trkpt><trkpt lat="44.522745390026856" lon="9.649023745623875"><ele>753.0</ele><time>2026-04-04T12:06:39Z</time></trkpt><trkpt lat="44.52285833470383" lon="9.64908118649879"><ele>753.0</ele><time>2026-04-04T12:06:41Z</time></trkpt><trkpt lat="44.52296949230419" lon="9.649136063611014"><ele>753.0</ele><time>2026-04-04T12:06:43Z</time></trkpt><trkpt lat="44.52303714049882" lon="9.649166705832451"><ele>753.0</ele><time>2026-04-04T12:06:44Z</time></trkpt><trkpt lat="44.523133999725694" lon="9.649248742849643"><ele>753.0</ele><time>2026-04-04T12:06:46Z</time></trkpt><trkpt lat="44.52324250894034" lon="9.649319069864353"><ele>756.4</ele><time>2026-04-04T12:06:48Z</time></trkpt><trkpt lat="44.52332204588198" lon="9.649425305132125"><ele>759.8</ele><time>2026-04-04T12:06:50Z</time></trkpt><trkpt lat="44.52339253532628" lon="9.649521963347418"><ele>763.2</ele><time>2026-04-04T12:06:52Z</time></trkpt><trkpt lat="44.52347097654557" lon="9.649590788832695"><ele>766.6</ele><time>2026-04-04T12:06:54Z</time></trkpt><trkpt lat="44.523548440963125" lon="9.649637004966495"><ele>770.0</ele><time>2026-04-04T12:06:56Z</time></trkpt><trkpt lat="44.523639909106635" lon="9.649682096632125"><ele>773.8333333333334</ele><time>2026-04-04T12:06:58Z</time></trkpt><trkpt lat="44.5237372987131" lon="9.649711612220718"><ele>777.6666666666667</ele><time>2026-04-04T12:07:00Z</time></trkpt><trkpt lat="44.523807258745435" lon="9.649721178696346"><ele>781.5</ele><time>2026-04-04T12:07:02Z</time></trkpt><trkpt lat="44.52387526924114" lon="9.649743646623518"><ele>785.3333333333333</ele><time>2026-04-04T12:07:04Z</time></trkpt><trkpt lat="44.52397940900308" lon="9.649748690279697"><ele>789.1666666666666</ele><time>2026-04-04T12:07:06Z</time></trkpt><trkpt lat="44.52406609705755" lon="9.649737034934025"><ele>793.0</ele><time>2026-04-04T12:07:08Z</time></trkpt><trkpt lat="44.52415271367192" lon="9.649745664506344"><ele>792.9999999999999</ele><time>2026-04-04T12:07:10Z</time></trkpt><trkpt lat="44.52425042988022" lon="9.649772864523811"><ele>793.0</ele><time>2026-04-04T12:07:12Z</time></trkpt><trkpt lat="44.524356732295814" lon="9.649809320207554"><ele>793.0</ele><time>2026-04-04T12:07:14Z</time></trkpt><trkpt lat="44.5244381385701" lon="9.649850113579348"><ele>793.0</ele><time>2026-04-04T12:07:16Z</time></trkpt><trkpt lat="44.52450543787688" lon="9.649873881888551"><ele>792.9999999999999</ele><time>2026-04-04T12:07:19Z</time></trkpt><trkpt lat="44.52458877545143" lon="9.649885260627071"><ele>793.0</ele><time>2026-04-04T12:07:22Z</time></trkpt><trkpt lat="44.52466584464746" lon="9.64991509378985"><ele>795.0</ele><time>2026-04-04T12:07:23Z</time></trkpt><trkpt lat="44.52471611585958" lon="9.650016694574294"><ele>797.0</ele><time>2026-04-04T12:07:24Z</time></trkpt><trkpt lat="44.524798638606384" lon="9.650047282280635"><ele>799.0</ele><time>2026-04-04T12:07:26Z</time></trkpt><trkpt lat="44.52486723748625" lon="9.650097236503683"><ele>801.0</ele><time>2026-04-04T12:07:28Z</time></trkpt><trkpt lat="44.52498342141725" lon="9.650183474231547"><ele>803.0</ele><time>2026-04-04T12:07:30Z</time></trkpt><trkpt lat="44.52506274318886" lon="9.650231031258013"><ele>802.9999999999999</ele><time>2026-04-04T12:07:31Z</time></trkpt><trkpt lat="44.52515333967978" lon="9.65029023040691"><ele>803.0</ele><time>2026-04-04T12:07:33Z</time></trkpt><trkpt lat="44.52521365974109" lon="9.650324383189643"><ele>803.0</ele><time>2026-04-04T12:07:34Z</time></trkpt><trkpt lat="44.52527733117335" lon="9.65035044767744"><ele>803.0</ele><time>2026-04-04T12:07:35Z</time></trkpt><trkpt lat="44.52534104179618" lon="9.650403204052742"><ele>803.0</ele><time>2026-04-04T12:07:36Z</time></trkpt><trkpt lat="44.52539482229619" lon="9.650463576110173"><ele>802.9999999999999</ele><time>2026-04-04T12:07:37Z</time></trkpt><trkpt lat="44.52543842525478" lon="9.650533082445174"><ele>803.0</ele><time>2026-04-04T12:07:38Z</time></trkpt><trkpt lat="44.52548570527934" lon="9.650604806446403"><ele>809.4</ele><time>2026-04-04T12:07:39Z</time></trkpt><trkpt lat="44.52557430950568" lon="9.650729305314735"><ele>815.8</ele><time>2026-04-04T12:07:41Z</time></trkpt><trkpt lat="44.52562597734781" lon="9.650808948632754"><ele>822.2</ele><time>2026-04-04T12:07:42Z</time></trkpt><trkpt lat="44.525667928017725" lon="9.650876935152278"><ele>828.6</ele><time>2026-04-04T12:07:43Z</time></trkpt><trkpt lat="44.525739485386495" lon="9.650988697700015"><ele>835.0</ele><time>2026-04-04T12:07:45Z</time></trkpt><trkpt lat="44.5258218877148" lon="9.651123600313111"><ele>834.9999999999999</ele><time>2026-04-04T12:07:49Z</time></trkpt><trkpt lat="44.525856774368854" lon="9.651201298790602"><ele>835.0</ele><time>2026-04-04T12:07:51Z</time></trkpt><trkpt lat="44.52596886020515" lon="9.651293701901729"><ele>835.0</ele><time>2026-04-04T12:07:54Z</time></trkpt><trkpt lat="44.526008634366335" lon="9.651381682036655"><ele>835.0</ele><time>2026-04-04T12:07:55Z</time></trkpt><trkpt lat="44.526053067465334" lon="9.651468544763894"><ele>834.9999999999999</ele><time>2026-04-04T12:07:59Z</time></trkpt><trkpt lat="44.52610884865391" lon="9.651524576913413"><ele>835.0</ele><time>2026-04-04T12:08:01Z</time></trkpt><trkpt lat="44.526201577461954" lon="9.651655661249736"><ele>840.9999999999999</ele><time>2026-04-04T12:08:04Z</time></trkpt><trkpt lat="44.526259401839916" lon="9.65170090266199"><ele>847.0</ele><time>2026-04-04T12:08:05Z</time></trkpt><trkpt lat="44.52632078681523" lon="9.651730392101852"><ele>853.0</ele><time>2026-04-04T12:08:06Z</time></trkpt><trkpt lat="44.52640604245121" lon="9.651834731979529"><ele>859.0</ele><time>2026-04-04T12:08:08Z</time></trkpt><trkpt lat="44.52653107193246" lon="9.651882894573196"><ele>864.9999999999999</ele><time>2026-04-04T12:08:10Z</time></trkpt><trkpt lat="44.52660064004305" lon="9.651883998638658"><ele>871.0</ele><time>2026-04-04T12:08:11Z</time></trkpt><trkpt lat="44.52669085785808" lon="9.651915671886298"><ele>870.9999999999999</ele><time>2026-04-04T12:08:12Z</time></trkpt><trkpt lat="44.52675366927792" lon="9.651936001282458"><ele>871.0</ele><time>2026-04-04T12:08:13Z</time></trkpt><trkpt lat="44.526817259315244" lon="9.65194332371821"><ele>871.0</ele><time>2026-04-04T12:08:15Z</time></trkpt><trkpt lat="44.52687858794391" lon="9.651963780501365"><ele>871.0</ele><time>2026-04-04T12:08:17Z</time></trkpt><trkpt lat="44.52694030956524" lon="9.651944961070543"><ele>870.9999999999999</ele><time>2026-04-04T12:08:18Z</time></trkpt><trkpt lat="44.527088130019976" lon="9.651994972903026"><ele>871.0</ele><time>2026-04-04T12:08:19Z</time></trkpt><trkpt lat="44.52715322235511" lon="9.651987994359613"><ele>870.5999999999999</ele><time>2026-04-04T12:08:20Z</time></trkpt><trkpt lat="44.52727337697721" lon="9.651985501961164"><ele>870.1999999999999</ele><time>2026-04-04T12:08:22Z</time></trkpt><trkpt lat="44.52736847213714" lon="9.651993280121003"><ele>869.8000000000001</ele><time>2026-04-04T12:08:24Z</time></trkpt><trkpt lat="44.527436562221546" lon="9.651984957470313"><ele>869.4000000000001</ele><time>2026-04-04T12:08:25Z</time></trkpt><trkpt lat="44.52755094956937" lon="9.65194501258141"><ele>869.0</ele><time>2026-04-04T12:08:27Z</time></trkpt><trkpt lat="44.52765890363004" lon="9.651936793062582"><ele>873.5000000000001</ele><time>2026-04-04T12:08:29Z</time></trkpt><trkpt lat="44.52774259175958" lon="9.651953401620336"><ele>878.0</ele><time>2026-04-04T12:08:31Z</time></trkpt><trkpt lat="44.527813497379825" lon="9.651910746518526"><ele>882.5</ele><time>2026-04-04T12:08:34Z</time></trkpt><trkpt lat="44.52789457674047" lon="9.651924750820072"><ele>887.0</ele><time>2026-04-04T12:08:36Z</time></trkpt><trkpt lat="44.527968525929126" lon="9.651891511470344"><ele>891.5000000000001</ele><time>2026-04-04T12:08:38Z</time></trkpt><trkpt lat="44.52803399680117" lon="9.651870591151564"><ele>896.0</ele><time>2026-04-04T12:08:40Z</time></trkpt><trkpt lat="44.52812062020598" lon="9.651879611538538"><ele>895.6666666666667</ele><time>2026-04-04T12:08:45Z</time></trkpt><trkpt lat="44.52819903468271" lon="9.651939728790696"><ele>895.3333333333334</ele><time>2026-04-04T12:08:47Z</time></trkpt><trkpt lat="44.52830263422985" lon="9.65196987588727"><ele>895.0</ele><time>2026-04-04T12:08:48Z</time></trkpt><trkpt lat="44.52837881793531" lon="9.651995156401368"><ele>894.6666666666667</ele><time>2026-04-04T12:08:49Z</time></trkpt><trkpt lat="44.52845617972359" lon="9.65201595340448"><ele>894.3333333333334</ele><time>2026-04-04T12:08:50Z</time></trkpt><trkpt lat="44.52852508100175" lon="9.65205059118237"><ele>894.0</ele><time>2026-04-04T12:08:52Z</time></trkpt><trkpt lat="44.528592911168744" lon="9.652064219793274"><ele>894.0</ele><time>2026-04-04T12:08:54Z</time></trkpt><trkpt lat="44.52869004743359" lon="9.652086764293577"><ele>894.0</ele><time>2026-04-04T12:08:56Z</time></trkpt><trkpt lat="44.52874693802343" lon="9.652149130805252"><ele>894.0</ele><time>2026-04-04T12:08:58Z</time></trkpt><trkpt lat="44.52881253021792" lon="9.652184167123322"><ele>894.0</ele><time>2026-04-04T12:09:00Z</time></trkpt><trkpt lat="44.52888942903118" lon="9.652239973304312"><ele>894.0</ele><time>2026-04-04T12:09:03Z</time></trkpt><trkpt lat="44.528950641324606" lon="9.652297414003863"><ele>894.0</ele><time>2026-04-04T12:09:06Z</time></trkpt><trkpt lat="44.52902813031246" lon="9.652427394735009"><ele>898.8000000000001</ele><time>2026-04-04T12:09:15Z</time></trkpt><trkpt lat="44.529132797431416" lon="9.652454246598474"><ele>903.6000000000001</ele><time>2026-04-04T12:09:23Z</time></trkpt><trkpt lat="44.529258432728184" lon="9.652461353809496"><ele>908.4</ele><time>2026-04-04T12:09:59Z</time></trkpt><trkpt lat="44.52918840465089" lon="9.652468168219743"><ele>913.2</ele><time>2026-04-04T12:10:20Z</time></trkpt><trkpt lat="44.529271532841676" lon="9.65250595090751"><ele>918.0</ele><time>2026-04-04T12:11:58Z</time></trkpt><trkpt lat="44.52920333092816" lon="9.652475340035119"><ele>918.0</ele><time>2026-04-04T12:12:31Z</time></trkpt><trkpt lat="44.52913206001791" lon="9.652428379546679"><ele>918.0</ele><time>2026-04-04T12:12:48Z</time></trkpt><trkpt lat="44.52923041825786" lon="9.652477639236782"><ele>918.0</ele><time>2026-04-04T12:14:46Z</time></trkpt><trkpt lat="44.52934557576154" lon="9.652421828368354"><ele>918.0</ele><time>2026-04-04T12:16:02Z</time></trkpt><trkpt lat="44.529245390767066" lon="9.65243052430435"><ele>918.0</ele><time>2026-04-04T12:16:04Z</time></trkpt><trkpt lat="44.529180628990964" lon="9.652452253004913"><ele>918.0</ele><time>2026-04-04T12:27:57Z</time></trkpt><trkpt lat="44.529073256810236" lon="9.652444818534354"><ele>918.0</ele><time>2026-04-04T12:29:34Z</time></trkpt><trkpt lat="44.529144450463825" lon="9.652443221799732"><ele>918.0</ele><time>2026-04-04T12:29:50Z</time></trkpt><trkpt lat="44.529221556680916" lon="9.65245746891606"><ele>918.0</ele><time>2026-04-04T12:29:53Z</time></trkpt><trkpt lat="44.52928242034188" lon="9.652537138728578"><ele>918.0</ele><time>2026-04-04T12:29:56Z</time></trkpt><trkpt lat="44.529250501150955" lon="9.652673975877494"><ele>918.0</ele><time>2026-04-04T12:29:58Z</time></trkpt><trkpt lat="44.52916225757623" lon="9.652724145838546"><ele>919.4</ele><time>2026-04-04T12:30:00Z</time></trkpt><trkpt lat="44.52904236891957" lon="9.652792990449754"><ele>920.8</ele><time>2026-04-04T12:30:02Z</time></trkpt><trkpt lat="44.52898681169732" lon="9.652842957542374"><ele>922.2</ele><time>2026-04-04T12:30:03Z</time></trkpt><trkpt lat="44.52894542800767" lon="9.65292008496734"><ele>923.6</ele><time>2026-04-04T12:30:04Z</time></trkpt><trkpt lat="44.528887675134804" lon="9.653033564690999"><ele>925.0</ele><time>2026-04-04T12:30:06Z</time></trkpt><trkpt lat="44.52887605951217" lon="9.653214257970676"><ele>925.0</ele><time>2026-04-04T12:30:08Z</time></trkpt><trkpt lat="44.528888386923285" lon="9.653344267167848"><ele>925.0</ele><time>2026-04-04T12:30:09Z</time></trkpt><trkpt lat="44.52888575617781" lon="9.653443377782708"><ele>925.0</ele><time>2026-04-04T12:30:10Z</time></trkpt><trkpt lat="44.52890842570479" lon="9.65354641560297"><ele>925.0</ele><time>2026-04-04T12:30:11Z</time></trkpt><trkpt lat="44.52889033659418" lon="9.653712232750136"><ele>925.0</ele><time>2026-04-04T12:30:13Z</time></trkpt><trkpt lat="44.52883870512142" lon="9.653860363644794"><ele>924.0</ele><time>2026-04-04T12:30:15Z</time></trkpt><trkpt lat="44.52879965572292" lon="9.653975427606934"><ele>923.0</ele><time>2026-04-04T12:30:17Z</time></trkpt><trkpt lat="44.52876013228301" lon="9.654110217347322"><ele>922.0</ele><time>2026-04-04T12:30:19Z</time></trkpt><trkpt lat="44.52872194066947" lon="9.654294922303304"><ele>921.0</ele><time>2026-04-04T12:30:22Z</time></trkpt><trkpt lat="44.528692432361716" lon="9.654436686888042"><ele>920.0</ele><time>2026-04-04T12:30:24Z</time></trkpt><trkpt lat="44.52868426985932" lon="9.654603876353077"><ele>920.0</ele><time>2026-04-04T12:30:26Z</time></trkpt><trkpt lat="44.528688376427304" lon="9.654751936943413"><ele>920.0</ele><time>2026-04-04T12:30:28Z</time></trkpt><trkpt lat="44.52875024597516" lon="9.654874649677241"><ele>920.0</ele><time>2026-04-04T12:30:30Z</time></trkpt><trkpt lat="44.52884466315615" lon="9.654965634162124"><ele>920.0</ele><time>2026-04-04T12:30:32Z</time></trkpt><trkpt lat="44.52891978381291" lon="9.655050502538398"><ele>920.0</ele><time>2026-04-04T12:30:34Z</time></trkpt><trkpt lat="44.52901452258006" lon="9.655078621399555"><ele>922.5000000000001</ele><time>2026-04-04T12:30:37Z</time></trkpt><trkpt lat="44.52910474617204" lon="9.655068046916872"><ele>925.0</ele><time>2026-04-04T12:30:39Z</time></trkpt><trkpt lat="44.529173625516485" lon="9.655094188413319"><ele>927.5</ele><time>2026-04-04T12:31:55Z</time></trkpt><trkpt lat="44.52924051738496" lon="9.655139519377842"><ele>930.0</ele><time>2026-04-04T12:31:57Z</time></trkpt><trkpt lat="44.5292965057852" lon="9.655212087082951"><ele>932.5000000000001</ele><time>2026-04-04T12:31:59Z</time></trkpt><trkpt lat="44.52936583295161" lon="9.655262846159367"><ele>935.0</ele><time>2026-04-04T12:32:01Z</time></trkpt><trkpt lat="44.5294392817005" lon="9.655325794655313"><ele>935.0000000000001</ele><time>2026-04-04T12:32:04Z</time></trkpt><trkpt lat="44.52949680236465" lon="9.655372152752992"><ele>935.0</ele><time>2026-04-04T12:32:06Z</time></trkpt><trkpt lat="44.52957504581931" lon="9.655354570237678"><ele>935.0</ele><time>2026-04-04T12:32:09Z</time></trkpt><trkpt lat="44.529639048414815" lon="9.655295550221284"><ele>935.0</ele><time>2026-04-04T12:32:12Z</time></trkpt><trkpt lat="44.52968081843189" lon="9.655212526372443"><ele>935.0000000000001</ele><time>2026-04-04T12:32:13Z</time></trkpt><trkpt lat="44.529726156110264" lon="9.655133904847384"><ele>935.0</ele><time>2026-04-04T12:32:16Z</time></trkpt><trkpt lat="44.52978354903087" lon="9.654990946600092"><ele>942.0</ele><time>2026-04-04T12:32:18Z</time></trkpt><trkpt lat="44.52984304168709" lon="9.654870707043939"><ele>949.0</ele><time>2026-04-04T12:32:19Z</time></trkpt><trkpt lat="44.52988691351597" lon="9.65474048153762"><ele>956.0</ele><time>2026-04-04T12:32:21Z</time></trkpt><trkpt lat="44.5299042105613" lon="9.6545963745101"><ele>963.0</ele><time>2026-04-04T12:32:23Z</time></trkpt><trkpt lat="44.5299506523235" lon="9.654461766938054"><ele>970.0</ele><time>2026-04-04T12:32:25Z</time></trkpt><trkpt lat="44.5300552971554" lon="9.654388316785557"><ele>970.0</ele><time>2026-04-04T12:32:27Z</time></trkpt><trkpt lat="44.53014817151397" lon="9.654355465335717"><ele>970.0</ele><time>2026-04-04T12:32:29Z</time></trkpt><trkpt lat="44.53023750105898" lon="9.65428745888904"><ele>970.0</ele><time>2026-04-04T12:32:31Z</time></trkpt><trkpt lat="44.53032233111258" lon="9.654203749233877"><ele>970.0</ele><time>2026-04-04T12:32:33Z</time></trkpt><trkpt lat="44.530399598551355" lon="9.654120057667441"><ele>970.0</ele><time>2026-04-04T12:32:35Z</time></trkpt><trkpt lat="44.530473594953094" lon="9.654077826194841"><ele>973.9999999999999</ele><time>2026-04-04T12:32:37Z</time></trkpt><trkpt lat="44.53056781848142" lon="9.654113985671737"><ele>978.0</ele><time>2026-04-04T12:32:39Z</time></trkpt><trkpt lat="44.530640118983094" lon="9.654078916071539"><ele>982.0</ele><time>2026-04-04T12:32:43Z</time></trkpt><trkpt lat="44.530733531785806" lon="9.654011572100332"><ele>986.0</ele><time>2026-04-04T12:34:11Z</time></trkpt><trkpt lat="44.53066577687057" lon="9.654098850779107"><ele>989.9999999999999</ele><time>2026-04-04T12:38:07Z</time></trkpt><trkpt lat="44.530741303683996" lon="9.654084893595837"><ele>994.0</ele><time>2026-04-04T12:45:04Z</time></trkpt><trkpt lat="44.530832126734715" lon="9.654052271827354"><ele>993.9999999999999</ele><time>2026-04-04T12:45:06Z</time></trkpt><trkpt lat="44.53091487416255" lon="9.654089691881353"><ele>994.0</ele><time>2026-04-04T12:45:08Z</time></trkpt><trkpt lat="44.53097502948853" lon="9.654130077229564"><ele>994.0</ele><time>2026-04-04T12:45:10Z</time></trkpt><trkpt lat="44.53103950412652" lon="9.65418282409178"><ele>994.0</ele><time>2026-04-04T12:45:12Z</time></trkpt><trkpt lat="44.5311323953933" lon="9.654183097123662"><ele>993.9999999999999</ele><time>2026-04-04T12:45:14Z</time></trkpt><trkpt lat="44.531202413809126" lon="9.654130901109612"><ele>994.0</ele><time>2026-04-04T12:45:16Z</time></trkpt><trkpt lat="44.53127923757549" lon="9.654137362475296"><ele>997.6</ele><time>2026-04-04T12:45:18Z</time></trkpt><trkpt lat="44.53136615022609" lon="9.65418338512282"><ele>1001.2</ele><time>2026-04-04T12:45:21Z</time></trkpt><trkpt lat="44.531453258754716" lon="9.654172425517249"><ele>1004.8000000000001</ele><time>2026-04-04T12:45:23Z</time></trkpt><trkpt lat="44.531517614747976" lon="9.654136523911523"><ele>1008.4000000000001</ele><time>2026-04-04T12:45:26Z</time></trkpt><trkpt lat="44.53158758156704" lon="9.654108870646441"><ele>1012.0</ele><time>2026-04-04T12:45:29Z</time></trkpt><trkpt lat="44.53187338421346" lon="9.654085506050485"><ele>1012.0</ele><time>2026-04-04T12:45:31Z</time></trkpt><trkpt lat="44.53199004214639" lon="9.654076668534481"><ele>1012.0</ele><time>2026-04-04T12:45:33Z</time></trkpt><trkpt lat="44.532088420554736" lon="9.654054920279329"><ele>1012.0</ele><time>2026-04-04T12:45:35Z</time></trkpt><trkpt lat="44.53218014548599" lon="9.65402927740105"><ele>1012.0</ele><time>2026-04-04T12:45:37Z</time></trkpt><trkpt lat="44.53228939974407" lon="9.653990305382115"><ele>1012.0</ele><time>2026-04-04T12:45:39Z</time></trkpt><trkpt lat="44.532387003682025" lon="9.65394506017544"><ele>1013.6666666666666</ele><time>2026-04-04T12:45:41Z</time></trkpt><trkpt lat="44.532490629021396" lon="9.653905917801962"><ele>1015.3333333333333</ele><time>2026-04-04T12:45:43Z</time></trkpt><trkpt lat="44.53260793385133" lon="9.653903105803627"><ele>1017.0</ele><time>2026-04-04T12:45:45Z</time></trkpt><trkpt lat="44.532671592729166" lon="9.653909666345081"><ele>1018.6666666666667</ele><time>2026-04-04T12:45:46Z</time></trkpt><trkpt lat="44.532746499293474" lon="9.653920828883907"><ele>1020.3333333333334</ele><time>2026-04-04T12:45:47Z</time></trkpt><trkpt lat="44.53281454370416" lon="9.653935298735346"><ele>1022.0</ele><time>2026-04-04T12:45:48Z</time></trkpt><trkpt lat="44.532881640837104" lon="9.653945776121462"><ele>1025.0</ele><time>2026-04-04T12:45:49Z</time></trkpt><trkpt lat="44.53299288394134" lon="9.653952583826406"><ele>1028.0</ele><time>2026-04-04T12:45:51Z</time></trkpt><trkpt lat="44.53309571895524" lon="9.653954651824892"><ele>1031.0</ele><time>2026-04-04T12:45:53Z</time></trkpt><trkpt lat="44.53315803637872" lon="9.653975845247102"><ele>1034.0</ele><time>2026-04-04T12:45:54Z</time></trkpt><trkpt lat="44.5332714993687" lon="9.65401302786233"><ele>1037.0</ele><time>2026-04-04T12:45:56Z</time></trkpt><trkpt lat="44.5333401925285" lon="9.654046777493699"><ele>1037.0</ele><time>2026-04-04T12:45:57Z</time></trkpt><trkpt lat="44.53343583587385" lon="9.65409670147654"><ele>1037.0</ele><time>2026-04-04T12:45:59Z</time></trkpt><trkpt lat="44.533540470502274" lon="9.65413723942138"><ele>1037.0</ele><time>2026-04-04T12:46:01Z</time></trkpt><trkpt lat="44.5336818470837" lon="9.654182759024433"><ele>1037.0</ele><time>2026-04-04T12:46:04Z</time></trkpt><trkpt lat="44.533751786687276" lon="9.654203378230978"><ele>1037.0</ele><time>2026-04-04T12:46:05Z</time></trkpt><trkpt lat="44.53386919130246" lon="9.654268717190503"><ele>1041.8</ele><time>2026-04-04T12:46:06Z</time></trkpt><trkpt lat="44.53398361223668" lon="9.654246401050738"><ele>1046.6</ele><time>2026-04-04T12:46:08Z</time></trkpt><trkpt lat="44.53408754410234" lon="9.65420557989085"><ele>1051.3999999999999</ele><time>2026-04-04T12:46:10Z</time></trkpt><trkpt lat="44.53417152241983" lon="9.654185044338245"><ele>1056.2</ele><time>2026-04-04T12:46:11Z</time></trkpt><trkpt lat="44.534236734440874" lon="9.654165776440212"><ele>1061.0</ele><time>2026-04-04T12:46:12Z</time></trkpt><trkpt lat="44.53431971228476" lon="9.654128799425841"><ele>1061.0</ele><time>2026-04-04T12:46:14Z</time></trkpt><trkpt lat="44.534381043257866" lon="9.654228551078432"><ele>1061.0</ele><time>2026-04-04T12:46:16Z</time></trkpt><trkpt lat="44.53440942108694" lon="9.65434857842109"><ele>1061.0</ele><time>2026-04-04T12:46:18Z</time></trkpt><trkpt lat="44.53441902469225" lon="9.654506315689385"><ele>1061.0</ele><time>2026-04-04T12:46:20Z</time></trkpt><trkpt lat="44.53444821142927" lon="9.65464999800731"><ele>1061.0</ele><time>2026-04-04T12:46:22Z</time></trkpt><trkpt lat="44.53449444858008" lon="9.65475193532155"><ele>1060.1666666666667</ele><time>2026-04-04T12:46:28Z</time></trkpt><trkpt lat="44.53447709985237" lon="9.654869002115712"><ele>1059.3333333333335</ele><time>2026-04-04T12:46:30Z</time></trkpt><trkpt lat="44.53445022372788" lon="9.654990219771046"><ele>1058.5</ele><time>2026-04-04T12:46:32Z</time></trkpt><trkpt lat="44.53442230444316" lon="9.655096177415293"><ele>1057.6666666666667</ele><time>2026-04-04T12:46:33Z</time></trkpt><trkpt lat="44.53443821532226" lon="9.65519975217585"><ele>1056.8333333333333</ele><time>2026-04-04T12:46:34Z</time></trkpt><trkpt lat="44.534505701782614" lon="9.655231642138464"><ele>1056.0</ele><time>2026-04-04T12:46:36Z</time></trkpt><trkpt lat="44.534603478509524" lon="9.655322642247826"><ele>1064.0</ele><time>2026-04-04T12:46:39Z</time></trkpt><trkpt lat="44.53466321234036" lon="9.655429518367674"><ele>1072.0</ele><time>2026-04-04T12:46:40Z</time></trkpt><trkpt lat="44.534687128122215" lon="9.655548421909424"><ele>1080.0</ele><time>2026-04-04T12:46:42Z</time></trkpt><trkpt lat="44.534741702215975" lon="9.655726524436526"><ele>1088.0</ele><time>2026-04-04T12:46:45Z</time></trkpt><trkpt lat="44.53475078636104" lon="9.65582587038679"><ele>1096.0</ele><time>2026-04-04T12:46:47Z</time></trkpt><trkpt lat="44.53474463655646" lon="9.655958714061791"><ele>1096.0</ele><time>2026-04-04T12:46:50Z</time></trkpt><trkpt lat="44.53477193083128" lon="9.6560806058721"><ele>1096.0</ele><time>2026-04-04T12:46:53Z</time></trkpt><trkpt lat="44.534794941779275" lon="9.656170494489647"><ele>1096.0</ele><time>2026-04-04T12:46:55Z</time></trkpt><trkpt lat="44.53481619484978" lon="9.656374907007484"><ele>1096.0</ele><time>2026-04-04T12:46:57Z</time></trkpt><trkpt lat="44.534810466542964" lon="9.656472273678911"><ele>1096.0</ele><time>2026-04-04T12:46:58Z</time></trkpt><trkpt lat="44.53480465590779" lon="9.656689030421441"><ele>1097.3999999999999</ele><time>2026-04-04T12:47:00Z</time></trkpt><trkpt lat="44.5347965503357" lon="9.656852223395857"><ele>1098.8</ele><time>2026-04-04T12:47:02Z</time></trkpt><trkpt lat="44.53479826132827" lon="9.656985565397898"><ele>1100.1999999999998</ele><time>2026-04-04T12:47:04Z</time></trkpt><trkpt lat="44.53481756886271" lon="9.657137829293502"><ele>1101.6</ele><time>2026-04-04T12:47:06Z</time></trkpt><trkpt lat="44.53480712158434" lon="9.657224966578934"><ele>1103.0</ele><time>2026-04-04T12:47:10Z</time></trkpt><trkpt lat="44.53484060934571" lon="9.657350901190814"><ele>1104.4</ele><time>2026-04-04T12:47:12Z</time></trkpt><trkpt lat="44.53485674478982" lon="9.657458537999403"><ele>1105.8</ele><time>2026-04-04T12:47:13Z</time></trkpt><trkpt lat="44.53485757914048" lon="9.65758675097377"><ele>1107.2</ele><time>2026-04-04T12:47:15Z</time></trkpt><trkpt lat="44.53486253937902" lon="9.6577066797349"><ele>1108.6</ele><time>2026-04-04T12:47:17Z</time></trkpt><trkpt lat="44.53491710182552" lon="9.65784807625746"><ele>1110.0</ele><time>2026-04-04T12:47:19Z</time></trkpt><trkpt lat="44.53495810939713" lon="9.657963605217104"><ele>1110.3333333333333</ele><time>2026-04-04T12:47:21Z</time></trkpt><trkpt lat="44.53497091373756" lon="9.658053066752823"><ele>1110.6666666666667</ele><time>2026-04-04T12:47:24Z</time></trkpt><trkpt lat="44.535012606759814" lon="9.658165879710442"><ele>1111.0</ele><time>2026-04-04T12:47:27Z</time></trkpt><trkpt lat="44.535050656937585" lon="9.658240682802282"><ele>1111.3333333333335</ele><time>2026-04-04T12:47:29Z</time></trkpt><trkpt lat="44.53510050502106" lon="9.658315625952763"><ele>1111.6666666666667</ele><time>2026-04-04T12:47:31Z</time></trkpt><trkpt lat="44.53518579548532" lon="9.658377325039421"><ele>1112.0</ele><time>2026-04-04T12:47:34Z</time></trkpt><trkpt lat="44.535316891121255" lon="9.65856020716857"><ele>1111.4</ele><time>2026-04-04T12:47:37Z</time></trkpt><trkpt lat="44.53535123324222" lon="9.658678542247191"><ele>1110.8000000000002</ele><time>2026-04-04T12:47:38Z</time></trkpt><trkpt lat="44.53541868376581" lon="9.658819272036071"><ele>1110.2</ele><time>2026-04-04T12:47:40Z</time></trkpt><trkpt lat="44.53552061175949" lon="9.65893296862562"><ele>1109.6000000000001</ele><time>2026-04-04T12:47:42Z</time></trkpt><trkpt lat="44.53557290009798" lon="9.658984989295808"><ele>1109.0</ele><time>2026-04-04T12:47:44Z</time></trkpt><trkpt lat="44.53565254914897" lon="9.65901606756144"><ele>1113.8</ele><time>2026-04-04T12:47:46Z</time></trkpt><trkpt lat="44.53572971526673" lon="9.659034792671093"><ele>1118.6000000000001</ele><time>2026-04-04T12:47:48Z</time></trkpt><trkpt lat="44.535821468040965" lon="9.659077352835505"><ele>1123.4</ele><time>2026-04-04T12:47:50Z</time></trkpt><trkpt lat="44.53588403865286" lon="9.659106083324014"><ele>1128.2</ele><time>2026-04-04T12:47:52Z</time></trkpt><trkpt lat="44.53602511114729" lon="9.659155162057491"><ele>1133.0</ele><time>2026-04-04T12:47:55Z</time></trkpt><trkpt lat="44.53611675069174" lon="9.659204065176828"><ele>1133.0</ele><time>2026-04-04T12:47:56Z</time></trkpt><trkpt lat="44.536185398130456" lon="9.659261714487648"><ele>1133.0</ele><time>2026-04-04T12:47:57Z</time></trkpt><trkpt lat="44.53624466022543" lon="9.659322327144407"><ele>1133.0</ele><time>2026-04-04T12:47:58Z</time></trkpt><trkpt lat="44.53632949470726" lon="9.659427062089685"><ele>1133.0</ele><time>2026-04-04T12:48:00Z</time></trkpt><trkpt lat="44.53638752161078" lon="9.659488120266516"><ele>1133.0</ele><time>2026-04-04T12:48:01Z</time></trkpt><trkpt lat="44.5364345276618" lon="9.65955408170644"><ele>1133.0</ele><time>2026-04-04T12:48:02Z</time></trkpt><trkpt lat="44.536550725219996" lon="9.65959285172111"><ele>1133.5</ele><time>2026-04-04T12:48:04Z</time></trkpt><trkpt lat="44.53661539555332" lon="9.659591284605225"><ele>1134.0</ele><time>2026-04-04T12:48:05Z</time></trkpt><trkpt lat="44.536683239545646" lon="9.659601231697163"><ele>1134.5</ele><time>2026-04-04T12:48:06Z</time></trkpt><trkpt lat="44.53675498657477" lon="9.659613658034571"><ele>1135.0</ele><time>2026-04-04T12:48:07Z</time></trkpt><trkpt lat="44.53687313168007" lon="9.659674612387184"><ele>1135.5</ele><time>2026-04-04T12:48:09Z</time></trkpt><trkpt lat="44.536929712238624" lon="9.659715828207439"><ele>1136.0</ele><time>2026-04-04T12:48:10Z</time></trkpt><trkpt lat="44.536992008831085" lon="9.65975099586919"><ele>1140.8333333333335</ele><time>2026-04-04T12:48:11Z</time></trkpt><trkpt lat="44.537078366499216" lon="9.659730244971358"><ele>1145.6666666666667</ele><time>2026-04-04T12:48:13Z</time></trkpt><trkpt lat="44.537174553659796" lon="9.659756110551024"><ele>1150.5</ele><time>2026-04-04T12:48:15Z</time></trkpt><trkpt lat="44.537243320823116" lon="9.65975505539377"><ele>1155.3333333333333</ele><time>2026-04-04T12:48:17Z</time></trkpt><trkpt lat="44.537307146711214" lon="9.659775662124943"><ele>1160.1666666666665</ele><time>2026-04-04T12:48:20Z</time></trkpt><trkpt lat="44.53737893601843" lon="9.659776203270996"><ele>1165.0</ele><time>2026-04-04T12:48:22Z</time></trkpt><trkpt lat="44.53746488587712" lon="9.659860889276455"><ele>1164.9999999999998</ele><time>2026-04-04T12:48:25Z</time></trkpt><trkpt lat="44.53753718816398" lon="9.659885067996457"><ele>1165.0</ele><time>2026-04-04T12:48:28Z</time></trkpt><trkpt lat="44.537585174625406" lon="9.659968155365657"><ele>1165.0</ele><time>2026-04-04T12:48:33Z</time></trkpt><trkpt lat="44.537653893384224" lon="9.659996250384527"><ele>1165.0</ele><time>2026-04-04T12:48:44Z</time></trkpt><trkpt lat="44.53771812988275" lon="9.65998432572879"><ele>1165.0</ele><time>2026-04-04T12:49:14Z</time></trkpt><trkpt lat="44.53774096553721" lon="9.660066921189621"><ele>1164.9999999999998</ele><time>2026-04-04T12:50:15Z</time></trkpt><trkpt lat="44.53780326625088" lon="9.660162434118439"><ele>1165.0</ele><time>2026-04-04T12:50:39Z</time></trkpt><trkpt lat="44.53785365339038" lon="9.66021778873689"><ele>1169.8333333333333</ele><time>2026-04-04T12:50:42Z</time></trkpt><trkpt lat="44.537914733422554" lon="9.6602957565845"><ele>1174.6666666666665</ele><time>2026-04-04T12:50:44Z</time></trkpt><trkpt lat="44.53797680584656" lon="9.660382482302344"><ele>1179.5</ele><time>2026-04-04T12:50:47Z</time></trkpt><trkpt lat="44.538027040623824" lon="9.660443313064022"><ele>1184.3333333333333</ele><time>2026-04-04T12:50:49Z</time></trkpt><trkpt lat="44.5380860173547" lon="9.660519034102032"><ele>1189.1666666666667</ele><time>2026-04-04T12:50:51Z</time></trkpt><trkpt lat="44.53812594354192" lon="9.660594142893943"><ele>1194.0</ele><time>2026-04-04T12:50:53Z</time></trkpt><trkpt lat="44.53817943206583" lon="9.660672305812488"><ele>1194.0</ele><time>2026-04-04T12:50:55Z</time></trkpt><trkpt lat="44.53818583355531" lon="9.66077017505245"><ele>1194.0</ele><time>2026-04-04T12:51:33Z</time></trkpt><trkpt lat="44.5382495302719" lon="9.660869098655532"><ele>1194.0</ele><time>2026-04-04T12:51:36Z</time></trkpt><trkpt lat="44.53827652006116" lon="9.661011619534182"><ele>1194.0</ele><time>2026-04-04T12:51:38Z</time></trkpt><trkpt lat="44.5383135042366" lon="9.661124918997363"><ele>1194.0</ele><time>2026-04-04T12:51:40Z</time></trkpt><trkpt lat="44.53836826775004" lon="9.661235707302705"><ele>1193.2</ele><time>2026-04-04T12:51:43Z</time></trkpt><trkpt lat="44.538384895492044" lon="9.661345779830345"><ele>1192.4</ele><time>2026-04-04T12:51:45Z</time></trkpt><trkpt lat="44.538398093876786" lon="9.661495343043157"><ele>1191.6</ele><time>2026-04-04T12:51:47Z</time></trkpt><trkpt lat="44.53846057169337" lon="9.66162078918299"><ele>1190.8</ele><time>2026-04-04T12:51:49Z</time></trkpt><trkpt lat="44.538547367208054" lon="9.661679167350375"><ele>1190.0</ele><time>2026-04-04T12:51:51Z</time></trkpt><trkpt lat="44.538599978513616" lon="9.661738323381671"><ele>1190.0</ele><time>2026-04-04T12:51:53Z</time></trkpt><trkpt lat="44.53868054465948" lon="9.661858426336282"><ele>1190.0</ele><time>2026-04-04T12:52:20Z</time></trkpt><trkpt lat="44.53869738209105" lon="9.661969243024396"><ele>1190.0</ele><time>2026-04-04T12:52:22Z</time></trkpt><trkpt lat="44.53872950629904" lon="9.662056934749884"><ele>1190.0</ele><time>2026-04-04T12:52:23Z</time></trkpt><trkpt lat="44.538821292826825" lon="9.662150505261947"><ele>1190.0</ele><time>2026-04-04T12:52:25Z</time></trkpt><trkpt lat="44.5388918979777" lon="9.662264395245273"><ele>1196.2</ele><time>2026-04-04T12:52:27Z</time></trkpt><trkpt lat="44.53893174458556" lon="9.66240718710982"><ele>1202.4</ele><time>2026-04-04T12:52:29Z</time></trkpt><trkpt lat="44.53896760293715" lon="9.662567365539417"><ele>1208.6</ele><time>2026-04-04T12:52:31Z</time></trkpt><trkpt lat="44.53898467264831" lon="9.66269449539529"><ele>1214.8</ele><time>2026-04-04T12:52:33Z</time></trkpt><trkpt lat="44.53895772065657" lon="9.662837088516643"><ele>1221.0</ele><time>2026-04-04T12:52:35Z</time></trkpt><trkpt lat="44.53890794470717" lon="9.662950893671328"><ele>1221.0</ele><time>2026-04-04T12:52:37Z</time></trkpt><trkpt lat="44.53887414730698" lon="9.663044875763706"><ele>1221.0</ele><time>2026-04-04T12:52:39Z</time></trkpt><trkpt lat="44.53888943605653" lon="9.663135360199833"><ele>1221.0</ele><time>2026-04-04T12:52:40Z</time></trkpt><trkpt lat="44.53892670361845" lon="9.663269413765407"><ele>1221.0</ele><time>2026-04-04T12:52:42Z</time></trkpt><trkpt lat="44.53898991438183" lon="9.66328173642712"><ele>1221.0</ele><time>2026-04-04T12:52:43Z</time></trkpt><trkpt lat="44.53911092943666" lon="9.663295379433059"><ele>1221.0</ele><time>2026-04-04T12:52:45Z</time></trkpt><trkpt lat="44.539207323874145" lon="9.663291292138599"><ele>1221.0</ele><time>2026-04-04T12:52:47Z</time></trkpt><trkpt lat="44.539293369788574" lon="9.663250642776998"><ele>1221.0</ele><time>2026-04-04T12:52:50Z</time></trkpt><trkpt lat="44.53936362218697" lon="9.663233599966695"><ele>1221.0</ele><time>2026-04-04T12:52:51Z</time></trkpt><trkpt lat="44.53946010364486" lon="9.663148587242523"><ele>1221.0</ele><time>2026-04-04T12:52:53Z</time></trkpt><trkpt lat="44.539541856244945" lon="9.663080775681749"><ele>1221.0</ele><time>2026-04-04T12:52:55Z</time></trkpt><trkpt lat="44.53961601832686" lon="9.662980556555361"><ele>1221.0</ele><time>2026-04-04T12:52:57Z</time></trkpt><trkpt lat="44.53967466687926" lon="9.662880460665566"><ele>1221.0</ele><time>2026-04-04T12:52:59Z</time></trkpt><trkpt lat="44.53973620797964" lon="9.662775636359184"><ele>1221.0</ele><time>2026-04-04T12:53:02Z</time></trkpt><trkpt lat="44.53979100610681" lon="9.662688319816244"><ele>1221.0</ele><time>2026-04-04T12:53:04Z</time></trkpt><trkpt lat="44.539852575062326" lon="9.662587756740312"><ele>1221.0</ele><time>2026-04-04T12:53:07Z</time></trkpt><trkpt lat="44.53990598437669" lon="9.662509026659947"><ele>1221.0</ele><time>2026-04-04T12:53:09Z</time></trkpt><trkpt lat="44.54001931404636" lon="9.662529303040161"><ele>1225.3333333333333</ele><time>2026-04-04T12:53:11Z</time></trkpt><trkpt lat="44.540104575736265" lon="9.662476319356779"><ele>1229.6666666666667</ele><time>2026-04-04T12:53:13Z</time></trkpt><trkpt lat="44.54022907466067" lon="9.66245006326217"><ele>1234.0</ele><time>2026-04-04T12:53:15Z</time></trkpt><trkpt lat="44.54028983513308" lon="9.662405526477762"><ele>1238.3333333333335</ele><time>2026-04-04T12:53:16Z</time></trkpt><trkpt lat="44.54035414171854" lon="9.662344207062043"><ele>1242.6666666666667</ele><time>2026-04-04T12:53:17Z</time></trkpt><trkpt lat="44.54041015494398" lon="9.662298833982893"><ele>1247.0</ele><time>2026-04-04T12:53:18Z</time></trkpt><trkpt lat="44.54047289050599" lon="9.662283709332796"><ele>1247.0</ele><time>2026-04-04T12:53:19Z</time></trkpt><trkpt lat="44.54056153110636" lon="9.66229926951972"><ele>1247.0</ele><time>2026-04-04T12:53:21Z</time></trkpt><trkpt lat="44.540640959578205" lon="9.66232205590527"><ele>1247.0</ele><time>2026-04-04T12:53:25Z</time></trkpt><trkpt lat="44.540805569673324" lon="9.662290825447094"><ele>1247.0</ele><time>2026-04-04T12:53:28Z</time></trkpt><trkpt lat="44.540869012668345" lon="9.66226433640038"><ele>1247.0</ele><time>2026-04-04T12:53:29Z</time></trkpt><trkpt lat="44.540958927685594" lon="9.662224982277491"><ele>1247.0</ele><time>2026-04-04T12:53:31Z</time></trkpt><trkpt lat="44.5410497406417" lon="9.66218948449218"><ele>1247.0</ele><time>2026-04-04T12:53:34Z</time></trkpt><trkpt lat="44.541125454794525" lon="9.662180528933876"><ele>1247.0</ele><time>2026-04-04T12:53:36Z</time></trkpt><trkpt lat="44.5411960668015" lon="9.662146893578365"><ele>1247.0</ele><time>2026-04-04T12:53:38Z</time></trkpt><trkpt lat="44.54127605964204" lon="9.662166105379388"><ele>1247.0</ele><time>2026-04-04T12:53:41Z</time></trkpt><trkpt lat="44.54132610995336" lon="9.662273710487858"><ele>1247.0</ele><time>2026-04-04T12:53:45Z</time></trkpt><trkpt lat="44.541410251787404" lon="9.662282515299685"><ele>1247.2</ele><time>2026-04-04T12:54:04Z</time></trkpt><trkpt lat="44.541450542651496" lon="9.662389154732935"><ele>1247.4</ele><time>2026-04-04T12:54:45Z</time></trkpt><trkpt lat="44.541476907162945" lon="9.6624829128014"><ele>1247.6</ele><time>2026-04-04T12:54:47Z</time></trkpt><trkpt lat="44.5415446072054" lon="9.662601592417381"><ele>1247.8</ele><time>2026-04-04T12:54:49Z</time></trkpt><trkpt lat="44.54161315225887" lon="9.66270638394284"><ele>1248.0</ele><time>2026-04-04T12:54:51Z</time></trkpt><trkpt lat="44.54168795596856" lon="9.662802400061592"><ele>1245.5</ele><time>2026-04-04T12:54:53Z</time></trkpt><trkpt lat="44.541746969214024" lon="9.662842176336563"><ele>1243.0</ele><time>2026-04-04T12:54:54Z</time></trkpt><trkpt lat="44.541813187011414" lon="9.662898653930904"><ele>1240.5</ele><time>2026-04-04T12:54:55Z</time></trkpt><trkpt lat="44.54190705044179" lon="9.662947432567467"><ele>1238.0</ele><time>2026-04-04T12:54:57Z</time></trkpt><trkpt lat="44.54197359889679" lon="9.662984552108632"><ele>1235.5</ele><time>2026-04-04T12:54:58Z</time></trkpt><trkpt lat="44.54206810177719" lon="9.66300069167826"><ele>1233.0</ele><time>2026-04-04T12:55:00Z</time></trkpt><trkpt lat="44.542189098516175" lon="9.663023940953721"><ele>1233.0</ele><time>2026-04-04T12:55:02Z</time></trkpt><trkpt lat="44.542291577520324" lon="9.662966514302347"><ele>1233.0</ele><time>2026-04-04T12:55:04Z</time></trkpt><trkpt lat="44.54241350865554" lon="9.66292114047208"><ele>1233.0</ele><time>2026-04-04T12:55:06Z</time></trkpt><trkpt lat="44.54253205375269" lon="9.662931107535474"><ele>1233.0</ele><time>2026-04-04T12:55:08Z</time></trkpt><trkpt lat="44.54262372422457" lon="9.662991965143677"><ele>1233.0</ele><time>2026-04-04T12:55:10Z</time></trkpt><trkpt lat="44.54267229991186" lon="9.663057883256483"><ele>1233.0</ele><time>2026-04-04T12:55:11Z</time></trkpt><trkpt lat="44.5427624943816" lon="9.663103843697488"><ele>1233.0</ele><time>2026-04-04T12:55:13Z</time></trkpt><trkpt lat="44.54289159777481" lon="9.663208181533506"><ele>1233.0</ele><time>2026-04-04T12:55:15Z</time></trkpt><trkpt lat="44.54295651617956" lon="9.663215703856743"><ele>1233.0</ele><time>2026-04-04T12:55:16Z</time></trkpt><trkpt lat="44.54302315453903" lon="9.663200178873225"><ele>1233.0</ele><time>2026-04-04T12:55:17Z</time></trkpt><trkpt lat="44.543151105774776" lon="9.663175591596119"><ele>1232.8</ele><time>2026-04-04T12:55:19Z</time></trkpt><trkpt lat="44.54322374127451" lon="9.66320329825419"><ele>1232.6</ele><time>2026-04-04T12:55:20Z</time></trkpt><trkpt lat="44.543278836461944" lon="9.66327025586156"><ele>1232.4</ele><time>2026-04-04T12:55:21Z</time></trkpt><trkpt lat="44.543334511499694" lon="9.663319090180583"><ele>1232.2</ele><time>2026-04-04T12:55:22Z</time></trkpt><trkpt lat="44.54344766375345" lon="9.663377424356351"><ele>1232.0</ele><time>2026-04-04T12:55:24Z</time></trkpt><trkpt lat="44.543571241585084" lon="9.663411970477544"><ele>1232.0</ele><time>2026-04-04T12:55:26Z</time></trkpt><trkpt lat="44.543690714514995" lon="9.663499423003309"><ele>1232.0</ele><time>2026-04-04T12:55:28Z</time></trkpt><trkpt lat="44.54375403004961" lon="9.663558551851482"><ele>1232.0</ele><time>2026-04-04T12:55:29Z</time></trkpt><trkpt lat="44.54382737138793" lon="9.663609633191086"><ele>1232.0</ele><time>2026-04-04T12:55:30Z</time></trkpt><trkpt lat="44.543892571522605" lon="9.663666859832858"><ele>1232.0</ele><time>2026-04-04T12:55:31Z</time></trkpt><trkpt lat="44.54395680415335" lon="9.66373967333385"><ele>1229.5</ele><time>2026-04-04T12:55:32Z</time></trkpt><trkpt lat="44.544029546390796" lon="9.663833686700787"><ele>1227.0</ele><time>2026-04-04T12:55:34Z</time></trkpt><trkpt lat="44.544094668294484" lon="9.663912745619836"><ele>1224.5</ele><time>2026-04-04T12:55:36Z</time></trkpt><trkpt lat="44.54413084629955" lon="9.664002459702765"><ele>1222.0</ele><time>2026-04-04T12:55:38Z</time></trkpt><trkpt lat="44.544173864472896" lon="9.664100473333042"><ele>1219.5</ele><time>2026-04-04T12:55:40Z</time></trkpt><trkpt lat="44.54424073225665" lon="9.664208204847208"><ele>1217.0</ele><time>2026-04-04T12:55:42Z</time></trkpt><trkpt lat="44.544286569993275" lon="9.664289338268798"><ele>1217.0</ele><time>2026-04-04T12:55:44Z</time></trkpt><trkpt lat="44.54432659048896" lon="9.664367876885557"><ele>1217.0</ele><time>2026-04-04T12:55:46Z</time></trkpt><trkpt lat="44.54437898871078" lon="9.664468677125056"><ele>1217.0</ele><time>2026-04-04T12:55:48Z</time></trkpt><trkpt lat="44.544422639955876" lon="9.664585331883996"><ele>1217.0</ele><time>2026-04-04T12:55:50Z</time></trkpt><trkpt lat="44.54446953174647" lon="9.664659597248196"><ele>1217.0</ele><time>2026-04-04T12:55:51Z</time></trkpt><trkpt lat="44.54452137016302" lon="9.6647322691296"><ele>1217.0</ele><time>2026-04-04T12:55:52Z</time></trkpt><trkpt lat="44.544578010455766" lon="9.664803009953294"><ele>1215.5714285714284</ele><time>2026-04-04T12:55:53Z</time></trkpt><trkpt lat="44.54463081008586" lon="9.664867549274206"><ele>1214.142857142857</ele><time>2026-04-04T12:55:54Z</time></trkpt><trkpt lat="44.54468002385951" lon="9.664922690250238"><ele>1212.7142857142858</ele><time>2026-04-04T12:55:55Z</time></trkpt><trkpt lat="44.5447314378781" lon="9.664983966982911"><ele>1211.2857142857142</ele><time>2026-04-04T12:55:56Z</time></trkpt><trkpt lat="44.544788223597294" lon="9.665057011534516"><ele>1209.857142857143</ele><time>2026-04-04T12:55:57Z</time></trkpt><trkpt lat="44.544835446669815" lon="9.665123746668284"><ele>1208.4285714285713</ele><time>2026-04-04T12:55:58Z</time></trkpt><trkpt lat="44.54487921192612" lon="9.665191923607503"><ele>1207.0</ele><time>2026-04-04T12:55:59Z</time></trkpt><trkpt lat="44.54492249841023" lon="9.665258569330124"><ele>1205.7142857142856</ele><time>2026-04-04T12:56:00Z</time></trkpt><trkpt lat="44.54496992881135" lon="9.665332157287258"><ele>1204.4285714285713</ele><time>2026-04-04T12:56:01Z</time></trkpt><trkpt lat="44.54502295635393" lon="9.665406734779753"><ele>1203.142857142857</ele><time>2026-04-04T12:56:02Z</time></trkpt><trkpt lat="44.54507941023378" lon="9.665465811706458"><ele>1201.8571428571427</ele><time>2026-04-04T12:56:03Z</time></trkpt><trkpt lat="44.5451477078265" lon="9.665506527902515"><ele>1200.5714285714284</ele><time>2026-04-04T12:56:04Z</time></trkpt><trkpt lat="44.545218577475936" lon="9.665525397589471"><ele>1199.2857142857142</ele><time>2026-04-04T12:56:05Z</time></trkpt><trkpt lat="44.545294214121064" lon="9.665521798353852"><ele>1198.0</ele><time>2026-04-04T12:56:06Z</time></trkpt><trkpt lat="44.545371841896994" lon="9.665501394600213"><ele>1196.6</ele><time>2026-04-04T12:56:07Z</time></trkpt><trkpt lat="44.54545333782898" lon="9.665486206500683"><ele>1195.1999999999998</ele><time>2026-04-04T12:56:08Z</time></trkpt><trkpt lat="44.54553693039446" lon="9.665463033413378"><ele>1193.8</ele><time>2026-04-04T12:56:09Z</time></trkpt><trkpt lat="44.54562398559653" lon="9.665424191537918"><ele>1192.3999999999999</ele><time>2026-04-04T12:56:10Z</time></trkpt><trkpt lat="44.54572557655936" lon="9.665380342211837"><ele>1191.0</ele><time>2026-04-04T12:56:11Z</time></trkpt><trkpt lat="44.545813847194715" lon="9.665325938270188"><ele>1190.5</ele><time>2026-04-04T12:56:12Z</time></trkpt><trkpt lat="44.5458919120612" lon="9.66527883315616"><ele>1190.0</ele><time>2026-04-04T12:56:13Z</time></trkpt><trkpt lat="44.54596788827064" lon="9.665266088006998"><ele>1189.5</ele><time>2026-04-04T12:56:14Z</time></trkpt><trkpt lat="44.5460447566502" lon="9.665246268397519"><ele>1189.0</ele><time>2026-04-04T12:56:15Z</time></trkpt><trkpt lat="44.546120219371815" lon="9.665219854371738"><ele>1188.5</ele><time>2026-04-04T12:56:16Z</time></trkpt><trkpt lat="44.546207161184206" lon="9.665175884624722"><ele>1188.0</ele><time>2026-04-04T12:56:18Z</time></trkpt><trkpt lat="44.54624718577415" lon="9.665270574272132"><ele>1188.6</ele><time>2026-04-04T12:56:20Z</time></trkpt><trkpt lat="44.54619659947651" lon="9.665341242161267"><ele>1189.1999999999998</ele><time>2026-04-04T12:56:22Z</time></trkpt><trkpt lat="44.54614127742457" lon="9.665414504791505"><ele>1189.8</ele><time>2026-04-04T12:56:25Z</time></trkpt><trkpt lat="44.54609061784353" lon="9.665491291217984"><ele>1190.3999999999999</ele><time>2026-04-04T12:56:27Z</time></trkpt><trkpt lat="44.54603498200261" lon="9.665588589193012"><ele>1191.0</ele><time>2026-04-04T12:56:30Z</time></trkpt><trkpt lat="44.54597042341563" lon="9.665781140285771"><ele>1191.0</ele><time>2026-04-04T12:56:33Z</time></trkpt><trkpt lat="44.54587343742988" lon="9.665917174239793"><ele>1191.0</ele><time>2026-04-04T12:56:34Z</time></trkpt><trkpt lat="44.54581091822375" lon="9.666004497470398"><ele>1191.0</ele><time>2026-04-04T12:56:35Z</time></trkpt><trkpt lat="44.54574744424745" lon="9.666081014318985"><ele>1191.0</ele><time>2026-04-04T12:56:36Z</time></trkpt><trkpt lat="44.54570055290714" lon="9.666160896982472"><ele>1191.0</ele><time>2026-04-04T12:56:37Z</time></trkpt><trkpt lat="44.54563274743357" lon="9.666225388155258"><ele>1188.6</ele><time>2026-04-04T12:56:38Z</time></trkpt><trkpt lat="44.54553247541931" lon="9.666339272025965"><ele>1186.1999999999998</ele><time>2026-04-04T12:56:40Z</time></trkpt><trkpt lat="44.54546522966094" lon="9.66639287040187"><ele>1183.8000000000002</ele><time>2026-04-04T12:56:41Z</time></trkpt><trkpt lat="44.54537853977595" lon="9.666446285164557"><ele>1181.4</ele><time>2026-04-04T12:56:42Z</time></trkpt><trkpt lat="44.54530117660914" lon="9.666497643870212"><ele>1179.0</ele><time>2026-04-04T12:56:43Z</time></trkpt><trkpt lat="44.54523290997693" lon="9.666547407863206"><ele>1179.0</ele><time>2026-04-04T12:56:44Z</time></trkpt><trkpt lat="44.54516891868878" lon="9.666591517314014"><ele>1179.0</ele><time>2026-04-04T12:56:45Z</time></trkpt><trkpt lat="44.545103768032654" lon="9.66663195775139"><ele>1179.0</ele><time>2026-04-04T12:56:46Z</time></trkpt><trkpt lat="44.54504142548021" lon="9.666681221660516"><ele>1179.0</ele><time>2026-04-04T12:56:47Z</time></trkpt><trkpt lat="44.54497812337055" lon="9.666731064688308"><ele>1179.0</ele><time>2026-04-04T12:56:48Z</time></trkpt><trkpt lat="44.54489383958339" lon="9.66676305894199"><ele>1179.0</ele><time>2026-04-04T12:56:49Z</time></trkpt><trkpt lat="44.54481288605518" lon="9.666791094148289"><ele>1179.0</ele><time>2026-04-04T12:56:50Z</time></trkpt><trkpt lat="44.544725066881746" lon="9.666806744251772"><ele>1179.0</ele><time>2026-04-04T12:56:51Z</time></trkpt><trkpt lat="44.54464026130517" lon="9.666818282394754"><ele>1179.0</ele><time>2026-04-04T12:56:52Z</time></trkpt><trkpt lat="44.544555682522805" lon="9.666835611562869"><ele>1179.0</ele><time>2026-04-04T12:56:53Z</time></trkpt><trkpt lat="44.54447956129878" lon="9.66685678568471"><ele>1179.0</ele><time>2026-04-04T12:56:54Z</time></trkpt><trkpt lat="44.54440117321007" lon="9.66687896074453"><ele>1179.0</ele><time>2026-04-04T12:56:55Z</time></trkpt><trkpt lat="44.54432597176553" lon="9.66689417103989"><ele>1178.6666666666667</ele><time>2026-04-04T12:56:56Z</time></trkpt><trkpt lat="44.544250308052675" lon="9.666913675978265"><ele>1178.3333333333333</ele><time>2026-04-04T12:56:57Z</time></trkpt><trkpt lat="44.544174577921254" lon="9.666926193072626"><ele>1178.0</ele><time>2026-04-04T12:56:58Z</time></trkpt><trkpt lat="44.54410905357102" lon="9.666935190085074"><ele>1177.6666666666665</ele><time>2026-04-04T12:56:59Z</time></trkpt><trkpt lat="44.544004739571236" lon="9.666954006551045"><ele>1177.3333333333333</ele><time>2026-04-04T12:57:01Z</time></trkpt><trkpt lat="44.543905279034796" lon="9.666955211542579"><ele>1177.0</ele><time>2026-04-04T12:57:03Z</time></trkpt><trkpt lat="44.54379252476792" lon="9.666954780883447"><ele>1177.0</ele><time>2026-04-04T12:57:05Z</time></trkpt><trkpt lat="44.54373044767566" lon="9.666936991590076"><ele>1177.0</ele><time>2026-04-04T12:57:06Z</time></trkpt><trkpt lat="44.543624995334476" lon="9.666863517106494"><ele>1177.0</ele><time>2026-04-04T12:57:08Z</time></trkpt><trkpt lat="44.543532916052506" lon="9.666818214914537"><ele>1177.0</ele><time>2026-04-04T12:57:10Z</time></trkpt><trkpt lat="44.54347013468069" lon="9.66689894051785"><ele>1177.0</ele><time>2026-04-04T12:57:12Z</time></trkpt><trkpt lat="44.54350903623814" lon="9.667025961242336"><ele>1172.2</ele><time>2026-04-04T12:57:14Z</time></trkpt><trkpt lat="44.54356575313761" lon="9.667064515132694"><ele>1167.4</ele><time>2026-04-04T12:57:15Z</time></trkpt><trkpt lat="44.54362770681414" lon="9.667112271956524"><ele>1162.6</ele><time>2026-04-04T12:57:16Z</time></trkpt><trkpt lat="44.54374234088057" lon="9.667176753477635"><ele>1157.8</ele><time>2026-04-04T12:57:18Z</time></trkpt><trkpt lat="44.54379751643516" lon="9.667234607133423"><ele>1153.0</ele><time>2026-04-04T12:57:19Z</time></trkpt><trkpt lat="44.5438943692911" lon="9.667347236581056"><ele>1153.0</ele><time>2026-04-04T12:57:21Z</time></trkpt><trkpt lat="44.54397560271179" lon="9.667473509718258"><ele>1153.0</ele><time>2026-04-04T12:57:23Z</time></trkpt><trkpt lat="44.544023773113594" lon="9.667535086108403"><ele>1153.0</ele><time>2026-04-04T12:57:24Z</time></trkpt><trkpt lat="44.544080043471254" lon="9.667584112626898"><ele>1153.0</ele><time>2026-04-04T12:57:25Z</time></trkpt><trkpt lat="44.544186438350216" lon="9.667689889102993"><ele>1153.0</ele><time>2026-04-04T12:57:27Z</time></trkpt><trkpt lat="44.544248880842936" lon="9.667752348504152"><ele>1150.5</ele><time>2026-04-04T12:57:28Z</time></trkpt><trkpt lat="44.54431199773578" lon="9.667812237230104"><ele>1148.0</ele><time>2026-04-04T12:57:29Z</time></trkpt><trkpt lat="44.54436697748576" lon="9.667869208597589"><ele>1145.5</ele><time>2026-04-04T12:57:30Z</time></trkpt><trkpt lat="44.54448957350115" lon="9.667945584806496"><ele>1143.0</ele><time>2026-04-04T12:57:32Z</time></trkpt><trkpt lat="44.54455186322012" lon="9.667988190153123"><ele>1140.5</ele><time>2026-04-04T12:57:33Z</time></trkpt><trkpt lat="44.54461156868385" lon="9.668016984067584"><ele>1138.0</ele><time>2026-04-04T12:57:34Z</time></trkpt><trkpt lat="44.54467251141441" lon="9.668041005599974"><ele>1138.0000000000002</ele><time>2026-04-04T12:57:35Z</time></trkpt><trkpt lat="44.54473506744235" lon="9.668057020534507"><ele>1138.0</ele><time>2026-04-04T12:57:36Z</time></trkpt><trkpt lat="44.544798981509565" lon="9.66806419719056"><ele>1138.0</ele><time>2026-04-04T12:57:37Z</time></trkpt><trkpt lat="44.54486666422486" lon="9.668057492029254"><ele>1138.0</ele><time>2026-04-04T12:57:38Z</time></trkpt><trkpt lat="44.54493905833793" lon="9.668055514244873"><ele>1138.0</ele><time>2026-04-04T12:57:39Z</time></trkpt><trkpt lat="44.545006692561046" lon="9.668051761476134"><ele>1138.0000000000002</ele><time>2026-04-04T12:57:40Z</time></trkpt><trkpt lat="44.54507841740463" lon="9.668014993639352"><ele>1138.0</ele><time>2026-04-04T12:57:41Z</time></trkpt><trkpt lat="44.54515112694257" lon="9.668015277768982"><ele>1138.0000000000002</ele><time>2026-04-04T12:57:42Z</time></trkpt><trkpt lat="44.54521691904463" lon="9.668008391696764"><ele>1138.0</ele><time>2026-04-04T12:57:43Z</time></trkpt><trkpt lat="44.54528423220303" lon="9.667990571426715"><ele>1138.0</ele><time>2026-04-04T12:57:44Z</time></trkpt><trkpt lat="44.54534920411149" lon="9.66795725642689"><ele>1138.0</ele><time>2026-04-04T12:57:45Z</time></trkpt><trkpt lat="44.545412620736215" lon="9.667933848162061"><ele>1138.0</ele><time>2026-04-04T12:57:46Z</time></trkpt><trkpt lat="44.54547584278199" lon="9.667906050197075"><ele>1138.0000000000002</ele><time>2026-04-04T12:57:47Z</time></trkpt><trkpt lat="44.54553723184485" lon="9.667879214665072"><ele>1138.0</ele><time>2026-04-04T12:57:48Z</time></trkpt><trkpt lat="44.545665037628005" lon="9.667866733579078"><ele>1136.2857142857144</ele><time>2026-04-04T12:57:50Z</time></trkpt><trkpt lat="44.54573154708082" lon="9.667863739730738"><ele>1134.5714285714287</ele><time>2026-04-04T12:57:51Z</time></trkpt><trkpt lat="44.5458028321834" lon="9.667872001086671"><ele>1132.857142857143</ele><time>2026-04-04T12:57:52Z</time></trkpt><trkpt lat="44.545875504082744" lon="9.667879656324908"><ele>1131.1428571428573</ele><time>2026-04-04T12:57:53Z</time></trkpt><trkpt lat="44.54594192448734" lon="9.667929345094485"><ele>1129.4285714285716</ele><time>2026-04-04T12:57:54Z</time></trkpt><trkpt lat="44.5460144909348" lon="9.667932590731185"><ele>1127.7142857142858</ele><time>2026-04-04T12:57:55Z</time></trkpt><trkpt lat="44.5460882668248" lon="9.667963505786451"><ele>1126.0</ele><time>2026-04-04T12:57:56Z</time></trkpt><trkpt lat="44.54616911076905" lon="9.66795173872667"><ele>1128.0</ele><time>2026-04-04T12:57:57Z</time></trkpt><trkpt lat="44.54624120937493" lon="9.667941936986525"><ele>1130.0</ele><time>2026-04-04T12:57:58Z</time></trkpt><trkpt lat="44.54636678304737" lon="9.66788343404997"><ele>1132.0</ele><time>2026-04-04T12:58:00Z</time></trkpt><trkpt lat="44.54643873478546" lon="9.667818701231372"><ele>1134.0</ele><time>2026-04-04T12:58:01Z</time></trkpt><trkpt lat="44.54650571427592" lon="9.667732410873048"><ele>1136.0</ele><time>2026-04-04T12:58:02Z</time></trkpt><trkpt lat="44.5465692273466" lon="9.667651531419736"><ele>1136.0</ele><time>2026-04-04T12:58:03Z</time></trkpt><trkpt lat="44.54663479132079" lon="9.667608508460564"><ele>1136.0</ele><time>2026-04-04T12:58:04Z</time></trkpt><trkpt lat="44.5467028869169" lon="9.667571949923833"><ele>1136.0</ele><time>2026-04-04T12:58:05Z</time></trkpt><trkpt lat="44.5467638696661" lon="9.66750117104875"><ele>1136.0</ele><time>2026-04-04T12:58:06Z</time></trkpt><trkpt lat="44.54682691934517" lon="9.667416295734858"><ele>1136.0</ele><time>2026-04-04T12:58:07Z</time></trkpt><trkpt lat="44.546889082283606" lon="9.667340819708997"><ele>1136.0</ele><time>2026-04-04T12:58:08Z</time></trkpt><trkpt lat="44.54694493202317" lon="9.66727484653547"><ele>1136.0</ele><time>2026-04-04T12:58:09Z</time></trkpt><trkpt lat="44.54700719072495" lon="9.667229992439148"><ele>1136.0</ele><time>2026-04-04T12:58:10Z</time></trkpt><trkpt lat="44.54708321948777" lon="9.667191506883912"><ele>1136.0</ele><time>2026-04-04T12:58:11Z</time></trkpt><trkpt lat="44.54715338664153" lon="9.66715489749772"><ele>1136.0</ele><time>2026-04-04T12:58:12Z</time></trkpt><trkpt lat="44.54721312235747" lon="9.667112941513464"><ele>1136.0</ele><time>2026-04-04T12:58:13Z</time></trkpt><trkpt lat="44.547257482205076" lon="9.667043527384605"><ele>1136.0</ele><time>2026-04-04T12:58:14Z</time></trkpt><trkpt lat="44.547298339971334" lon="9.66695667886224"><ele>1136.0</ele><time>2026-04-04T12:58:15Z</time></trkpt><trkpt lat="44.54734278714701" lon="9.666873814280017"><ele>1134.6666666666667</ele><time>2026-04-04T12:58:16Z</time></trkpt><trkpt lat="44.54739518213623" lon="9.666794829085976"><ele>1133.3333333333335</ele><time>2026-04-04T12:58:17Z</time></trkpt><trkpt lat="44.547460908921195" lon="9.66673244183312"><ele>1132.0</ele><time>2026-04-04T12:58:18Z</time></trkpt><trkpt lat="44.54754360000212" lon="9.666685313838174"><ele>1130.6666666666667</ele><time>2026-04-04T12:58:19Z</time></trkpt><trkpt lat="44.54762754336455" lon="9.666657889146034"><ele>1129.3333333333333</ele><time>2026-04-04T12:58:20Z</time></trkpt><trkpt lat="44.547704496392534" lon="9.666623368561044"><ele>1128.0</ele><time>2026-04-04T12:58:21Z</time></trkpt><trkpt lat="44.54777480797746" lon="9.666569256279"><ele>1128.0</ele><time>2026-04-04T12:58:22Z</time></trkpt><trkpt lat="44.54783621955602" lon="9.666514907185809"><ele>1128.0</ele><time>2026-04-04T12:58:23Z</time></trkpt><trkpt lat="44.547948715460656" lon="9.666438244316735"><ele>1128.0</ele><time>2026-04-04T12:58:25Z</time></trkpt><trkpt lat="44.54802059112415" lon="9.666451368066522"><ele>1128.0</ele><time>2026-04-04T12:58:26Z</time></trkpt><trkpt lat="44.548088701940024" lon="9.666474613900771"><ele>1128.0</ele><time>2026-04-04T12:58:27Z</time></trkpt><trkpt lat="44.548155023071196" lon="9.666488440463619"><ele>1128.0</ele><time>2026-04-04T12:58:28Z</time></trkpt><trkpt lat="44.54822513784637" lon="9.666507080292671"><ele>1124.857142857143</ele><time>2026-04-04T12:58:29Z</time></trkpt><trkpt lat="44.548288069580934" lon="9.666470735644507"><ele>1121.7142857142858</ele><time>2026-04-04T12:58:30Z</time></trkpt><trkpt lat="44.548356561281444" lon="9.666400843318945"><ele>1118.5714285714284</ele><time>2026-04-04T12:58:31Z</time></trkpt><trkpt lat="44.548406704369015" lon="9.666334848560556"><ele>1115.4285714285716</ele><time>2026-04-04T12:58:32Z</time></trkpt><trkpt lat="44.54842738831555" lon="9.66625070796963"><ele>1112.2857142857142</ele><time>2026-04-04T12:58:33Z</time></trkpt><trkpt lat="44.54845564023615" lon="9.666150560693637"><ele>1109.142857142857</ele><time>2026-04-04T12:58:35Z</time></trkpt><trkpt lat="44.54853762027426" lon="9.66616749599307"><ele>1106.0</ele><time>2026-04-04T12:58:37Z</time></trkpt><trkpt lat="44.54854694397191" lon="9.666336349168972"><ele>1106.0</ele><time>2026-04-04T12:58:39Z</time></trkpt><trkpt lat="44.54851081349593" lon="9.666424885281371"><ele>1106.0</ele><time>2026-04-04T12:58:40Z</time></trkpt><trkpt lat="44.54847786141333" lon="9.666507050850376"><ele>1106.0</ele><time>2026-04-04T12:58:41Z</time></trkpt><trkpt lat="44.548464311381586" lon="9.666595716208064"><ele>1106.0</ele><time>2026-04-04T12:58:42Z</time></trkpt><trkpt lat="44.54844708337314" lon="9.666738112792187"><ele>1106.0</ele><time>2026-04-04T12:58:44Z</time></trkpt><trkpt lat="44.54842217523453" lon="9.666854207402658"><ele>1106.0</ele><time>2026-04-04T12:58:46Z</time></trkpt><trkpt lat="44.548409751847686" lon="9.666975227931538"><ele>1102.6</ele><time>2026-04-04T12:58:48Z</time></trkpt><trkpt lat="44.548365090527355" lon="9.66705226604865"><ele>1099.1999999999998</ele><time>2026-04-04T12:58:49Z</time></trkpt><trkpt lat="44.54831879789528" lon="9.667194289974914"><ele>1095.8000000000002</ele><time>2026-04-04T12:58:51Z</time></trkpt><trkpt lat="44.54821990651739" lon="9.667287455214579"><ele>1092.4</ele><time>2026-04-04T12:58:53Z</time></trkpt><trkpt lat="44.548155053338334" lon="9.667291462484298"><ele>1089.0</ele><time>2026-04-04T12:58:54Z</time></trkpt><trkpt lat="44.548043385900186" lon="9.66735205084672"><ele>1089.0</ele><time>2026-04-04T12:58:56Z</time></trkpt><trkpt lat="44.54798242610484" lon="9.66742198053303"><ele>1089.0</ele><time>2026-04-04T12:58:57Z</time></trkpt><trkpt lat="44.54791382483692" lon="9.667500437528902"><ele>1089.0</ele><time>2026-04-04T12:58:58Z</time></trkpt><trkpt lat="44.54784974081203" lon="9.667565237103636"><ele>1089.0</ele><time>2026-04-04T12:58:59Z</time></trkpt><trkpt lat="44.547791662404784" lon="9.667624672445825"><ele>1089.0</ele><time>2026-04-04T12:59:00Z</time></trkpt><trkpt lat="44.54772449781506" lon="9.667699402950067"><ele>1089.0</ele><time>2026-04-04T12:59:01Z</time></trkpt><trkpt lat="44.54766771138523" lon="9.667772164308003"><ele>1088.0</ele><time>2026-04-04T12:59:02Z</time></trkpt><trkpt lat="44.547622830279266" lon="9.6678564259638"><ele>1087.0</ele><time>2026-04-04T12:59:03Z</time></trkpt><trkpt lat="44.5475894117905" lon="9.667941510823217"><ele>1086.0</ele><time>2026-04-04T12:59:04Z</time></trkpt><trkpt lat="44.547574896548326" lon="9.668058663871717"><ele>1085.0</ele><time>2026-04-04T12:59:05Z</time></trkpt><trkpt lat="44.547541379572486" lon="9.668176372314626"><ele>1084.0</ele><time>2026-04-04T12:59:06Z</time></trkpt><trkpt lat="44.54750968833996" lon="9.668299592481437"><ele>1083.0</ele><time>2026-04-04T12:59:07Z</time></trkpt><trkpt lat="44.5474739151298" lon="9.668407411752808"><ele>1083.0</ele><time>2026-04-04T12:59:08Z</time></trkpt><trkpt lat="44.547440957754084" lon="9.668500249486812"><ele>1083.0</ele><time>2026-04-04T12:59:09Z</time></trkpt><trkpt lat="44.547418609116185" lon="9.668592582103697"><ele>1083.0</ele><time>2026-04-04T12:59:10Z</time></trkpt><trkpt lat="44.54738761785501" lon="9.668680957636475"><ele>1083.0</ele><time>2026-04-04T12:59:11Z</time></trkpt><trkpt lat="44.5473412085334" lon="9.668764957997999"><ele>1083.0</ele><time>2026-04-04T12:59:12Z</time></trkpt><trkpt lat="44.54728817210907" lon="9.668824998039456"><ele>1083.0</ele><time>2026-04-04T12:59:13Z</time></trkpt><trkpt lat="44.54721758534767" lon="9.668884353300628"><ele>1083.0</ele><time>2026-04-04T12:59:14Z</time></trkpt><trkpt lat="44.547148091049934" lon="9.668933746757181"><ele>1084.0</ele><time>2026-04-04T12:59:15Z</time></trkpt><trkpt lat="44.54708672846642" lon="9.668995891761911"><ele>1085.0</ele><time>2026-04-04T12:59:16Z</time></trkpt><trkpt lat="44.547036085976586" lon="9.669074605927035"><ele>1086.0</ele><time>2026-04-04T12:59:17Z</time></trkpt><trkpt lat="44.5469957591144" lon="9.669144458681139"><ele>1087.0</ele><time>2026-04-04T12:59:18Z</time></trkpt><trkpt lat="44.54696166092136" lon="9.669228336684888"><ele>1088.0</ele><time>2026-04-04T12:59:19Z</time></trkpt><trkpt lat="44.54696239004941" lon="9.669326633946856"><ele>1089.0</ele><time>2026-04-04T12:59:20Z</time></trkpt><trkpt lat="44.54696428784837" lon="9.669416289931776"><ele>1090.0</ele><time>2026-04-04T12:59:21Z</time></trkpt><trkpt lat="44.54693866145746" lon="9.669573844447246"><ele>1087.5</ele><time>2026-04-04T12:59:23Z</time></trkpt><trkpt lat="44.546870833225604" lon="9.669734446231054"><ele>1085.0</ele><time>2026-04-04T12:59:25Z</time></trkpt><trkpt lat="44.54682130700108" lon="9.669829046559293"><ele>1082.5</ele><time>2026-04-04T12:59:26Z</time></trkpt><trkpt lat="44.54680266764639" lon="9.669925903695123"><ele>1080.0</ele><time>2026-04-04T12:59:27Z</time></trkpt><trkpt lat="44.546802617771476" lon="9.670029158171314"><ele>1077.5</ele><time>2026-04-04T12:59:28Z</time></trkpt><trkpt lat="44.546826887450685" lon="9.670122112258957"><ele>1075.0</ele><time>2026-04-04T12:59:29Z</time></trkpt><trkpt lat="44.54683952781461" lon="9.670215899785433"><ele>1073.2857142857144</ele><time>2026-04-04T12:59:30Z</time></trkpt><trkpt lat="44.546818341273756" lon="9.67030027822583"><ele>1071.5714285714287</ele><time>2026-04-04T12:59:31Z</time></trkpt><trkpt lat="44.546774252174174" lon="9.670393338509651"><ele>1069.857142857143</ele><time>2026-04-04T12:59:32Z</time></trkpt><trkpt lat="44.54673698497978" lon="9.670485792689043"><ele>1068.1428571428573</ele><time>2026-04-04T12:59:33Z</time></trkpt><trkpt lat="44.54671125565194" lon="9.67057124864432"><ele>1066.4285714285716</ele><time>2026-04-04T12:59:34Z</time></trkpt><trkpt lat="44.54670750685325" lon="9.670666204998845"><ele>1064.7142857142858</ele><time>2026-04-04T12:59:35Z</time></trkpt><trkpt lat="44.54670665542258" lon="9.670766048285326"><ele>1063.0</ele><time>2026-04-04T12:59:36Z</time></trkpt><trkpt lat="44.54670473872858" lon="9.670870782877932"><ele>1063.0</ele><time>2026-04-04T12:59:37Z</time></trkpt><trkpt lat="44.546711195544795" lon="9.670975959943016"><ele>1063.0</ele><time>2026-04-04T12:59:38Z</time></trkpt><trkpt lat="44.54671280187349" lon="9.671080189885789"><ele>1063.0</ele><time>2026-04-04T12:59:39Z</time></trkpt><trkpt lat="44.5466946631437" lon="9.671185668090752"><ele>1063.0</ele><time>2026-04-04T12:59:40Z</time></trkpt><trkpt lat="44.546664739259896" lon="9.671296662016829"><ele>1063.0</ele><time>2026-04-04T12:59:41Z</time></trkpt><trkpt lat="44.54664732382176" lon="9.67139662970419"><ele>1063.0</ele><time>2026-04-04T12:59:42Z</time></trkpt><trkpt lat="44.54659687992954" lon="9.671534037918528"><ele>1060.8</ele><time>2026-04-04T12:59:44Z</time></trkpt><trkpt lat="44.546605653870415" lon="9.671664531346389"><ele>1058.6</ele><time>2026-04-04T12:59:46Z</time></trkpt><trkpt lat="44.5467179067758" lon="9.67175014868512"><ele>1056.4</ele><time>2026-04-04T12:59:48Z</time></trkpt><trkpt lat="44.54681138297523" lon="9.671867155495928"><ele>1054.2</ele><time>2026-04-04T12:59:50Z</time></trkpt><trkpt lat="44.546839756662784" lon="9.67195609353854"><ele>1052.0</ele><time>2026-04-04T12:59:51Z</time></trkpt><trkpt lat="44.54689270528054" lon="9.672085674880574"><ele>1050.5</ele><time>2026-04-04T12:59:53Z</time></trkpt><trkpt lat="44.546907580334455" lon="9.672234391322066"><ele>1049.0</ele><time>2026-04-04T12:59:55Z</time></trkpt><trkpt lat="44.54685545636055" lon="9.672320528288937"><ele>1047.5</ele><time>2026-04-04T12:59:56Z</time></trkpt><trkpt lat="44.54679412163693" lon="9.672388575411274"><ele>1046.0</ele><time>2026-04-04T12:59:57Z</time></trkpt><trkpt lat="44.54672762491677" lon="9.672440221528138"><ele>1044.5</ele><time>2026-04-04T12:59:58Z</time></trkpt><trkpt lat="44.546668375864094" lon="9.672483969438469"><ele>1043.0</ele><time>2026-04-04T12:59:59Z</time></trkpt><trkpt lat="44.54661121950793" lon="9.672531752833015"><ele>1043.0</ele><time>2026-04-04T13:00:00Z</time></trkpt><trkpt lat="44.54646729276858" lon="9.672521749663144"><ele>1043.0</ele><time>2026-04-04T13:00:02Z</time></trkpt><trkpt lat="44.54639740543269" lon="9.6724888618364"><ele>1043.0</ele><time>2026-04-04T13:00:03Z</time></trkpt><trkpt lat="44.54632341970981" lon="9.672446227373083"><ele>1043.0</ele><time>2026-04-04T13:00:04Z</time></trkpt><trkpt lat="44.546248438636376" lon="9.672404124727876"><ele>1043.0</ele><time>2026-04-04T13:00:05Z</time></trkpt><trkpt lat="44.54618876506058" lon="9.672349954632546"><ele>1041.8333333333335</ele><time>2026-04-04T13:00:06Z</time></trkpt><trkpt lat="44.54613676596293" lon="9.672297337280652"><ele>1040.6666666666667</ele><time>2026-04-04T13:00:07Z</time></trkpt><trkpt lat="44.54606181269182" lon="9.672274537701805"><ele>1039.5</ele><time>2026-04-04T13:00:08Z</time></trkpt><trkpt lat="44.545998025969595" lon="9.672261800781582"><ele>1038.3333333333333</ele><time>2026-04-04T13:00:09Z</time></trkpt><trkpt lat="44.545928717170824" lon="9.672264936069332"><ele>1037.1666666666665</ele><time>2026-04-04T13:00:10Z</time></trkpt><trkpt lat="44.54587262356645" lon="9.672307998869632"><ele>1036.0</ele><time>2026-04-04T13:00:11Z</time></trkpt><trkpt lat="44.545805782083946" lon="9.672455756790429"><ele>1036.0</ele><time>2026-04-04T13:00:13Z</time></trkpt><trkpt lat="44.545804666789195" lon="9.672620683638005"><ele>1036.0</ele><time>2026-04-04T13:00:15Z</time></trkpt><trkpt lat="44.5458313893745" lon="9.672708000761459"><ele>1036.0</ele><time>2026-04-04T13:00:16Z</time></trkpt><trkpt lat="44.54586234350306" lon="9.672793819883497"><ele>1036.0</ele><time>2026-04-04T13:00:17Z</time></trkpt><trkpt lat="44.545894004538525" lon="9.672898747350484"><ele>1036.0</ele><time>2026-04-04T13:00:18Z</time></trkpt><trkpt lat="44.545925410452796" lon="9.672995386488173"><ele>1036.0</ele><time>2026-04-04T13:00:19Z</time></trkpt><trkpt lat="44.545974921919296" lon="9.673150305928031"><ele>1034.0</ele><time>2026-04-04T13:00:21Z</time></trkpt><trkpt lat="44.54601612494318" lon="9.673306444834829"><ele>1032.0</ele><time>2026-04-04T13:00:23Z</time></trkpt><trkpt lat="44.54603038125444" lon="9.6734648262075"><ele>1030.0</ele><time>2026-04-04T13:00:25Z</time></trkpt><trkpt lat="44.54603433596943" lon="9.67362909167992"><ele>1028.0</ele><time>2026-04-04T13:00:27Z</time></trkpt><trkpt lat="44.546014945108375" lon="9.673724006484555"><ele>1026.0</ele><time>2026-04-04T13:00:28Z</time></trkpt><trkpt lat="44.5459825966075" lon="9.673809717089169"><ele>1024.6666666666667</ele><time>2026-04-04T13:00:29Z</time></trkpt><trkpt lat="44.545945950159854" lon="9.673900801917227"><ele>1023.3333333333333</ele><time>2026-04-04T13:00:30Z</time></trkpt><trkpt lat="44.54589720979008" lon="9.674035307116698"><ele>1022.0</ele><time>2026-04-04T13:00:32Z</time></trkpt><trkpt lat="44.54592178985598" lon="9.674176552247035"><ele>1020.6666666666666</ele><time>2026-04-04T13:00:34Z</time></trkpt><trkpt lat="44.545964888448346" lon="9.674244394866038"><ele>1019.3333333333333</ele><time>2026-04-04T13:00:35Z</time></trkpt><trkpt lat="44.54601884487467" lon="9.67431076225891"><ele>1018.0</ele><time>2026-04-04T13:00:36Z</time></trkpt><trkpt lat="44.546115790202194" lon="9.67439941636421"><ele>1018.8</ele><time>2026-04-04T13:00:38Z</time></trkpt><trkpt lat="44.546206337693" lon="9.67451433321409"><ele>1019.5999999999999</ele><time>2026-04-04T13:00:40Z</time></trkpt><trkpt lat="44.54622255126622" lon="9.67460651432676"><ele>1020.4000000000001</ele><time>2026-04-04T13:00:41Z</time></trkpt><trkpt lat="44.546252230496194" lon="9.674686850891659"><ele>1021.2</ele><time>2026-04-04T13:00:42Z</time></trkpt><trkpt lat="44.54632086894464" lon="9.67480579237415"><ele>1022.0</ele><time>2026-04-04T13:00:44Z</time></trkpt><trkpt lat="44.546436288955114" lon="9.6748727324398"><ele>1022.0000000000001</ele><time>2026-04-04T13:00:46Z</time></trkpt><trkpt lat="44.54648342949492" lon="9.675021804160968"><ele>1022.0</ele><time>2026-04-04T13:00:48Z</time></trkpt><trkpt lat="44.546498648533216" lon="9.675114201090722"><ele>1022.0</ele><time>2026-04-04T13:00:49Z</time></trkpt><trkpt lat="44.54649646128255" lon="9.675226207589791"><ele>1022.0</ele><time>2026-04-04T13:00:50Z</time></trkpt><trkpt lat="44.54647858612993" lon="9.67532782688419"><ele>1022.0000000000001</ele><time>2026-04-04T13:00:51Z</time></trkpt><trkpt lat="44.54645479344205" lon="9.675422901344744"><ele>1022.0</ele><time>2026-04-04T13:00:52Z</time></trkpt><trkpt lat="44.546442903834595" lon="9.675510743798469"><ele>1019.8</ele><time>2026-04-04T13:00:53Z</time></trkpt><trkpt lat="44.54646647669977" lon="9.675684434487229"><ele>1017.6</ele><time>2026-04-04T13:00:55Z</time></trkpt><trkpt lat="44.54652565966617" lon="9.675844023040485"><ele>1015.3999999999999</ele><time>2026-04-04T13:00:57Z</time></trkpt><trkpt lat="44.54656503340851" lon="9.67591473515352"><ele>1013.1999999999999</ele><time>2026-04-04T13:00:58Z</time></trkpt><trkpt lat="44.5466045895029" lon="9.675987899817862"><ele>1011.0</ele><time>2026-04-04T13:00:59Z</time></trkpt><trkpt lat="44.54662678116605" lon="9.676078667664019"><ele>1009.142857142857</ele><time>2026-04-04T13:01:00Z</time></trkpt><trkpt lat="44.546632040188115" lon="9.676177523911397"><ele>1007.2857142857142</ele><time>2026-04-04T13:01:01Z</time></trkpt><trkpt lat="44.54662801388157" lon="9.676281453801598"><ele>1005.4285714285714</ele><time>2026-04-04T13:01:02Z</time></trkpt><trkpt lat="44.54660582224069" lon="9.676382770737405"><ele>1003.5714285714286</ele><time>2026-04-04T13:01:03Z</time></trkpt><trkpt lat="44.54657956545836" lon="9.676478076842102"><ele>1001.7142857142858</ele><time>2026-04-04T13:01:04Z</time></trkpt><trkpt lat="44.546555979778574" lon="9.676575107903066"><ele>999.857142857143</ele><time>2026-04-04T13:01:05Z</time></trkpt><trkpt lat="44.54653675804379" lon="9.676668044906137"><ele>998.0000000000001</ele><time>2026-04-04T13:01:06Z</time></trkpt><trkpt lat="44.546498489028366" lon="9.676823143962215"><ele>996.0</ele><time>2026-04-04T13:01:08Z</time></trkpt><trkpt lat="44.546476447399456" lon="9.676947962202087"><ele>994.0</ele><time>2026-04-04T13:01:10Z</time></trkpt><trkpt lat="44.54649417982032" lon="9.677073750666317"><ele>992.0</ele><time>2026-04-04T13:01:12Z</time></trkpt><trkpt lat="44.54654535548787" lon="9.677225918775056"><ele>990.0</ele><time>2026-04-04T13:01:14Z</time></trkpt><trkpt lat="44.54659763900829" lon="9.677353528868249"><ele>988.0</ele><time>2026-04-04T13:01:16Z</time></trkpt><trkpt lat="44.54661976575848" lon="9.677503530008249"><ele>988.0</ele><time>2026-04-04T13:01:18Z</time></trkpt><trkpt lat="44.54661648023551" lon="9.67768322434555"><ele>988.0</ele><time>2026-04-04T13:01:20Z</time></trkpt><trkpt lat="44.546588499368205" lon="9.677763760903774"><ele>988.0</ele><time>2026-04-04T13:01:21Z</time></trkpt><trkpt lat="44.54655068280496" lon="9.6778455686325"><ele>988.0</ele><time>2026-04-04T13:01:22Z</time></trkpt><trkpt lat="44.54651248587726" lon="9.677927274488969"><ele>988.0</ele><time>2026-04-04T13:01:23Z</time></trkpt><trkpt lat="44.546447951394974" lon="9.678076607667752"><ele>987.5999999999999</ele><time>2026-04-04T13:01:25Z</time></trkpt><trkpt lat="44.54637429748824" lon="9.67820827230701"><ele>987.1999999999999</ele><time>2026-04-04T13:01:27Z</time></trkpt><trkpt lat="44.54634250709273" lon="9.678291197894877"><ele>986.8</ele><time>2026-04-04T13:01:28Z</time></trkpt><trkpt lat="44.54628143696783" lon="9.678441815572352"><ele>986.4</ele><time>2026-04-04T13:01:30Z</time></trkpt><trkpt lat="44.54619789870463" lon="9.678542352334654"><ele>986.0</ele><time>2026-04-04T13:01:32Z</time></trkpt><trkpt lat="44.54613404571719" lon="9.678633793675166"><ele>983.3333333333334</ele><time>2026-04-04T13:01:34Z</time></trkpt><trkpt lat="44.546085107658605" lon="9.6787443862162"><ele>980.6666666666667</ele><time>2026-04-04T13:01:36Z</time></trkpt><trkpt lat="44.546047304468644" lon="9.678856070693495"><ele>978.0</ele><time>2026-04-04T13:01:38Z</time></trkpt><trkpt lat="44.546024439608" lon="9.678976256719709"><ele>975.3333333333333</ele><time>2026-04-04T13:01:40Z</time></trkpt><trkpt lat="44.54600194711586" lon="9.679087202930345"><ele>972.6666666666666</ele><time>2026-04-04T13:01:42Z</time></trkpt><trkpt lat="44.54592896047575" lon="9.67914322241729"><ele>970.0</ele><time>2026-04-04T13:01:44Z</time></trkpt><trkpt lat="44.54586926748976" lon="9.679101117785006"><ele>969.9999999999999</ele><time>2026-04-04T13:01:45Z</time></trkpt><trkpt lat="44.5458177186394" lon="9.679025546304484"><ele>970.0</ele><time>2026-04-04T13:01:46Z</time></trkpt><trkpt lat="44.54576170416283" lon="9.678927666017522"><ele>970.0</ele><time>2026-04-04T13:01:47Z</time></trkpt><trkpt lat="44.54570574137825" lon="9.678833094198511"><ele>970.0</ele><time>2026-04-04T13:01:48Z</time></trkpt><trkpt lat="44.545660794293376" lon="9.678761877597129"><ele>969.9999999999999</ele><time>2026-04-04T13:01:49Z</time></trkpt><trkpt lat="44.54557829092754" lon="9.678638500810125"><ele>970.0</ele><time>2026-04-04T13:01:51Z</time></trkpt><trkpt lat="44.54549721087978" lon="9.678510614528717"><ele>970.2</ele><time>2026-04-04T13:01:53Z</time></trkpt><trkpt lat="44.54545251271578" lon="9.678444469972193"><ele>970.4</ele><time>2026-04-04T13:01:54Z</time></trkpt><trkpt lat="44.54537088619094" lon="9.678332793839477"><ele>970.5999999999999</ele><time>2026-04-04T13:01:56Z</time></trkpt><trkpt lat="44.545293521653555" lon="9.678251969284855"><ele>970.8</ele><time>2026-04-04T13:01:58Z</time></trkpt><trkpt lat="44.54521298958872" lon="9.678151218637954"><ele>971.0</ele><time>2026-04-04T13:02:00Z</time></trkpt><trkpt lat="44.545160326047366" lon="9.678088596016657"><ele>970.6666666666667</ele><time>2026-04-04T13:02:01Z</time></trkpt><trkpt lat="44.54510664072206" lon="9.678021486163866"><ele>970.3333333333334</ele><time>2026-04-04T13:02:02Z</time></trkpt><trkpt lat="44.54501361647339" lon="9.67791091864033"><ele>970.0</ele><time>2026-04-04T13:02:04Z</time></trkpt><trkpt lat="44.544957150654945" lon="9.677854325030696"><ele>969.6666666666667</ele><time>2026-04-04T13:02:05Z</time></trkpt><trkpt lat="44.544900617039126" lon="9.677801341203532"><ele>969.3333333333334</ele><time>2026-04-04T13:02:06Z</time></trkpt><trkpt lat="44.54483590368922" lon="9.677744658784396"><ele>969.0</ele><time>2026-04-04T13:02:07Z</time></trkpt><trkpt lat="44.54476245242352" lon="9.677689319134522"><ele>969.0</ele><time>2026-04-04T13:02:08Z</time></trkpt><trkpt lat="44.54468954734664" lon="9.677617739006717"><ele>969.0000000000001</ele><time>2026-04-04T13:02:09Z</time></trkpt><trkpt lat="44.54460923647111" lon="9.6775654443734"><ele>969.0000000000001</ele><time>2026-04-04T13:02:10Z</time></trkpt><trkpt lat="44.544515740699865" lon="9.677515057032998"><ele>969.0</ele><time>2026-04-04T13:02:11Z</time></trkpt><trkpt lat="44.544417594217975" lon="9.67747212245258"><ele>969.0</ele><time>2026-04-04T13:02:12Z</time></trkpt><trkpt lat="44.54431220138064" lon="9.67743259212552"><ele>967.8000000000001</ele><time>2026-04-04T13:02:13Z</time></trkpt><trkpt lat="44.54421650539719" lon="9.677399199136321"><ele>966.6000000000001</ele><time>2026-04-04T13:02:14Z</time></trkpt><trkpt lat="44.54412209757325" lon="9.677368188305334"><ele>965.4</ele><time>2026-04-04T13:02:15Z</time></trkpt><trkpt lat="44.544030690339646" lon="9.677341898645127"><ele>964.2</ele><time>2026-04-04T13:02:16Z</time></trkpt><trkpt lat="44.54394651109681" lon="9.677317821807751"><ele>963.0</ele><time>2026-04-04T13:02:17Z</time></trkpt><trkpt lat="44.543856958599186" lon="9.677296023476972"><ele>963.0</ele><time>2026-04-04T13:02:18Z</time></trkpt><trkpt lat="44.54376039258763" lon="9.677273881951438"><ele>963.0</ele><time>2026-04-04T13:02:19Z</time></trkpt><trkpt lat="44.543641549239126" lon="9.677248205664696"><ele>963.0</ele><time>2026-04-04T13:02:20Z</time></trkpt><trkpt lat="44.54353121881315" lon="9.677224368574985"><ele>963.0</ele><time>2026-04-04T13:02:21Z</time></trkpt><trkpt lat="44.54343332400418" lon="9.677202930896547"><ele>963.0</ele><time>2026-04-04T13:02:22Z</time></trkpt><trkpt lat="44.54333964730739" lon="9.67718216860777"><ele>961.5999999999999</ele><time>2026-04-04T13:02:23Z</time></trkpt><trkpt lat="44.54325022379271" lon="9.677160987209966"><ele>960.1999999999999</ele><time>2026-04-04T13:02:24Z</time></trkpt><trkpt lat="44.543159716657826" lon="9.677139549152978"><ele>958.8</ele><time>2026-04-04T13:02:25Z</time></trkpt><trkpt lat="44.54307335134913" lon="9.677116484722827"><ele>957.4</ele><time>2026-04-04T13:02:26Z</time></trkpt><trkpt lat="44.54298441458944" lon="9.677085411027688"><ele>956.0</ele><time>2026-04-04T13:02:27Z</time></trkpt><trkpt lat="44.542894075167354" lon="9.677037798525323"><ele>954.8</ele><time>2026-04-04T13:02:28Z</time></trkpt><trkpt lat="44.542806273684874" lon="9.676964624942888"><ele>953.5999999999999</ele><time>2026-04-04T13:02:29Z</time></trkpt><trkpt lat="44.542724074483544" lon="9.67689932171256"><ele>952.4</ele><time>2026-04-04T13:02:30Z</time></trkpt><trkpt lat="44.542665909790806" lon="9.67680116940725"><ele>951.2</ele><time>2026-04-04T13:02:31Z</time></trkpt><trkpt lat="44.542627811542495" lon="9.676685048977697"><ele>950.0</ele><time>2026-04-04T13:02:32Z</time></trkpt><trkpt lat="44.54260930186573" lon="9.676570818990617"><ele>950.0000000000001</ele><time>2026-04-04T13:02:33Z</time></trkpt><trkpt lat="44.54260476403453" lon="9.676458753317394"><ele>950.0</ele><time>2026-04-04T13:02:34Z</time></trkpt><trkpt lat="44.54260795067024" lon="9.676343703671415"><ele>950.0</ele><time>2026-04-04T13:02:35Z</time></trkpt><trkpt lat="44.542611700409324" lon="9.676235536602722"><ele>950.0</ele><time>2026-04-04T13:02:36Z</time></trkpt><trkpt lat="44.542610065533296" lon="9.67613024949239"><ele>950.0000000000001</ele><time>2026-04-04T13:02:37Z</time></trkpt><trkpt lat="44.54260180624825" lon="9.67601880828336"><ele>950.0</ele><time>2026-04-04T13:02:38Z</time></trkpt><trkpt lat="44.542584739044734" lon="9.675903484145577"><ele>950.2</ele><time>2026-04-04T13:02:39Z</time></trkpt><trkpt lat="44.54253458517362" lon="9.675801476744532"><ele>950.4</ele><time>2026-04-04T13:02:40Z</time></trkpt><trkpt lat="44.54245155894966" lon="9.675742835127549"><ele>950.5999999999999</ele><time>2026-04-04T13:02:41Z</time></trkpt><trkpt lat="44.54235272580847" lon="9.675722031927414"><ele>950.8</ele><time>2026-04-04T13:02:42Z</time></trkpt><trkpt lat="44.54225500038421" lon="9.67571059620979"><ele>951.0</ele><time>2026-04-04T13:02:43Z</time></trkpt><trkpt lat="44.54217354441715" lon="9.67569475281939"><ele>951.0</ele><time>2026-04-04T13:02:44Z</time></trkpt><trkpt lat="44.54209815463155" lon="9.6756407612618"><ele>950.9999999999999</ele><time>2026-04-04T13:02:45Z</time></trkpt><trkpt lat="44.54203552030409" lon="9.67556751600357"><ele>950.9999999999999</ele><time>2026-04-04T13:02:46Z</time></trkpt><trkpt lat="44.54196594872689" lon="9.675512535734105"><ele>951.0</ele><time>2026-04-04T13:02:47Z</time></trkpt><trkpt lat="44.541882761715236" lon="9.675483743980584"><ele>951.0</ele><time>2026-04-04T13:02:48Z</time></trkpt><trkpt lat="44.541764765320664" lon="9.675537046169303"><ele>950.0</ele><time>2026-04-04T13:02:49Z</time></trkpt><trkpt lat="44.5416584771644" lon="9.67564839667228"><ele>949.0</ele><time>2026-04-04T13:02:50Z</time></trkpt><trkpt lat="44.541559616636306" lon="9.675803860901146"><ele>948.0</ele><time>2026-04-04T13:02:51Z</time></trkpt><trkpt lat="44.54148900958111" lon="9.675993011439646"><ele>947.0</ele><time>2026-04-04T13:02:52Z</time></trkpt><trkpt lat="44.54144320412669" lon="9.676171988498549"><ele>945.25</ele><time>2026-04-04T13:02:53Z</time></trkpt><trkpt lat="44.541416988326084" lon="9.67635132430754"><ele>943.5</ele><time>2026-04-04T13:02:54Z</time></trkpt><trkpt lat="44.5413646044643" lon="9.676502456053944"><ele>941.75</ele><time>2026-04-04T13:02:55Z</time></trkpt><trkpt lat="44.541331529911176" lon="9.676644422198207"><ele>940.0</ele><time>2026-04-04T13:02:56Z</time></trkpt><trkpt lat="44.54130318643331" lon="9.67677323609204"><ele>939.9999999999999</ele><time>2026-04-04T13:02:57Z</time></trkpt><trkpt lat="44.541272113951095" lon="9.676902882641645"><ele>940.0</ele><time>2026-04-04T13:02:58Z</time></trkpt><trkpt lat="44.54123940065482" lon="9.677018166033754"><ele>940.0</ele><time>2026-04-04T13:02:59Z</time></trkpt><trkpt lat="44.541203030090216" lon="9.677124087648238"><ele>940.0</ele><time>2026-04-04T13:03:00Z</time></trkpt><trkpt lat="44.54115781657513" lon="9.677207541149413"><ele>939.9999999999999</ele><time>2026-04-04T13:03:01Z</time></trkpt><trkpt lat="44.5410920573761" lon="9.677251271695301"><ele>940.0</ele><time>2026-04-04T13:03:02Z</time></trkpt><trkpt lat="44.541011727518764" lon="9.677310717842737"><ele>937.8</ele><time>2026-04-04T13:03:03Z</time></trkpt><trkpt lat="44.5409307625389" lon="9.677363777837998"><ele>935.6</ele><time>2026-04-04T13:03:04Z</time></trkpt><trkpt lat="44.54085100580053" lon="9.677408892827774"><ele>933.4000000000001</ele><time>2026-04-04T13:03:05Z</time></trkpt><trkpt lat="44.540750868332644" lon="9.677445010288015"><ele>931.2</ele><time>2026-04-04T13:03:06Z</time></trkpt><trkpt lat="44.54064235080225" lon="9.677456677852431"><ele>929.0</ele><time>2026-04-04T13:03:07Z</time></trkpt><trkpt lat="44.540533855739014" lon="9.677463072658618"><ele>929.0</ele><time>2026-04-04T13:03:08Z</time></trkpt><trkpt lat="44.54041793518856" lon="9.677417135219164"><ele>929.0</ele><time>2026-04-04T13:03:09Z</time></trkpt><trkpt lat="44.54031827519269" lon="9.677343731082283"><ele>929.0</ele><time>2026-04-04T13:03:10Z</time></trkpt><trkpt lat="44.5402248848329" lon="9.677255904172146"><ele>929.0</ele><time>2026-04-04T13:03:11Z</time></trkpt><trkpt lat="44.540141716523486" lon="9.677163050278184"><ele>929.2</ele><time>2026-04-04T13:03:12Z</time></trkpt><trkpt lat="44.54006323895576" lon="9.677069184264377"><ele>929.4000000000001</ele><time>2026-04-04T13:03:13Z</time></trkpt><trkpt lat="44.53999341796787" lon="9.6769555721406"><ele>929.6</ele><time>2026-04-04T13:03:14Z</time></trkpt><trkpt lat="44.53994270530868" lon="9.676823719333017"><ele>929.8</ele><time>2026-04-04T13:03:15Z</time></trkpt><trkpt lat="44.53988820517771" lon="9.676704961635382"><ele>930.0</ele><time>2026-04-04T13:03:16Z</time></trkpt><trkpt lat="44.539829272530284" lon="9.676592755427773"><ele>930.0</ele><time>2026-04-04T13:03:17Z</time></trkpt><trkpt lat="44.53976063931453" lon="9.676498492240725"><ele>930.0</ele><time>2026-04-04T13:03:18Z</time></trkpt><trkpt lat="44.53968240706191" lon="9.676429675002492"><ele>930.0</ele><time>2026-04-04T13:03:19Z</time></trkpt><trkpt lat="44.53958974274558" lon="9.676364024704625"><ele>930.0</ele><time>2026-04-04T13:03:20Z</time></trkpt><trkpt lat="44.539488980931026" lon="9.676315687773746"><ele>930.0</ele><time>2026-04-04T13:03:21Z</time></trkpt><trkpt lat="44.53937838148714" lon="9.67631362524019"><ele>928.4</ele><time>2026-04-04T13:03:22Z</time></trkpt><trkpt lat="44.539268748825734" lon="9.67634283158284"><ele>926.8</ele><time>2026-04-04T13:03:23Z</time></trkpt><trkpt lat="44.53916632671808" lon="9.67636812650976"><ele>925.2</ele><time>2026-04-04T13:03:24Z</time></trkpt><trkpt lat="44.53904748982677" lon="9.676401031377976"><ele>923.6</ele><time>2026-04-04T13:03:25Z</time></trkpt><trkpt lat="44.53893965259956" lon="9.676432469640316"><ele>922.0</ele><time>2026-04-04T13:03:26Z</time></trkpt><trkpt lat="44.538828758471475" lon="9.676466217038678"><ele>921.5</ele><time>2026-04-04T13:03:27Z</time></trkpt><trkpt lat="44.53870493215379" lon="9.676505184903203"><ele>921.0</ele><time>2026-04-04T13:03:28Z</time></trkpt><trkpt lat="44.53858648646508" lon="9.676543163768171"><ele>920.5</ele><time>2026-04-04T13:03:29Z</time></trkpt><trkpt lat="44.53847436119851" lon="9.676579418124941"><ele>920.0</ele><time>2026-04-04T13:03:30Z</time></trkpt><trkpt lat="44.538358650648185" lon="9.676616841774194"><ele>920.0</ele><time>2026-04-04T13:03:31Z</time></trkpt><trkpt lat="44.53826667361833" lon="9.67664695893222"><ele>920.0</ele><time>2026-04-04T13:03:32Z</time></trkpt><trkpt lat="44.538165619046914" lon="9.676680048424359"><ele>920.0</ele><time>2026-04-04T13:03:33Z</time></trkpt><trkpt lat="44.53807438155271" lon="9.676709923395395"><ele>920.0</ele><time>2026-04-04T13:03:34Z</time></trkpt><trkpt lat="44.53797800345915" lon="9.676741481579144"><ele>920.0</ele><time>2026-04-04T13:03:35Z</time></trkpt><trkpt lat="44.537884280383985" lon="9.67677217041124"><ele>922.0</ele><time>2026-04-04T13:03:36Z</time></trkpt><trkpt lat="44.53779755369304" lon="9.67680065759118"><ele>924.0</ele><time>2026-04-04T13:03:37Z</time></trkpt><trkpt lat="44.53771353384287" lon="9.676828678712726"><ele>926.0</ele><time>2026-04-04T13:03:38Z</time></trkpt><trkpt lat="44.537620074783725" lon="9.676878329100537"><ele>928.0</ele><time>2026-04-04T13:03:39Z</time></trkpt><trkpt lat="44.53751349524366" lon="9.676910852246648"><ele>930.0</ele><time>2026-04-04T13:03:40Z</time></trkpt><trkpt lat="44.5373704998422" lon="9.676940196168777"><ele>923.25</ele><time>2026-04-04T13:03:41Z</time></trkpt><trkpt lat="44.53725175859562" lon="9.676993524040656"><ele>916.5</ele><time>2026-04-04T13:03:42Z</time></trkpt><trkpt lat="44.53716184341415" lon="9.677035613933944"><ele>909.75</ele><time>2026-04-04T13:03:43Z</time></trkpt><trkpt lat="44.537037951826285" lon="9.67706156038268"><ele>903.0</ele><time>2026-04-04T13:03:44Z</time></trkpt><trkpt lat="44.53693024289921" lon="9.67709218709568"><ele>903.0</ele><time>2026-04-04T13:03:45Z</time></trkpt><trkpt lat="44.53684778068455" lon="9.677126730406824"><ele>903.0</ele><time>2026-04-04T13:03:46Z</time></trkpt><trkpt lat="44.53672770053924" lon="9.677153556436723"><ele>903.0</ele><time>2026-04-04T13:03:47Z</time></trkpt><trkpt lat="44.536614206818726" lon="9.677167024641191"><ele>903.0</ele><time>2026-04-04T13:03:48Z</time></trkpt><trkpt lat="44.536495675278665" lon="9.67717920825759"><ele>903.0</ele><time>2026-04-04T13:03:49Z</time></trkpt><trkpt lat="44.53638974137807" lon="9.67716122556164"><ele>903.0</ele><time>2026-04-04T13:03:50Z</time></trkpt><trkpt lat="44.53628883835485" lon="9.677118497782521"><ele>903.0</ele><time>2026-04-04T13:03:51Z</time></trkpt><trkpt lat="44.53618725806767" lon="9.677070487647555"><ele>903.0</ele><time>2026-04-04T13:03:52Z</time></trkpt><trkpt lat="44.536078965544405" lon="9.67702731863802"><ele>903.0</ele><time>2026-04-04T13:03:53Z</time></trkpt><trkpt lat="44.53597658382136" lon="9.676984404924346"><ele>903.0</ele><time>2026-04-04T13:03:54Z</time></trkpt><trkpt lat="44.53586124818806" lon="9.676933910110963"><ele>904.8</ele><time>2026-04-04T13:03:55Z</time></trkpt><trkpt lat="44.53576223150989" lon="9.676893694656158"><ele>906.5999999999999</ele><time>2026-04-04T13:03:56Z</time></trkpt><trkpt lat="44.53566680729278" lon="9.676832504504565"><ele>908.4000000000001</ele><time>2026-04-04T13:03:57Z</time></trkpt><trkpt lat="44.53557997761284" lon="9.676755850386668"><ele>910.2</ele><time>2026-04-04T13:03:58Z</time></trkpt><trkpt lat="44.53549145096732" lon="9.67665388535389"><ele>912.0</ele><time>2026-04-04T13:03:59Z</time></trkpt><trkpt lat="44.53539212548215" lon="9.67655114133472"><ele>909.5</ele><time>2026-04-04T13:04:00Z</time></trkpt><trkpt lat="44.53528653973491" lon="9.67644135904697"><ele>907.0</ele><time>2026-04-04T13:04:01Z</time></trkpt><trkpt lat="44.535182919590895" lon="9.676347536199389"><ele>904.5</ele><time>2026-04-04T13:04:02Z</time></trkpt><trkpt lat="44.53507868082374" lon="9.676263933754784"><ele>902.0</ele><time>2026-04-04T13:04:03Z</time></trkpt><trkpt lat="44.53499333124769" lon="9.676202966619432"><ele>902.0</ele><time>2026-04-04T13:04:04Z</time></trkpt><trkpt lat="44.53489960921048" lon="9.676147423934355"><ele>902.0</ele><time>2026-04-04T13:04:05Z</time></trkpt><trkpt lat="44.53481020045431" lon="9.676115644647362"><ele>902.0</ele><time>2026-04-04T13:04:06Z</time></trkpt><trkpt lat="44.53470917152456" lon="9.676130387210936"><ele>902.0</ele><time>2026-04-04T13:04:07Z</time></trkpt><trkpt lat="44.53460241825258" lon="9.67618413719228"><ele>902.0</ele><time>2026-04-04T13:04:08Z</time></trkpt><trkpt lat="44.53449451272995" lon="9.676267120228255"><ele>902.75</ele><time>2026-04-04T13:04:09Z</time></trkpt><trkpt lat="44.53441387281111" lon="9.676385063843139"><ele>903.5</ele><time>2026-04-04T13:04:10Z</time></trkpt><trkpt lat="44.53434735948822" lon="9.676539635608837"><ele>904.25</ele><time>2026-04-04T13:04:11Z</time></trkpt><trkpt lat="44.534288503598795" lon="9.676704508229129"><ele>905.0</ele><time>2026-04-04T13:04:12Z</time></trkpt><trkpt lat="44.53423619501353" lon="9.676852625428102"><ele>903.0</ele><time>2026-04-04T13:04:13Z</time></trkpt><trkpt lat="44.534190974366226" lon="9.676980977503032"><ele>901.0</ele><time>2026-04-04T13:04:14Z</time></trkpt><trkpt lat="44.53414398938485" lon="9.677116086969503"><ele>899.0</ele><time>2026-04-04T13:04:15Z</time></trkpt><trkpt lat="44.53410369294446" lon="9.677235036313654"><ele>897.0</ele><time>2026-04-04T13:04:16Z</time></trkpt><trkpt lat="44.53405703982293" lon="9.677369867301897"><ele>895.0</ele><time>2026-04-04T13:04:17Z</time></trkpt><trkpt lat="44.53400190008077" lon="9.677522317480044"><ele>895.0</ele><time>2026-04-04T13:04:18Z</time></trkpt><trkpt lat="44.5339531888226" lon="9.677656994095901"><ele>895.0</ele><time>2026-04-04T13:04:19Z</time></trkpt><trkpt lat="44.53390586431697" lon="9.67778783676063"><ele>895.0</ele><time>2026-04-04T13:04:20Z</time></trkpt><trkpt lat="44.533864965994276" lon="9.677910978731726"><ele>895.0</ele><time>2026-04-04T13:04:21Z</time></trkpt><trkpt lat="44.533792444150414" lon="9.67803327269118"><ele>895.0</ele><time>2026-04-04T13:04:22Z</time></trkpt><trkpt lat="44.53371493165126" lon="9.678139440705321"><ele>895.2</ele><time>2026-04-04T13:04:23Z</time></trkpt><trkpt lat="44.53363314337951" lon="9.67822954097083"><ele>895.4</ele><time>2026-04-04T13:04:24Z</time></trkpt><trkpt lat="44.53354376694377" lon="9.678318076675673"><ele>895.5999999999999</ele><time>2026-04-04T13:04:25Z</time></trkpt><trkpt lat="44.53344854750348" lon="9.67836898015548"><ele>895.8</ele><time>2026-04-04T13:04:26Z</time></trkpt><trkpt lat="44.53335158577525" lon="9.678383395749425"><ele>896.0</ele><time>2026-04-04T13:04:27Z</time></trkpt><trkpt lat="44.533228500247255" lon="9.678354547608745"><ele>896.0</ele><time>2026-04-04T13:04:28Z</time></trkpt><trkpt lat="44.53313410819168" lon="9.678316381140627"><ele>896.0</ele><time>2026-04-04T13:04:29Z</time></trkpt><trkpt lat="44.53300075816421" lon="9.678270200008892"><ele>896.0</ele><time>2026-04-04T13:04:30Z</time></trkpt><trkpt lat="44.53288593274435" lon="9.678226789608678"><ele>896.0</ele><time>2026-04-04T13:04:31Z</time></trkpt><trkpt lat="44.53276455621141" lon="9.678177756888415"><ele>894.75</ele><time>2026-04-04T13:04:32Z</time></trkpt><trkpt lat="44.5326336914705" lon="9.678131006439266"><ele>893.5</ele><time>2026-04-04T13:04:33Z</time></trkpt><trkpt lat="44.532517393030055" lon="9.678085349408956"><ele>892.25</ele><time>2026-04-04T13:04:34Z</time></trkpt><trkpt lat="44.532405580683005" lon="9.678052924097258"><ele>891.0</ele><time>2026-04-04T13:04:35Z</time></trkpt><trkpt lat="44.53231503015371" lon="9.678011641160069"><ele>891.0</ele><time>2026-04-04T13:04:36Z</time></trkpt><trkpt lat="44.53222273879357" lon="9.677968082620911"><ele>890.9999999999999</ele><time>2026-04-04T13:04:37Z</time></trkpt><trkpt lat="44.53213248046636" lon="9.677931086887952"><ele>890.9999999999999</ele><time>2026-04-04T13:04:38Z</time></trkpt><trkpt lat="44.532038764860964" lon="9.67789836161106"><ele>891.0</ele><time>2026-04-04T13:04:39Z</time></trkpt><trkpt lat="44.53194276867638" lon="9.677854640990125"><ele>891.0</ele><time>2026-04-04T13:04:40Z</time></trkpt><trkpt lat="44.53184780670705" lon="9.677825072959662"><ele>891.1999999999999</ele><time>2026-04-04T13:04:41Z</time></trkpt><trkpt lat="44.53173756426846" lon="9.677796704302766"><ele>891.3999999999999</ele><time>2026-04-04T13:04:42Z</time></trkpt><trkpt lat="44.531633637443214" lon="9.677738545846074"><ele>891.6</ele><time>2026-04-04T13:04:43Z</time></trkpt><trkpt lat="44.53153331491836" lon="9.677676465352297"><ele>891.8</ele><time>2026-04-04T13:04:44Z</time></trkpt><trkpt lat="44.53143303749628" lon="9.677615779900984"><ele>892.0</ele><time>2026-04-04T13:04:45Z</time></trkpt><trkpt lat="44.53133032028478" lon="9.677548474728875"><ele>892.0</ele><time>2026-04-04T13:04:46Z</time></trkpt><trkpt lat="44.531227176663194" lon="9.67747788701157"><ele>892.0</ele><time>2026-04-04T13:04:47Z</time></trkpt><trkpt lat="44.531132378404074" lon="9.67740818860057"><ele>892.0</ele><time>2026-04-04T13:04:48Z</time></trkpt><trkpt lat="44.53104954625674" lon="9.677345610697547"><ele>892.0</ele><time>2026-04-04T13:04:49Z</time></trkpt><trkpt lat="44.53096841955733" lon="9.67728545651502"><ele>892.0</ele><time>2026-04-04T13:04:50Z</time></trkpt><trkpt lat="44.53089520939793" lon="9.677237897252752"><ele>889.5</ele><time>2026-04-04T13:04:51Z</time></trkpt><trkpt lat="44.5308230718953" lon="9.67719839384728"><ele>887.0</ele><time>2026-04-04T13:04:52Z</time></trkpt><trkpt lat="44.53074547608035" lon="9.677121179092257"><ele>884.5</ele><time>2026-04-04T13:04:54Z</time></trkpt><trkpt lat="44.5308276363125" lon="9.676832107169995"><ele>882.0</ele><time>2026-04-04T13:04:56Z</time></trkpt><trkpt lat="44.53089045087296" lon="9.676760446495251"><ele>880.6</ele><time>2026-04-04T13:04:57Z</time></trkpt><trkpt lat="44.53093203258741" lon="9.676651072129587"><ele>879.2</ele><time>2026-04-04T13:04:58Z</time></trkpt><trkpt lat="44.53093105900222" lon="9.676516014830321"><ele>877.8</ele><time>2026-04-04T13:04:59Z</time></trkpt><trkpt lat="44.53088700792203" lon="9.676384102752117"><ele>876.4</ele><time>2026-04-04T13:05:00Z</time></trkpt><trkpt lat="44.53083649698033" lon="9.676249179252377"><ele>875.0</ele><time>2026-04-04T13:05:01Z</time></trkpt><trkpt lat="44.53076840161963" lon="9.67612807481863"><ele>875.0000000000001</ele><time>2026-04-04T13:05:02Z</time></trkpt><trkpt lat="44.530709320581146" lon="9.676012797601295"><ele>875.0</ele><time>2026-04-04T13:05:03Z</time></trkpt><trkpt lat="44.53065490883281" lon="9.675911106590751"><ele>875.0</ele><time>2026-04-04T13:05:04Z</time></trkpt><trkpt lat="44.530601622552396" lon="9.675813309259148"><ele>875.0</ele><time>2026-04-04T13:05:05Z</time></trkpt><trkpt lat="44.530550060881396" lon="9.67572509027144"><ele>875.0000000000001</ele><time>2026-04-04T13:05:06Z</time></trkpt><trkpt lat="44.53049753549376" lon="9.675634247410082"><ele>875.0</ele><time>2026-04-04T13:05:07Z</time></trkpt><trkpt lat="44.53046636589035" lon="9.675534806427788"><ele>875.0</ele><time>2026-04-04T13:05:08Z</time></trkpt><trkpt lat="44.53041609667856" lon="9.675437010557891"><ele>875.0</ele><time>2026-04-04T13:05:09Z</time></trkpt><trkpt lat="44.53035633960479" lon="9.675355554760596"><ele>875.0</ele><time>2026-04-04T13:05:10Z</time></trkpt><trkpt lat="44.53028889863569" lon="9.675255977730822"><ele>875.0</ele><time>2026-04-04T13:05:11Z</time></trkpt><trkpt lat="44.530194734152445" lon="9.675173201860032"><ele>875.0</ele><time>2026-04-04T13:05:12Z</time></trkpt><trkpt lat="44.53008001390976" lon="9.675118475881105"><ele>873.6</ele><time>2026-04-04T13:05:13Z</time></trkpt><trkpt lat="44.52997721968518" lon="9.675063271458725"><ele>872.2</ele><time>2026-04-04T13:05:14Z</time></trkpt><trkpt lat="44.529879350260615" lon="9.675023682794608"><ele>870.8</ele><time>2026-04-04T13:05:15Z</time></trkpt><trkpt lat="44.52978075314375" lon="9.674984734109028"><ele>869.4</ele><time>2026-04-04T13:05:16Z</time></trkpt><trkpt lat="44.52967646662149" lon="9.674943538015071"><ele>868.0</ele><time>2026-04-04T13:05:17Z</time></trkpt><trkpt lat="44.52956074625582" lon="9.674896329671675"><ele>866.2</ele><time>2026-04-04T13:05:18Z</time></trkpt><trkpt lat="44.52945695076198" lon="9.674828066260162"><ele>864.4</ele><time>2026-04-04T13:05:19Z</time></trkpt><trkpt lat="44.529371590649426" lon="9.674742817762214"><ele>862.6000000000001</ele><time>2026-04-04T13:05:20Z</time></trkpt><trkpt lat="44.52929684692264" lon="9.674648193626767"><ele>860.8000000000001</ele><time>2026-04-04T13:05:21Z</time></trkpt><trkpt lat="44.52924117175528" lon="9.674530696432305"><ele>859.0</ele><time>2026-04-04T13:05:22Z</time></trkpt><trkpt lat="44.5291783182749" lon="9.674404472523548"><ele>859.0</ele><time>2026-04-04T13:05:23Z</time></trkpt><trkpt lat="44.529098795745504" lon="9.674282444529316"><ele>859.0000000000001</ele><time>2026-04-04T13:05:24Z</time></trkpt><trkpt lat="44.529011303959635" lon="9.674184903889087"><ele>859.0000000000001</ele><time>2026-04-04T13:05:25Z</time></trkpt><trkpt lat="44.528918980733934" lon="9.674097065745126"><ele>859.0</ele><time>2026-04-04T13:05:26Z</time></trkpt><trkpt lat="44.528825757690015" lon="9.674026872640198"><ele>859.0</ele><time>2026-04-04T13:05:27Z</time></trkpt><trkpt lat="44.52873203731048" lon="9.673965782110969"><ele>855.0</ele><time>2026-04-04T13:05:28Z</time></trkpt><trkpt lat="44.52863405312341" lon="9.67390681491201"><ele>851.0</ele><time>2026-04-04T13:05:29Z</time></trkpt><trkpt lat="44.528525519081285" lon="9.673862861269328"><ele>847.0</ele><time>2026-04-04T13:05:30Z</time></trkpt><trkpt lat="44.528405260082636" lon="9.673819269653146"><ele>843.0</ele><time>2026-04-04T13:05:31Z</time></trkpt><trkpt lat="44.5282991357947" lon="9.673798143531199"><ele>843.0</ele><time>2026-04-04T13:05:32Z</time></trkpt><trkpt lat="44.52820447178833" lon="9.67378389905591"><ele>843.0</ele><time>2026-04-04T13:05:33Z</time></trkpt><trkpt lat="44.52811540444187" lon="9.673774222663857"><ele>843.0</ele><time>2026-04-04T13:05:34Z</time></trkpt><trkpt lat="44.528014916946844" lon="9.673751821366583"><ele>843.0</ele><time>2026-04-04T13:05:35Z</time></trkpt><trkpt lat="44.52790464832738" lon="9.673721090013961"><ele>843.0</ele><time>2026-04-04T13:05:36Z</time></trkpt><trkpt lat="44.52779900092509" lon="9.67368246902192"><ele>842.4</ele><time>2026-04-04T13:05:37Z</time></trkpt><trkpt lat="44.52770519506981" lon="9.673625128861978"><ele>841.8</ele><time>2026-04-04T13:05:38Z</time></trkpt><trkpt lat="44.52762146718636" lon="9.673541037770676"><ele>841.2</ele><time>2026-04-04T13:05:39Z</time></trkpt><trkpt lat="44.52753998870914" lon="9.673438628454052"><ele>840.6</ele><time>2026-04-04T13:05:40Z</time></trkpt><trkpt lat="44.52746258071029" lon="9.673329539964472"><ele>840.0</ele><time>2026-04-04T13:05:41Z</time></trkpt><trkpt lat="44.52738546524052" lon="9.673221321921769"><ele>840.0</ele><time>2026-04-04T13:05:42Z</time></trkpt><trkpt lat="44.5273065133456" lon="9.673112557879522"><ele>840.0</ele><time>2026-04-04T13:05:43Z</time></trkpt><trkpt lat="44.52722977181962" lon="9.673007643115872"><ele>840.0</ele><time>2026-04-04T13:05:44Z</time></trkpt><trkpt lat="44.52716048209233" lon="9.672915817091889"><ele>840.0</ele><time>2026-04-04T13:05:45Z</time></trkpt><trkpt lat="44.52709796496619" lon="9.672835337197322"><ele>840.0</ele><time>2026-04-04T13:05:46Z</time></trkpt><trkpt lat="44.52703859441705" lon="9.672743201895504"><ele>837.4</ele><time>2026-04-04T13:05:47Z</time></trkpt><trkpt lat="44.52698125733116" lon="9.672634229583284"><ele>834.8</ele><time>2026-04-04T13:05:48Z</time></trkpt><trkpt lat="44.52693696130651" lon="9.672505324395875"><ele>832.2</ele><time>2026-04-04T13:05:49Z</time></trkpt><trkpt lat="44.52689494533203" lon="9.67237047161252"><ele>829.6</ele><time>2026-04-04T13:05:50Z</time></trkpt><trkpt lat="44.52685457257523" lon="9.672245259027319"><ele>827.0</ele><time>2026-04-04T13:05:51Z</time></trkpt><trkpt lat="44.526810651905805" lon="9.672120922803654"><ele>827.0</ele><time>2026-04-04T13:05:52Z</time></trkpt><trkpt lat="44.526763277633506" lon="9.67200117884261"><ele>827.0</ele><time>2026-04-04T13:05:53Z</time></trkpt><trkpt lat="44.52671685278034" lon="9.671879835764868"><ele>827.0</ele><time>2026-04-04T13:05:54Z</time></trkpt><trkpt lat="44.52667321658658" lon="9.671754675154009"><ele>827.0</ele><time>2026-04-04T13:05:55Z</time></trkpt><trkpt lat="44.52662315980724" lon="9.671631496928518"><ele>827.0</ele><time>2026-04-04T13:05:56Z</time></trkpt><trkpt lat="44.526572782968756" lon="9.671516171149428"><ele>828.2</ele><time>2026-04-04T13:05:57Z</time></trkpt><trkpt lat="44.52652239073795" lon="9.671393820946742"><ele>829.4000000000001</ele><time>2026-04-04T13:05:58Z</time></trkpt><trkpt lat="44.526470192020994" lon="9.671275682558889"><ele>830.5999999999999</ele><time>2026-04-04T13:05:59Z</time></trkpt><trkpt lat="44.52642023684486" lon="9.671150763278595"><ele>831.8</ele><time>2026-04-04T13:06:00Z</time></trkpt><trkpt lat="44.52636948056457" lon="9.671035757061825"><ele>833.0</ele><time>2026-04-04T13:06:01Z</time></trkpt><trkpt lat="44.526309545509264" lon="9.67089219750395"><ele>834.2</ele><time>2026-04-04T13:06:02Z</time></trkpt><trkpt lat="44.526260632062005" lon="9.670769552068545"><ele>835.4</ele><time>2026-04-04T13:06:03Z</time></trkpt><trkpt lat="44.52621018048428" lon="9.670641136553607"><ele>836.6</ele><time>2026-04-04T13:06:04Z</time></trkpt><trkpt lat="44.52615737227299" lon="9.670513856865975"><ele>837.8000000000001</ele><time>2026-04-04T13:06:05Z</time></trkpt><trkpt lat="44.52610847083537" lon="9.67038378653646"><ele>839.0</ele><time>2026-04-04T13:06:06Z</time></trkpt><trkpt lat="44.526061366389484" lon="9.670270158144978"><ele>834.8000000000001</ele><time>2026-04-04T13:06:07Z</time></trkpt><trkpt lat="44.5260162536326" lon="9.670152725324341"><ele>830.6</ele><time>2026-04-04T13:06:08Z</time></trkpt><trkpt lat="44.525966199680894" lon="9.670046564305485"><ele>826.4</ele><time>2026-04-04T13:06:09Z</time></trkpt><trkpt lat="44.52591532238038" lon="9.669944192213185"><ele>822.2</ele><time>2026-04-04T13:06:10Z</time></trkpt><trkpt lat="44.5258649290117" lon="9.669828384849307"><ele>818.0</ele><time>2026-04-04T13:06:11Z</time></trkpt><trkpt lat="44.52581617142936" lon="9.669712845787371"><ele>818.0</ele><time>2026-04-04T13:06:12Z</time></trkpt><trkpt lat="44.52578714435926" lon="9.66957763634774"><ele>818.0</ele><time>2026-04-04T13:06:13Z</time></trkpt><trkpt lat="44.52578072541772" lon="9.66942668571841"><ele>818.0</ele><time>2026-04-04T13:06:14Z</time></trkpt><trkpt lat="44.525799969655715" lon="9.669282294687267"><ele>818.0</ele><time>2026-04-04T13:06:15Z</time></trkpt><trkpt lat="44.52582419652362" lon="9.669115480663857"><ele>818.0</ele><time>2026-04-04T13:06:16Z</time></trkpt><trkpt lat="44.52585075052889" lon="9.668950178097617"><ele>818.0</ele><time>2026-04-04T13:06:17Z</time></trkpt><trkpt lat="44.52587872989711" lon="9.668797999135977"><ele>818.0</ele><time>2026-04-04T13:06:18Z</time></trkpt><trkpt lat="44.525893805084934" lon="9.668651092108126"><ele>818.0</ele><time>2026-04-04T13:06:19Z</time></trkpt><trkpt lat="44.52590230111023" lon="9.668487898449523"><ele>818.0</ele><time>2026-04-04T13:06:20Z</time></trkpt><trkpt lat="44.52589764753203" lon="9.668316734752732"><ele>817.5</ele><time>2026-04-04T13:06:21Z</time></trkpt><trkpt lat="44.52585980208392" lon="9.668147346053729"><ele>817.0</ele><time>2026-04-04T13:06:22Z</time></trkpt><trkpt lat="44.52580454572915" lon="9.667997182730943"><ele>816.5</ele><time>2026-04-04T13:06:23Z</time></trkpt><trkpt lat="44.52576548595543" lon="9.667848453245773"><ele>816.0</ele><time>2026-04-04T13:06:24Z</time></trkpt><trkpt lat="44.52571973867231" lon="9.667720563801863"><ele>816.0</ele><time>2026-04-04T13:06:25Z</time></trkpt><trkpt lat="44.525672572846965" lon="9.6675868072477"><ele>816.0</ele><time>2026-04-04T13:06:26Z</time></trkpt><trkpt lat="44.525623503850085" lon="9.667447652896342"><ele>816.0</ele><time>2026-04-04T13:06:27Z</time></trkpt><trkpt lat="44.5255753442826" lon="9.667311078006852"><ele>816.0</ele><time>2026-04-04T13:06:28Z</time></trkpt><trkpt lat="44.525525413301686" lon="9.667169479495723"><ele>816.0</ele><time>2026-04-04T13:06:29Z</time></trkpt><trkpt lat="44.525480741329375" lon="9.667042794828541"><ele>817.0</ele><time>2026-04-04T13:06:30Z</time></trkpt><trkpt lat="44.52543482706639" lon="9.666912587379514"><ele>818.0</ele><time>2026-04-04T13:06:31Z</time></trkpt><trkpt lat="44.52537167740737" lon="9.666782228867232"><ele>819.0</ele><time>2026-04-04T13:06:32Z</time></trkpt><trkpt lat="44.52532682303295" lon="9.66665609762412"><ele>820.0</ele><time>2026-04-04T13:06:33Z</time></trkpt><trkpt lat="44.525296032309384" lon="9.66651627292459"><ele>821.0</ele><time>2026-04-04T13:06:34Z</time></trkpt><trkpt lat="44.525251396290216" lon="9.666394966911955"><ele>816.0</ele><time>2026-04-04T13:06:35Z</time></trkpt><trkpt lat="44.52520649389758" lon="9.666271427468663"><ele>811.0</ele><time>2026-04-04T13:06:36Z</time></trkpt><trkpt lat="44.52516620728661" lon="9.666153520431752"><ele>806.0</ele><time>2026-04-04T13:06:37Z</time></trkpt><trkpt lat="44.52510634837808" lon="9.66601724457681"><ele>801.0</ele><time>2026-04-04T13:06:38Z</time></trkpt><trkpt lat="44.525073317793606" lon="9.66587680019685"><ele>796.0</ele><time>2026-04-04T13:06:39Z</time></trkpt><trkpt lat="44.525041896461445" lon="9.665740180068598"><ele>795.8</ele><time>2026-04-04T13:06:40Z</time></trkpt><trkpt lat="44.525020236559754" lon="9.665596755209958"><ele>795.5999999999999</ele><time>2026-04-04T13:06:41Z</time></trkpt><trkpt lat="44.52500190018524" lon="9.665468224064353"><ele>795.4</ele><time>2026-04-04T13:06:42Z</time></trkpt><trkpt lat="44.524977116702566" lon="9.665344494989242"><ele>795.2</ele><time>2026-04-04T13:06:43Z</time></trkpt><trkpt lat="44.52495009747985" lon="9.665234571358845"><ele>795.0</ele><time>2026-04-04T13:06:44Z</time></trkpt><trkpt lat="44.524929526386906" lon="9.665117831445327"><ele>794.5</ele><time>2026-04-04T13:06:45Z</time></trkpt><trkpt lat="44.52490553642952" lon="9.664987232767881"><ele>794.0</ele><time>2026-04-04T13:06:46Z</time></trkpt><trkpt lat="44.52487178398306" lon="9.664830723883979"><ele>793.5</ele><time>2026-04-04T13:06:47Z</time></trkpt><trkpt lat="44.52483250840562" lon="9.664661863566202"><ele>793.0</ele><time>2026-04-04T13:06:48Z</time></trkpt><trkpt lat="44.52478369676609" lon="9.664522998735157"><ele>793.8</ele><time>2026-04-04T13:06:49Z</time></trkpt><trkpt lat="44.52473364226354" lon="9.664397352661567"><ele>794.5999999999999</ele><time>2026-04-04T13:06:50Z</time></trkpt><trkpt lat="44.524681283130654" lon="9.664275005838148"><ele>795.4000000000001</ele><time>2026-04-04T13:06:51Z</time></trkpt><trkpt lat="44.52463495765015" lon="9.664169838456822"><ele>796.2</ele><time>2026-04-04T13:06:52Z</time></trkpt><trkpt lat="44.52459288596053" lon="9.664063472861665"><ele>797.0</ele><time>2026-04-04T13:06:53Z</time></trkpt><trkpt lat="44.52456048469345" lon="9.663961991747662"><ele>793.6</ele><time>2026-04-04T13:06:54Z</time></trkpt><trkpt lat="44.524530392673405" lon="9.663846205752513"><ele>790.2</ele><time>2026-04-04T13:06:55Z</time></trkpt><trkpt lat="44.52450122746067" lon="9.663696217869388"><ele>786.8</ele><time>2026-04-04T13:06:56Z</time></trkpt><trkpt lat="44.52447402205334" lon="9.663539823809657"><ele>783.4</ele><time>2026-04-04T13:06:57Z</time></trkpt><trkpt lat="44.524451365988945" lon="9.663360199627203"><ele>780.0</ele><time>2026-04-04T13:06:58Z</time></trkpt><trkpt lat="44.52443117344841" lon="9.6631741257599"><ele>778.25</ele><time>2026-04-04T13:06:59Z</time></trkpt><trkpt lat="44.524396243356115" lon="9.663007612129906"><ele>776.5</ele><time>2026-04-04T13:07:00Z</time></trkpt><trkpt lat="44.52438680789771" lon="9.662821926496447"><ele>774.75</ele><time>2026-04-04T13:07:01Z</time></trkpt><trkpt lat="44.524380233242645" lon="9.662655329403636"><ele>773.0</ele><time>2026-04-04T13:07:02Z</time></trkpt><trkpt lat="44.524380825722496" lon="9.66250895855546"><ele>771.2</ele><time>2026-04-04T13:07:03Z</time></trkpt><trkpt lat="44.52439236539028" lon="9.662372679698615"><ele>769.4</ele><time>2026-04-04T13:07:04Z</time></trkpt><trkpt lat="44.524424049373025" lon="9.662262514705375"><ele>767.6</ele><time>2026-04-04T13:07:05Z</time></trkpt><trkpt lat="44.52448591750732" lon="9.662175853131089"><ele>765.8000000000001</ele><time>2026-04-04T13:07:06Z</time></trkpt><trkpt lat="44.524581198601645" lon="9.662141229961001"><ele>764.0</ele><time>2026-04-04T13:07:07Z</time></trkpt><trkpt lat="44.52468487466845" lon="9.662158410165132"><ele>768.8000000000001</ele><time>2026-04-04T13:07:08Z</time></trkpt><trkpt lat="44.524794931540015" lon="9.662203508075374"><ele>773.6</ele><time>2026-04-04T13:07:09Z</time></trkpt><trkpt lat="44.52490084206017" lon="9.662263373619247"><ele>778.4</ele><time>2026-04-04T13:07:10Z</time></trkpt><trkpt lat="44.52498810360007" lon="9.66231357986363"><ele>783.2</ele><time>2026-04-04T13:07:11Z</time></trkpt><trkpt lat="44.52506881992983" lon="9.66236018332553"><ele>788.0</ele><time>2026-04-04T13:07:12Z</time></trkpt><trkpt lat="44.525146115922375" lon="9.662404584739392"><ele>788.0</ele><time>2026-04-04T13:07:13Z</time></trkpt><trkpt lat="44.525218535498496" lon="9.662445609464404"><ele>788.0</ele><time>2026-04-04T13:07:14Z</time></trkpt><trkpt lat="44.525305139826926" lon="9.662477484217812"><ele>788.0</ele><time>2026-04-04T13:07:15Z</time></trkpt><trkpt lat="44.525410603115155" lon="9.66249724951099"><ele>788.0</ele><time>2026-04-04T13:07:16Z</time></trkpt><trkpt lat="44.525534445757906" lon="9.662512588985724"><ele>788.0</ele><time>2026-04-04T13:07:17Z</time></trkpt><trkpt lat="44.52566374810765" lon="9.662509001733596"><ele>788.25</ele><time>2026-04-04T13:07:18Z</time></trkpt><trkpt lat="44.525784171354864" lon="9.662498074591706"><ele>788.5</ele><time>2026-04-04T13:07:19Z</time></trkpt><trkpt lat="44.52589414581574" lon="9.662451131348021"><ele>788.75</ele><time>2026-04-04T13:07:20Z</time></trkpt><trkpt lat="44.526007156390015" lon="9.662402368216528"><ele>789.0</ele><time>2026-04-04T13:07:21Z</time></trkpt><trkpt lat="44.52610486828322" lon="9.662337399849216"><ele>789.0</ele><time>2026-04-04T13:07:22Z</time></trkpt><trkpt lat="44.526189142644746" lon="9.66226401878731"><ele>789.0</ele><time>2026-04-04T13:07:23Z</time></trkpt><trkpt lat="44.52625400977271" lon="9.662162940532461"><ele>789.0</ele><time>2026-04-04T13:07:24Z</time></trkpt><trkpt lat="44.52630851080968" lon="9.662044572890348"><ele>789.0</ele><time>2026-04-04T13:07:25Z</time></trkpt><trkpt lat="44.52633729298967" lon="9.661914837594686"><ele>789.0</ele><time>2026-04-04T13:07:26Z</time></trkpt><trkpt lat="44.526322394975764" lon="9.661785139098345"><ele>787.25</ele><time>2026-04-04T13:07:27Z</time></trkpt><trkpt lat="44.52629201247936" lon="9.661654909083223"><ele>785.5</ele><time>2026-04-04T13:07:28Z</time></trkpt><trkpt lat="44.526226318355285" lon="9.66152803854155"><ele>783.75</ele><time>2026-04-04T13:07:29Z</time></trkpt><trkpt lat="44.52614220344346" lon="9.661407585343289"><ele>782.0</ele><time>2026-04-04T13:07:30Z</time></trkpt><trkpt lat="44.52603974945021" lon="9.661316249696574"><ele>777.5</ele><time>2026-04-04T13:07:31Z</time></trkpt><trkpt lat="44.52595688197825" lon="9.661169154798658"><ele>773.0</ele><time>2026-04-04T13:07:32Z</time></trkpt><trkpt lat="44.525868728368295" lon="9.661026119535348"><ele>768.5</ele><time>2026-04-04T13:07:33Z</time></trkpt><trkpt lat="44.525805788661295" lon="9.660878142703222"><ele>764.0</ele><time>2026-04-04T13:07:34Z</time></trkpt><trkpt lat="44.525746111571685" lon="9.660723145321088"><ele>764.0</ele><time>2026-04-04T13:07:35Z</time></trkpt><trkpt lat="44.52569117997419" lon="9.660615790687167"><ele>764.0</ele><time>2026-04-04T13:07:36Z</time></trkpt><trkpt lat="44.52564501755895" lon="9.660484073695041"><ele>764.0</ele><time>2026-04-04T13:07:37Z</time></trkpt><trkpt lat="44.52561139575196" lon="9.660374411747574"><ele>764.0</ele><time>2026-04-04T13:07:38Z</time></trkpt><trkpt lat="44.525611292988934" lon="9.660247568597157"><ele>764.0</ele><time>2026-04-04T13:07:39Z</time></trkpt><trkpt lat="44.525632761071265" lon="9.660106409495363"><ele>763.2</ele><time>2026-04-04T13:07:40Z</time></trkpt><trkpt lat="44.52567797136157" lon="9.659980555110128"><ele>762.4000000000001</ele><time>2026-04-04T13:07:41Z</time></trkpt><trkpt lat="44.525730622745776" lon="9.659835143937256"><ele>761.6</ele><time>2026-04-04T13:07:42Z</time></trkpt><trkpt lat="44.5257835304599" lon="9.6597013501361"><ele>760.8</ele><time>2026-04-04T13:07:43Z</time></trkpt><trkpt lat="44.525834689230514" lon="9.65957100448443"><ele>760.0</ele><time>2026-04-04T13:07:44Z</time></trkpt><trkpt lat="44.5258748700276" lon="9.65942617386202"><ele>758.0</ele><time>2026-04-04T13:07:45Z</time></trkpt><trkpt lat="44.525921820950174" lon="9.659313627147556"><ele>756.0</ele><time>2026-04-04T13:07:46Z</time></trkpt><trkpt lat="44.525963363358954" lon="9.659205915956647"><ele>754.0</ele><time>2026-04-04T13:07:47Z</time></trkpt><trkpt lat="44.52602322645624" lon="9.659101447477047"><ele>752.0</ele><time>2026-04-04T13:07:48Z</time></trkpt><trkpt lat="44.52604646588428" lon="9.658983264940662"><ele>750.0</ele><time>2026-04-04T13:07:49Z</time></trkpt><trkpt lat="44.52608734554754" lon="9.658866506327861"><ele>750.0</ele><time>2026-04-04T13:07:50Z</time></trkpt><trkpt lat="44.52609172422066" lon="9.658738525863496"><ele>750.0</ele><time>2026-04-04T13:07:51Z</time></trkpt><trkpt lat="44.52607472005698" lon="9.658607203989757"><ele>750.0</ele><time>2026-04-04T13:07:52Z</time></trkpt><trkpt lat="44.52603017823344" lon="9.658464311216473"><ele>750.0</ele><time>2026-04-04T13:07:53Z</time></trkpt><trkpt lat="44.52594978133218" lon="9.65836765038483"><ele>750.0</ele><time>2026-04-04T13:07:54Z</time></trkpt><trkpt lat="44.525850642761384" lon="9.658290630921702"><ele>751.5</ele><time>2026-04-04T13:07:55Z</time></trkpt><trkpt lat="44.52574655042242" lon="9.658211055586737"><ele>753.0</ele><time>2026-04-04T13:07:56Z</time></trkpt><trkpt lat="44.525641705765196" lon="9.658118372739404"><ele>754.5</ele><time>2026-04-04T13:07:57Z</time></trkpt><trkpt lat="44.52552857963033" lon="9.658027563237368"><ele>756.0</ele><time>2026-04-04T13:07:58Z</time></trkpt><trkpt lat="44.525423944342506" lon="9.657938071228786"><ele>755.8</ele><time>2026-04-04T13:07:59Z</time></trkpt><trkpt lat="44.525333715243086" lon="9.657884343231865"><ele>755.5999999999999</ele><time>2026-04-04T13:08:00Z</time></trkpt><trkpt lat="44.525236867663054" lon="9.65783605811197"><ele>755.4</ele><time>2026-04-04T13:08:01Z</time></trkpt><trkpt lat="44.52514501302477" lon="9.657809059530171"><ele>755.2</ele><time>2026-04-04T13:08:02Z</time></trkpt><trkpt lat="44.5250470252723" lon="9.657784766905074"><ele>755.0</ele><time>2026-04-04T13:08:03Z</time></trkpt><trkpt lat="44.524938374089" lon="9.657763986183491"><ele>755.0</ele><time>2026-04-04T13:08:04Z</time></trkpt><trkpt lat="44.52483197637408" lon="9.657767677662425"><ele>755.0</ele><time>2026-04-04T13:08:05Z</time></trkpt><trkpt lat="44.52473138494981" lon="9.657748431029557"><ele>755.0</ele><time>2026-04-04T13:08:06Z</time></trkpt><trkpt lat="44.52462229838203" lon="9.657743893043662"><ele>755.0</ele><time>2026-04-04T13:08:07Z</time></trkpt><trkpt lat="44.52453660803914" lon="9.657649080261475"><ele>755.0</ele><time>2026-04-04T13:08:08Z</time></trkpt><trkpt lat="44.52444068573991" lon="9.657556128799206"><ele>748.75</ele><time>2026-04-04T13:08:09Z</time></trkpt><trkpt lat="44.52434675803434" lon="9.657461987960952"><ele>742.5</ele><time>2026-04-04T13:08:10Z</time></trkpt><trkpt lat="44.52424688567461" lon="9.657373704277216"><ele>736.25</ele><time>2026-04-04T13:08:11Z</time></trkpt><trkpt lat="44.52415765337532" lon="9.657283014332872"><ele>730.0</ele><time>2026-04-04T13:08:12Z</time></trkpt><trkpt lat="44.52406735385137" lon="9.657196095351305"><ele>730.0</ele><time>2026-04-04T13:08:13Z</time></trkpt><trkpt lat="44.523979654993916" lon="9.65708669493773"><ele>730.0</ele><time>2026-04-04T13:08:14Z</time></trkpt><trkpt lat="44.52389673164995" lon="9.65699724768963"><ele>730.0</ele><time>2026-04-04T13:08:15Z</time></trkpt><trkpt lat="44.52381837807886" lon="9.656897110556086"><ele>730.0</ele><time>2026-04-04T13:08:16Z</time></trkpt><trkpt lat="44.52375131519805" lon="9.656796404171565"><ele>730.0</ele><time>2026-04-04T13:08:17Z</time></trkpt><trkpt lat="44.5236895982338" lon="9.656686422481611"><ele>729.0</ele><time>2026-04-04T13:08:18Z</time></trkpt><trkpt lat="44.523640467403276" lon="9.656576994413658"><ele>728.0</ele><time>2026-04-04T13:08:19Z</time></trkpt><trkpt lat="44.52361653305546" lon="9.656444786599904"><ele>727.0</ele><time>2026-04-04T13:08:20Z</time></trkpt><trkpt lat="44.52360422220298" lon="9.656305318667739"><ele>726.0</ele><time>2026-04-04T13:08:21Z</time></trkpt><trkpt lat="44.52360807815824" lon="9.65614941176531"><ele>725.0</ele><time>2026-04-04T13:08:22Z</time></trkpt><trkpt lat="44.523602044433936" lon="9.656024775533176"><ele>725.0</ele><time>2026-04-04T13:08:23Z</time></trkpt><trkpt lat="44.52358662743992" lon="9.65589653030707"><ele>725.0</ele><time>2026-04-04T13:08:24Z</time></trkpt><trkpt lat="44.52354490230774" lon="9.655768566517969"><ele>725.0</ele><time>2026-04-04T13:08:25Z</time></trkpt><trkpt lat="44.52347680313597" lon="9.65567198570302"><ele>725.0</ele><time>2026-04-04T13:08:26Z</time></trkpt><trkpt lat="44.52337748161558" lon="9.655592732048826"><ele>725.0</ele><time>2026-04-04T13:08:27Z</time></trkpt><trkpt lat="44.52327006509132" lon="9.65556537316203"><ele>725.0</ele><time>2026-04-04T13:08:28Z</time></trkpt><trkpt lat="44.52314293568718" lon="9.655579304227796"><ele>725.0</ele><time>2026-04-04T13:08:29Z</time></trkpt><trkpt lat="44.52301386117161" lon="9.655545590903523"><ele>725.0</ele><time>2026-04-04T13:08:30Z</time></trkpt><trkpt lat="44.5228815408519" lon="9.655523169132634"><ele>725.0</ele><time>2026-04-04T13:08:31Z</time></trkpt><trkpt lat="44.522756472375534" lon="9.655476992189717"><ele>725.2</ele><time>2026-04-04T13:08:32Z</time></trkpt><trkpt lat="44.52264571891345" lon="9.655430120377485"><ele>725.4</ele><time>2026-04-04T13:08:33Z</time></trkpt><trkpt lat="44.522544275068476" lon="9.655388723194227"><ele>725.5999999999999</ele><time>2026-04-04T13:08:34Z</time></trkpt><trkpt lat="44.52245609478819" lon="9.655352738593685"><ele>725.8</ele><time>2026-04-04T13:08:35Z</time></trkpt><trkpt lat="44.52236095201261" lon="9.655319684541322"><ele>726.0</ele><time>2026-04-04T13:08:36Z</time></trkpt><trkpt lat="44.52225455760135" lon="9.655274079600284"><ele>726.0</ele><time>2026-04-04T13:08:37Z</time></trkpt><trkpt lat="44.52215642953823" lon="9.655247704382628"><ele>726.0</ele><time>2026-04-04T13:08:38Z</time></trkpt><trkpt lat="44.522071600216776" lon="9.655194010178946"><ele>726.0</ele><time>2026-04-04T13:08:39Z</time></trkpt><trkpt lat="44.52197439428439" lon="9.655171885098708"><ele>726.0</ele><time>2026-04-04T13:08:40Z</time></trkpt><trkpt lat="44.52187387164544" lon="9.655110867298587"><ele>726.0</ele><time>2026-04-04T13:08:41Z</time></trkpt><trkpt lat="44.521798148498476" lon="9.655031420071758"><ele>722.8</ele><time>2026-04-04T13:08:42Z</time></trkpt><trkpt lat="44.52172199382552" lon="9.654947422215331"><ele>719.5999999999999</ele><time>2026-04-04T13:08:43Z</time></trkpt><trkpt lat="44.521641094063284" lon="9.654854297164283"><ele>716.4</ele><time>2026-04-04T13:08:44Z</time></trkpt><trkpt lat="44.52156775656952" lon="9.654756658119142"><ele>713.2</ele><time>2026-04-04T13:08:45Z</time></trkpt><trkpt lat="44.52148413377653" lon="9.654653601727256"><ele>710.0</ele><time>2026-04-04T13:08:46Z</time></trkpt><trkpt lat="44.52140894247887" lon="9.654562171174506"><ele>710.0</ele><time>2026-04-04T13:08:47Z</time></trkpt><trkpt lat="44.52134710431625" lon="9.654456599623996"><ele>710.0</ele><time>2026-04-04T13:08:48Z</time></trkpt><trkpt lat="44.521294412073054" lon="9.654326888991907"><ele>710.0</ele><time>2026-04-04T13:08:49Z</time></trkpt><trkpt lat="44.52125662010952" lon="9.65418530776246"><ele>710.0</ele><time>2026-04-04T13:08:50Z</time></trkpt><trkpt lat="44.52122635298498" lon="9.654041930202643"><ele>710.0</ele><time>2026-04-04T13:08:51Z</time></trkpt><trkpt lat="44.521194552262806" lon="9.653910368380298"><ele>707.8</ele><time>2026-04-04T13:08:52Z</time></trkpt><trkpt lat="44.52116471942222" lon="9.653773471011387"><ele>705.6</ele><time>2026-04-04T13:08:53Z</time></trkpt><trkpt lat="44.521129262165196" lon="9.653639401103725"><ele>703.4000000000001</ele><time>2026-04-04T13:08:54Z</time></trkpt><trkpt lat="44.52109149590969" lon="9.653514992576312"><ele>701.2</ele><time>2026-04-04T13:08:55Z</time></trkpt><trkpt lat="44.521055714957924" lon="9.653373732227745"><ele>699.0</ele><time>2026-04-04T13:08:56Z</time></trkpt><trkpt lat="44.52101949831317" lon="9.65325861230091"><ele>699.0</ele><time>2026-04-04T13:08:57Z</time></trkpt><trkpt lat="44.52098778450466" lon="9.653120629939975"><ele>699.0</ele><time>2026-04-04T13:08:58Z</time></trkpt><trkpt lat="44.52093698315381" lon="9.652986300130335"><ele>699.0</ele><time>2026-04-04T13:08:59Z</time></trkpt><trkpt lat="44.52085304327595" lon="9.652835086445945"><ele>699.0</ele><time>2026-04-04T13:09:00Z</time></trkpt><trkpt lat="44.52078815913436" lon="9.652681546304015"><ele>700.75</ele><time>2026-04-04T13:09:01Z</time></trkpt><trkpt lat="44.52072415262893" lon="9.65255529901813"><ele>702.5</ele><time>2026-04-04T13:09:02Z</time></trkpt><trkpt lat="44.520638799957" lon="9.652426885441301"><ele>704.25</ele><time>2026-04-04T13:09:03Z</time></trkpt><trkpt lat="44.52057066290105" lon="9.652304473255807"><ele>706.0</ele><time>2026-04-04T13:09:04Z</time></trkpt><trkpt lat="44.52050648063972" lon="9.652176637938112"><ele>706.0</ele><time>2026-04-04T13:09:05Z</time></trkpt><trkpt lat="44.52042735328409" lon="9.652074510836075"><ele>706.0</ele><time>2026-04-04T13:09:06Z</time></trkpt><trkpt lat="44.52033851095553" lon="9.651972324723582"><ele>706.0</ele><time>2026-04-04T13:09:07Z</time></trkpt><trkpt lat="44.52026564235577" lon="9.651894890623055"><ele>706.0</ele><time>2026-04-04T13:09:08Z</time></trkpt><trkpt lat="44.52019361922781" lon="9.651815675254474"><ele>706.0</ele><time>2026-04-04T13:09:09Z</time></trkpt><trkpt lat="44.520118905938" lon="9.651749872240407"><ele>702.0</ele><time>2026-04-04T13:09:10Z</time></trkpt><trkpt lat="44.52008845633072" lon="9.651647132756962"><ele>698.0</ele><time>2026-04-04T13:09:11Z</time></trkpt><trkpt lat="44.520082529300524" lon="9.651538259691907"><ele>694.0</ele><time>2026-04-04T13:09:12Z</time></trkpt><trkpt lat="44.52010856523324" lon="9.651407309052642"><ele>690.0</ele><time>2026-04-04T13:09:13Z</time></trkpt><trkpt lat="44.52015670732754" lon="9.65129606516536"><ele>686.0</ele><time>2026-04-04T13:09:14Z</time></trkpt><trkpt lat="44.5202618585115" lon="9.651173030997827"><ele>685.3333333333333</ele><time>2026-04-04T13:09:15Z</time></trkpt><trkpt lat="44.52035502576159" lon="9.651093687853548"><ele>684.6666666666666</ele><time>2026-04-04T13:09:16Z</time></trkpt><trkpt lat="44.52042632425197" lon="9.651023819027696"><ele>684.0</ele><time>2026-04-04T13:09:17Z</time></trkpt><trkpt lat="44.520481685143665" lon="9.650941032743303"><ele>683.3333333333334</ele><time>2026-04-04T13:09:18Z</time></trkpt><trkpt lat="44.5205145691367" lon="9.650841325047466"><ele>682.6666666666667</ele><time>2026-04-04T13:09:19Z</time></trkpt><trkpt lat="44.520512660900025" lon="9.650729844413588"><ele>682.0</ele><time>2026-04-04T13:09:20Z</time></trkpt><trkpt lat="44.52047191823611" lon="9.650619314785336"><ele>682.0</ele><time>2026-04-04T13:09:21Z</time></trkpt><trkpt lat="44.520399796573926" lon="9.650497323075086"><ele>682.0</ele><time>2026-04-04T13:09:22Z</time></trkpt><trkpt lat="44.52028593352961" lon="9.65043543817972"><ele>682.0</ele><time>2026-04-04T13:09:23Z</time></trkpt><trkpt lat="44.52014198585336" lon="9.650415892727562"><ele>682.0</ele><time>2026-04-04T13:09:24Z</time></trkpt><trkpt lat="44.51999523327953" lon="9.650393676739487"><ele>682.0</ele><time>2026-04-04T13:09:25Z</time></trkpt><trkpt lat="44.519859280082976" lon="9.650370778641872"><ele>682.0</ele><time>2026-04-04T13:09:26Z</time></trkpt><trkpt lat="44.51973710908574" lon="9.65035067753982"><ele>682.0</ele><time>2026-04-04T13:09:27Z</time></trkpt><trkpt lat="44.5196317270516" lon="9.650335245906152"><ele>682.0</ele><time>2026-04-04T13:09:28Z</time></trkpt><trkpt lat="44.51952920514097" lon="9.650322916516314"><ele>680.0</ele><time>2026-04-04T13:09:29Z</time></trkpt><trkpt lat="44.519433852389916" lon="9.650318290962945"><ele>678.0</ele><time>2026-04-04T13:09:30Z</time></trkpt><trkpt lat="44.51934990314691" lon="9.650280920293302"><ele>676.0</ele><time>2026-04-04T13:09:31Z</time></trkpt><trkpt lat="44.519274464016725" lon="9.650203221880155"><ele>674.0</ele><time>2026-04-04T13:09:32Z</time></trkpt><trkpt lat="44.519228544791964" lon="9.650088419294832"><ele>672.0</ele><time>2026-04-04T13:09:33Z</time></trkpt><trkpt lat="44.51919380328073" lon="9.649956021542275"><ele>672.0</ele><time>2026-04-04T13:09:34Z</time></trkpt><trkpt lat="44.51916817171901" lon="9.64980698647678"><ele>672.0</ele><time>2026-04-04T13:09:35Z</time></trkpt><trkpt lat="44.51914333692644" lon="9.64967628642067"><ele>672.0</ele><time>2026-04-04T13:09:36Z</time></trkpt><trkpt lat="44.51912214411095" lon="9.649530394233029"><ele>672.0</ele><time>2026-04-04T13:09:37Z</time></trkpt><trkpt lat="44.519117800028575" lon="9.649381164617873"><ele>672.0</ele><time>2026-04-04T13:09:38Z</time></trkpt><trkpt lat="44.51912867406113" lon="9.649218929105167"><ele>672.2</ele><time>2026-04-04T13:09:39Z</time></trkpt><trkpt lat="44.51913194405961" lon="9.649069974657804"><ele>672.4000000000001</ele><time>2026-04-04T13:09:40Z</time></trkpt><trkpt lat="44.51913913661002" lon="9.648925703436234"><ele>672.5999999999999</ele><time>2026-04-04T13:09:41Z</time></trkpt><trkpt lat="44.519128371947325" lon="9.648791035728363"><ele>672.8</ele><time>2026-04-04T13:09:42Z</time></trkpt><trkpt lat="44.519111499075436" lon="9.648643535230358"><ele>673.0</ele><time>2026-04-04T13:09:43Z</time></trkpt><trkpt lat="44.519083540784266" lon="9.648500487099934"><ele>672.3333333333334</ele><time>2026-04-04T13:09:44Z</time></trkpt><trkpt lat="44.51907658792205" lon="9.64836490007876"><ele>671.6666666666667</ele><time>2026-04-04T13:09:45Z</time></trkpt><trkpt lat="44.51905583113262" lon="9.648244719899196"><ele>671.0</ele><time>2026-04-04T13:09:46Z</time></trkpt><trkpt lat="44.51902818318045" lon="9.648128237735492"><ele>670.3333333333334</ele><time>2026-04-04T13:09:47Z</time></trkpt><trkpt lat="44.519012329827994" lon="9.648012565902528"><ele>669.6666666666666</ele><time>2026-04-04T13:09:48Z</time></trkpt><trkpt lat="44.51898656822717" lon="9.647903067863123"><ele>669.0</ele><time>2026-04-04T13:09:49Z</time></trkpt><trkpt lat="44.51895094797378" lon="9.647790486711187"><ele>666.75</ele><time>2026-04-04T13:09:50Z</time></trkpt><trkpt lat="44.51887508257968" lon="9.647703732262997"><ele>664.5</ele><time>2026-04-04T13:09:51Z</time></trkpt><trkpt lat="44.51876127001426" lon="9.64768283350576"><ele>662.25</ele><time>2026-04-04T13:09:52Z</time></trkpt><trkpt lat="44.518645994851944" lon="9.647617812769182"><ele>660.0</ele><time>2026-04-04T13:09:53Z</time></trkpt><trkpt lat="44.518531486393336" lon="9.647578700445678"><ele>658.8</ele><time>2026-04-04T13:09:54Z</time></trkpt><trkpt lat="44.51841993286521" lon="9.647544178582008"><ele>657.6</ele><time>2026-04-04T13:09:55Z</time></trkpt><trkpt lat="44.51831978350153" lon="9.64751010367044"><ele>656.4000000000001</ele><time>2026-04-04T13:09:56Z</time></trkpt><trkpt lat="44.518221021806696" lon="9.647474523999035"><ele>655.2</ele><time>2026-04-04T13:09:57Z</time></trkpt><trkpt lat="44.51813790958041" lon="9.647440436389077"><ele>654.0</ele><time>2026-04-04T13:09:58Z</time></trkpt><trkpt lat="44.51805272265763" lon="9.647403336087184"><ele>654.0</ele><time>2026-04-04T13:09:59Z</time></trkpt><trkpt lat="44.51796280794068" lon="9.647363501944335"><ele>654.0</ele><time>2026-04-04T13:10:00Z</time></trkpt><trkpt lat="44.51786733510813" lon="9.64734692073454"><ele>654.0</ele><time>2026-04-04T13:10:01Z</time></trkpt><trkpt lat="44.51778739560178" lon="9.647312171615111"><ele>654.0</ele><time>2026-04-04T13:10:02Z</time></trkpt><trkpt lat="44.517696695257" lon="9.647281660178713"><ele>654.0</ele><time>2026-04-04T13:10:03Z</time></trkpt><trkpt lat="44.51761294495933" lon="9.64724124819399"><ele>652.4000000000001</ele><time>2026-04-04T13:10:04Z</time></trkpt><trkpt lat="44.517521501916356" lon="9.647245525969927"><ele>650.8</ele><time>2026-04-04T13:10:05Z</time></trkpt><trkpt lat="44.51743588904842" lon="9.64724999330429"><ele>649.2</ele><time>2026-04-04T13:10:06Z</time></trkpt><trkpt lat="44.51734325295182" lon="9.647249980621345"><ele>647.5999999999999</ele><time>2026-04-04T13:10:07Z</time></trkpt><trkpt lat="44.51724746734525" lon="9.647302758980175"><ele>646.0</ele><time>2026-04-04T13:10:08Z</time></trkpt><trkpt lat="44.51715495542839" lon="9.647376490616763"><ele>646.0</ele><time>2026-04-04T13:10:09Z</time></trkpt><trkpt lat="44.51706973433472" lon="9.647443963302711"><ele>646.0</ele><time>2026-04-04T13:10:10Z</time></trkpt><trkpt lat="44.516989164771445" lon="9.647507754852002"><ele>646.0</ele><time>2026-04-04T13:10:11Z</time></trkpt><trkpt lat="44.516911252717854" lon="9.647562946694494"><ele>646.0</ele><time>2026-04-04T13:10:12Z</time></trkpt><trkpt lat="44.51683342572356" lon="9.647614536551911"><ele>646.0</ele><time>2026-04-04T13:10:13Z</time></trkpt><trkpt lat="44.516757412784095" lon="9.647658910781164"><ele>646.0</ele><time>2026-04-04T13:10:14Z</time></trkpt><trkpt lat="44.51667648676038" lon="9.647687556988252"><ele>645.1666666666667</ele><time>2026-04-04T13:10:15Z</time></trkpt><trkpt lat="44.51659434593571" lon="9.647692136719874"><ele>644.3333333333334</ele><time>2026-04-04T13:10:16Z</time></trkpt><trkpt lat="44.51651272048281" lon="9.647704457673216"><ele>643.5</ele><time>2026-04-04T13:10:17Z</time></trkpt><trkpt lat="44.51641882850546" lon="9.647666647949077"><ele>642.6666666666666</ele><time>2026-04-04T13:10:18Z</time></trkpt><trkpt lat="44.516342414294634" lon="9.647631643305289"><ele>641.8333333333333</ele><time>2026-04-04T13:10:19Z</time></trkpt><trkpt lat="44.51627214464078" lon="9.647590024377607"><ele>641.0</ele><time>2026-04-04T13:10:20Z</time></trkpt><trkpt lat="44.51620668977724" lon="9.647549145312947"><ele>638.5</ele><time>2026-04-04T13:10:21Z</time></trkpt><trkpt lat="44.51611348746213" lon="9.647512783422183"><ele>636.0</ele><time>2026-04-04T13:10:23Z</time></trkpt><trkpt lat="44.51604895917709" lon="9.647501726741517"><ele>633.5</ele><time>2026-04-04T13:10:25Z</time></trkpt><trkpt lat="44.51597809691633" lon="9.647465987189735"><ele>631.0</ele><time>2026-04-04T13:10:32Z</time></trkpt><trkpt lat="44.5158766188461" lon="9.647457569376572"><ele>628.5</ele><time>2026-04-04T13:10:34Z</time></trkpt><trkpt lat="44.51581398389189" lon="9.647444858742391"><ele>626.0</ele><time>2026-04-04T13:10:35Z</time></trkpt><trkpt lat="44.51570944666307" lon="9.647431252307435"><ele>626.0</ele><time>2026-04-04T13:10:37Z</time></trkpt><trkpt lat="44.51563825131789" lon="9.647422657829063"><ele>626.0</ele><time>2026-04-04T13:10:40Z</time></trkpt><trkpt lat="44.515539828881096" lon="9.647457217586327"><ele>626.0</ele><time>2026-04-04T13:13:08Z</time></trkpt><trkpt lat="44.515476333011165" lon="9.64747882152523"><ele>626.0</ele><time>2026-04-04T13:13:09Z</time></trkpt><trkpt lat="44.51540290274146" lon="9.647495192656518"><ele>626.0</ele><time>2026-04-04T13:13:10Z</time></trkpt><trkpt lat="44.51531150601225" lon="9.647480242640958"><ele>626.0</ele><time>2026-04-04T13:13:11Z</time></trkpt><trkpt lat="44.51523437947913" lon="9.647498684688202"><ele>624.7142857142857</ele><time>2026-04-04T13:13:12Z</time></trkpt><trkpt lat="44.515161656197115" lon="9.647516073908852"><ele>623.4285714285714</ele><time>2026-04-04T13:13:13Z</time></trkpt><trkpt lat="44.515090035854385" lon="9.647537871204356"><ele>622.1428571428571</ele><time>2026-04-04T13:13:14Z</time></trkpt><trkpt lat="44.515020147608006" lon="9.647562844381252"><ele>620.8571428571429</ele><time>2026-04-04T13:13:15Z</time></trkpt><trkpt lat="44.51495565195261" lon="9.647587595352125"><ele>619.5714285714286</ele><time>2026-04-04T13:13:16Z</time></trkpt><trkpt lat="44.51489120137862" lon="9.64761232900469"><ele>618.2857142857143</ele><time>2026-04-04T13:13:17Z</time></trkpt><trkpt lat="44.51482760042717" lon="9.647635169224221"><ele>617.0</ele><time>2026-04-04T13:13:18Z</time></trkpt><trkpt lat="44.51471213969756" lon="9.647671386762585"><ele>617.0</ele><time>2026-04-04T13:13:20Z</time></trkpt><trkpt lat="44.51461022821743" lon="9.647601487076713"><ele>617.0</ele><time>2026-04-04T13:13:22Z</time></trkpt><trkpt lat="44.51458764588581" lon="9.647484662697956"><ele>617.0</ele><time>2026-04-04T13:13:23Z</time></trkpt><trkpt lat="44.51459807048011" lon="9.647316912243326"><ele>617.0</ele><time>2026-04-04T13:13:24Z</time></trkpt><trkpt lat="44.514594738791104" lon="9.647171063081297"><ele>617.0</ele><time>2026-04-04T13:13:25Z</time></trkpt><trkpt lat="44.514607381054894" lon="9.64703419513424"><ele>617.8000000000001</ele><time>2026-04-04T13:13:26Z</time></trkpt><trkpt lat="44.51459950825789" lon="9.646925878125359"><ele>618.6</ele><time>2026-04-04T13:13:27Z</time></trkpt><trkpt lat="44.51459700581154" lon="9.646818765506751"><ele>619.4000000000001</ele><time>2026-04-04T13:13:28Z</time></trkpt><trkpt lat="44.514590441508844" lon="9.646675236203713"><ele>620.2</ele><time>2026-04-04T13:13:29Z</time></trkpt><trkpt lat="44.51458910736346" lon="9.646520192539034"><ele>621.0</ele><time>2026-04-04T13:13:30Z</time></trkpt><trkpt lat="44.51458697372621" lon="9.646375524970244"><ele>621.0</ele><time>2026-04-04T13:13:31Z</time></trkpt><trkpt lat="44.5145819424589" lon="9.646233702228423"><ele>621.0</ele><time>2026-04-04T13:13:32Z</time></trkpt><trkpt lat="44.5145752471428" lon="9.646088954968205"><ele>621.0</ele><time>2026-04-04T13:13:33Z</time></trkpt><trkpt lat="44.51458081511658" lon="9.64594583631162"><ele>621.0</ele><time>2026-04-04T13:13:34Z</time></trkpt><trkpt lat="44.514579602058745" lon="9.645821086709509"><ele>621.0</ele><time>2026-04-04T13:13:35Z</time></trkpt><trkpt lat="44.51458396157298" lon="9.645694356017135"><ele>620.0</ele><time>2026-04-04T13:13:36Z</time></trkpt><trkpt lat="44.51459824370495" lon="9.64556686765644"><ele>619.0</ele><time>2026-04-04T13:13:37Z</time></trkpt><trkpt lat="44.514633242532206" lon="9.645428514479054"><ele>618.0</ele><time>2026-04-04T13:13:38Z</time></trkpt><trkpt lat="44.514680751163915" lon="9.645291714485591"><ele>617.0</ele><time>2026-04-04T13:13:39Z</time></trkpt><trkpt lat="44.51472644970754" lon="9.645158150407946"><ele>616.0</ele><time>2026-04-04T13:13:40Z</time></trkpt><trkpt lat="44.51477222386214" lon="9.645020636207876"><ele>614.2</ele><time>2026-04-04T13:13:41Z</time></trkpt><trkpt lat="44.514818589241294" lon="9.644879057089694"><ele>612.4000000000001</ele><time>2026-04-04T13:13:42Z</time></trkpt><trkpt lat="44.514859633803624" lon="9.644752467560597"><ele>610.6</ele><time>2026-04-04T13:13:43Z</time></trkpt><trkpt lat="44.51489870422732" lon="9.644631930733597"><ele>608.8000000000001</ele><time>2026-04-04T13:13:44Z</time></trkpt><trkpt lat="44.514939401460275" lon="9.644514596420047"><ele>607.0</ele><time>2026-04-04T13:13:45Z</time></trkpt><trkpt lat="44.51497839086392" lon="9.644409423639134"><ele>605.5714285714286</ele><time>2026-04-04T13:13:46Z</time></trkpt><trkpt lat="44.51501453243963" lon="9.64430567070232"><ele>604.1428571428571</ele><time>2026-04-04T13:13:47Z</time></trkpt><trkpt lat="44.515052607429126" lon="9.644215315185942"><ele>602.7142857142858</ele><time>2026-04-04T13:13:48Z</time></trkpt><trkpt lat="44.51508451350112" lon="9.644118114156937"><ele>601.2857142857142</ele><time>2026-04-04T13:13:49Z</time></trkpt><trkpt lat="44.515098945084226" lon="9.644012118926824"><ele>599.8571428571429</ele><time>2026-04-04T13:13:50Z</time></trkpt><trkpt lat="44.51508628178387" lon="9.643921099688542"><ele>598.4285714285714</ele><time>2026-04-04T13:13:51Z</time></trkpt><trkpt lat="44.515052378136836" lon="9.643846535964345"><ele>597.0</ele><time>2026-04-04T13:13:52Z</time></trkpt><trkpt lat="44.515001740281036" lon="9.643765098302769"><ele>597.0</ele><time>2026-04-04T13:13:53Z</time></trkpt><trkpt lat="44.514905209941055" lon="9.643732999006234"><ele>597.0</ele><time>2026-04-04T13:13:54Z</time></trkpt><trkpt lat="44.51481134538125" lon="9.643782581478089"><ele>597.0</ele><time>2026-04-04T13:13:55Z</time></trkpt><trkpt lat="44.51471744647428" lon="9.643836655895102"><ele>597.0</ele><time>2026-04-04T13:13:56Z</time></trkpt><trkpt lat="44.514634571448184" lon="9.64393465727079"><ele>597.0</ele><time>2026-04-04T13:13:57Z</time></trkpt><trkpt lat="44.51455729033123" lon="9.64402231685658"><ele>595.1666666666666</ele><time>2026-04-04T13:13:58Z</time></trkpt><trkpt lat="44.5144903927456" lon="9.644098198288301"><ele>593.3333333333334</ele><time>2026-04-04T13:13:59Z</time></trkpt><trkpt lat="44.514427522322755" lon="9.644168404891815"><ele>591.5</ele><time>2026-04-04T13:14:00Z</time></trkpt><trkpt lat="44.514364275750395" lon="9.644235187100275"><ele>589.6666666666667</ele><time>2026-04-04T13:14:01Z</time></trkpt><trkpt lat="44.514298611333444" lon="9.644294478126767"><ele>587.8333333333334</ele><time>2026-04-04T13:14:02Z</time></trkpt><trkpt lat="44.514230075771" lon="9.644333382893612"><ele>586.0</ele><time>2026-04-04T13:14:03Z</time></trkpt><trkpt lat="44.51414884252318" lon="9.64434457885181"><ele>586.0</ele><time>2026-04-04T13:14:04Z</time></trkpt><trkpt lat="44.514039657006535" lon="9.64433679658019"><ele>586.0</ele><time>2026-04-04T13:14:05Z</time></trkpt><trkpt lat="44.513934018569024" lon="9.64427688280808"><ele>586.0</ele><time>2026-04-04T13:14:06Z</time></trkpt><trkpt lat="44.513839201340126" lon="9.644204800135517"><ele>586.0</ele><time>2026-04-04T13:14:07Z</time></trkpt><trkpt lat="44.51376198379908" lon="9.644122444383854"><ele>586.0</ele><time>2026-04-04T13:14:08Z</time></trkpt><trkpt lat="44.51370964217288" lon="9.644014179046227"><ele>585.6666666666667</ele><time>2026-04-04T13:14:09Z</time></trkpt><trkpt lat="44.5136802344133" lon="9.643881017591086"><ele>585.3333333333334</ele><time>2026-04-04T13:14:10Z</time></trkpt><trkpt lat="44.5136719878348" lon="9.64374995331433"><ele>585.0</ele><time>2026-04-04T13:14:11Z</time></trkpt><trkpt lat="44.51367073316621" lon="9.643627085419505"><ele>584.6666666666666</ele><time>2026-04-04T13:14:12Z</time></trkpt><trkpt lat="44.51365016837742" lon="9.643516692200937"><ele>584.3333333333333</ele><time>2026-04-04T13:14:13Z</time></trkpt><trkpt lat="44.51360591008264" lon="9.643429417591186"><ele>584.0</ele><time>2026-04-04T13:14:14Z</time></trkpt><trkpt lat="44.5135286487717" lon="9.643360304707437"><ele>582.0</ele><time>2026-04-04T13:14:15Z</time></trkpt><trkpt lat="44.51343119119626" lon="9.64333315843933"><ele>580.0</ele><time>2026-04-04T13:14:16Z</time></trkpt><trkpt lat="44.51332702630808" lon="9.643324225284246"><ele>578.0</ele><time>2026-04-04T13:14:17Z</time></trkpt><trkpt lat="44.51323963197937" lon="9.643287084040308"><ele>576.0</ele><time>2026-04-04T13:14:18Z</time></trkpt><trkpt lat="44.51315487314045" lon="9.643270301724145"><ele>574.0</ele><time>2026-04-04T13:14:19Z</time></trkpt><trkpt lat="44.513074682147504" lon="9.643194997436717"><ele>574.0</ele><time>2026-04-04T13:14:20Z</time></trkpt><trkpt lat="44.51301581734079" lon="9.643113540860586"><ele>574.0</ele><time>2026-04-04T13:14:21Z</time></trkpt><trkpt lat="44.51295710710598" lon="9.64302748347795"><ele>574.0</ele><time>2026-04-04T13:14:22Z</time></trkpt><trkpt lat="44.512887845713905" lon="9.642957930698252"><ele>574.0</ele><time>2026-04-04T13:14:23Z</time></trkpt><trkpt lat="44.51280941986925" lon="9.642930029333366"><ele>574.0</ele><time>2026-04-04T13:14:24Z</time></trkpt><trkpt lat="44.51272928162768" lon="9.642929242414274"><ele>574.0</ele><time>2026-04-04T13:14:25Z</time></trkpt><trkpt lat="44.51265781371637" lon="9.642935221613604"><ele>573.0</ele><time>2026-04-04T13:14:26Z</time></trkpt><trkpt lat="44.51258335317485" lon="9.642932068197648"><ele>572.0</ele><time>2026-04-04T13:14:27Z</time></trkpt><trkpt lat="44.51251551818699" lon="9.64289241568384"><ele>571.0</ele><time>2026-04-04T13:14:28Z</time></trkpt><trkpt lat="44.51246660313797" lon="9.642818148066619"><ele>570.0</ele><time>2026-04-04T13:14:29Z</time></trkpt><trkpt lat="44.51243583951291" lon="9.642709838531594"><ele>569.0</ele><time>2026-04-04T13:14:30Z</time></trkpt><trkpt lat="44.512487152157554" lon="9.642592104536964"><ele>568.0</ele><time>2026-04-04T13:14:31Z</time></trkpt><trkpt lat="44.51254744269257" lon="9.642510870480143"><ele>567.0</ele><time>2026-04-04T13:14:32Z</time></trkpt><trkpt lat="44.51267726761036" lon="9.642503421923694"><ele>566.0</ele><time>2026-04-04T13:14:33Z</time></trkpt><trkpt lat="44.512797084569236" lon="9.642477219056964"><ele>565.0</ele><time>2026-04-04T13:14:34Z</time></trkpt><trkpt lat="44.51291206365673" lon="9.642430357144976"><ele>564.0</ele><time>2026-04-04T13:14:35Z</time></trkpt><trkpt lat="44.51302035073075" lon="9.64238172332969"><ele>564.0</ele><time>2026-04-04T13:14:36Z</time></trkpt><trkpt lat="44.51310223747567" lon="9.64232362842331"><ele>564.0</ele><time>2026-04-04T13:14:37Z</time></trkpt><trkpt lat="44.51315663471258" lon="9.642234150934536"><ele>564.0</ele><time>2026-04-04T13:14:38Z</time></trkpt><trkpt lat="44.513192713285044" lon="9.642109956589898"><ele>564.0</ele><time>2026-04-04T13:14:39Z</time></trkpt><trkpt lat="44.513198553004145" lon="9.641943558953745"><ele>564.0</ele><time>2026-04-04T13:14:40Z</time></trkpt><trkpt lat="44.51318830354684" lon="9.641774143563103"><ele>562.8</ele><time>2026-04-04T13:14:41Z</time></trkpt><trkpt lat="44.51318187477961" lon="9.641628995897214"><ele>561.5999999999999</ele><time>2026-04-04T13:14:42Z</time></trkpt><trkpt lat="44.513185095396054" lon="9.641487521873177"><ele>560.4</ele><time>2026-04-04T13:14:43Z</time></trkpt><trkpt lat="44.51319325474741" lon="9.641357492483158"><ele>559.1999999999999</ele><time>2026-04-04T13:14:44Z</time></trkpt><trkpt lat="44.51320683641434" lon="9.641217264220248"><ele>558.0</ele><time>2026-04-04T13:14:45Z</time></trkpt><trkpt lat="44.513235656250956" lon="9.641069594882035"><ele>556.4</ele><time>2026-04-04T13:14:46Z</time></trkpt><trkpt lat="44.51327401473622" lon="9.640921037667477"><ele>554.8</ele><time>2026-04-04T13:14:47Z</time></trkpt><trkpt lat="44.51331644114936" lon="9.640777810393631"><ele>553.2</ele><time>2026-04-04T13:14:48Z</time></trkpt><trkpt lat="44.51336094076508" lon="9.640649792512672"><ele>551.6</ele><time>2026-04-04T13:14:49Z</time></trkpt><trkpt lat="44.5134032503595" lon="9.640530520676224"><ele>550.0</ele><time>2026-04-04T13:14:50Z</time></trkpt><trkpt lat="44.51344654481335" lon="9.640415922270003"><ele>550.0</ele><time>2026-04-04T13:14:51Z</time></trkpt><trkpt lat="44.513487786144644" lon="9.64030033517456"><ele>550.0</ele><time>2026-04-04T13:14:52Z</time></trkpt><trkpt lat="44.51351176196449" lon="9.640185542378319"><ele>550.0</ele><time>2026-04-04T13:14:53Z</time></trkpt><trkpt lat="44.51351807658859" lon="9.640047278216091"><ele>550.0</ele><time>2026-04-04T13:14:54Z</time></trkpt><trkpt lat="44.51350028427898" lon="9.639897323234592"><ele>550.0</ele><time>2026-04-04T13:14:55Z</time></trkpt><trkpt lat="44.51345754461569" lon="9.639756739173745"><ele>550.3333333333334</ele><time>2026-04-04T13:14:56Z</time></trkpt><trkpt lat="44.51342812542346" lon="9.639624938225351"><ele>550.6666666666667</ele><time>2026-04-04T13:14:57Z</time></trkpt><trkpt lat="44.513377828017084" lon="9.639517012994986"><ele>551.0</ele><time>2026-04-04T13:14:58Z</time></trkpt><trkpt lat="44.51334730872415" lon="9.639407947907854"><ele>551.3333333333334</ele><time>2026-04-04T13:14:59Z</time></trkpt><trkpt lat="44.51330940944186" lon="9.639300000870943"><ele>551.6666666666666</ele><time>2026-04-04T13:15:00Z</time></trkpt><trkpt lat="44.51325124596482" lon="9.639210391232037"><ele>552.0</ele><time>2026-04-04T13:15:01Z</time></trkpt><trkpt lat="44.51317128123888" lon="9.639176012124642"><ele>552.0</ele><time>2026-04-04T13:15:02Z</time></trkpt><trkpt lat="44.513079924882504" lon="9.639180981555207"><ele>552.0</ele><time>2026-04-04T13:15:03Z</time></trkpt><trkpt lat="44.51298734513447" lon="9.639192884321519"><ele>552.0</ele><time>2026-04-04T13:15:04Z</time></trkpt><trkpt lat="44.51289589921766" lon="9.639193903625012"><ele>552.0</ele><time>2026-04-04T13:15:05Z</time></trkpt><trkpt lat="44.512796473176685" lon="9.639205827435589"><ele>552.0</ele><time>2026-04-04T13:15:06Z</time></trkpt><trkpt lat="44.51269106442918" lon="9.639212407527392"><ele>552.25</ele><time>2026-04-04T13:15:07Z</time></trkpt><trkpt lat="44.51257947070301" lon="9.639217048122964"><ele>552.5</ele><time>2026-04-04T13:15:08Z</time></trkpt><trkpt lat="44.51245607976795" lon="9.639222476089325"><ele>552.75</ele><time>2026-04-04T13:15:09Z</time></trkpt><trkpt lat="44.512333518877796" lon="9.639232529729025"><ele>553.0</ele><time>2026-04-04T13:15:10Z</time></trkpt><trkpt lat="44.512208031349445" lon="9.639260301461132"><ele>553.0</ele><time>2026-04-04T13:15:11Z</time></trkpt><trkpt lat="44.512089894885705" lon="9.639327785587557"><ele>553.0</ele><time>2026-04-04T13:15:12Z</time></trkpt><trkpt lat="44.51197759209336" lon="9.639396691635655"><ele>553.0</ele><time>2026-04-04T13:15:13Z</time></trkpt><trkpt lat="44.51186849719051" lon="9.639437499205476"><ele>553.0</ele><time>2026-04-04T13:15:14Z</time></trkpt><trkpt lat="44.51175250693801" lon="9.639440943327603"><ele>552.0</ele><time>2026-04-04T13:15:15Z</time></trkpt><trkpt lat="44.511636192828526" lon="9.63944872331682"><ele>551.0</ele><time>2026-04-04T13:15:16Z</time></trkpt><trkpt lat="44.51152637050792" lon="9.639424200820123"><ele>550.0</ele><time>2026-04-04T13:15:17Z</time></trkpt><trkpt lat="44.51141268729401" lon="9.639389591587515"><ele>549.0</ele><time>2026-04-04T13:15:18Z</time></trkpt><trkpt lat="44.511298776729866" lon="9.639363429264254"><ele>548.75</ele><time>2026-04-04T13:15:19Z</time></trkpt><trkpt lat="44.51119380720127" lon="9.639340300615125"><ele>548.5</ele><time>2026-04-04T13:15:20Z</time></trkpt><trkpt lat="44.51107500002626" lon="9.639310068211902"><ele>548.25</ele><time>2026-04-04T13:15:21Z</time></trkpt><trkpt lat="44.510963298610285" lon="9.639294044489825"><ele>548.0</ele><time>2026-04-04T13:15:22Z</time></trkpt><trkpt lat="44.510853611262" lon="9.63927866647643"><ele>548.0</ele><time>2026-04-04T13:15:23Z</time></trkpt><trkpt lat="44.510744987425035" lon="9.639235277518328"><ele>548.0</ele><time>2026-04-04T13:15:24Z</time></trkpt><trkpt lat="44.510636346721085" lon="9.639213977500045"><ele>548.0</ele><time>2026-04-04T13:15:25Z</time></trkpt><trkpt lat="44.510526417657736" lon="9.63918874533914"><ele>548.0</ele><time>2026-04-04T13:15:26Z</time></trkpt><trkpt lat="44.51042125615109" lon="9.639159167599074"><ele>548.0</ele><time>2026-04-04T13:15:27Z</time></trkpt><trkpt lat="44.51030990741921" lon="9.639138794541294"><ele>548.1666666666666</ele><time>2026-04-04T13:15:28Z</time></trkpt><trkpt lat="44.51021293463154" lon="9.639092714677437"><ele>548.3333333333333</ele><time>2026-04-04T13:15:29Z</time></trkpt><trkpt lat="44.5101401982469" lon="9.6390484425945"><ele>548.5</ele><time>2026-04-04T13:15:30Z</time></trkpt><trkpt lat="44.51007428067883" lon="9.638974981149403"><ele>548.6666666666666</ele><time>2026-04-04T13:15:31Z</time></trkpt><trkpt lat="44.510033151780235" lon="9.638867366964677"><ele>548.8333333333334</ele><time>2026-04-04T13:15:32Z</time></trkpt><trkpt lat="44.51001130207203" lon="9.638735566320891"><ele>549.0</ele><time>2026-04-04T13:15:33Z</time></trkpt><trkpt lat="44.51000256773764" lon="9.63858050363108"><ele>550.0</ele><time>2026-04-04T13:15:34Z</time></trkpt><trkpt lat="44.50999150651479" lon="9.638454950352845"><ele>551.0</ele><time>2026-04-04T13:15:35Z</time></trkpt><trkpt lat="44.50997983891068" lon="9.638333155097715"><ele>552.0</ele><time>2026-04-04T13:15:36Z</time></trkpt><trkpt lat="44.5099704524405" lon="9.638210000255656"><ele>553.0</ele><time>2026-04-04T13:15:37Z</time></trkpt><trkpt lat="44.5099600970642" lon="9.638065119956625"><ele>554.0</ele><time>2026-04-04T13:15:38Z</time></trkpt><trkpt lat="44.50995117601273" lon="9.637887716741352"><ele>553.5</ele><time>2026-04-04T13:15:39Z</time></trkpt><trkpt lat="44.5099392799255" lon="9.637712532864617"><ele>553.0</ele><time>2026-04-04T13:15:40Z</time></trkpt><trkpt lat="44.50992861626473" lon="9.637543784792527"><ele>552.5</ele><time>2026-04-04T13:15:41Z</time></trkpt><trkpt lat="44.50991642342626" lon="9.637387035051052"><ele>552.0</ele><time>2026-04-04T13:15:42Z</time></trkpt><trkpt lat="44.50989324049119" lon="9.637235804440763"><ele>552.0</ele><time>2026-04-04T13:15:43Z</time></trkpt><trkpt lat="44.509855901591365" lon="9.637078776204266"><ele>552.0</ele><time>2026-04-04T13:15:44Z</time></trkpt><trkpt lat="44.509799069495436" lon="9.63691511771075"><ele>552.0</ele><time>2026-04-04T13:15:45Z</time></trkpt><trkpt lat="44.509741618982275" lon="9.636772466683004"><ele>552.0</ele><time>2026-04-04T13:15:46Z</time></trkpt><trkpt lat="44.50967838532537" lon="9.636630576572243"><ele>551.5</ele><time>2026-04-04T13:15:47Z</time></trkpt><trkpt lat="44.509601676333965" lon="9.636547556110576"><ele>551.0</ele><time>2026-04-04T13:15:48Z</time></trkpt><trkpt lat="44.50949513752678" lon="9.636469011177075"><ele>550.5</ele><time>2026-04-04T13:15:49Z</time></trkpt><trkpt lat="44.509372120488855" lon="9.636393243815077"><ele>550.0</ele><time>2026-04-04T13:15:50Z</time></trkpt><trkpt lat="44.509266130967866" lon="9.636365994496366"><ele>549.4</ele><time>2026-04-04T13:15:51Z</time></trkpt><trkpt lat="44.509169278603096" lon="9.636324846524927"><ele>548.8</ele><time>2026-04-04T13:15:52Z</time></trkpt><trkpt lat="44.509078278829584" lon="9.636274308858168"><ele>548.2</ele><time>2026-04-04T13:15:53Z</time></trkpt><trkpt lat="44.50899653611031" lon="9.636225671504706"><ele>547.6</ele><time>2026-04-04T13:15:54Z</time></trkpt><trkpt lat="44.50891685989568" lon="9.636171695133411"><ele>547.0</ele><time>2026-04-04T13:15:55Z</time></trkpt><trkpt lat="44.508833560640404" lon="9.636115557494138"><ele>545.8000000000001</ele><time>2026-04-04T13:15:56Z</time></trkpt><trkpt lat="44.50874186867269" lon="9.636048069505554"><ele>544.6</ele><time>2026-04-04T13:15:57Z</time></trkpt><trkpt lat="44.50864321377381" lon="9.635983364627041"><ele>543.4000000000001</ele><time>2026-04-04T13:15:58Z</time></trkpt><trkpt lat="44.508540580669134" lon="9.63592743705824"><ele>542.2</ele><time>2026-04-04T13:15:59Z</time></trkpt><trkpt lat="44.508436781089614" lon="9.635870130546325"><ele>541.0</ele><time>2026-04-04T13:16:00Z</time></trkpt><trkpt lat="44.50833916160062" lon="9.635813709317814"><ele>541.0</ele><time>2026-04-04T13:16:01Z</time></trkpt><trkpt lat="44.508242678469465" lon="9.635751822877301"><ele>541.0</ele><time>2026-04-04T13:16:02Z</time></trkpt><trkpt lat="44.50814463344178" lon="9.635683165465341"><ele>541.0</ele><time>2026-04-04T13:16:03Z</time></trkpt><trkpt lat="44.508045853955565" lon="9.635603851042129"><ele>541.0</ele><time>2026-04-04T13:16:04Z</time></trkpt><trkpt lat="44.50795453391468" lon="9.635524354928473"><ele>541.0</ele><time>2026-04-04T13:16:05Z</time></trkpt><trkpt lat="44.50787113751718" lon="9.635436116640244"><ele>541.0</ele><time>2026-04-04T13:16:06Z</time></trkpt><trkpt lat="44.50779320813022" lon="9.635332748276708"><ele>541.0</ele><time>2026-04-04T13:16:07Z</time></trkpt><trkpt lat="44.50772446749963" lon="9.635226367746975"><ele>541.0</ele><time>2026-04-04T13:16:08Z</time></trkpt><trkpt lat="44.50766909064392" lon="9.635119740735822"><ele>541.0</ele><time>2026-04-04T13:16:09Z</time></trkpt><trkpt lat="44.50760699897945" lon="9.635002183150895"><ele>541.0</ele><time>2026-04-04T13:16:10Z</time></trkpt><trkpt lat="44.5075410423909" lon="9.634905338132954"><ele>541.0</ele><time>2026-04-04T13:16:11Z</time></trkpt><trkpt lat="44.507464556418775" lon="9.634827837350375"><ele>541.0</ele><time>2026-04-04T13:16:12Z</time></trkpt><trkpt lat="44.50737301734308" lon="9.634776592807167"><ele>541.0</ele><time>2026-04-04T13:16:13Z</time></trkpt><trkpt lat="44.507276568189994" lon="9.63474957664438"><ele>541.0</ele><time>2026-04-04T13:16:14Z</time></trkpt><trkpt lat="44.507163572684085" lon="9.634762073257118"><ele>541.0</ele><time>2026-04-04T13:16:15Z</time></trkpt><trkpt lat="44.507048985639344" lon="9.634784435461865"><ele>541.0</ele><time>2026-04-04T13:16:16Z</time></trkpt><trkpt lat="44.50694574106453" lon="9.634777824028626"><ele>541.0</ele><time>2026-04-04T13:16:17Z</time></trkpt><trkpt lat="44.506848921724384" lon="9.634801339345412"><ele>541.0</ele><time>2026-04-04T13:16:18Z</time></trkpt><trkpt lat="44.506731457196224" lon="9.634804104311879"><ele>541.0</ele><time>2026-04-04T13:16:19Z</time></trkpt><trkpt lat="44.50661187730432" lon="9.634796419185271"><ele>541.0</ele><time>2026-04-04T13:16:20Z</time></trkpt><trkpt lat="44.50650379150629" lon="9.634779192937717"><ele>541.0</ele><time>2026-04-04T13:16:21Z</time></trkpt><trkpt lat="44.506415023178555" lon="9.63475532571017"><ele>541.0</ele><time>2026-04-04T13:16:22Z</time></trkpt><trkpt lat="44.50632809005776" lon="9.634693620453271"><ele>541.0</ele><time>2026-04-04T13:16:23Z</time></trkpt><trkpt lat="44.50622723308675" lon="9.63464869460598"><ele>541.0</ele><time>2026-04-04T13:16:24Z</time></trkpt><trkpt lat="44.506116054681144" lon="9.634598895970251"><ele>541.0</ele><time>2026-04-04T13:16:25Z</time></trkpt><trkpt lat="44.50599481906182" lon="9.634564232590535"><ele>540.2</ele><time>2026-04-04T13:16:26Z</time></trkpt><trkpt lat="44.50589606704424" lon="9.634521351386589"><ele>539.4000000000001</ele><time>2026-04-04T13:16:27Z</time></trkpt><trkpt lat="44.505799462095176" lon="9.634472744229871"><ele>538.6</ele><time>2026-04-04T13:16:28Z</time></trkpt><trkpt lat="44.505697464813565" lon="9.634412891791452"><ele>537.8000000000001</ele><time>2026-04-04T13:16:29Z</time></trkpt><trkpt lat="44.5056076405587" lon="9.634387802944811"><ele>537.0</ele><time>2026-04-04T13:16:30Z</time></trkpt><trkpt lat="44.50552381773733" lon="9.634347406913442"><ele>536.5</ele><time>2026-04-04T13:16:31Z</time></trkpt><trkpt lat="44.505451796538686" lon="9.63431217854717"><ele>536.0</ele><time>2026-04-04T13:16:32Z</time></trkpt><trkpt lat="44.50538629933856" lon="9.634286440183013"><ele>535.5</ele><time>2026-04-04T13:16:33Z</time></trkpt><trkpt lat="44.505318291782956" lon="9.634259167796207"><ele>535.0</ele><time>2026-04-04T13:16:34Z</time></trkpt><trkpt lat="44.50525490773698" lon="9.63422606702837"><ele>534.5</ele><time>2026-04-04T13:16:35Z</time></trkpt><trkpt lat="44.505191350154426" lon="9.634201449813066"><ele>534.0</ele><time>2026-04-04T13:16:36Z</time></trkpt><trkpt lat="44.50507904910235" lon="9.63414487168341"><ele>533.6</ele><time>2026-04-04T13:16:38Z</time></trkpt><trkpt lat="44.5050132180629" lon="9.634103791372288"><ele>533.2</ele><time>2026-04-04T13:16:39Z</time></trkpt><trkpt lat="44.50489890815913" lon="9.634073255258043"><ele>532.8000000000001</ele><time>2026-04-04T13:16:41Z</time></trkpt><trkpt lat="44.50474903706212" lon="9.634028368220346"><ele>532.4</ele><time>2026-04-04T13:16:43Z</time></trkpt><trkpt lat="44.5046474534699" lon="9.633996442610902"><ele>532.0</ele><time>2026-04-04T13:16:44Z</time></trkpt><trkpt lat="44.504562194896245" lon="9.633970820478273"><ele>531.8000000000001</ele><time>2026-04-04T13:16:45Z</time></trkpt><trkpt lat="44.50446833171677" lon="9.633948865772748"><ele>531.6</ele><time>2026-04-04T13:16:46Z</time></trkpt><trkpt lat="44.504376226730635" lon="9.633929497607486"><ele>531.4000000000001</ele><time>2026-04-04T13:16:47Z</time></trkpt><trkpt lat="44.504287356677764" lon="9.633913604121656"><ele>531.2</ele><time>2026-04-04T13:16:48Z</time></trkpt><trkpt lat="44.50420022158515" lon="9.63388748937114"><ele>531.0</ele><time>2026-04-04T13:16:49Z</time></trkpt><trkpt lat="44.50411887064496" lon="9.633867752715878"><ele>531.0</ele><time>2026-04-04T13:16:50Z</time></trkpt><trkpt lat="44.50404801210814" lon="9.633838885157736"><ele>531.0</ele><time>2026-04-04T13:16:51Z</time></trkpt><trkpt lat="44.50397884014226" lon="9.633804523321658"><ele>531.0</ele><time>2026-04-04T13:16:52Z</time></trkpt><trkpt lat="44.50389575733724" lon="9.633776194702278"><ele>531.0</ele><time>2026-04-04T13:16:53Z</time></trkpt><trkpt lat="44.50379410354063" lon="9.633724039049744"><ele>531.0</ele><time>2026-04-04T13:16:54Z</time></trkpt><trkpt lat="44.50369537853225" lon="9.633668097325135"><ele>531.0</ele><time>2026-04-04T13:16:55Z</time></trkpt><trkpt lat="44.50360452842219" lon="9.633618943930838"><ele>529.1666666666666</ele><time>2026-04-04T13:16:56Z</time></trkpt><trkpt lat="44.503516534816846" lon="9.63356996705091"><ele>527.3333333333334</ele><time>2026-04-04T13:16:57Z</time></trkpt><trkpt lat="44.50343641489852" lon="9.633531668920059"><ele>525.5</ele><time>2026-04-04T13:16:58Z</time></trkpt><trkpt lat="44.50335315160107" lon="9.633486303919865"><ele>523.6666666666667</ele><time>2026-04-04T13:16:59Z</time></trkpt><trkpt lat="44.50327749241936" lon="9.633447971291142"><ele>521.8333333333334</ele><time>2026-04-04T13:17:00Z</time></trkpt><trkpt lat="44.5032068818432" lon="9.63340813791511"><ele>520.0</ele><time>2026-04-04T13:17:01Z</time></trkpt><trkpt lat="44.5031391514605" lon="9.63337370713852"><ele>520.0000000000001</ele><time>2026-04-04T13:17:02Z</time></trkpt><trkpt lat="44.50306917402689" lon="9.633343131847687"><ele>520.0</ele><time>2026-04-04T13:17:03Z</time></trkpt><trkpt lat="44.502998015742456" lon="9.633306872727657"><ele>520.0</ele><time>2026-04-04T13:17:04Z</time></trkpt><trkpt lat="44.50293115479029" lon="9.633263937943559"><ele>520.0</ele><time>2026-04-04T13:17:05Z</time></trkpt><trkpt lat="44.50286541554642" lon="9.633230101976126"><ele>520.0</ele><time>2026-04-04T13:17:06Z</time></trkpt><trkpt lat="44.502800305010396" lon="9.633209386085312"><ele>520.0000000000001</ele><time>2026-04-04T13:17:07Z</time></trkpt><trkpt lat="44.50273823613338" lon="9.63318725280758"><ele>520.0</ele><time>2026-04-04T13:17:08Z</time></trkpt><trkpt lat="44.502636109899136" lon="9.63313653541093"><ele>518.2</ele><time>2026-04-04T13:17:10Z</time></trkpt><trkpt lat="44.502544312479195" lon="9.63305647528698"><ele>516.4</ele><time>2026-04-04T13:17:12Z</time></trkpt><trkpt lat="44.50253859813132" lon="9.632832988757597"><ele>514.6</ele><time>2026-04-04T13:17:14Z</time></trkpt><trkpt lat="44.50257254921247" lon="9.632711259333238"><ele>512.8</ele><time>2026-04-04T13:17:15Z</time></trkpt><trkpt lat="44.502598145467964" lon="9.632605655465"><ele>511.0</ele><time>2026-04-04T13:17:16Z</time></trkpt><trkpt lat="44.50262019311152" lon="9.632514692199878"><ele>509.75</ele><time>2026-04-04T13:17:17Z</time></trkpt><trkpt lat="44.50265926900552" lon="9.632355277375098"><ele>508.5</ele><time>2026-04-04T13:17:19Z</time></trkpt><trkpt lat="44.50269795610422" lon="9.632217407964593"><ele>507.25</ele><time>2026-04-04T13:17:21Z</time></trkpt><trkpt lat="44.50274728988589" lon="9.632117459836703"><ele>506.0</ele><time>2026-04-04T13:17:23Z</time></trkpt><trkpt lat="44.502907554624166" lon="9.632078384714996"><ele>507.20000000000005</ele><time>2026-04-04T13:17:25Z</time></trkpt><trkpt lat="44.50298439233939" lon="9.632112493832548"><ele>508.40000000000003</ele><time>2026-04-04T13:17:26Z</time></trkpt><trkpt lat="44.503071606275164" lon="9.632144125215643"><ele>509.6</ele><time>2026-04-04T13:17:27Z</time></trkpt><trkpt lat="44.50316286832365" lon="9.632130551418538"><ele>510.8</ele><time>2026-04-04T13:17:28Z</time></trkpt><trkpt lat="44.50325800066403" lon="9.632095178074936"><ele>512.0</ele><time>2026-04-04T13:17:29Z</time></trkpt><trkpt lat="44.50333754426554" lon="9.632031466411284"><ele>511.40000000000003</ele><time>2026-04-04T13:17:30Z</time></trkpt><trkpt lat="44.50341405506374" lon="9.63194303938671"><ele>510.80000000000007</ele><time>2026-04-04T13:17:31Z</time></trkpt><trkpt lat="44.50348488394513" lon="9.631836083666613"><ele>510.2</ele><time>2026-04-04T13:17:32Z</time></trkpt><trkpt lat="44.503557666627756" lon="9.631726513489513"><ele>509.6</ele><time>2026-04-04T13:17:33Z</time></trkpt><trkpt lat="44.50362617631274" lon="9.631612009249375"><ele>509.0</ele><time>2026-04-04T13:17:34Z</time></trkpt><trkpt lat="44.503704245108274" lon="9.631491646178175"><ele>509.75</ele><time>2026-04-04T13:17:35Z</time></trkpt><trkpt lat="44.50378638070856" lon="9.631359296964112"><ele>510.5</ele><time>2026-04-04T13:17:36Z</time></trkpt><trkpt lat="44.50387134972824" lon="9.6312217457378"><ele>511.25</ele><time>2026-04-04T13:17:37Z</time></trkpt><trkpt lat="44.50394821803992" lon="9.631119435854814"><ele>512.0</ele><time>2026-04-04T13:17:38Z</time></trkpt><trkpt lat="44.50402737622796" lon="9.631014633150716"><ele>511.99999999999994</ele><time>2026-04-04T13:17:39Z</time></trkpt><trkpt lat="44.50409616169719" lon="9.630907036848189"><ele>512.0</ele><time>2026-04-04T13:17:40Z</time></trkpt><trkpt lat="44.50416904028784" lon="9.630793422684736"><ele>512.0</ele><time>2026-04-04T13:17:41Z</time></trkpt><trkpt lat="44.504226666544795" lon="9.630700794259416"><ele>512.0</ele><time>2026-04-04T13:17:42Z</time></trkpt><trkpt lat="44.5042811751882" lon="9.630620310234852"><ele>511.99999999999994</ele><time>2026-04-04T13:17:43Z</time></trkpt><trkpt lat="44.50432868480138" lon="9.630549394333912"><ele>512.0</ele><time>2026-04-04T13:17:44Z</time></trkpt><trkpt lat="44.50437493280404" lon="9.630487356286539"><ele>512.0</ele><time>2026-04-04T13:17:45Z</time></trkpt><trkpt lat="44.50446736421854" lon="9.63034243506397"><ele>512.0</ele><time>2026-04-04T13:17:47Z</time></trkpt><trkpt lat="44.50451893861418" lon="9.630255443177052"><ele>512.0</ele><time>2026-04-04T13:17:48Z</time></trkpt><trkpt lat="44.50457132310238" lon="9.630152853017808"><ele>512.0</ele><time>2026-04-04T13:17:49Z</time></trkpt><trkpt lat="44.504636229671206" lon="9.630057088685938"><ele>512.0</ele><time>2026-04-04T13:17:50Z</time></trkpt><trkpt lat="44.50468293212919" lon="9.629935517799348"><ele>511.20000000000005</ele><time>2026-04-04T13:17:51Z</time></trkpt><trkpt lat="44.50472623224581" lon="9.629813633140262"><ele>510.40000000000003</ele><time>2026-04-04T13:17:52Z</time></trkpt><trkpt lat="44.50474060220494" lon="9.629691910466791"><ele>509.59999999999997</ele><time>2026-04-04T13:17:53Z</time></trkpt><trkpt lat="44.5047562833229" lon="9.629549436304178"><ele>508.79999999999995</ele><time>2026-04-04T13:17:54Z</time></trkpt><trkpt lat="44.504752936232485" lon="9.62941067823282"><ele>508.0</ele><time>2026-04-04T13:17:55Z</time></trkpt><trkpt lat="44.50472845754476" lon="9.629268895678537"><ele>508.00000000000006</ele><time>2026-04-04T13:17:56Z</time></trkpt><trkpt lat="44.504716464690325" lon="9.629138336487197"><ele>508.0</ele><time>2026-04-04T13:17:57Z</time></trkpt><trkpt lat="44.50471306297591" lon="9.629009516278785"><ele>508.0</ele><time>2026-04-04T13:17:58Z</time></trkpt><trkpt lat="44.504707472525176" lon="9.62889394903729"><ele>508.0</ele><time>2026-04-04T13:17:59Z</time></trkpt><trkpt lat="44.504704473687084" lon="9.628781449899458"><ele>508.00000000000006</ele><time>2026-04-04T13:18:00Z</time></trkpt><trkpt lat="44.50470018267164" lon="9.628674614682474"><ele>508.0</ele><time>2026-04-04T13:18:01Z</time></trkpt><trkpt lat="44.504697495707205" lon="9.628549581759774"><ele>507.2</ele><time>2026-04-04T13:18:02Z</time></trkpt><trkpt lat="44.50469182101012" lon="9.628428319729574"><ele>506.4</ele><time>2026-04-04T13:18:03Z</time></trkpt><trkpt lat="44.50469613904469" lon="9.628277014270436"><ele>505.59999999999997</ele><time>2026-04-04T13:18:04Z</time></trkpt><trkpt lat="44.50470469420722" lon="9.628125667471718"><ele>504.79999999999995</ele><time>2026-04-04T13:18:05Z</time></trkpt><trkpt lat="44.50474219405925" lon="9.627996724714162"><ele>504.0</ele><time>2026-04-04T13:18:06Z</time></trkpt><trkpt lat="44.50477685221377" lon="9.627854218329777"><ele>504.4</ele><time>2026-04-04T13:18:07Z</time></trkpt><trkpt lat="44.50479403844121" lon="9.627717052058095"><ele>504.79999999999995</ele><time>2026-04-04T13:18:08Z</time></trkpt><trkpt lat="44.50482531866425" lon="9.627608161517802"><ele>505.20000000000005</ele><time>2026-04-04T13:18:09Z</time></trkpt><trkpt lat="44.50488310633595" lon="9.627445841785407"><ele>505.6</ele><time>2026-04-04T13:18:11Z</time></trkpt><trkpt lat="44.50492306124973" lon="9.627297695447309"><ele>506.0</ele><time>2026-04-04T13:18:13Z</time></trkpt><trkpt lat="44.50472733446579" lon="9.627202584449188"><ele>506.0</ele><time>2026-04-04T13:18:16Z</time></trkpt><trkpt lat="44.50465539902266" lon="9.627259401747402"><ele>506.0</ele><time>2026-04-04T13:18:17Z</time></trkpt><trkpt lat="44.50459172654392" lon="9.627325799328293"><ele>506.0</ele><time>2026-04-04T13:18:18Z</time></trkpt><trkpt lat="44.50453168769443" lon="9.6273550963408"><ele>506.0</ele><time>2026-04-04T13:18:19Z</time></trkpt><trkpt lat="44.504435732802015" lon="9.627418000300745"><ele>506.0</ele><time>2026-04-04T13:18:21Z</time></trkpt><trkpt lat="44.50432638752883" lon="9.627482381821421"><ele>506.20000000000005</ele><time>2026-04-04T13:18:23Z</time></trkpt><trkpt lat="44.50422943712056" lon="9.62754173919458"><ele>506.40000000000003</ele><time>2026-04-04T13:18:25Z</time></trkpt><trkpt lat="44.50413642953084" lon="9.627590228294405"><ele>506.6</ele><time>2026-04-04T13:18:27Z</time></trkpt><trkpt lat="44.504035708510585" lon="9.627642980331432"><ele>506.8</ele><time>2026-04-04T13:18:29Z</time></trkpt><trkpt lat="44.50397855852196" lon="9.627689325667829"><ele>507.0</ele><time>2026-04-04T13:18:30Z</time></trkpt><trkpt lat="44.50388062281033" lon="9.62775675430086"><ele>507.0</ele><time>2026-04-04T13:18:32Z</time></trkpt><trkpt lat="44.503814854814756" lon="9.62779433392889"><ele>507.0</ele><time>2026-04-04T13:18:34Z</time></trkpt><trkpt lat="44.50374428439396" lon="9.627832317615278"><ele>507.0</ele><time>2026-04-04T13:18:37Z</time></trkpt><trkpt lat="44.50370730152051" lon="9.627906809609973"><ele>507.0</ele><time>2026-04-04T13:21:30Z</time></trkpt><trkpt lat="44.50369385614297" lon="9.627805417271421"><ele>507.0</ele><time>2026-04-04T13:22:50Z</time></trkpt><trkpt lat="44.50379869157617" lon="9.627701910082479"><ele>507.0</ele><time>2026-04-04T13:22:52Z</time></trkpt><trkpt lat="44.50388129328523" lon="9.627657624844426"><ele>507.0</ele><time>2026-04-04T13:22:53Z</time></trkpt><trkpt lat="44.5040030524192" lon="9.62770970660138"><ele>507.00000000000006</ele><time>2026-04-04T13:22:54Z</time></trkpt><trkpt lat="44.504088410106505" lon="9.627658126614982"><ele>507.00000000000006</ele><time>2026-04-04T13:22:55Z</time></trkpt><trkpt lat="44.50417985013128" lon="9.627603277254456"><ele>507.0</ele><time>2026-04-04T13:22:56Z</time></trkpt><trkpt lat="44.504257314498766" lon="9.627556848157248"><ele>507.0</ele><time>2026-04-04T13:22:57Z</time></trkpt><trkpt lat="44.50431595323858" lon="9.627521702335274"><ele>507.0</ele><time>2026-04-04T13:22:58Z</time></trkpt><trkpt lat="44.504375077688586" lon="9.627486845463123"><ele>507.0</ele><time>2026-04-04T13:22:59Z</time></trkpt><trkpt lat="44.50444072262854" lon="9.627448894472003"><ele>507.0</ele><time>2026-04-04T13:23:00Z</time></trkpt><trkpt lat="44.50450964156729" lon="9.62740905072034"><ele>507.0</ele><time>2026-04-04T13:23:01Z</time></trkpt><trkpt lat="44.504584766433865" lon="9.627366148882796"><ele>507.0</ele><time>2026-04-04T13:23:02Z</time></trkpt><trkpt lat="44.5046870748771" lon="9.627308053339684"><ele>507.0</ele><time>2026-04-04T13:23:04Z</time></trkpt><trkpt lat="44.504762057024344" lon="9.627265474888599"><ele>506.8</ele><time>2026-04-04T13:23:06Z</time></trkpt><trkpt lat="44.50479792042802" lon="9.627464583520208"><ele>506.6</ele><time>2026-04-04T13:23:11Z</time></trkpt><trkpt lat="44.50476874089756" lon="9.627574612990866"><ele>506.40000000000003</ele><time>2026-04-04T13:23:12Z</time></trkpt><trkpt lat="44.50472490983277" lon="9.627680441916514"><ele>506.20000000000005</ele><time>2026-04-04T13:23:13Z</time></trkpt><trkpt lat="44.504697495245836" lon="9.627818296867119"><ele>506.0</ele><time>2026-04-04T13:23:14Z</time></trkpt><trkpt lat="44.50467378619289" lon="9.627962390719802"><ele>505.6</ele><time>2026-04-04T13:23:15Z</time></trkpt><trkpt lat="44.5046525651569" lon="9.628108926622222"><ele>505.20000000000005</ele><time>2026-04-04T13:23:16Z</time></trkpt><trkpt lat="44.50464746893809" lon="9.628260672386585"><ele>504.79999999999995</ele><time>2026-04-04T13:23:17Z</time></trkpt><trkpt lat="44.50464331538014" lon="9.628405059192714"><ele>504.4</ele><time>2026-04-04T13:23:18Z</time></trkpt><trkpt lat="44.5046571538822" lon="9.628562161960852"><ele>504.0</ele><time>2026-04-04T13:23:19Z</time></trkpt><trkpt lat="44.5046685237093" lon="9.62871975844337"><ele>504.79999999999995</ele><time>2026-04-04T13:23:20Z</time></trkpt><trkpt lat="44.504678685774095" lon="9.628866635877106"><ele>505.59999999999997</ele><time>2026-04-04T13:23:21Z</time></trkpt><trkpt lat="44.50468723644058" lon="9.629017658084292"><ele>506.4</ele><time>2026-04-04T13:23:22Z</time></trkpt><trkpt lat="44.50470065135045" lon="9.629170024911659"><ele>507.2</ele><time>2026-04-04T13:23:23Z</time></trkpt><trkpt lat="44.50470900143569" lon="9.629306296843936"><ele>508.0</ele><time>2026-04-04T13:23:24Z</time></trkpt><trkpt lat="44.504717863721964" lon="9.629439977550858"><ele>508.1666666666667</ele><time>2026-04-04T13:23:25Z</time></trkpt><trkpt lat="44.504714776462706" lon="9.62955468668738"><ele>508.33333333333337</ele><time>2026-04-04T13:23:26Z</time></trkpt><trkpt lat="44.50470164345182" lon="9.629687890742192"><ele>508.5</ele><time>2026-04-04T13:23:27Z</time></trkpt><trkpt lat="44.50467516231497" lon="9.629817275832185"><ele>508.66666666666663</ele><time>2026-04-04T13:23:28Z</time></trkpt><trkpt lat="44.504635165752426" lon="9.629921254932558"><ele>508.8333333333333</ele><time>2026-04-04T13:23:29Z</time></trkpt><trkpt lat="44.50459354700244" lon="9.63001909048092"><ele>509.0</ele><time>2026-04-04T13:23:30Z</time></trkpt><trkpt lat="44.504539451709974" lon="9.630128461233166"><ele>509.0</ele><time>2026-04-04T13:23:31Z</time></trkpt><trkpt lat="44.5044991544894" lon="9.630237069644632"><ele>509.0</ele><time>2026-04-04T13:23:32Z</time></trkpt><trkpt lat="44.50440408501638" lon="9.63032167369654"><ele>509.0</ele><time>2026-04-04T13:23:33Z</time></trkpt><trkpt lat="44.50432191466402" lon="9.630435849032569"><ele>509.0</ele><time>2026-04-04T13:23:34Z</time></trkpt><trkpt lat="44.50423746377117" lon="9.63056440384097"><ele>509.0</ele><time>2026-04-04T13:23:35Z</time></trkpt><trkpt lat="44.504160634140376" lon="9.630699875577495"><ele>509.6</ele><time>2026-04-04T13:23:36Z</time></trkpt><trkpt lat="44.504080820434986" lon="9.630836345345438"><ele>510.2</ele><time>2026-04-04T13:23:37Z</time></trkpt><trkpt lat="44.50401191953005" lon="9.630946984044188"><ele>510.80000000000007</ele><time>2026-04-04T13:23:38Z</time></trkpt><trkpt lat="44.50394290568476" lon="9.631038280022636"><ele>511.40000000000003</ele><time>2026-04-04T13:23:39Z</time></trkpt><trkpt lat="44.50388017013437" lon="9.631132943341003"><ele>512.0</ele><time>2026-04-04T13:23:40Z</time></trkpt><trkpt lat="44.50382938371471" lon="9.631212900099897"><ele>511.40000000000003</ele><time>2026-04-04T13:23:41Z</time></trkpt><trkpt lat="44.50377731883612" lon="9.631291830607388"><ele>510.80000000000007</ele><time>2026-04-04T13:23:42Z</time></trkpt><trkpt lat="44.50372963983479" lon="9.631363802311386"><ele>510.2</ele><time>2026-04-04T13:23:43Z</time></trkpt><trkpt lat="44.50365013784311" lon="9.63150382457352"><ele>509.6</ele><time>2026-04-04T13:23:45Z</time></trkpt><trkpt lat="44.50358415158864" lon="9.63160753127528"><ele>509.0</ele><time>2026-04-04T13:23:47Z</time></trkpt><trkpt lat="44.50352165111621" lon="9.631706026478476"><ele>509.0</ele><time>2026-04-04T13:23:49Z</time></trkpt><trkpt lat="44.503456640665284" lon="9.631796324050276"><ele>509.0</ele><time>2026-04-04T13:23:51Z</time></trkpt><trkpt lat="44.503382692742015" lon="9.631888860790237"><ele>509.0</ele><time>2026-04-04T13:23:53Z</time></trkpt><trkpt lat="44.503312702379425" lon="9.631968326467732"><ele>509.0</ele><time>2026-04-04T13:23:54Z</time></trkpt><trkpt lat="44.50320410105464" lon="9.632029488845912"><ele>509.0</ele><time>2026-04-04T13:23:55Z</time></trkpt><trkpt lat="44.503110565896165" lon="9.63206511888683"><ele>509.6</ele><time>2026-04-04T13:23:56Z</time></trkpt><trkpt lat="44.50300436984755" lon="9.632053090833304"><ele>510.2</ele><time>2026-04-04T13:23:57Z</time></trkpt><trkpt lat="44.50291184804769" lon="9.632008272846532"><ele>510.80000000000007</ele><time>2026-04-04T13:23:58Z</time></trkpt><trkpt lat="44.5028092966113" lon="9.631955382420465"><ele>511.40000000000003</ele><time>2026-04-04T13:23:59Z</time></trkpt><trkpt lat="44.50271479371746" lon="9.631941130149121"><ele>512.0</ele><time>2026-04-04T13:24:00Z</time></trkpt><trkpt lat="44.50260225041904" lon="9.63197674845786"><ele>510.5</ele><time>2026-04-04T13:24:01Z</time></trkpt><trkpt lat="44.50249146868919" lon="9.632054612497997"><ele>509.0</ele><time>2026-04-04T13:24:02Z</time></trkpt><trkpt lat="44.50240468358743" lon="9.63216141442978"><ele>507.5</ele><time>2026-04-04T13:24:03Z</time></trkpt><trkpt lat="44.50231227332056" lon="9.632280292505207"><ele>506.0</ele><time>2026-04-04T13:24:04Z</time></trkpt><trkpt lat="44.50221465680579" lon="9.632393636142822"><ele>506.0</ele><time>2026-04-04T13:24:05Z</time></trkpt><trkpt lat="44.502133926200116" lon="9.632479730862427"><ele>506.0</ele><time>2026-04-04T13:24:06Z</time></trkpt><trkpt lat="44.502031988028214" lon="9.632523639800784"><ele>506.0</ele><time>2026-04-04T13:24:07Z</time></trkpt><trkpt lat="44.50193811630767" lon="9.632626456444351"><ele>506.0</ele><time>2026-04-04T13:24:08Z</time></trkpt><trkpt lat="44.5018458628402" lon="9.632728629498418"><ele>506.0</ele><time>2026-04-04T13:24:09Z</time></trkpt><trkpt lat="44.50175278366731" lon="9.63283155801586"><ele>505.75</ele><time>2026-04-04T13:24:10Z</time></trkpt><trkpt lat="44.501659685076056" lon="9.632934499004644"><ele>505.5</ele><time>2026-04-04T13:24:11Z</time></trkpt><trkpt lat="44.50156264997202" lon="9.633041791807404"><ele>505.25</ele><time>2026-04-04T13:24:12Z</time></trkpt><trkpt lat="44.501460430640336" lon="9.63315388475537"><ele>505.0</ele><time>2026-04-04T13:24:13Z</time></trkpt><trkpt lat="44.501365498407914" lon="9.633257948797068"><ele>505.0</ele><time>2026-04-04T13:24:14Z</time></trkpt><trkpt lat="44.501275025708104" lon="9.633357053648302"><ele>505.0</ele><time>2026-04-04T13:24:15Z</time></trkpt><trkpt lat="44.50119159950261" lon="9.63344922634629"><ele>505.0</ele><time>2026-04-04T13:24:16Z</time></trkpt><trkpt lat="44.501103933828375" lon="9.633545906243741"><ele>505.0</ele><time>2026-04-04T13:24:17Z</time></trkpt><trkpt lat="44.5010092998367" lon="9.633650271085047"><ele>504.75</ele><time>2026-04-04T13:24:18Z</time></trkpt><trkpt lat="44.50092033510995" lon="9.633748383690454"><ele>504.5</ele><time>2026-04-04T13:24:19Z</time></trkpt><trkpt lat="44.50082276740726" lon="9.63385598377507"><ele>504.25</ele><time>2026-04-04T13:24:20Z</time></trkpt><trkpt lat="44.50072962814789" lon="9.633958700271291"><ele>504.0</ele><time>2026-04-04T13:24:21Z</time></trkpt><trkpt lat="44.50063493044151" lon="9.634064758010174"><ele>504.0</ele><time>2026-04-04T13:24:22Z</time></trkpt><trkpt lat="44.500550710808" lon="9.634159455090835"><ele>504.0</ele><time>2026-04-04T13:24:23Z</time></trkpt><trkpt lat="44.50047556047868" lon="9.634243853185744"><ele>504.0</ele><time>2026-04-04T13:24:24Z</time></trkpt><trkpt lat="44.50040407131042" lon="9.634321895566229"><ele>504.0</ele><time>2026-04-04T13:24:25Z</time></trkpt><trkpt lat="44.50033261029238" lon="9.634399907139054"><ele>504.0</ele><time>2026-04-04T13:24:26Z</time></trkpt><trkpt lat="44.50025431962862" lon="9.634485264647395"><ele>502.25</ele><time>2026-04-04T13:24:27Z</time></trkpt><trkpt lat="44.50017505777205" lon="9.634571665027785"><ele>500.5</ele><time>2026-04-04T13:24:28Z</time></trkpt><trkpt lat="44.50008242947358" lon="9.634673849330762"><ele>498.75</ele><time>2026-04-04T13:24:29Z</time></trkpt><trkpt lat="44.49997774046622" lon="9.634790666898896"><ele>497.0</ele><time>2026-04-04T13:24:30Z</time></trkpt><trkpt lat="44.499864568055166" lon="9.634916949533178"><ele>497.0</ele><time>2026-04-04T13:24:31Z</time></trkpt><trkpt lat="44.499750482099664" lon="9.635044422115662"><ele>497.0</ele><time>2026-04-04T13:24:32Z</time></trkpt><trkpt lat="44.49966635356546" lon="9.635143081340766"><ele>497.0</ele><time>2026-04-04T13:24:33Z</time></trkpt><trkpt lat="44.49961166643231" lon="9.635282944688031"><ele>497.0</ele><time>2026-04-04T13:24:34Z</time></trkpt><trkpt lat="44.49952944943653" lon="9.635402514529854"><ele>495.75</ele><time>2026-04-04T13:24:35Z</time></trkpt><trkpt lat="44.49945643585746" lon="9.635522681461982"><ele>494.5</ele><time>2026-04-04T13:24:36Z</time></trkpt><trkpt lat="44.49939995361196" lon="9.635648332319272"><ele>493.25</ele><time>2026-04-04T13:24:37Z</time></trkpt><trkpt lat="44.4992971275275" lon="9.635757663311072"><ele>492.0</ele><time>2026-04-04T13:24:38Z</time></trkpt><trkpt lat="44.49923331934244" lon="9.63591055271548"><ele>492.0</ele><time>2026-04-04T13:24:39Z</time></trkpt><trkpt lat="44.49918127521058" lon="9.636065792454323"><ele>492.0</ele><time>2026-04-04T13:24:40Z</time></trkpt><trkpt lat="44.4991141075776" lon="9.636285850251474"><ele>492.0</ele><time>2026-04-04T13:24:41Z</time></trkpt><trkpt lat="44.499063158033216" lon="9.636456666789908"><ele>492.0</ele><time>2026-04-04T13:24:42Z</time></trkpt><trkpt lat="44.49901132733266" lon="9.636639322790092"><ele>492.75</ele><time>2026-04-04T13:24:43Z</time></trkpt><trkpt lat="44.49896425193447" lon="9.636811213066178"><ele>493.5</ele><time>2026-04-04T13:24:44Z</time></trkpt><trkpt lat="44.49892010989869" lon="9.636972885247665"><ele>494.25</ele><time>2026-04-04T13:24:45Z</time></trkpt><trkpt lat="44.49887453712019" lon="9.637139797991182"><ele>495.0</ele><time>2026-04-04T13:24:46Z</time></trkpt><trkpt lat="44.49882886208374" lon="9.63730708496072"><ele>495.0</ele><time>2026-04-04T13:24:47Z</time></trkpt><trkpt lat="44.4987838211872" lon="9.637472049634765"><ele>495.0</ele><time>2026-04-04T13:24:48Z</time></trkpt><trkpt lat="44.49874108608945" lon="9.637630748669118"><ele>495.0</ele><time>2026-04-04T13:24:49Z</time></trkpt><trkpt lat="44.49869662877474" lon="9.637796057352665"><ele>495.0</ele><time>2026-04-04T13:24:50Z</time></trkpt><trkpt lat="44.498653107173936" lon="9.637957361726263"><ele>494.4</ele><time>2026-04-04T13:24:51Z</time></trkpt><trkpt lat="44.498617469445776" lon="9.63808935797285"><ele>493.8</ele><time>2026-04-04T13:24:52Z</time></trkpt><trkpt lat="44.49858212801281" lon="9.63822025640945"><ele>493.20000000000005</ele><time>2026-04-04T13:24:53Z</time></trkpt><trkpt lat="44.49854752605603" lon="9.638348416597179"><ele>492.6</ele><time>2026-04-04T13:24:54Z</time></trkpt><trkpt lat="44.49850706994811" lon="9.638498259243471"><ele>492.0</ele><time>2026-04-04T13:24:55Z</time></trkpt><trkpt lat="44.49846758724809" lon="9.638644496546878"><ele>492.0</ele><time>2026-04-04T13:24:56Z</time></trkpt><trkpt lat="44.49842891500066" lon="9.638786350036899"><ele>492.0</ele><time>2026-04-04T13:24:57Z</time></trkpt><trkpt lat="44.49838806859892" lon="9.638933883452104"><ele>492.0</ele><time>2026-04-04T13:24:58Z</time></trkpt><trkpt lat="44.49834437952344" lon="9.639090343941247"><ele>492.0</ele><time>2026-04-04T13:24:59Z</time></trkpt><trkpt lat="44.49830302404027" lon="9.639238447143738"><ele>492.0</ele><time>2026-04-04T13:25:00Z</time></trkpt><trkpt lat="44.49826045857132" lon="9.639390883771396"><ele>492.0</ele><time>2026-04-04T13:25:01Z</time></trkpt><trkpt lat="44.49821648220447" lon="9.639548387407373"><ele>492.0</ele><time>2026-04-04T13:25:02Z</time></trkpt><trkpt lat="44.49817547839715" lon="9.639695263229477"><ele>492.0</ele><time>2026-04-04T13:25:03Z</time></trkpt><trkpt lat="44.49813066267283" lon="9.639855793202445"><ele>493.25</ele><time>2026-04-04T13:25:04Z</time></trkpt><trkpt lat="44.498090236709984" lon="9.639999083599102"><ele>494.5</ele><time>2026-04-04T13:25:05Z</time></trkpt><trkpt lat="44.498042840284235" lon="9.640158478238405"><ele>495.75</ele><time>2026-04-04T13:25:06Z</time></trkpt><trkpt lat="44.49799413988906" lon="9.640322258114926"><ele>497.0</ele><time>2026-04-04T13:25:07Z</time></trkpt><trkpt lat="44.49794469309767" lon="9.640488548388326"><ele>493.5</ele><time>2026-04-04T13:25:08Z</time></trkpt><trkpt lat="44.4978958117729" lon="9.640652936718027"><ele>490.0</ele><time>2026-04-04T13:25:09Z</time></trkpt><trkpt lat="44.49785370261502" lon="9.640794550256457"><ele>486.5</ele><time>2026-04-04T13:25:10Z</time></trkpt><trkpt lat="44.497809622768486" lon="9.640942791062994"><ele>483.0</ele><time>2026-04-04T13:25:11Z</time></trkpt><trkpt lat="44.49776812533732" lon="9.641082347333926"><ele>483.75</ele><time>2026-04-04T13:25:12Z</time></trkpt><trkpt lat="44.497725057688804" lon="9.641234783707988"><ele>484.5</ele><time>2026-04-04T13:25:13Z</time></trkpt><trkpt lat="44.497683057043666" lon="9.641395658166513"><ele>485.25</ele><time>2026-04-04T13:25:14Z</time></trkpt><trkpt lat="44.497641485803726" lon="9.64155416632141"><ele>486.0</ele><time>2026-04-04T13:25:15Z</time></trkpt><trkpt lat="44.49759978831448" lon="9.64171315592497"><ele>486.0</ele><time>2026-04-04T13:25:16Z</time></trkpt><trkpt lat="44.49755732111821" lon="9.641875080356602"><ele>486.0</ele><time>2026-04-04T13:25:17Z</time></trkpt><trkpt lat="44.49751563032091" lon="9.642034044497608"><ele>486.0</ele><time>2026-04-04T13:25:18Z</time></trkpt><trkpt lat="44.497472451433644" lon="9.642207713087842"><ele>486.0</ele><time>2026-04-04T13:25:19Z</time></trkpt><trkpt lat="44.49743581994543" lon="9.642416336959077"><ele>487.0</ele><time>2026-04-04T13:25:20Z</time></trkpt><trkpt lat="44.49737566695784" lon="9.642582915530975"><ele>488.0</ele><time>2026-04-04T13:25:21Z</time></trkpt><trkpt lat="44.49732935007484" lon="9.642730320576858"><ele>489.0</ele><time>2026-04-04T13:25:22Z</time></trkpt><trkpt lat="44.497272215134835" lon="9.642877992728458"><ele>490.0</ele><time>2026-04-04T13:25:23Z</time></trkpt><trkpt lat="44.497211102698024" lon="9.643014930570772"><ele>492.0</ele><time>2026-04-04T13:25:24Z</time></trkpt><trkpt lat="44.497152423872244" lon="9.64316921317382"><ele>494.0</ele><time>2026-04-04T13:25:25Z</time></trkpt><trkpt lat="44.49706972220941" lon="9.643311695862627"><ele>496.0</ele><time>2026-04-04T13:25:26Z</time></trkpt><trkpt lat="44.49697527764508" lon="9.643443519708233"><ele>498.0</ele><time>2026-04-04T13:25:27Z</time></trkpt><trkpt lat="44.49688645486756" lon="9.643588116884393"><ele>494.25</ele><time>2026-04-04T13:25:28Z</time></trkpt><trkpt lat="44.49680509466548" lon="9.643731303280182"><ele>490.5</ele><time>2026-04-04T13:25:29Z</time></trkpt><trkpt lat="44.496721877012824" lon="9.643888789383398"><ele>486.75</ele><time>2026-04-04T13:25:30Z</time></trkpt><trkpt lat="44.49664501677113" lon="9.64404124371201"><ele>483.0</ele><time>2026-04-04T13:25:31Z</time></trkpt><trkpt lat="44.49657368590859" lon="9.644187463400286"><ele>483.0</ele><time>2026-04-04T13:25:32Z</time></trkpt><trkpt lat="44.496509086893745" lon="9.64432110739687"><ele>483.0</ele><time>2026-04-04T13:25:33Z</time></trkpt><trkpt lat="44.49643795045214" lon="9.644468169475529"><ele>483.0</ele><time>2026-04-04T13:25:34Z</time></trkpt><trkpt lat="44.49636730461791" lon="9.64460830655874"><ele>483.0</ele><time>2026-04-04T13:25:35Z</time></trkpt><trkpt lat="44.49632855262174" lon="9.644776885506344"><ele>482.0</ele><time>2026-04-04T13:25:36Z</time></trkpt><trkpt lat="44.496253180320366" lon="9.644924124083955"><ele>481.0</ele><time>2026-04-04T13:25:37Z</time></trkpt><trkpt lat="44.496183178181504" lon="9.645065642745656"><ele>480.0</ele><time>2026-04-04T13:25:38Z</time></trkpt><trkpt lat="44.496121192826436" lon="9.645203014750287"><ele>479.0</ele><time>2026-04-04T13:25:39Z</time></trkpt><trkpt lat="44.49603381479687" lon="9.645324188686878"><ele>479.0</ele><time>2026-04-04T13:25:40Z</time></trkpt><trkpt lat="44.49597320345784" lon="9.645472636287506"><ele>479.0</ele><time>2026-04-04T13:25:41Z</time></trkpt><trkpt lat="44.495915424592894" lon="9.645619610372934"><ele>479.0</ele><time>2026-04-04T13:25:42Z</time></trkpt><trkpt lat="44.49585740142813" lon="9.645770358384004"><ele>479.0</ele><time>2026-04-04T13:25:43Z</time></trkpt><trkpt lat="44.49580141780678" lon="9.645921814773018"><ele>479.0</ele><time>2026-04-04T13:25:44Z</time></trkpt><trkpt lat="44.49574621069883" lon="9.646082650875384"><ele>479.0</ele><time>2026-04-04T13:25:45Z</time></trkpt><trkpt lat="44.49569916952431" lon="9.646237696338861"><ele>479.0</ele><time>2026-04-04T13:25:46Z</time></trkpt><trkpt lat="44.495662763817855" lon="9.646419782945598"><ele>479.0</ele><time>2026-04-04T13:25:47Z</time></trkpt><trkpt lat="44.495635057778024" lon="9.646589190544262"><ele>478.0</ele><time>2026-04-04T13:25:48Z</time></trkpt><trkpt lat="44.49560596503226" lon="9.646767240025184"><ele>477.0</ele><time>2026-04-04T13:25:49Z</time></trkpt><trkpt lat="44.49558147036359" lon="9.64692316494215"><ele>476.0</ele><time>2026-04-04T13:25:50Z</time></trkpt><trkpt lat="44.49555335517318" lon="9.647102688179908"><ele>475.0</ele><time>2026-04-04T13:25:51Z</time></trkpt><trkpt lat="44.495525129125504" lon="9.647277276662265"><ele>474.75</ele><time>2026-04-04T13:25:52Z</time></trkpt><trkpt lat="44.49549622635649" lon="9.647453921760583"><ele>474.5</ele><time>2026-04-04T13:25:53Z</time></trkpt><trkpt lat="44.49546698922565" lon="9.64763250330807"><ele>474.25</ele><time>2026-04-04T13:25:54Z</time></trkpt><trkpt lat="44.49543696666853" lon="9.647815848574156"><ele>474.0</ele><time>2026-04-04T13:25:55Z</time></trkpt><trkpt lat="44.49541138419975" lon="9.647972078851954"><ele>473.25</ele><time>2026-04-04T13:25:56Z</time></trkpt><trkpt lat="44.49538239196979" lon="9.648149646604857"><ele>472.5</ele><time>2026-04-04T13:25:57Z</time></trkpt><trkpt lat="44.495354679414696" lon="9.648322953668456"><ele>471.75</ele><time>2026-04-04T13:25:58Z</time></trkpt><trkpt lat="44.495328201937795" lon="9.648488586392686"><ele>471.0</ele><time>2026-04-04T13:25:59Z</time></trkpt><trkpt lat="44.49531644387712" lon="9.648666177128273"><ele>470.5</ele><time>2026-04-04T13:26:00Z</time></trkpt><trkpt lat="44.495274002520134" lon="9.648828568068629"><ele>470.0</ele><time>2026-04-04T13:26:01Z</time></trkpt><trkpt lat="44.495256426298134" lon="9.648982597693127"><ele>469.5</ele><time>2026-04-04T13:26:02Z</time></trkpt><trkpt lat="44.49524362181961" lon="9.649155446698433"><ele>469.0</ele><time>2026-04-04T13:26:03Z</time></trkpt><trkpt lat="44.49524614308976" lon="9.649325046126922"><ele>468.75</ele><time>2026-04-04T13:26:04Z</time></trkpt><trkpt lat="44.49527262602852" lon="9.649519885811143"><ele>468.5</ele><time>2026-04-04T13:26:05Z</time></trkpt><trkpt lat="44.495286902871875" lon="9.64969954510236"><ele>468.25</ele><time>2026-04-04T13:26:06Z</time></trkpt><trkpt lat="44.49531663058374" lon="9.649870921570217"><ele>468.0</ele><time>2026-04-04T13:26:07Z</time></trkpt><trkpt lat="44.49532373710957" lon="9.650050777110103"><ele>468.0</ele><time>2026-04-04T13:26:08Z</time></trkpt><trkpt lat="44.49534377003814" lon="9.650209929009959"><ele>468.0</ele><time>2026-04-04T13:26:09Z</time></trkpt><trkpt lat="44.495364025712064" lon="9.650370850433427"><ele>468.0</ele><time>2026-04-04T13:26:10Z</time></trkpt><trkpt lat="44.49538610525734" lon="9.650546261891817"><ele>468.0</ele><time>2026-04-04T13:26:11Z</time></trkpt><trkpt lat="44.49540808046007" lon="9.65072288737024"><ele>469.25</ele><time>2026-04-04T13:26:12Z</time></trkpt><trkpt lat="44.49542998688756" lon="9.650901962197635"><ele>470.5</ele><time>2026-04-04T13:26:13Z</time></trkpt><trkpt lat="44.49545434723068" lon="9.651101096581113"><ele>471.75</ele><time>2026-04-04T13:26:14Z</time></trkpt><trkpt lat="44.49547847384661" lon="9.651298318173831"><ele>473.0</ele><time>2026-04-04T13:26:15Z</time></trkpt><trkpt lat="44.495499510939524" lon="9.65146565593336"><ele>473.0</ele><time>2026-04-04T13:26:16Z</time></trkpt><trkpt lat="44.49551788173235" lon="9.65161303011839"><ele>473.0</ele><time>2026-04-04T13:26:17Z</time></trkpt><trkpt lat="44.49553677840643" lon="9.651764623109573"><ele>473.0</ele><time>2026-04-04T13:26:18Z</time></trkpt><trkpt lat="44.49555703464645" lon="9.651927122890784"><ele>473.0</ele><time>2026-04-04T13:26:19Z</time></trkpt><trkpt lat="44.49558134296081" lon="9.652122129095321"><ele>472.0</ele><time>2026-04-04T13:26:20Z</time></trkpt><trkpt lat="44.49560632294325" lon="9.652322523726786"><ele>471.0</ele><time>2026-04-04T13:26:21Z</time></trkpt><trkpt lat="44.49562416615828" lon="9.652464330268323"><ele>470.0</ele><time>2026-04-04T13:26:22Z</time></trkpt><trkpt lat="44.49564380923176" lon="9.652623448684594"><ele>469.0</ele><time>2026-04-04T13:26:23Z</time></trkpt><trkpt lat="44.49566469202703" lon="9.652792609559079"><ele>468.75</ele><time>2026-04-04T13:26:24Z</time></trkpt><trkpt lat="44.49568859395304" lon="9.652986227029857"><ele>468.5</ele><time>2026-04-04T13:26:25Z</time></trkpt><trkpt lat="44.495709769478424" lon="9.653157759269119"><ele>468.25</ele><time>2026-04-04T13:26:26Z</time></trkpt><trkpt lat="44.495728951295405" lon="9.653313433618322"><ele>468.0</ele><time>2026-04-04T13:26:27Z</time></trkpt><trkpt lat="44.495748041434226" lon="9.653469114801709"><ele>468.0</ele><time>2026-04-04T13:26:28Z</time></trkpt><trkpt lat="44.49577023135672" lon="9.653650074639799"><ele>468.0</ele><time>2026-04-04T13:26:29Z</time></trkpt><trkpt lat="44.495792085773" lon="9.653827149643345"><ele>468.0</ele><time>2026-04-04T13:26:30Z</time></trkpt><trkpt lat="44.49581166222679" lon="9.653984768748765"><ele>468.0</ele><time>2026-04-04T13:26:31Z</time></trkpt><trkpt lat="44.495830465277045" lon="9.654136160584612"><ele>468.0</ele><time>2026-04-04T13:26:32Z</time></trkpt><trkpt lat="44.49584786609159" lon="9.654284889759493"><ele>468.0</ele><time>2026-04-04T13:26:33Z</time></trkpt><trkpt lat="44.495878148838536" lon="9.654459618320667"><ele>468.0</ele><time>2026-04-04T13:26:34Z</time></trkpt><trkpt lat="44.495879926255874" lon="9.654653805730586"><ele>468.0</ele><time>2026-04-04T13:26:35Z</time></trkpt><trkpt lat="44.4958486892593" lon="9.654860208348046"><ele>468.0</ele><time>2026-04-04T13:26:36Z</time></trkpt><trkpt lat="44.49582065907232" lon="9.655062352198303"><ele>468.0</ele><time>2026-04-04T13:26:37Z</time></trkpt><trkpt lat="44.49578305600872" lon="9.655219749047944"><ele>468.0</ele><time>2026-04-04T13:26:38Z</time></trkpt><trkpt lat="44.495735621358584" lon="9.655382903104886"><ele>468.0</ele><time>2026-04-04T13:26:39Z</time></trkpt><trkpt lat="44.49567663778828" lon="9.655552714401264"><ele>470.75</ele><time>2026-04-04T13:26:40Z</time></trkpt><trkpt lat="44.495623845377274" lon="9.655724846672648"><ele>473.5</ele><time>2026-04-04T13:26:41Z</time></trkpt><trkpt lat="44.495561017186176" lon="9.655890982446032"><ele>476.25</ele><time>2026-04-04T13:26:42Z</time></trkpt><trkpt lat="44.49550424171735" lon="9.656020935409177"><ele>479.0</ele><time>2026-04-04T13:26:43Z</time></trkpt><trkpt lat="44.49543597341852" lon="9.656122724140838"><ele>476.2</ele><time>2026-04-04T13:26:44Z</time></trkpt><trkpt lat="44.495358376359206" lon="9.656221189708027"><ele>473.4</ele><time>2026-04-04T13:26:45Z</time></trkpt><trkpt lat="44.49529423902672" lon="9.656359670875903"><ele>470.6</ele><time>2026-04-04T13:26:46Z</time></trkpt><trkpt lat="44.495253105601876" lon="9.656486232683598"><ele>467.8</ele><time>2026-04-04T13:26:47Z</time></trkpt><trkpt lat="44.49523177568451" lon="9.65664394385905"><ele>465.0</ele><time>2026-04-04T13:26:48Z</time></trkpt><trkpt lat="44.4952067696693" lon="9.65680168204026"><ele>466.0</ele><time>2026-04-04T13:26:49Z</time></trkpt><trkpt lat="44.49518169426827" lon="9.656978122001911"><ele>467.0</ele><time>2026-04-04T13:26:50Z</time></trkpt><trkpt lat="44.495161495410684" lon="9.657151359180018"><ele>468.0</ele><time>2026-04-04T13:26:51Z</time></trkpt><trkpt lat="44.495145567607814" lon="9.657299555090791"><ele>469.0</ele><time>2026-04-04T13:26:52Z</time></trkpt><trkpt lat="44.49513690642148" lon="9.657433237289185"><ele>469.0</ele><time>2026-04-04T13:26:53Z</time></trkpt><trkpt lat="44.495122367345836" lon="9.657597567848335"><ele>469.0</ele><time>2026-04-04T13:26:54Z</time></trkpt><trkpt lat="44.49510370469621" lon="9.657736758224743"><ele>469.0</ele><time>2026-04-04T13:26:55Z</time></trkpt><trkpt lat="44.495091777518255" lon="9.657930763600561"><ele>469.0</ele><time>2026-04-04T13:26:56Z</time></trkpt><trkpt lat="44.49507877838838" lon="9.658134604436881"><ele>468.5</ele><time>2026-04-04T13:26:57Z</time></trkpt><trkpt lat="44.495059050049576" lon="9.65834513557524"><ele>468.0</ele><time>2026-04-04T13:26:58Z</time></trkpt><trkpt lat="44.49503776815571" lon="9.658544916394366"><ele>467.5</ele><time>2026-04-04T13:26:59Z</time></trkpt><trkpt lat="44.49502188327183" lon="9.658721309576217"><ele>467.0</ele><time>2026-04-04T13:27:00Z</time></trkpt><trkpt lat="44.49498932902591" lon="9.658894688697462"><ele>467.0</ele><time>2026-04-04T13:27:01Z</time></trkpt><trkpt lat="44.49496633091022" lon="9.659093307040393"><ele>467.0</ele><time>2026-04-04T13:27:02Z</time></trkpt><trkpt lat="44.49492698491119" lon="9.65928400098384"><ele>467.0</ele><time>2026-04-04T13:27:03Z</time></trkpt><trkpt lat="44.49487026702677" lon="9.659444491054897"><ele>467.0</ele><time>2026-04-04T13:27:04Z</time></trkpt><trkpt lat="44.49480942364562" lon="9.659603524639023"><ele>465.0</ele><time>2026-04-04T13:27:05Z</time></trkpt><trkpt lat="44.49474233548073" lon="9.659780346466794"><ele>463.0</ele><time>2026-04-04T13:27:06Z</time></trkpt><trkpt lat="44.49467571037034" lon="9.659951186459102"><ele>461.0</ele><time>2026-04-04T13:27:07Z</time></trkpt><trkpt lat="44.49461751270558" lon="9.660107359559015"><ele>459.0</ele><time>2026-04-04T13:27:08Z</time></trkpt><trkpt lat="44.494567622921274" lon="9.660262149718754"><ele>460.0</ele><time>2026-04-04T13:27:09Z</time></trkpt><trkpt lat="44.49451104159436" lon="9.660409101199496"><ele>461.0</ele><time>2026-04-04T13:27:10Z</time></trkpt><trkpt lat="44.494449582481785" lon="9.66057009051166"><ele>462.0</ele><time>2026-04-04T13:27:11Z</time></trkpt><trkpt lat="44.49437822055205" lon="9.660729933753972"><ele>463.0</ele><time>2026-04-04T13:27:12Z</time></trkpt><trkpt lat="44.49428862835949" lon="9.660883490359504"><ele>463.0</ele><time>2026-04-04T13:27:13Z</time></trkpt><trkpt lat="44.494190595524316" lon="9.661033720861118"><ele>463.0</ele><time>2026-04-04T13:27:14Z</time></trkpt><trkpt lat="44.49409566623626" lon="9.661151900500055"><ele>463.0</ele><time>2026-04-04T13:27:15Z</time></trkpt><trkpt lat="44.49401477946995" lon="9.661283675504713"><ele>463.0</ele><time>2026-04-04T13:27:16Z</time></trkpt><trkpt lat="44.49395247419327" lon="9.661446014520749"><ele>465.5</ele><time>2026-04-04T13:27:17Z</time></trkpt><trkpt lat="44.493906657555826" lon="9.661621786429793"><ele>468.0</ele><time>2026-04-04T13:27:18Z</time></trkpt><trkpt lat="44.49386202299483" lon="9.661794319517915"><ele>470.5</ele><time>2026-04-04T13:27:19Z</time></trkpt><trkpt lat="44.49382627310738" lon="9.661971086777216"><ele>473.0</ele><time>2026-04-04T13:27:20Z</time></trkpt><trkpt lat="44.4938016943566" lon="9.662187426421141"><ele>471.0</ele><time>2026-04-04T13:27:21Z</time></trkpt><trkpt lat="44.4937532179027" lon="9.6623518707566"><ele>469.0</ele><time>2026-04-04T13:27:22Z</time></trkpt><trkpt lat="44.4937180214275" lon="9.662492351250588"><ele>467.0</ele><time>2026-04-04T13:27:23Z</time></trkpt><trkpt lat="44.49368711333796" lon="9.662643349452047"><ele>465.0</ele><time>2026-04-04T13:27:24Z</time></trkpt><trkpt lat="44.49365663367765" lon="9.662788794863877"><ele>465.0</ele><time>2026-04-04T13:27:25Z</time></trkpt><trkpt lat="44.493626077293854" lon="9.662949884541481"><ele>465.0</ele><time>2026-04-04T13:27:26Z</time></trkpt><trkpt lat="44.49358763139623" lon="9.663119758713737"><ele>465.0</ele><time>2026-04-04T13:27:27Z</time></trkpt><trkpt lat="44.493546198352874" lon="9.663297887893098"><ele>465.0</ele><time>2026-04-04T13:27:28Z</time></trkpt><trkpt lat="44.49351343795111" lon="9.663480921000144"><ele>464.75</ele><time>2026-04-04T13:27:29Z</time></trkpt><trkpt lat="44.49348077934706" lon="9.663652494961555"><ele>464.5</ele><time>2026-04-04T13:27:30Z</time></trkpt><trkpt lat="44.49344982419607" lon="9.663829601715152"><ele>464.25</ele><time>2026-04-04T13:27:31Z</time></trkpt><trkpt lat="44.49341370794254" lon="9.663996407187417"><ele>464.0</ele><time>2026-04-04T13:27:32Z</time></trkpt><trkpt lat="44.493375286370316" lon="9.664170180548412"><ele>464.0</ele><time>2026-04-04T13:27:33Z</time></trkpt><trkpt lat="44.49333995427399" lon="9.664347046246219"><ele>464.0</ele><time>2026-04-04T13:27:34Z</time></trkpt><trkpt lat="44.49330999670952" lon="9.664508741670717"><ele>464.0</ele><time>2026-04-04T13:27:35Z</time></trkpt><trkpt lat="44.493281963571484" lon="9.664686794928665"><ele>464.0</ele><time>2026-04-04T13:27:36Z</time></trkpt><trkpt lat="44.49325045854485" lon="9.664858238661655"><ele>463.5</ele><time>2026-04-04T13:27:37Z</time></trkpt><trkpt lat="44.49321670902912" lon="9.665023044038653"><ele>463.0</ele><time>2026-04-04T13:27:38Z</time></trkpt><trkpt lat="44.49318574549401" lon="9.66518525219834"><ele>462.5</ele><time>2026-04-04T13:27:39Z</time></trkpt><trkpt lat="44.493156850548644" lon="9.665341653272455"><ele>462.0</ele><time>2026-04-04T13:27:40Z</time></trkpt><trkpt lat="44.493120010297616" lon="9.665477735371882"><ele>464.0</ele><time>2026-04-04T13:27:41Z</time></trkpt><trkpt lat="44.49308076198408" lon="9.665628207755688"><ele>466.0</ele><time>2026-04-04T13:27:42Z</time></trkpt><trkpt lat="44.49304241798073" lon="9.665784940553458"><ele>468.0</ele><time>2026-04-04T13:27:43Z</time></trkpt><trkpt lat="44.4929995093501" lon="9.665942833994672"><ele>470.0</ele><time>2026-04-04T13:27:44Z</time></trkpt><trkpt lat="44.49295351691617" lon="9.666107567882502"><ele>466.75</ele><time>2026-04-04T13:27:45Z</time></trkpt><trkpt lat="44.49289626991654" lon="9.6662547960607"><ele>463.5</ele><time>2026-04-04T13:27:46Z</time></trkpt><trkpt lat="44.49284236647276" lon="9.666424258043904"><ele>460.25</ele><time>2026-04-04T13:27:47Z</time></trkpt><trkpt lat="44.49279210751755" lon="9.666581622138212"><ele>457.0</ele><time>2026-04-04T13:27:48Z</time></trkpt><trkpt lat="44.492737909723274" lon="9.666750162094353"><ele>457.0</ele><time>2026-04-04T13:27:49Z</time></trkpt><trkpt lat="44.49269255570933" lon="9.666910260958714"><ele>457.0</ele><time>2026-04-04T13:27:50Z</time></trkpt><trkpt lat="44.492652268623424" lon="9.667102181017219"><ele>457.0</ele><time>2026-04-04T13:27:51Z</time></trkpt><trkpt lat="44.49260917859178" lon="9.66729909575877"><ele>457.0</ele><time>2026-04-04T13:27:52Z</time></trkpt><trkpt lat="44.49256772939625" lon="9.667511681198413"><ele>457.0</ele><time>2026-04-04T13:27:53Z</time></trkpt><trkpt lat="44.49251280950396" lon="9.667716480108208"><ele>457.0</ele><time>2026-04-04T13:27:54Z</time></trkpt><trkpt lat="44.49247814987515" lon="9.667899319465278"><ele>457.0</ele><time>2026-04-04T13:27:55Z</time></trkpt><trkpt lat="44.492447717622234" lon="9.6680642294103"><ele>457.0</ele><time>2026-04-04T13:27:56Z</time></trkpt><trkpt lat="44.492413937607495" lon="9.668244933665145"><ele>457.0</ele><time>2026-04-04T13:27:57Z</time></trkpt><trkpt lat="44.49238330289248" lon="9.66840881211342"><ele>457.0</ele><time>2026-04-04T13:27:58Z</time></trkpt><trkpt lat="44.49235592772233" lon="9.668555252177663"><ele>457.0</ele><time>2026-04-04T13:27:59Z</time></trkpt><trkpt lat="44.49234433374335" lon="9.668729939583054"><ele>457.0</ele><time>2026-04-04T13:28:00Z</time></trkpt><trkpt lat="44.49231909526514" lon="9.668894842790507"><ele>457.25</ele><time>2026-04-04T13:28:01Z</time></trkpt><trkpt lat="44.4922832165279" lon="9.66906543716878"><ele>457.5</ele><time>2026-04-04T13:28:02Z</time></trkpt><trkpt lat="44.492257959090324" lon="9.669233081704094"><ele>457.75</ele><time>2026-04-04T13:28:03Z</time></trkpt><trkpt lat="44.49223055231904" lon="9.669413709244553"><ele>458.0</ele><time>2026-04-04T13:28:04Z</time></trkpt><trkpt lat="44.49216782661307" lon="9.669574612314923"><ele>458.75</ele><time>2026-04-04T13:28:05Z</time></trkpt><trkpt lat="44.49213695290844" lon="9.66974026847081"><ele>459.5</ele><time>2026-04-04T13:28:06Z</time></trkpt><trkpt lat="44.49210676806904" lon="9.669902226358152"><ele>460.25</ele><time>2026-04-04T13:28:07Z</time></trkpt><trkpt lat="44.49207526706594" lon="9.670069775896875"><ele>461.0</ele><time>2026-04-04T13:28:08Z</time></trkpt><trkpt lat="44.4920433046946" lon="9.670240316247952"><ele>459.25</ele><time>2026-04-04T13:28:09Z</time></trkpt><trkpt lat="44.49201103514731" lon="9.670412495476231"><ele>457.5</ele><time>2026-04-04T13:28:10Z</time></trkpt><trkpt lat="44.49197999527086" lon="9.67057811359106"><ele>455.75</ele><time>2026-04-04T13:28:11Z</time></trkpt><trkpt lat="44.49194915326391" lon="9.67074267557391"><ele>454.0</ele><time>2026-04-04T13:28:12Z</time></trkpt><trkpt lat="44.49191665525747" lon="9.67091200102478"><ele>454.0</ele><time>2026-04-04T13:28:13Z</time></trkpt><trkpt lat="44.4918846247" lon="9.671078066238389"><ele>454.0</ele><time>2026-04-04T13:28:14Z</time></trkpt><trkpt lat="44.49185382204079" lon="9.671237533751942"><ele>454.0</ele><time>2026-04-04T13:28:15Z</time></trkpt><trkpt lat="44.49182341413668" lon="9.671397187797997"><ele>454.0</ele><time>2026-04-04T13:28:16Z</time></trkpt><trkpt lat="44.49179079067769" lon="9.671569930692053"><ele>454.5</ele><time>2026-04-04T13:28:17Z</time></trkpt><trkpt lat="44.49175885157394" lon="9.671739050093962"><ele>455.0</ele><time>2026-04-04T13:28:18Z</time></trkpt><trkpt lat="44.491727878853496" lon="9.67190305243169"><ele>455.5</ele><time>2026-04-04T13:28:19Z</time></trkpt><trkpt lat="44.49169951295637" lon="9.672053249525296"><ele>456.0</ele><time>2026-04-04T13:28:20Z</time></trkpt><trkpt lat="44.49167571463749" lon="9.672183201937221"><ele>456.0</ele><time>2026-04-04T13:28:21Z</time></trkpt><trkpt lat="44.49165076098652" lon="9.672317718801994"><ele>456.0</ele><time>2026-04-04T13:28:22Z</time></trkpt><trkpt lat="44.491622956653586" lon="9.672467602651592"><ele>456.0</ele><time>2026-04-04T13:28:23Z</time></trkpt><trkpt lat="44.491594286225265" lon="9.672622154525138"><ele>456.0</ele><time>2026-04-04T13:28:24Z</time></trkpt><trkpt lat="44.491563203158265" lon="9.672786351618214"><ele>456.0</ele><time>2026-04-04T13:28:25Z</time></trkpt><trkpt lat="44.49153308460822" lon="9.672946045134674"><ele>456.0</ele><time>2026-04-04T13:28:26Z</time></trkpt><trkpt lat="44.491501786259704" lon="9.67311199415017"><ele>456.0</ele><time>2026-04-04T13:28:27Z</time></trkpt><trkpt lat="44.491473700081784" lon="9.67326091166332"><ele>456.0</ele><time>2026-04-04T13:28:28Z</time></trkpt><trkpt lat="44.49144220931389" lon="9.673427880992373"><ele>456.0</ele><time>2026-04-04T13:28:29Z</time></trkpt><trkpt lat="44.491405379580556" lon="9.673623158289061"><ele>456.0</ele><time>2026-04-04T13:28:30Z</time></trkpt><trkpt lat="44.491364154158845" lon="9.673841742422834"><ele>456.0</ele><time>2026-04-04T13:28:31Z</time></trkpt><trkpt lat="44.491358512731246" lon="9.674083677180787"><ele>456.0</ele><time>2026-04-04T13:28:32Z</time></trkpt><trkpt lat="44.491317779564824" lon="9.67427531904674"><ele>456.75</ele><time>2026-04-04T13:28:33Z</time></trkpt><trkpt lat="44.49127485146481" lon="9.674464947851392"><ele>457.5</ele><time>2026-04-04T13:28:34Z</time></trkpt><trkpt lat="44.49123710063524" lon="9.674650619692024"><ele>458.25</ele><time>2026-04-04T13:28:35Z</time></trkpt><trkpt lat="44.49120527718175" lon="9.674812222467382"><ele>459.0</ele><time>2026-04-04T13:28:36Z</time></trkpt><trkpt lat="44.4911754117859" lon="9.674962560811377"><ele>457.25</ele><time>2026-04-04T13:28:37Z</time></trkpt><trkpt lat="44.49114364921962" lon="9.67512427493262"><ele>455.5</ele><time>2026-04-04T13:28:38Z</time></trkpt><trkpt lat="44.49110976766763" lon="9.67530362377046"><ele>453.75</ele><time>2026-04-04T13:28:39Z</time></trkpt><trkpt lat="44.491085762401184" lon="9.67548191819815"><ele>452.0</ele><time>2026-04-04T13:28:40Z</time></trkpt><trkpt lat="44.49104187637132" lon="9.675685578275942"><ele>452.0</ele><time>2026-04-04T13:28:41Z</time></trkpt><trkpt lat="44.49099961547047" lon="9.675888971351366"><ele>452.0</ele><time>2026-04-04T13:28:42Z</time></trkpt><trkpt lat="44.49095954359804" lon="9.676096219814971"><ele>452.0</ele><time>2026-04-04T13:28:43Z</time></trkpt><trkpt lat="44.49092570342011" lon="9.67629827992328"><ele>452.5</ele><time>2026-04-04T13:28:44Z</time></trkpt><trkpt lat="44.4908952298027" lon="9.67648353652183"><ele>453.0</ele><time>2026-04-04T13:28:45Z</time></trkpt><trkpt lat="44.49083089000959" lon="9.676658232024101"><ele>453.5</ele><time>2026-04-04T13:28:46Z</time></trkpt><trkpt lat="44.49079571742028" lon="9.676842682193305"><ele>454.0</ele><time>2026-04-04T13:28:47Z</time></trkpt><trkpt lat="44.49076252201933" lon="9.677018717946085"><ele>454.25</ele><time>2026-04-04T13:28:48Z</time></trkpt><trkpt lat="44.49072678958507" lon="9.677211136035528"><ele>454.5</ele><time>2026-04-04T13:28:49Z</time></trkpt><trkpt lat="44.49069354828599" lon="9.677390139271216"><ele>454.75</ele><time>2026-04-04T13:28:50Z</time></trkpt><trkpt lat="44.490659628036056" lon="9.677573635025796"><ele>455.0</ele><time>2026-04-04T13:28:51Z</time></trkpt><trkpt lat="44.4906305171613" lon="9.67773357919578"><ele>455.25</ele><time>2026-04-04T13:28:52Z</time></trkpt><trkpt lat="44.490600632985" lon="9.67789777210462"><ele>455.5</ele><time>2026-04-04T13:28:53Z</time></trkpt><trkpt lat="44.49057136645713" lon="9.678058571517528"><ele>455.75</ele><time>2026-04-04T13:28:54Z</time></trkpt><trkpt lat="44.490542217010415" lon="9.678218727561958"><ele>456.0</ele><time>2026-04-04T13:28:55Z</time></trkpt><trkpt lat="44.4905123134803" lon="9.678388623276076"><ele>456.0</ele><time>2026-04-04T13:28:56Z</time></trkpt><trkpt lat="44.49048321046778" lon="9.678560511052034"><ele>456.0</ele><time>2026-04-04T13:28:57Z</time></trkpt><trkpt lat="44.49045851092951" lon="9.678708849640191"><ele>456.0</ele><time>2026-04-04T13:28:58Z</time></trkpt><trkpt lat="44.49043488568197" lon="9.678850736354082"><ele>456.0</ele><time>2026-04-04T13:28:59Z</time></trkpt><trkpt lat="44.490410487378085" lon="9.678997629484304"><ele>456.0</ele><time>2026-04-04T13:29:00Z</time></trkpt><trkpt lat="44.49038444304373" lon="9.67915524435305"><ele>455.0</ele><time>2026-04-04T13:29:01Z</time></trkpt><trkpt lat="44.49035702711692" lon="9.679321159872837"><ele>454.0</ele><time>2026-04-04T13:29:02Z</time></trkpt><trkpt lat="44.49032943871139" lon="9.679488119244255"><ele>453.0</ele><time>2026-04-04T13:29:03Z</time></trkpt><trkpt lat="44.49030150488609" lon="9.679658610135192"><ele>452.0</ele><time>2026-04-04T13:29:04Z</time></trkpt><trkpt lat="44.49027444497125" lon="9.679824610872785"><ele>452.0</ele><time>2026-04-04T13:29:05Z</time></trkpt><trkpt lat="44.49026232458994" lon="9.679978769424046"><ele>452.0</ele><time>2026-04-04T13:29:06Z</time></trkpt><trkpt lat="44.4902374606387" lon="9.68012828912255"><ele>452.0</ele><time>2026-04-04T13:29:07Z</time></trkpt><trkpt lat="44.49021563064374" lon="9.680281750923571"><ele>452.0</ele><time>2026-04-04T13:29:08Z</time></trkpt><trkpt lat="44.49017482612716" lon="9.680438771981262"><ele>452.0</ele><time>2026-04-04T13:29:09Z</time></trkpt><trkpt lat="44.49014000537178" lon="9.680625429539859"><ele>452.0</ele><time>2026-04-04T13:29:10Z</time></trkpt><trkpt lat="44.49008919550398" lon="9.680827136297804"><ele>452.0</ele><time>2026-04-04T13:29:11Z</time></trkpt><trkpt lat="44.4900210847728" lon="9.681034387456107"><ele>453.25</ele><time>2026-04-04T13:29:12Z</time></trkpt><trkpt lat="44.48995923523828" lon="9.681233502526645"><ele>454.5</ele><time>2026-04-04T13:29:13Z</time></trkpt><trkpt lat="44.48989351302216" lon="9.681378050701538"><ele>455.75</ele><time>2026-04-04T13:29:14Z</time></trkpt><trkpt lat="44.48982874677279" lon="9.681524705792786"><ele>457.0</ele><time>2026-04-04T13:29:15Z</time></trkpt><trkpt lat="44.48976841415595" lon="9.681657089430619"><ele>457.0</ele><time>2026-04-04T13:29:16Z</time></trkpt><trkpt lat="44.4897101987721" lon="9.68177676315375"><ele>457.0</ele><time>2026-04-04T13:29:17Z</time></trkpt><trkpt lat="44.48965137988878" lon="9.681915390841992"><ele>457.0</ele><time>2026-04-04T13:29:18Z</time></trkpt><trkpt lat="44.489570960001934" lon="9.68207585069984"><ele>457.0</ele><time>2026-04-04T13:29:19Z</time></trkpt><trkpt lat="44.489488654027" lon="9.682249074484204"><ele>456.0</ele><time>2026-04-04T13:29:20Z</time></trkpt><trkpt lat="44.489421368585326" lon="9.682400933622597"><ele>455.0</ele><time>2026-04-04T13:29:21Z</time></trkpt><trkpt lat="44.48936757987258" lon="9.682549993961748"><ele>454.0</ele><time>2026-04-04T13:29:22Z</time></trkpt><trkpt lat="44.48928286018364" lon="9.682682442420896"><ele>453.0</ele><time>2026-04-04T13:29:23Z</time></trkpt><trkpt lat="44.48922551349894" lon="9.682810112695924"><ele>453.0</ele><time>2026-04-04T13:29:24Z</time></trkpt><trkpt lat="44.48918824587243" lon="9.682935890468697"><ele>452.99999999999994</ele><time>2026-04-04T13:29:25Z</time></trkpt><trkpt lat="44.48911829474388" lon="9.683048196835879"><ele>452.99999999999994</ele><time>2026-04-04T13:29:26Z</time></trkpt><trkpt lat="44.4890597801757" lon="9.683189805844384"><ele>453.0</ele><time>2026-04-04T13:29:27Z</time></trkpt><trkpt lat="44.48900456391117" lon="9.68332865256749"><ele>453.0</ele><time>2026-04-04T13:29:28Z</time></trkpt><trkpt lat="44.48894134766328" lon="9.683503355456214"><ele>453.75</ele><time>2026-04-04T13:29:29Z</time></trkpt><trkpt lat="44.488892879507894" lon="9.683690450928468"><ele>454.5</ele><time>2026-04-04T13:29:30Z</time></trkpt><trkpt lat="44.4888554098685" lon="9.683866478817045"><ele>455.25</ele><time>2026-04-04T13:29:31Z</time></trkpt><trkpt lat="44.48881281563259" lon="9.68406868252036"><ele>456.0</ele><time>2026-04-04T13:29:32Z</time></trkpt><trkpt lat="44.488771580015595" lon="9.684270779028179"><ele>454.25</ele><time>2026-04-04T13:29:33Z</time></trkpt><trkpt lat="44.488729949399186" lon="9.684474811324128"><ele>452.5</ele><time>2026-04-04T13:29:34Z</time></trkpt><trkpt lat="44.488693916116745" lon="9.684652951738137"><ele>450.75</ele><time>2026-04-04T13:29:35Z</time></trkpt><trkpt lat="44.488653887696564" lon="9.684854288839736"><ele>449.0</ele><time>2026-04-04T13:29:36Z</time></trkpt><trkpt lat="44.488620174673976" lon="9.685008932709046"><ele>449.0</ele><time>2026-04-04T13:29:37Z</time></trkpt><trkpt lat="44.48860147224532" lon="9.685151693623238"><ele>449.0</ele><time>2026-04-04T13:29:38Z</time></trkpt><trkpt lat="44.48855138148981" lon="9.685308528087814"><ele>449.0</ele><time>2026-04-04T13:29:39Z</time></trkpt><trkpt lat="44.488495269074576" lon="9.685448472651192"><ele>449.0</ele><time>2026-04-04T13:29:40Z</time></trkpt><trkpt lat="44.488431948373076" lon="9.685597510283705"><ele>450.0</ele><time>2026-04-04T13:29:41Z</time></trkpt><trkpt lat="44.48836355849195" lon="9.685742121207575"><ele>451.0</ele><time>2026-04-04T13:29:42Z</time></trkpt><trkpt lat="44.488279553833955" lon="9.685888256753886"><ele>452.0</ele><time>2026-04-04T13:29:43Z</time></trkpt><trkpt lat="44.488178073316945" lon="9.68602602329462"><ele>453.0</ele><time>2026-04-04T13:29:44Z</time></trkpt><trkpt lat="44.48808162176826" lon="9.68616493231665"><ele>452.0</ele><time>2026-04-04T13:29:45Z</time></trkpt><trkpt lat="44.48798888470825" lon="9.686308162479708"><ele>451.0</ele><time>2026-04-04T13:29:46Z</time></trkpt><trkpt lat="44.48789928508915" lon="9.68644040325409"><ele>450.0</ele><time>2026-04-04T13:29:47Z</time></trkpt><trkpt lat="44.48782524373107" lon="9.686551764975171"><ele>449.0</ele><time>2026-04-04T13:29:48Z</time></trkpt><trkpt lat="44.48775650292153" lon="9.686656659559395"><ele>449.0</ele><time>2026-04-04T13:29:49Z</time></trkpt><trkpt lat="44.487676528710224" lon="9.686762313756827"><ele>449.0</ele><time>2026-04-04T13:29:50Z</time></trkpt><trkpt lat="44.48760862149067" lon="9.68691063895866"><ele>449.0</ele><time>2026-04-04T13:29:51Z</time></trkpt><trkpt lat="44.48756892230722" lon="9.687083087157548"><ele>449.0</ele><time>2026-04-04T13:29:52Z</time></trkpt><trkpt lat="44.4875238036463" lon="9.68725678308085"><ele>450.0</ele><time>2026-04-04T13:29:53Z</time></trkpt><trkpt lat="44.48751482293118" lon="9.687445222137878"><ele>451.0</ele><time>2026-04-04T13:29:54Z</time></trkpt><trkpt lat="44.48751189675926" lon="9.68764197220053"><ele>452.0</ele><time>2026-04-04T13:29:55Z</time></trkpt><trkpt lat="44.48751557367082" lon="9.68785441157165"><ele>453.0</ele><time>2026-04-04T13:29:56Z</time></trkpt><trkpt lat="44.487518540149566" lon="9.688048585675858"><ele>453.25</ele><time>2026-04-04T13:29:57Z</time></trkpt><trkpt lat="44.48752116848583" lon="9.688220625942972"><ele>453.5</ele><time>2026-04-04T13:29:58Z</time></trkpt><trkpt lat="44.48752367587371" lon="9.688384749554915"><ele>453.75</ele><time>2026-04-04T13:29:59Z</time></trkpt><trkpt lat="44.487540683157846" lon="9.688545181793268"><ele>454.0</ele><time>2026-04-04T13:30:00Z</time></trkpt><trkpt lat="44.48754425624366" lon="9.688710151980994"><ele>454.0</ele><time>2026-04-04T13:30:01Z</time></trkpt><trkpt lat="44.48753199711968" lon="9.688888310500397"><ele>454.0</ele><time>2026-04-04T13:30:02Z</time></trkpt><trkpt lat="44.487535303298266" lon="9.689086450162456"><ele>454.0</ele><time>2026-04-04T13:30:03Z</time></trkpt><trkpt lat="44.48753874388993" lon="9.689292644932946"><ele>454.0</ele><time>2026-04-04T13:30:04Z</time></trkpt><trkpt lat="44.487541413783504" lon="9.689506137495865"><ele>454.75</ele><time>2026-04-04T13:30:05Z</time></trkpt><trkpt lat="44.48755732296065" lon="9.6896993681148"><ele>455.5</ele><time>2026-04-04T13:30:06Z</time></trkpt><trkpt lat="44.487529732952126" lon="9.689874336247682"><ele>456.25</ele><time>2026-04-04T13:30:07Z</time></trkpt><trkpt lat="44.48751449573826" lon="9.69003447723156"><ele>457.0</ele><time>2026-04-04T13:30:08Z</time></trkpt><trkpt lat="44.48751099969295" lon="9.690202039551549"><ele>457.40000000000003</ele><time>2026-04-04T13:30:09Z</time></trkpt><trkpt lat="44.487484123705826" lon="9.690370222547937"><ele>457.80000000000007</ele><time>2026-04-04T13:30:10Z</time></trkpt><trkpt lat="44.48746267696951" lon="9.690514121323478"><ele>458.2</ele><time>2026-04-04T13:30:11Z</time></trkpt><trkpt lat="44.48745871221509" lon="9.69066593893248"><ele>458.6</ele><time>2026-04-04T13:30:12Z</time></trkpt><trkpt lat="44.48743870383343" lon="9.69078998797925"><ele>459.0</ele><time>2026-04-04T13:30:13Z</time></trkpt><trkpt lat="44.487420560948856" lon="9.690957581639166"><ele>458.75</ele><time>2026-04-04T13:30:14Z</time></trkpt><trkpt lat="44.4873985202364" lon="9.691108219040407"><ele>458.5</ele><time>2026-04-04T13:30:15Z</time></trkpt><trkpt lat="44.48737668418608" lon="9.691269747172223"><ele>458.25</ele><time>2026-04-04T13:30:16Z</time></trkpt><trkpt lat="44.48736013850412" lon="9.691440481987822"><ele>458.0</ele><time>2026-04-04T13:30:17Z</time></trkpt><trkpt lat="44.48734324275251" lon="9.691604566503317"><ele>458.0</ele><time>2026-04-04T13:30:18Z</time></trkpt><trkpt lat="44.48731420341349" lon="9.691787240050369"><ele>458.0</ele><time>2026-04-04T13:30:19Z</time></trkpt><trkpt lat="44.48727753323654" lon="9.691952748186457"><ele>458.0</ele><time>2026-04-04T13:30:20Z</time></trkpt><trkpt lat="44.48722535340847" lon="9.6921342436738"><ele>458.0</ele><time>2026-04-04T13:30:21Z</time></trkpt><trkpt lat="44.48716912367825" lon="9.692302629993787"><ele>458.75</ele><time>2026-04-04T13:30:22Z</time></trkpt><trkpt lat="44.48710965531499" lon="9.692475988667459"><ele>459.5</ele><time>2026-04-04T13:30:23Z</time></trkpt><trkpt lat="44.48704374273947" lon="9.692657857666312"><ele>460.25</ele><time>2026-04-04T13:30:24Z</time></trkpt><trkpt lat="44.486992249366146" lon="9.692832180072996"><ele>461.0</ele><time>2026-04-04T13:30:25Z</time></trkpt><trkpt lat="44.486954587826574" lon="9.69302427534656"><ele>457.0</ele><time>2026-04-04T13:30:26Z</time></trkpt><trkpt lat="44.48693500843031" lon="9.693230159465237"><ele>453.0</ele><time>2026-04-04T13:30:27Z</time></trkpt><trkpt lat="44.48692230070961" lon="9.69342499966159"><ele>449.0</ele><time>2026-04-04T13:30:28Z</time></trkpt><trkpt lat="44.48690536865262" lon="9.69360486397031"><ele>445.0</ele><time>2026-04-04T13:30:29Z</time></trkpt><trkpt lat="44.48689462083101" lon="9.693765581924294"><ele>444.75</ele><time>2026-04-04T13:30:30Z</time></trkpt><trkpt lat="44.48689549457787" lon="9.693918602165589"><ele>444.5</ele><time>2026-04-04T13:30:31Z</time></trkpt><trkpt lat="44.48691757627583" lon="9.694084627535943"><ele>444.25</ele><time>2026-04-04T13:30:32Z</time></trkpt><trkpt lat="44.486936475322096" lon="9.69425307315412"><ele>444.0</ele><time>2026-04-04T13:30:33Z</time></trkpt><trkpt lat="44.48697052407138" lon="9.694413862948636"><ele>443.75</ele><time>2026-04-04T13:30:34Z</time></trkpt><trkpt lat="44.48700789256171" lon="9.694572566876328"><ele>443.5</ele><time>2026-04-04T13:30:35Z</time></trkpt><trkpt lat="44.48704268212997" lon="9.694729267455182"><ele>443.25</ele><time>2026-04-04T13:30:36Z</time></trkpt><trkpt lat="44.48706224284172" lon="9.694903532864872"><ele>443.0</ele><time>2026-04-04T13:30:37Z</time></trkpt><trkpt lat="44.487057645798345" lon="9.695094965134592"><ele>443.0</ele><time>2026-04-04T13:30:38Z</time></trkpt><trkpt lat="44.48703034321751" lon="9.695256552310765"><ele>443.0</ele><time>2026-04-04T13:30:39Z</time></trkpt><trkpt lat="44.487013464746276" lon="9.69539679694332"><ele>443.0</ele><time>2026-04-04T13:30:40Z</time></trkpt><trkpt lat="44.48698102784774" lon="9.69555162881128"><ele>443.0</ele><time>2026-04-04T13:30:41Z</time></trkpt><trkpt lat="44.48694627274923" lon="9.695719155950174"><ele>443.0</ele><time>2026-04-04T13:30:42Z</time></trkpt><trkpt lat="44.486909155754695" lon="9.69586504795545"><ele>443.0</ele><time>2026-04-04T13:30:43Z</time></trkpt><trkpt lat="44.48687556199573" lon="9.696034701503898"><ele>443.0</ele><time>2026-04-04T13:30:44Z</time></trkpt><trkpt lat="44.486835366620845" lon="9.696199619618692"><ele>443.0</ele><time>2026-04-04T13:30:45Z</time></trkpt><trkpt lat="44.48680105175734" lon="9.696369854399805"><ele>443.5</ele><time>2026-04-04T13:30:46Z</time></trkpt><trkpt lat="44.48676084858907" lon="9.696545761106178"><ele>444.0</ele><time>2026-04-04T13:30:47Z</time></trkpt><trkpt lat="44.48671789971335" lon="9.696736746559312"><ele>444.5</ele><time>2026-04-04T13:30:48Z</time></trkpt><trkpt lat="44.48667716272297" lon="9.696949024504908"><ele>445.0</ele><time>2026-04-04T13:30:49Z</time></trkpt><trkpt lat="44.48663674178554" lon="9.697135761531818"><ele>446.75</ele><time>2026-04-04T13:30:50Z</time></trkpt><trkpt lat="44.48660460545019" lon="9.697298963892122"><ele>448.5</ele><time>2026-04-04T13:30:51Z</time></trkpt><trkpt lat="44.486569933525615" lon="9.697445590711824"><ele>450.25</ele><time>2026-04-04T13:30:52Z</time></trkpt><trkpt lat="44.48653458368924" lon="9.697612101359107"><ele>452.0</ele><time>2026-04-04T13:30:53Z</time></trkpt><trkpt lat="44.486493550754574" lon="9.697778995111593"><ele>452.0</ele><time>2026-04-04T13:30:54Z</time></trkpt><trkpt lat="44.48645742476254" lon="9.697928559286346"><ele>452.0</ele><time>2026-04-04T13:30:55Z</time></trkpt><trkpt lat="44.48640784512806" lon="9.698086329100201"><ele>452.0</ele><time>2026-04-04T13:30:56Z</time></trkpt><trkpt lat="44.48633812046067" lon="9.698240268913858"><ele>452.0</ele><time>2026-04-04T13:30:57Z</time></trkpt><trkpt lat="44.48624347665317" lon="9.698414474534886"><ele>450.0</ele><time>2026-04-04T13:30:58Z</time></trkpt><trkpt lat="44.48614135272382" lon="9.698546288369112"><ele>448.0</ele><time>2026-04-04T13:30:59Z</time></trkpt><trkpt lat="44.486048323829586" lon="9.698663629205416"><ele>446.0</ele><time>2026-04-04T13:31:00Z</time></trkpt><trkpt lat="44.48596585839561" lon="9.698790566266767"><ele>444.0</ele><time>2026-04-04T13:31:01Z</time></trkpt><trkpt lat="44.485879752870275" lon="9.698911447391119"><ele>444.0</ele><time>2026-04-04T13:31:02Z</time></trkpt><trkpt lat="44.48579830994568" lon="9.699046790125713"><ele>444.0</ele><time>2026-04-04T13:31:03Z</time></trkpt><trkpt lat="44.485725950754315" lon="9.699199017427167"><ele>444.0</ele><time>2026-04-04T13:31:04Z</time></trkpt><trkpt lat="44.485639341170554" lon="9.699367703852658"><ele>444.0</ele><time>2026-04-04T13:31:05Z</time></trkpt><trkpt lat="44.48556117125806" lon="9.699529890955729"><ele>443.75</ele><time>2026-04-04T13:31:06Z</time></trkpt><trkpt lat="44.48549819915304" lon="9.69969799399808"><ele>443.5</ele><time>2026-04-04T13:31:07Z</time></trkpt><trkpt lat="44.48543562015139" lon="9.699837886025078"><ele>443.25</ele><time>2026-04-04T13:31:08Z</time></trkpt><trkpt lat="44.4853712895436" lon="9.699955489328723"><ele>443.0</ele><time>2026-04-04T13:31:09Z</time></trkpt><trkpt lat="44.48530830773375" lon="9.700088704897686"><ele>443.0</ele><time>2026-04-04T13:31:10Z</time></trkpt><trkpt lat="44.485258831868386" lon="9.700228970630773"><ele>443.0</ele><time>2026-04-04T13:31:11Z</time></trkpt><trkpt lat="44.48517884931633" lon="9.700334561689264"><ele>443.0</ele><time>2026-04-04T13:31:12Z</time></trkpt><trkpt lat="44.48506703874806" lon="9.700404983071284"><ele>443.0</ele><time>2026-04-04T13:31:13Z</time></trkpt><trkpt lat="44.48494095420498" lon="9.700430125001132"><ele>444.25</ele><time>2026-04-04T13:31:14Z</time></trkpt><trkpt lat="44.48481367736986" lon="9.700439139235819"><ele>445.5</ele><time>2026-04-04T13:31:15Z</time></trkpt><trkpt lat="44.48467002641417" lon="9.700439490165826"><ele>446.75</ele><time>2026-04-04T13:31:16Z</time></trkpt><trkpt lat="44.48453139869184" lon="9.700456985380546"><ele>448.0</ele><time>2026-04-04T13:31:17Z</time></trkpt><trkpt lat="44.48439068431034" lon="9.700487233502596"><ele>448.0</ele><time>2026-04-04T13:31:18Z</time></trkpt><trkpt lat="44.48426111905141" lon="9.70052255435456"><ele>448.0</ele><time>2026-04-04T13:31:19Z</time></trkpt><trkpt lat="44.484124227766436" lon="9.700618906795231"><ele>448.0</ele><time>2026-04-04T13:31:20Z</time></trkpt><trkpt lat="44.48398926392363" lon="9.700751663820641"><ele>448.0</ele><time>2026-04-04T13:31:21Z</time></trkpt><trkpt lat="44.48387623978731" lon="9.700870483781536"><ele>448.0</ele><time>2026-04-04T13:31:22Z</time></trkpt><trkpt lat="44.48377249890459" lon="9.700982501003125"><ele>448.0</ele><time>2026-04-04T13:31:23Z</time></trkpt><trkpt lat="44.48366453605335" lon="9.701101213307124"><ele>448.0</ele><time>2026-04-04T13:31:24Z</time></trkpt><trkpt lat="44.483549601550315" lon="9.701233411598224"><ele>447.5</ele><time>2026-04-04T13:31:25Z</time></trkpt><trkpt lat="44.48343363984042" lon="9.70137021133955"><ele>447.0</ele><time>2026-04-04T13:31:26Z</time></trkpt><trkpt lat="44.483327210061866" lon="9.701495759719409"><ele>446.5</ele><time>2026-04-04T13:31:27Z</time></trkpt><trkpt lat="44.48321653613787" lon="9.701626316443987"><ele>446.0</ele><time>2026-04-04T13:31:28Z</time></trkpt><trkpt lat="44.48311156552827" lon="9.701751384650452"><ele>446.0</ele><time>2026-04-04T13:31:29Z</time></trkpt><trkpt lat="44.48301634721031" lon="9.701893076788966"><ele>446.0</ele><time>2026-04-04T13:31:30Z</time></trkpt><trkpt lat="44.48292301433667" lon="9.702003057099121"><ele>446.0</ele><time>2026-04-04T13:31:31Z</time></trkpt><trkpt lat="44.48284022910062" lon="9.702116802579065"><ele>446.0</ele><time>2026-04-04T13:31:32Z</time></trkpt><trkpt lat="44.48277454873702" lon="9.702241692924808"><ele>446.0</ele><time>2026-04-04T13:31:33Z</time></trkpt><trkpt lat="44.482691046993516" lon="9.702371756592855"><ele>446.0</ele><time>2026-04-04T13:31:34Z</time></trkpt><trkpt lat="44.482618676872235" lon="9.702535653888399"><ele>446.0</ele><time>2026-04-04T13:31:35Z</time></trkpt><trkpt lat="44.48255563353762" lon="9.702707959508976"><ele>446.0</ele><time>2026-04-04T13:31:36Z</time></trkpt><trkpt lat="44.4824974902406" lon="9.70287220567388"><ele>446.75</ele><time>2026-04-04T13:31:37Z</time></trkpt><trkpt lat="44.48243738085899" lon="9.70304367835999"><ele>447.5</ele><time>2026-04-04T13:31:38Z</time></trkpt><trkpt lat="44.482380436248995" lon="9.703204405017912"><ele>448.25</ele><time>2026-04-04T13:31:39Z</time></trkpt><trkpt lat="44.48231745917229" lon="9.703382158415529"><ele>449.0</ele><time>2026-04-04T13:31:40Z</time></trkpt><trkpt lat="44.48225444431805" lon="9.703560018374281"><ele>448.5</ele><time>2026-04-04T13:31:41Z</time></trkpt><trkpt lat="44.48220298582842" lon="9.703705259345934"><ele>448.0</ele><time>2026-04-04T13:31:42Z</time></trkpt><trkpt lat="44.4821473385612" lon="9.703865222318418"><ele>447.5</ele><time>2026-04-04T13:31:43Z</time></trkpt><trkpt lat="44.48209644626091" lon="9.704019987434613"><ele>447.0</ele><time>2026-04-04T13:31:44Z</time></trkpt><trkpt lat="44.48205037981348" lon="9.70419279454912"><ele>445.75</ele><time>2026-04-04T13:31:45Z</time></trkpt><trkpt lat="44.48201989491839" lon="9.70437902226396"><ele>444.5</ele><time>2026-04-04T13:31:46Z</time></trkpt><trkpt lat="44.48199925170776" lon="9.7045585142155"><ele>443.25</ele><time>2026-04-04T13:31:47Z</time></trkpt><trkpt lat="44.481982920972676" lon="9.704738302096786"><ele>442.0</ele><time>2026-04-04T13:31:48Z</time></trkpt><trkpt lat="44.48196861961357" lon="9.704911810621981"><ele>442.0</ele><time>2026-04-04T13:31:49Z</time></trkpt><trkpt lat="44.481952626070374" lon="9.70509742681984"><ele>442.0</ele><time>2026-04-04T13:31:50Z</time></trkpt><trkpt lat="44.481935342939" lon="9.705285216825185"><ele>442.0</ele><time>2026-04-04T13:31:51Z</time></trkpt><trkpt lat="44.48191831641316" lon="9.705470218500517"><ele>442.0</ele><time>2026-04-04T13:31:52Z</time></trkpt><trkpt lat="44.48190214477581" lon="9.70564593165988"><ele>442.0</ele><time>2026-04-04T13:31:53Z</time></trkpt><trkpt lat="44.48188636578006" lon="9.705812013022873"><ele>442.0</ele><time>2026-04-04T13:31:54Z</time></trkpt><trkpt lat="44.481870266563185" lon="9.705978061614783"><ele>442.0</ele><time>2026-04-04T13:31:55Z</time></trkpt><trkpt lat="44.481851614273474" lon="9.706145990331729"><ele>442.0</ele><time>2026-04-04T13:31:56Z</time></trkpt><trkpt lat="44.48182920689269" lon="9.706327435102423"><ele>441.25</ele><time>2026-04-04T13:31:57Z</time></trkpt><trkpt lat="44.481805851693125" lon="9.706511130534146"><ele>440.5</ele><time>2026-04-04T13:31:58Z</time></trkpt><trkpt lat="44.48178316779874" lon="9.70668948635166"><ele>439.75</ele><time>2026-04-04T13:31:59Z</time></trkpt><trkpt lat="44.48175861360111" lon="9.706873112861496"><ele>439.0</ele><time>2026-04-04T13:32:00Z</time></trkpt><trkpt lat="44.48173558470922" lon="9.707040061445346"><ele>438.5</ele><time>2026-04-04T13:32:01Z</time></trkpt><trkpt lat="44.48172429319284" lon="9.707199730135697"><ele>438.0</ele><time>2026-04-04T13:32:02Z</time></trkpt><trkpt lat="44.48170618783045" lon="9.707356774558663"><ele>437.5</ele><time>2026-04-04T13:32:03Z</time></trkpt><trkpt lat="44.48167861715362" lon="9.707515508596476"><ele>437.0</ele><time>2026-04-04T13:32:04Z</time></trkpt><trkpt lat="44.4816455208134" lon="9.707684880091904"><ele>438.0</ele><time>2026-04-04T13:32:05Z</time></trkpt><trkpt lat="44.481583383748685" lon="9.707840872163683"><ele>439.0</ele><time>2026-04-04T13:32:06Z</time></trkpt><trkpt lat="44.481539523192936" lon="9.707995660465663"><ele>440.0</ele><time>2026-04-04T13:32:07Z</time></trkpt><trkpt lat="44.481469311362204" lon="9.708124502832595"><ele>441.0</ele><time>2026-04-04T13:32:08Z</time></trkpt><trkpt lat="44.48138735774511" lon="9.708247710589363"><ele>441.0</ele><time>2026-04-04T13:32:09Z</time></trkpt><trkpt lat="44.481302059688005" lon="9.70837390824345"><ele>441.0</ele><time>2026-04-04T13:32:10Z</time></trkpt><trkpt lat="44.481223853982044" lon="9.7084959521469"><ele>441.0</ele><time>2026-04-04T13:32:11Z</time></trkpt><trkpt lat="44.48116328221995" lon="9.708606587127408"><ele>441.0</ele><time>2026-04-04T13:32:12Z</time></trkpt><trkpt lat="44.48112789134405" lon="9.708718273010836"><ele>441.0</ele><time>2026-04-04T13:32:13Z</time></trkpt><trkpt lat="44.481102035296864" lon="9.708854933417857"><ele>440.0</ele><time>2026-04-04T13:32:14Z</time></trkpt><trkpt lat="44.48108351222027" lon="9.709012427122461"><ele>439.0</ele><time>2026-04-04T13:32:15Z</time></trkpt><trkpt lat="44.48113743220293" lon="9.709192946845553"><ele>438.0</ele><time>2026-04-04T13:32:16Z</time></trkpt><trkpt lat="44.481195512614555" lon="9.70937613107062"><ele>437.0</ele><time>2026-04-04T13:32:17Z</time></trkpt><trkpt lat="44.48124437052033" lon="9.709575430202378"><ele>439.0</ele><time>2026-04-04T13:32:18Z</time></trkpt><trkpt lat="44.48129690987181" lon="9.709735619219698"><ele>441.0</ele><time>2026-04-04T13:32:19Z</time></trkpt><trkpt lat="44.48134603659423" lon="9.709898210031419"><ele>443.0</ele><time>2026-04-04T13:32:20Z</time></trkpt><trkpt lat="44.481396629709685" lon="9.710060220360157"><ele>445.0</ele><time>2026-04-04T13:32:21Z</time></trkpt><trkpt lat="44.481400973700985" lon="9.710219881163082"><ele>445.5</ele><time>2026-04-04T13:32:22Z</time></trkpt><trkpt lat="44.48138491469695" lon="9.710388692145584"><ele>446.0</ele><time>2026-04-04T13:32:23Z</time></trkpt><trkpt lat="44.48131785493114" lon="9.710534783519128"><ele>446.5</ele><time>2026-04-04T13:32:24Z</time></trkpt><trkpt lat="44.48124826915127" lon="9.710722526459623"><ele>447.0</ele><time>2026-04-04T13:32:25Z</time></trkpt><trkpt lat="44.4811905821307" lon="9.71090613056905"><ele>445.25</ele><time>2026-04-04T13:32:26Z</time></trkpt><trkpt lat="44.481126461809104" lon="9.711056465940898"><ele>443.5</ele><time>2026-04-04T13:32:27Z</time></trkpt><trkpt lat="44.4810772160721" lon="9.711187129400269"><ele>441.75</ele><time>2026-04-04T13:32:28Z</time></trkpt><trkpt lat="44.481024092298185" lon="9.711328625410665"><ele>440.0</ele><time>2026-04-04T13:32:29Z</time></trkpt><trkpt lat="44.48096202269397" lon="9.711475242649975"><ele>440.0</ele><time>2026-04-04T13:32:30Z</time></trkpt><trkpt lat="44.48090615587259" lon="9.711627497731946"><ele>440.0</ele><time>2026-04-04T13:32:31Z</time></trkpt><trkpt lat="44.48084653553062" lon="9.711782055645159"><ele>440.0</ele><time>2026-04-04T13:32:32Z</time></trkpt><trkpt lat="44.480777335339525" lon="9.71193613872958"><ele>440.0</ele><time>2026-04-04T13:32:33Z</time></trkpt><trkpt lat="44.48071631465776" lon="9.712085034122568"><ele>440.4</ele><time>2026-04-04T13:32:34Z</time></trkpt><trkpt lat="44.480648586906504" lon="9.712215022171911"><ele>440.8</ele><time>2026-04-04T13:32:35Z</time></trkpt><trkpt lat="44.480579094716866" lon="9.712315078879113"><ele>441.20000000000005</ele><time>2026-04-04T13:32:36Z</time></trkpt><trkpt lat="44.48050744945812" lon="9.712413808363728"><ele>441.6</ele><time>2026-04-04T13:32:37Z</time></trkpt><trkpt lat="44.48042979784784" lon="9.712514708014451"><ele>442.0</ele><time>2026-04-04T13:32:38Z</time></trkpt><trkpt lat="44.48035185025776" lon="9.712611629981524"><ele>442.6</ele><time>2026-04-04T13:32:39Z</time></trkpt><trkpt lat="44.48026406954109" lon="9.712661368591005"><ele>443.20000000000005</ele><time>2026-04-04T13:32:40Z</time></trkpt><trkpt lat="44.480183114320695" lon="9.712694933094722"><ele>443.8</ele><time>2026-04-04T13:32:41Z</time></trkpt><trkpt lat="44.48011111971185" lon="9.71270963458576"><ele>444.4</ele><time>2026-04-04T13:32:42Z</time></trkpt><trkpt lat="44.480031781557315" lon="9.712708490098487"><ele>445.0</ele><time>2026-04-04T13:32:43Z</time></trkpt><trkpt lat="44.4799443637424" lon="9.712862574195562"><ele>445.0</ele><time>2026-04-04T13:32:44Z</time></trkpt><trkpt lat="44.47984523993873" lon="9.712934793833101"><ele>445.0</ele><time>2026-04-04T13:32:45Z</time></trkpt><trkpt lat="44.47973477068425" lon="9.712993658368179"><ele>445.0</ele><time>2026-04-04T13:32:46Z</time></trkpt><trkpt lat="44.479623538501286" lon="9.713059910688147"><ele>445.0</ele><time>2026-04-04T13:32:47Z</time></trkpt><trkpt lat="44.479521817716034" lon="9.713108245132783"><ele>444.0</ele><time>2026-04-04T13:32:48Z</time></trkpt><trkpt lat="44.47943426985919" lon="9.713196558118806"><ele>443.0</ele><time>2026-04-04T13:32:49Z</time></trkpt><trkpt lat="44.47936784056725" lon="9.713290234976197"><ele>442.0</ele><time>2026-04-04T13:32:50Z</time></trkpt><trkpt lat="44.47931863235833" lon="9.713446152016095"><ele>441.0</ele><time>2026-04-04T13:32:51Z</time></trkpt><trkpt lat="44.47926573611694" lon="9.713604808403566"><ele>440.0</ele><time>2026-04-04T13:32:52Z</time></trkpt><trkpt lat="44.47921487110339" lon="9.713774402519471"><ele>440.0</ele><time>2026-04-04T13:32:53Z</time></trkpt><trkpt lat="44.47916576346907" lon="9.713941512497911"><ele>440.0</ele><time>2026-04-04T13:32:54Z</time></trkpt><trkpt lat="44.47911375753577" lon="9.71411367993539"><ele>440.0</ele><time>2026-04-04T13:32:55Z</time></trkpt><trkpt lat="44.47906606911836" lon="9.714279764243049"><ele>440.0</ele><time>2026-04-04T13:32:56Z</time></trkpt><trkpt lat="44.479027509410805" lon="9.714446509878623"><ele>441.5</ele><time>2026-04-04T13:32:57Z</time></trkpt><trkpt lat="44.47898064048771" lon="9.714611134151392"><ele>443.0</ele><time>2026-04-04T13:32:58Z</time></trkpt><trkpt lat="44.478938466977205" lon="9.714784451704178"><ele>444.5</ele><time>2026-04-04T13:32:59Z</time></trkpt><trkpt lat="44.478891171066614" lon="9.714955990844627"><ele>446.0</ele><time>2026-04-04T13:33:00Z</time></trkpt><trkpt lat="44.47884846863691" lon="9.715108108498269"><ele>447.75</ele><time>2026-04-04T13:33:01Z</time></trkpt><trkpt lat="44.478806710797016" lon="9.715265173404457"><ele>449.5</ele><time>2026-04-04T13:33:02Z</time></trkpt><trkpt lat="44.47876977526795" lon="9.715414713469189"><ele>451.25</ele><time>2026-04-04T13:33:03Z</time></trkpt><trkpt lat="44.47873743330277" lon="9.71556251799973"><ele>453.0</ele><time>2026-04-04T13:33:04Z</time></trkpt><trkpt lat="44.47870241486735" lon="9.715711429362551"><ele>450.0</ele><time>2026-04-04T13:33:05Z</time></trkpt><trkpt lat="44.478663556711325" lon="9.71586315413245"><ele>447.0</ele><time>2026-04-04T13:33:06Z</time></trkpt><trkpt lat="44.47863252561142" lon="9.716002748366996"><ele>444.0</ele><time>2026-04-04T13:33:07Z</time></trkpt><trkpt lat="44.47858701338604" lon="9.716162540737766"><ele>441.0</ele><time>2026-04-04T13:33:08Z</time></trkpt><trkpt lat="44.47855613802864" lon="9.716315194789656"><ele>441.0</ele><time>2026-04-04T13:33:09Z</time></trkpt><trkpt lat="44.478528208671335" lon="9.716466635981334"><ele>441.0</ele><time>2026-04-04T13:33:10Z</time></trkpt><trkpt lat="44.47850490071889" lon="9.716617546415758"><ele>441.0</ele><time>2026-04-04T13:33:11Z</time></trkpt><trkpt lat="44.47847054067811" lon="9.716786310284377"><ele>441.0</ele><time>2026-04-04T13:33:12Z</time></trkpt><trkpt lat="44.478439839700464" lon="9.71693737133748"><ele>441.8</ele><time>2026-04-04T13:33:13Z</time></trkpt><trkpt lat="44.478403477649216" lon="9.717085742505832"><ele>442.6</ele><time>2026-04-04T13:33:14Z</time></trkpt><trkpt lat="44.47837245815806" lon="9.717232045504675"><ele>443.4</ele><time>2026-04-04T13:33:15Z</time></trkpt><trkpt lat="44.478358952733764" lon="9.717348819972212"><ele>444.2</ele><time>2026-04-04T13:33:16Z</time></trkpt><trkpt lat="44.47837907206235" lon="9.717488473250222"><ele>445.0</ele><time>2026-04-04T13:33:17Z</time></trkpt><trkpt lat="44.47842366381601" lon="9.717625834706418"><ele>445.8</ele><time>2026-04-04T13:33:18Z</time></trkpt><trkpt lat="44.47846685074479" lon="9.717767974633892"><ele>446.6</ele><time>2026-04-04T13:33:19Z</time></trkpt><trkpt lat="44.478500115467455" lon="9.717914862952204"><ele>447.4</ele><time>2026-04-04T13:33:20Z</time></trkpt><trkpt lat="44.47852897117463" lon="9.718029489326346"><ele>448.2</ele><time>2026-04-04T13:33:21Z</time></trkpt><trkpt lat="44.478494388815875" lon="9.718122367544565"><ele>449.0</ele><time>2026-04-04T13:33:22Z</time></trkpt><trkpt lat="44.47845355707482" lon="9.71826729635465"><ele>449.0</ele><time>2026-04-04T13:33:23Z</time></trkpt><trkpt lat="44.478374981521874" lon="9.718392268053996"><ele>449.0</ele><time>2026-04-04T13:33:24Z</time></trkpt><trkpt lat="44.478288605868066" lon="9.718523373715266"><ele>449.0</ele><time>2026-04-04T13:33:25Z</time></trkpt><trkpt lat="44.478185783026646" lon="9.718660777948097"><ele>449.0</ele><time>2026-04-04T13:33:26Z</time></trkpt><trkpt lat="44.47808598216535" lon="9.718807451957845"><ele>448.75</ele><time>2026-04-04T13:33:27Z</time></trkpt><trkpt lat="44.47798933758294" lon="9.718948073420348"><ele>448.5</ele><time>2026-04-04T13:33:28Z</time></trkpt><trkpt lat="44.47788904677256" lon="9.719082802902717"><ele>448.25</ele><time>2026-04-04T13:33:29Z</time></trkpt><trkpt lat="44.47779481464606" lon="9.719218914901576"><ele>448.0</ele><time>2026-04-04T13:33:30Z</time></trkpt><trkpt lat="44.477714169520546" lon="9.719357821606021"><ele>449.4</ele><time>2026-04-04T13:33:31Z</time></trkpt><trkpt lat="44.477645098514266" lon="9.719488316679131"><ele>450.79999999999995</ele><time>2026-04-04T13:33:32Z</time></trkpt><trkpt lat="44.47759209586041" lon="9.719622903066698"><ele>452.2</ele><time>2026-04-04T13:33:33Z</time></trkpt><trkpt lat="44.47756069421132" lon="9.71974527009361"><ele>453.6</ele><time>2026-04-04T13:33:34Z</time></trkpt><trkpt lat="44.477537716157016" lon="9.719881484861622"><ele>455.0</ele><time>2026-04-04T13:33:35Z</time></trkpt><trkpt lat="44.47753368805257" lon="9.72004135718199"><ele>455.0</ele><time>2026-04-04T13:33:36Z</time></trkpt><trkpt lat="44.47752002953373" lon="9.720207470637137"><ele>455.0</ele><time>2026-04-04T13:33:37Z</time></trkpt><trkpt lat="44.47752747149651" lon="9.720363261635113"><ele>455.0</ele><time>2026-04-04T13:33:38Z</time></trkpt><trkpt lat="44.47755812437822" lon="9.720516190230763"><ele>455.0</ele><time>2026-04-04T13:33:39Z</time></trkpt><trkpt lat="44.47759099539658" lon="9.720668599600465"><ele>456.0</ele><time>2026-04-04T13:33:40Z</time></trkpt><trkpt lat="44.477627604545766" lon="9.720827012702824"><ele>457.0</ele><time>2026-04-04T13:33:41Z</time></trkpt><trkpt lat="44.4776654698486" lon="9.720983754537578"><ele>458.0</ele><time>2026-04-04T13:33:42Z</time></trkpt><trkpt lat="44.477693360603666" lon="9.721092432593963"><ele>459.0</ele><time>2026-04-04T13:33:43Z</time></trkpt><trkpt lat="44.47771228973525" lon="9.721234543590567"><ele>460.0</ele><time>2026-04-04T13:33:44Z</time></trkpt><trkpt lat="44.4776928616936" lon="9.721368867190229"><ele>460.8</ele><time>2026-04-04T13:33:45Z</time></trkpt><trkpt lat="44.477639780398874" lon="9.72149892007053"><ele>461.6</ele><time>2026-04-04T13:33:46Z</time></trkpt><trkpt lat="44.47757236689966" lon="9.721613716818549"><ele>462.4</ele><time>2026-04-04T13:33:47Z</time></trkpt><trkpt lat="44.47749849456529" lon="9.721734828881678"><ele>463.2</ele><time>2026-04-04T13:33:48Z</time></trkpt><trkpt lat="44.47743840629729" lon="9.721875841910434"><ele>464.0</ele><time>2026-04-04T13:33:49Z</time></trkpt><trkpt lat="44.47736552062821" lon="9.721986556635466"><ele>465.0</ele><time>2026-04-04T13:33:50Z</time></trkpt><trkpt lat="44.47731188300688" lon="9.72215387566228"><ele>466.0</ele><time>2026-04-04T13:33:51Z</time></trkpt><trkpt lat="44.47729521011219" lon="9.722332160771565"><ele>467.0</ele><time>2026-04-04T13:33:52Z</time></trkpt><trkpt lat="44.477283077615" lon="9.722507345831346"><ele>468.0</ele><time>2026-04-04T13:33:53Z</time></trkpt><trkpt lat="44.47727623993995" lon="9.722647071036075"><ele>468.0</ele><time>2026-04-04T13:33:54Z</time></trkpt><trkpt lat="44.47725242162462" lon="9.722777295040794"><ele>467.99999999999994</ele><time>2026-04-04T13:33:55Z</time></trkpt><trkpt lat="44.47720248072862" lon="9.722885915620138"><ele>467.99999999999994</ele><time>2026-04-04T13:33:56Z</time></trkpt><trkpt lat="44.47711655613524" lon="9.722988613312728"><ele>468.0</ele><time>2026-04-04T13:33:57Z</time></trkpt><trkpt lat="44.47699421897708" lon="9.723046586404319"><ele>468.0</ele><time>2026-04-04T13:33:58Z</time></trkpt><trkpt lat="44.47689971936014" lon="9.72314831042455"><ele>468.0</ele><time>2026-04-04T13:33:59Z</time></trkpt><trkpt lat="44.4768067826162" lon="9.72327994888821"><ele>468.0</ele><time>2026-04-04T13:34:00Z</time></trkpt><trkpt lat="44.476736675982266" lon="9.723418985130857"><ele>468.0</ele><time>2026-04-04T13:34:01Z</time></trkpt><trkpt lat="44.476688503830886" lon="9.723579816568185"><ele>468.0</ele><time>2026-04-04T13:34:02Z</time></trkpt><trkpt lat="44.476655884119424" lon="9.723763574647528"><ele>469.0</ele><time>2026-04-04T13:34:03Z</time></trkpt><trkpt lat="44.47664204470784" lon="9.723974080551717"><ele>470.0</ele><time>2026-04-04T13:34:04Z</time></trkpt><trkpt lat="44.4766405145408" lon="9.724190859264302"><ele>471.0</ele><time>2026-04-04T13:34:05Z</time></trkpt><trkpt lat="44.476643093158366" lon="9.724393635053742"><ele>471.0</ele><time>2026-04-04T13:34:06Z</time></trkpt><trkpt lat="44.476649726817605" lon="9.724593117487219"><ele>471.0</ele><time>2026-04-04T13:34:07Z</time></trkpt><trkpt lat="44.47665936265033" lon="9.724763471384644"><ele>471.0</ele><time>2026-04-04T13:34:08Z</time></trkpt><trkpt lat="44.47668116762606" lon="9.72493021714307"><ele>471.0</ele><time>2026-04-04T13:34:09Z</time></trkpt><trkpt lat="44.47671348405614" lon="9.725094489545059"><ele>471.0</ele><time>2026-04-04T13:34:10Z</time></trkpt><trkpt lat="44.476769871905475" lon="9.72527198138563"><ele>471.0</ele><time>2026-04-04T13:34:11Z</time></trkpt><trkpt lat="44.476807554431474" lon="9.725416921428014"><ele>471.0</ele><time>2026-04-04T13:34:12Z</time></trkpt><trkpt lat="44.47680955278913" lon="9.725581963974395"><ele>471.0</ele><time>2026-04-04T13:34:13Z</time></trkpt><trkpt lat="44.47678445964731" lon="9.725758781270617"><ele>471.0</ele><time>2026-04-04T13:34:14Z</time></trkpt><trkpt lat="44.47677631919353" lon="9.72593783739064"><ele>471.0</ele><time>2026-04-04T13:34:15Z</time></trkpt><trkpt lat="44.47676308735581" lon="9.726113574458408"><ele>471.0</ele><time>2026-04-04T13:34:16Z</time></trkpt><trkpt lat="44.47676807537576" lon="9.726268050999819"><ele>471.0</ele><time>2026-04-04T13:34:17Z</time></trkpt><trkpt lat="44.47675448013094" lon="9.726408057831618"><ele>472.4</ele><time>2026-04-04T13:34:18Z</time></trkpt><trkpt lat="44.47668869983449" lon="9.726535333277555"><ele>473.8</ele><time>2026-04-04T13:34:19Z</time></trkpt><trkpt lat="44.47663665262548" lon="9.726677924531323"><ele>475.19999999999993</ele><time>2026-04-04T13:34:20Z</time></trkpt><trkpt lat="44.4765818574771" lon="9.726796891226806"><ele>476.59999999999997</ele><time>2026-04-04T13:34:21Z</time></trkpt><trkpt lat="44.47656124963347" lon="9.72691025281656"><ele>478.0</ele><time>2026-04-04T13:34:22Z</time></trkpt><trkpt lat="44.476548252808776" lon="9.727037351803554"><ele>478.25</ele><time>2026-04-04T13:34:23Z</time></trkpt><trkpt lat="44.47662323636303" lon="9.727188782543292"><ele>478.5</ele><time>2026-04-04T13:34:24Z</time></trkpt><trkpt lat="44.476696243861824" lon="9.727329887483194"><ele>478.75</ele><time>2026-04-04T13:34:25Z</time></trkpt><trkpt lat="44.47676211911262" lon="9.727474838310599"><ele>479.0</ele><time>2026-04-04T13:34:26Z</time></trkpt><trkpt lat="44.47681357882416" lon="9.727651257822101"><ele>478.25</ele><time>2026-04-04T13:34:27Z</time></trkpt><trkpt lat="44.47687462597251" lon="9.727809205095204"><ele>477.5</ele><time>2026-04-04T13:34:28Z</time></trkpt><trkpt lat="44.476947418540234" lon="9.727962666946343"><ele>476.75</ele><time>2026-04-04T13:34:29Z</time></trkpt><trkpt lat="44.47700510591244" lon="9.728079964141745"><ele>476.0</ele><time>2026-04-04T13:34:30Z</time></trkpt><trkpt lat="44.47706239808955" lon="9.728194445420385"><ele>476.8</ele><time>2026-04-04T13:34:31Z</time></trkpt><trkpt lat="44.47711061074286" lon="9.728302626103014"><ele>477.6</ele><time>2026-04-04T13:34:32Z</time></trkpt><trkpt lat="44.47713540178794" lon="9.728429865315908"><ele>478.4</ele><time>2026-04-04T13:34:33Z</time></trkpt><trkpt lat="44.47711175401775" lon="9.728576051508014"><ele>479.2</ele><time>2026-04-04T13:34:34Z</time></trkpt><trkpt lat="44.47706699639988" lon="9.728713675218762"><ele>480.0</ele><time>2026-04-04T13:34:35Z</time></trkpt><trkpt lat="44.47699330962139" lon="9.728848602232242"><ele>480.0</ele><time>2026-04-04T13:34:36Z</time></trkpt><trkpt lat="44.476914063996304" lon="9.729007530094824"><ele>480.0</ele><time>2026-04-04T13:34:37Z</time></trkpt><trkpt lat="44.476841257248466" lon="9.729165706557097"><ele>480.0</ele><time>2026-04-04T13:34:38Z</time></trkpt><trkpt lat="44.47678239668011" lon="9.72932958178225"><ele>480.0</ele><time>2026-04-04T13:34:39Z</time></trkpt><trkpt lat="44.47673315463719" lon="9.729510519846027"><ele>482.5</ele><time>2026-04-04T13:34:40Z</time></trkpt><trkpt lat="44.47668623913014" lon="9.729690160202933"><ele>485.0</ele><time>2026-04-04T13:34:41Z</time></trkpt><trkpt lat="44.476642372365816" lon="9.729841172619011"><ele>487.5</ele><time>2026-04-04T13:34:42Z</time></trkpt><trkpt lat="44.47659432861959" lon="9.72999593108184"><ele>490.0</ele><time>2026-04-04T13:34:43Z</time></trkpt><trkpt lat="44.47655528894245" lon="9.73015500998403"><ele>489.75</ele><time>2026-04-04T13:34:44Z</time></trkpt><trkpt lat="44.476548659562056" lon="9.730303817953239"><ele>489.5</ele><time>2026-04-04T13:34:45Z</time></trkpt><trkpt lat="44.47656438695912" lon="9.730463783591425"><ele>489.25</ele><time>2026-04-04T13:34:46Z</time></trkpt><trkpt lat="44.47660870952126" lon="9.73064699819859"><ele>489.0</ele><time>2026-04-04T13:34:47Z</time></trkpt><trkpt lat="44.47664828466995" lon="9.730797473882312"><ele>489.0</ele><time>2026-04-04T13:34:48Z</time></trkpt><trkpt lat="44.47667327878703" lon="9.73095141428119"><ele>489.0</ele><time>2026-04-04T13:34:49Z</time></trkpt><trkpt lat="44.4766593713309" lon="9.731071362027885"><ele>489.0</ele><time>2026-04-04T13:34:50Z</time></trkpt><trkpt lat="44.47661655260837" lon="9.731189567176882"><ele>489.0</ele><time>2026-04-04T13:34:51Z</time></trkpt><trkpt lat="44.47654849527455" lon="9.731308110619386"><ele>489.0</ele><time>2026-04-04T13:34:52Z</time></trkpt><trkpt lat="44.47647407154146" lon="9.731462371483039"><ele>488.0</ele><time>2026-04-04T13:34:53Z</time></trkpt><trkpt lat="44.47638567568258" lon="9.731591993010099"><ele>487.0</ele><time>2026-04-04T13:34:54Z</time></trkpt><trkpt lat="44.47631505846541" lon="9.731743643214985"><ele>486.0</ele><time>2026-04-04T13:34:55Z</time></trkpt><trkpt lat="44.47625920009897" lon="9.731901086611156"><ele>485.0</ele><time>2026-04-04T13:34:56Z</time></trkpt><trkpt lat="44.47621454048403" lon="9.73207038028806"><ele>485.0</ele><time>2026-04-04T13:34:57Z</time></trkpt><trkpt lat="44.47618827127323" lon="9.732251902897794"><ele>485.0</ele><time>2026-04-04T13:34:58Z</time></trkpt><trkpt lat="44.47616441250942" lon="9.732432788698832"><ele>485.0</ele><time>2026-04-04T13:34:59Z</time></trkpt><trkpt lat="44.476128140350845" lon="9.732589916266809"><ele>485.0</ele><time>2026-04-04T13:35:00Z</time></trkpt><trkpt lat="44.47611686707518" lon="9.732773705890297"><ele>487.2</ele><time>2026-04-04T13:35:01Z</time></trkpt><trkpt lat="44.47609444948567" lon="9.732928294541946"><ele>489.4</ele><time>2026-04-04T13:35:02Z</time></trkpt><trkpt lat="44.47607690830928" lon="9.733070065984961"><ele>491.6</ele><time>2026-04-04T13:35:03Z</time></trkpt><trkpt lat="44.47607934910762" lon="9.733205459397551"><ele>493.8</ele><time>2026-04-04T13:35:04Z</time></trkpt><trkpt lat="44.47610587437328" lon="9.733353277822482"><ele>496.0</ele><time>2026-04-04T13:35:05Z</time></trkpt><trkpt lat="44.476176996484064" lon="9.73348805148816"><ele>496.25</ele><time>2026-04-04T13:35:06Z</time></trkpt><trkpt lat="44.476260763370995" lon="9.733617378088283"><ele>496.5</ele><time>2026-04-04T13:35:07Z</time></trkpt><trkpt lat="44.476354095588626" lon="9.73375167724971"><ele>496.75</ele><time>2026-04-04T13:35:08Z</time></trkpt><trkpt lat="44.47646003067427" lon="9.733895123090882"><ele>497.0</ele><time>2026-04-04T13:35:09Z</time></trkpt><trkpt lat="44.4765657032733" lon="9.734033091187314"><ele>497.0</ele><time>2026-04-04T13:35:10Z</time></trkpt><trkpt lat="44.476680638171615" lon="9.734182914888283"><ele>497.0</ele><time>2026-04-04T13:35:11Z</time></trkpt><trkpt lat="44.47678620676449" lon="9.734320529136603"><ele>497.0</ele><time>2026-04-04T13:35:12Z</time></trkpt><trkpt lat="44.4768941379284" lon="9.734462908061271"><ele>497.0</ele><time>2026-04-04T13:35:13Z</time></trkpt><trkpt lat="44.47700508912297" lon="9.734611694865604"><ele>497.25</ele><time>2026-04-04T13:35:14Z</time></trkpt><trkpt lat="44.47711021691441" lon="9.734756406924376"><ele>497.5</ele><time>2026-04-04T13:35:15Z</time></trkpt><trkpt lat="44.47720643426392" lon="9.73489017148116"><ele>497.75</ele><time>2026-04-04T13:35:16Z</time></trkpt><trkpt lat="44.47729676625002" lon="9.735019891062901"><ele>498.0</ele><time>2026-04-04T13:35:17Z</time></trkpt><trkpt lat="44.4773789446063" lon="9.735138162177881"><ele>493.5</ele><time>2026-04-04T13:35:18Z</time></trkpt><trkpt lat="44.47745867509256" lon="9.735252971755088"><ele>489.0</ele><time>2026-04-04T13:35:19Z</time></trkpt><trkpt lat="44.47755295311663" lon="9.735376855277194"><ele>484.5</ele><time>2026-04-04T13:35:20Z</time></trkpt><trkpt lat="44.477643374161126" lon="9.735477445007339"><ele>480.0</ele><time>2026-04-04T13:35:21Z</time></trkpt><trkpt lat="44.47773950610686" lon="9.735549611536497"><ele>480.0</ele><time>2026-04-04T13:35:22Z</time></trkpt><trkpt lat="44.47784384608942" lon="9.73564535111559"><ele>480.0</ele><time>2026-04-04T13:35:23Z</time></trkpt><trkpt lat="44.477943683911775" lon="9.735766610778574"><ele>480.0</ele><time>2026-04-04T13:35:24Z</time></trkpt><trkpt lat="44.47804305082272" lon="9.735868469405077"><ele>480.0</ele><time>2026-04-04T13:35:25Z</time></trkpt><trkpt lat="44.47813646064981" lon="9.735966500210653"><ele>480.4</ele><time>2026-04-04T13:35:26Z</time></trkpt><trkpt lat="44.47822525759359" lon="9.736058544807852"><ele>480.8</ele><time>2026-04-04T13:35:27Z</time></trkpt><trkpt lat="44.478319211413556" lon="9.7361340757333"><ele>481.20000000000005</ele><time>2026-04-04T13:35:28Z</time></trkpt><trkpt lat="44.478390163656385" lon="9.736250553796836"><ele>481.6</ele><time>2026-04-04T13:35:29Z</time></trkpt><trkpt lat="44.478454076423006" lon="9.736391204472753"><ele>482.0</ele><time>2026-04-04T13:35:30Z</time></trkpt><trkpt lat="44.47850494147608" lon="9.736543248067958"><ele>482.0</ele><time>2026-04-04T13:35:31Z</time></trkpt><trkpt lat="44.47852232193506" lon="9.736709548962578"><ele>482.0</ele><time>2026-04-04T13:35:32Z</time></trkpt><trkpt lat="44.478534694599595" lon="9.736880252598983"><ele>482.0</ele><time>2026-04-04T13:35:33Z</time></trkpt><trkpt lat="44.478555235724066" lon="9.737056847274419"><ele>482.0</ele><time>2026-04-04T13:35:34Z</time></trkpt><trkpt lat="44.47858692104021" lon="9.737216808228824"><ele>482.3333333333333</ele><time>2026-04-04T13:35:35Z</time></trkpt><trkpt lat="44.478645270366414" lon="9.737416968015285"><ele>482.66666666666663</ele><time>2026-04-04T13:35:36Z</time></trkpt><trkpt lat="44.47870884161051" lon="9.73762180865681"><ele>483.0</ele><time>2026-04-04T13:35:37Z</time></trkpt><trkpt lat="44.47878249720992" lon="9.73785914340424"><ele>483.0</ele><time>2026-04-04T13:35:38Z</time></trkpt><trkpt lat="44.478859176199386" lon="9.738041035543201"><ele>483.0</ele><time>2026-04-04T13:35:39Z</time></trkpt><trkpt lat="44.4789212692082" lon="9.738244085533013"><ele>483.0</ele><time>2026-04-04T13:35:40Z</time></trkpt><trkpt lat="44.478987799133904" lon="9.738413093107921"><ele>483.0</ele><time>2026-04-04T13:35:41Z</time></trkpt><trkpt lat="44.47905331025538" lon="9.738566656707896"><ele>479.79999999999995</ele><time>2026-04-04T13:35:42Z</time></trkpt><trkpt lat="44.4791074808949" lon="9.738673236290607"><ele>476.59999999999997</ele><time>2026-04-04T13:35:43Z</time></trkpt><trkpt lat="44.47917144360151" lon="9.73878286436422"><ele>473.40000000000003</ele><time>2026-04-04T13:35:44Z</time></trkpt><trkpt lat="44.479238726310854" lon="9.738880596470217"><ele>470.20000000000005</ele><time>2026-04-04T13:35:45Z</time></trkpt><trkpt lat="44.479354641525674" lon="9.7389110901289"><ele>467.0</ele><time>2026-04-04T13:35:46Z</time></trkpt><trkpt lat="44.479466577870674" lon="9.73890275999898"><ele>467.0</ele><time>2026-04-04T13:35:47Z</time></trkpt><trkpt lat="44.47957591870958" lon="9.738889011238768"><ele>467.0</ele><time>2026-04-04T13:35:48Z</time></trkpt><trkpt lat="44.47970624833243" lon="9.73888956908039"><ele>467.0</ele><time>2026-04-04T13:35:49Z</time></trkpt><trkpt lat="44.47980972750405" lon="9.738913971182662"><ele>467.0</ele><time>2026-04-04T13:35:50Z</time></trkpt><trkpt lat="44.479919959800455" lon="9.738964380945449"><ele>466.5</ele><time>2026-04-04T13:35:51Z</time></trkpt><trkpt lat="44.48002856267231" lon="9.739044526714789"><ele>466.0</ele><time>2026-04-04T13:35:52Z</time></trkpt><trkpt lat="44.4801352326418" lon="9.739149155991178"><ele>465.5</ele><time>2026-04-04T13:35:53Z</time></trkpt><trkpt lat="44.480233461979" lon="9.739270485600555"><ele>465.0</ele><time>2026-04-04T13:35:54Z</time></trkpt><trkpt lat="44.48030940761116" lon="9.739409632847334"><ele>465.0</ele><time>2026-04-04T13:35:55Z</time></trkpt><trkpt lat="44.48036404091485" lon="9.739555866081112"><ele>465.0</ele><time>2026-04-04T13:35:56Z</time></trkpt><trkpt lat="44.480381688678605" lon="9.73973631341703"><ele>465.0</ele><time>2026-04-04T13:35:57Z</time></trkpt><trkpt lat="44.48041685996738" lon="9.739938210649884"><ele>465.0</ele><time>2026-04-04T13:35:58Z</time></trkpt><trkpt lat="44.48045608699234" lon="9.740121796977688"><ele>469.75</ele><time>2026-04-04T13:35:59Z</time></trkpt><trkpt lat="44.48049972095939" lon="9.740294127136835"><ele>474.5</ele><time>2026-04-04T13:36:00Z</time></trkpt><trkpt lat="44.48053709905657" lon="9.740449499599844"><ele>479.25</ele><time>2026-04-04T13:36:01Z</time></trkpt><trkpt lat="44.48056287471733" lon="9.740597555402193"><ele>484.0</ele><time>2026-04-04T13:36:02Z</time></trkpt><trkpt lat="44.480526237310535" lon="9.740777722996594"><ele>484.0</ele><time>2026-04-04T13:36:03Z</time></trkpt><trkpt lat="44.4804850745242" lon="9.740962516636905"><ele>484.0</ele><time>2026-04-04T13:36:04Z</time></trkpt><trkpt lat="44.48044755675239" lon="9.741131341024026"><ele>484.0</ele><time>2026-04-04T13:36:05Z</time></trkpt><trkpt lat="44.480420337682816" lon="9.74128665204901"><ele>484.0</ele><time>2026-04-04T13:36:06Z</time></trkpt><trkpt lat="44.480409291791545" lon="9.741419948889934"><ele>482.6</ele><time>2026-04-04T13:36:07Z</time></trkpt><trkpt lat="44.48041932299798" lon="9.741551136523382"><ele>481.2</ele><time>2026-04-04T13:36:08Z</time></trkpt><trkpt lat="44.480439900473314" lon="9.741685897306658"><ele>479.80000000000007</ele><time>2026-04-04T13:36:09Z</time></trkpt><trkpt lat="44.4805351078499" lon="9.741783329486145"><ele>478.40000000000003</ele><time>2026-04-04T13:36:10Z</time></trkpt><trkpt lat="44.48063388411726" lon="9.74184269682391"><ele>477.0</ele><time>2026-04-04T13:36:11Z</time></trkpt><trkpt lat="44.4807263803756" lon="9.741901634711951"><ele>475.0</ele><time>2026-04-04T13:36:12Z</time></trkpt><trkpt lat="44.480814514926074" lon="9.742013829868107"><ele>473.0</ele><time>2026-04-04T13:36:13Z</time></trkpt><trkpt lat="44.480825856121356" lon="9.742171763819558"><ele>471.0</ele><time>2026-04-04T13:36:14Z</time></trkpt><trkpt lat="44.48084970178321" lon="9.742330920108694"><ele>469.0</ele><time>2026-04-04T13:36:15Z</time></trkpt><trkpt lat="44.48087056107864" lon="9.742501625593507"><ele>469.0</ele><time>2026-04-04T13:36:16Z</time></trkpt><trkpt lat="44.48088793763541" lon="9.742683345221957"><ele>469.0</ele><time>2026-04-04T13:36:17Z</time></trkpt><trkpt lat="44.48089377124121" lon="9.742844448184533"><ele>469.0</ele><time>2026-04-04T13:36:18Z</time></trkpt><trkpt lat="44.48089371622305" lon="9.742992268677797"><ele>469.0</ele><time>2026-04-04T13:36:19Z</time></trkpt><trkpt lat="44.48089089012003" lon="9.743135489276654"><ele>468.4</ele><time>2026-04-04T13:36:20Z</time></trkpt><trkpt lat="44.4809026541534" lon="9.743261662132918"><ele>467.79999999999995</ele><time>2026-04-04T13:36:21Z</time></trkpt><trkpt lat="44.480938715937036" lon="9.743394487353036"><ele>467.20000000000005</ele><time>2026-04-04T13:36:22Z</time></trkpt><trkpt lat="44.481003141096814" lon="9.743502252073085"><ele>466.6</ele><time>2026-04-04T13:36:23Z</time></trkpt><trkpt lat="44.48108871454952" lon="9.743590001732116"><ele>466.0</ele><time>2026-04-04T13:36:24Z</time></trkpt><trkpt lat="44.48118442618058" lon="9.743653459600933"><ele>465.8</ele><time>2026-04-04T13:36:25Z</time></trkpt><trkpt lat="44.481290836953576" lon="9.7436660186317"><ele>465.6</ele><time>2026-04-04T13:36:26Z</time></trkpt><trkpt lat="44.481370150087265" lon="9.743703593099411"><ele>465.4</ele><time>2026-04-04T13:36:27Z</time></trkpt><trkpt lat="44.48146173881011" lon="9.743739093430996"><ele>465.2</ele><time>2026-04-04T13:36:28Z</time></trkpt><trkpt lat="44.48153134768016" lon="9.743810971049573"><ele>465.0</ele><time>2026-04-04T13:36:29Z</time></trkpt><trkpt lat="44.481577784357945" lon="9.743908251579064"><ele>465.0</ele><time>2026-04-04T13:36:30Z</time></trkpt><trkpt lat="44.48161639065245" lon="9.74398787893338"><ele>465.0</ele><time>2026-04-04T13:36:31Z</time></trkpt><trkpt lat="44.48164670488741" lon="9.744074450068377"><ele>465.0</ele><time>2026-04-04T13:36:32Z</time></trkpt><trkpt lat="44.48158534969736" lon="9.744197948677387"><ele>465.0</ele><time>2026-04-04T13:36:33Z</time></trkpt><trkpt lat="44.48154384739352" lon="9.744336690092915"><ele>465.0</ele><time>2026-04-04T13:36:34Z</time></trkpt><trkpt lat="44.4814776296343" lon="9.744478663028245"><ele>464.2</ele><time>2026-04-04T13:36:35Z</time></trkpt><trkpt lat="44.48141620850689" lon="9.744616100229557"><ele>463.4</ele><time>2026-04-04T13:36:36Z</time></trkpt><trkpt lat="44.48137797543631" lon="9.744743665807986"><ele>462.6</ele><time>2026-04-04T13:36:37Z</time></trkpt><trkpt lat="44.48135087316025" lon="9.744872687872673"><ele>461.8</ele><time>2026-04-04T13:36:38Z</time></trkpt><trkpt lat="44.48134451318324" lon="9.745001818575536"><ele>461.0</ele><time>2026-04-04T13:36:39Z</time></trkpt><trkpt lat="44.481366276452" lon="9.745137748478243"><ele>458.25</ele><time>2026-04-04T13:36:40Z</time></trkpt><trkpt lat="44.48143424307495" lon="9.745273888773534"><ele>455.5</ele><time>2026-04-04T13:36:41Z</time></trkpt><trkpt lat="44.481503862501945" lon="9.745396495209853"><ele>452.75</ele><time>2026-04-04T13:36:42Z</time></trkpt><trkpt lat="44.481573289521876" lon="9.745527438745935"><ele>450.0</ele><time>2026-04-04T13:36:43Z</time></trkpt><trkpt lat="44.48165618152768" lon="9.745671001534966"><ele>450.0</ele><time>2026-04-04T13:36:44Z</time></trkpt><trkpt lat="44.48176412122525" lon="9.745786344737072"><ele>450.0</ele><time>2026-04-04T13:36:45Z</time></trkpt><trkpt lat="44.481893267440164" lon="9.745826617647658"><ele>450.0</ele><time>2026-04-04T13:36:46Z</time></trkpt><trkpt lat="44.482011657516956" lon="9.745889425918245"><ele>450.0</ele><time>2026-04-04T13:36:47Z</time></trkpt><trkpt lat="44.48213334029469" lon="9.74592886413518"><ele>449.5</ele><time>2026-04-04T13:36:48Z</time></trkpt><trkpt lat="44.48226743657257" lon="9.74597316912215"><ele>449.0</ele><time>2026-04-04T13:36:49Z</time></trkpt><trkpt lat="44.48239743023254" lon="9.74602506408072"><ele>448.5</ele><time>2026-04-04T13:36:50Z</time></trkpt><trkpt lat="44.4825044889683" lon="9.746086172013012"><ele>448.0</ele><time>2026-04-04T13:36:51Z</time></trkpt><trkpt lat="44.48260310151705" lon="9.746170769700402"><ele>448.00000000000006</ele><time>2026-04-04T13:36:52Z</time></trkpt><trkpt lat="44.48269280488902" lon="9.746258792972574"><ele>448.0</ele><time>2026-04-04T13:36:53Z</time></trkpt><trkpt lat="44.482773515527626" lon="9.746337577066255"><ele>448.0</ele><time>2026-04-04T13:36:54Z</time></trkpt><trkpt lat="44.48284417883931" lon="9.74640453015557"><ele>448.0</ele><time>2026-04-04T13:36:55Z</time></trkpt><trkpt lat="44.48290397784554" lon="9.74646118935027"><ele>448.00000000000006</ele><time>2026-04-04T13:36:56Z</time></trkpt><trkpt lat="44.48297948319298" lon="9.746505562236205"><ele>448.0</ele><time>2026-04-04T13:36:57Z</time></trkpt><trkpt lat="44.48303884452407" lon="9.746571845313348"><ele>449.0</ele><time>2026-04-04T13:36:58Z</time></trkpt><trkpt lat="44.48310998610902" lon="9.746639936459479"><ele>449.99999999999994</ele><time>2026-04-04T13:36:59Z</time></trkpt><trkpt lat="44.48318056973332" lon="9.746729093347327"><ele>450.99999999999994</ele><time>2026-04-04T13:37:00Z</time></trkpt><trkpt lat="44.483245037437506" lon="9.746824826306996"><ele>452.0</ele><time>2026-04-04T13:37:01Z</time></trkpt><trkpt lat="44.48329550066028" lon="9.746932069459783"><ele>453.0</ele><time>2026-04-04T13:37:02Z</time></trkpt><trkpt lat="44.48333468973196" lon="9.747056261921493"><ele>453.0</ele><time>2026-04-04T13:37:03Z</time></trkpt><trkpt lat="44.48334951626698" lon="9.747198879605454"><ele>453.0</ele><time>2026-04-04T13:37:04Z</time></trkpt><trkpt lat="44.483354694097166" lon="9.747338886827345"><ele>453.0</ele><time>2026-04-04T13:37:05Z</time></trkpt><trkpt lat="44.48335562279485" lon="9.74745012475589"><ele>453.0</ele><time>2026-04-04T13:37:06Z</time></trkpt><trkpt lat="44.48336805122931" lon="9.74756188173031"><ele>453.0</ele><time>2026-04-04T13:37:07Z</time></trkpt><trkpt lat="44.48336149777586" lon="9.747681337332374"><ele>453.0</ele><time>2026-04-04T13:37:08Z</time></trkpt><trkpt lat="44.48335876301928" lon="9.747802036529498"><ele>452.59999999999997</ele><time>2026-04-04T13:37:09Z</time></trkpt><trkpt lat="44.483361661126295" lon="9.747941656959465"><ele>452.19999999999993</ele><time>2026-04-04T13:37:10Z</time></trkpt><trkpt lat="44.483362362348274" lon="9.748084634267498"><ele>451.8</ele><time>2026-04-04T13:37:11Z</time></trkpt><trkpt lat="44.48335418762414" lon="9.748215171491767"><ele>451.4</ele><time>2026-04-04T13:37:12Z</time></trkpt><trkpt lat="44.48334511978457" lon="9.748338043822587"><ele>451.0</ele><time>2026-04-04T13:37:13Z</time></trkpt><trkpt lat="44.48334128791153" lon="9.748464721583321"><ele>447.8</ele><time>2026-04-04T13:37:14Z</time></trkpt><trkpt lat="44.48334586046631" lon="9.74856889046169"><ele>444.6</ele><time>2026-04-04T13:37:15Z</time></trkpt><trkpt lat="44.483350460234426" lon="9.748662940610807"><ele>441.4</ele><time>2026-04-04T13:37:16Z</time></trkpt><trkpt lat="44.4834090711694" lon="9.748778657828955"><ele>438.2</ele><time>2026-04-04T13:37:17Z</time></trkpt><trkpt lat="44.4835037660469" lon="9.748851729744752"><ele>435.0</ele><time>2026-04-04T13:37:18Z</time></trkpt><trkpt lat="44.48360485376501" lon="9.748913936611308"><ele>435.0</ele><time>2026-04-04T13:37:19Z</time></trkpt><trkpt lat="44.48369510325897" lon="9.74898897935368"><ele>435.0</ele><time>2026-04-04T13:37:20Z</time></trkpt><trkpt lat="44.483794315183935" lon="9.749073540731008"><ele>435.0</ele><time>2026-04-04T13:37:21Z</time></trkpt><trkpt lat="44.4838806901887" lon="9.749170183229486"><ele>435.0</ele><time>2026-04-04T13:37:22Z</time></trkpt><trkpt lat="44.48396058747958" lon="9.749223494286836"><ele>435.0</ele><time>2026-04-04T13:37:23Z</time></trkpt><trkpt lat="44.48403651795025" lon="9.749335708364889"><ele>435.6</ele><time>2026-04-04T13:37:24Z</time></trkpt><trkpt lat="44.48411397267674" lon="9.749432515948122"><ele>436.2</ele><time>2026-04-04T13:37:25Z</time></trkpt><trkpt lat="44.484177246770344" lon="9.749513079668667"><ele>436.79999999999995</ele><time>2026-04-04T13:37:26Z</time></trkpt><trkpt lat="44.484241037536435" lon="9.749599881469502"><ele>437.4</ele><time>2026-04-04T13:37:27Z</time></trkpt><trkpt lat="44.48432516931915" lon="9.749723727524126"><ele>438.0</ele><time>2026-04-04T13:37:28Z</time></trkpt><trkpt lat="44.48439491383822" lon="9.749829921341957"><ele>438.0</ele><time>2026-04-04T13:37:29Z</time></trkpt><trkpt lat="44.4844773952327" lon="9.749928535106278"><ele>437.99999999999994</ele><time>2026-04-04T13:37:30Z</time></trkpt><trkpt lat="44.4845478507026" lon="9.750049293748251"><ele>437.99999999999994</ele><time>2026-04-04T13:37:31Z</time></trkpt><trkpt lat="44.48461076098589" lon="9.750144207322071"><ele>438.0</ele><time>2026-04-04T13:37:32Z</time></trkpt><trkpt lat="44.48467089936525" lon="9.750253223948176"><ele>438.0</ele><time>2026-04-04T13:37:33Z</time></trkpt><trkpt lat="44.48473710463304" lon="9.75036014307363"><ele>439.4</ele><time>2026-04-04T13:37:34Z</time></trkpt><trkpt lat="44.48477756866828" lon="9.750493168958274"><ele>440.79999999999995</ele><time>2026-04-04T13:37:35Z</time></trkpt><trkpt lat="44.48477980109904" lon="9.750638073605796"><ele>442.2</ele><time>2026-04-04T13:37:36Z</time></trkpt><trkpt lat="44.48480179721275" lon="9.750780430112352"><ele>443.6</ele><time>2026-04-04T13:37:37Z</time></trkpt><trkpt lat="44.484797679218815" lon="9.750926717194325"><ele>445.0</ele><time>2026-04-04T13:37:38Z</time></trkpt><trkpt lat="44.484800718432076" lon="9.751092195494111"><ele>445.0</ele><time>2026-04-04T13:37:39Z</time></trkpt><trkpt lat="44.48480419715292" lon="9.751236282630119"><ele>445.0</ele><time>2026-04-04T13:37:40Z</time></trkpt><trkpt lat="44.48480882877921" lon="9.751370140889822"><ele>445.0</ele><time>2026-04-04T13:37:41Z</time></trkpt><trkpt lat="44.48481072240031" lon="9.751492060332303"><ele>445.0</ele><time>2026-04-04T13:37:42Z</time></trkpt><trkpt lat="44.484816171679455" lon="9.75160750337682"><ele>445.0</ele><time>2026-04-04T13:37:43Z</time></trkpt><trkpt lat="44.4848205294668" lon="9.751728384305911"><ele>445.00000000000006</ele><time>2026-04-04T13:37:44Z</time></trkpt><trkpt lat="44.48480647009428" lon="9.751850601395018"><ele>445.0</ele><time>2026-04-04T13:37:45Z</time></trkpt><trkpt lat="44.48481611085416" lon="9.751962684910707"><ele>445.0</ele><time>2026-04-04T13:37:46Z</time></trkpt><trkpt lat="44.484816057020964" lon="9.7520923165942"><ele>445.0</ele><time>2026-04-04T13:37:47Z</time></trkpt><trkpt lat="44.48482021124889" lon="9.75219979248077"><ele>445.00000000000006</ele><time>2026-04-04T13:37:48Z</time></trkpt><trkpt lat="44.4848024161263" lon="9.752314602443299"><ele>445.0</ele><time>2026-04-04T13:37:49Z</time></trkpt><trkpt lat="44.48481171729367" lon="9.75241446498392"><ele>444.50000000000006</ele><time>2026-04-04T13:37:50Z</time></trkpt><trkpt lat="44.48480296461433" lon="9.75251034024991"><ele>444.0</ele><time>2026-04-04T13:37:51Z</time></trkpt><trkpt lat="44.4847819426701" lon="9.752685092358622"><ele>443.5</ele><time>2026-04-04T13:37:53Z</time></trkpt><trkpt lat="44.4847886099024" lon="9.752783116356143"><ele>443.0</ele><time>2026-04-04T13:37:54Z</time></trkpt><trkpt lat="44.48480620035297" lon="9.752892320443385"><ele>442.50000000000006</ele><time>2026-04-04T13:37:55Z</time></trkpt><trkpt lat="44.48482850128535" lon="9.753006983562393"><ele>442.0</ele><time>2026-04-04T13:37:56Z</time></trkpt><trkpt lat="44.48485259560224" lon="9.753119846700045"><ele>441.33333333333337</ele><time>2026-04-04T13:37:57Z</time></trkpt><trkpt lat="44.4848746166926" lon="9.753215514886183"><ele>440.6666666666667</ele><time>2026-04-04T13:37:58Z</time></trkpt><trkpt lat="44.48489282853386" lon="9.75330210250544"><ele>440.0</ele><time>2026-04-04T13:37:59Z</time></trkpt><trkpt lat="44.48490459198269" lon="9.753393101657116"><ele>439.33333333333337</ele><time>2026-04-04T13:38:00Z</time></trkpt><trkpt lat="44.48489427379392" lon="9.753495255122036"><ele>438.6666666666667</ele><time>2026-04-04T13:38:01Z</time></trkpt><trkpt lat="44.48495510345651" lon="9.753638228641806"><ele>438.0</ele><time>2026-04-04T13:38:02Z</time></trkpt><trkpt lat="44.48498450879158" lon="9.753783467777016"><ele>436.59999999999997</ele><time>2026-04-04T13:38:03Z</time></trkpt><trkpt lat="44.48500898270939" lon="9.7539266991863"><ele>435.19999999999993</ele><time>2026-04-04T13:38:04Z</time></trkpt><trkpt lat="44.48503339766994" lon="9.754054980634164"><ele>433.8</ele><time>2026-04-04T13:38:05Z</time></trkpt><trkpt lat="44.48506269497024" lon="9.754208157134332"><ele>432.4</ele><time>2026-04-04T13:38:06Z</time></trkpt><trkpt lat="44.48508751402507" lon="9.754353548188996"><ele>431.0</ele><time>2026-04-04T13:38:07Z</time></trkpt><trkpt lat="44.48511825856867" lon="9.75448505468139"><ele>430.4</ele><time>2026-04-04T13:38:08Z</time></trkpt><trkpt lat="44.485128948092665" lon="9.754651750258954"><ele>429.8</ele><time>2026-04-04T13:38:09Z</time></trkpt><trkpt lat="44.48512686806738" lon="9.754804711713401"><ele>429.19999999999993</ele><time>2026-04-04T13:38:10Z</time></trkpt><trkpt lat="44.485109624449784" lon="9.754936189470536"><ele>428.59999999999997</ele><time>2026-04-04T13:38:11Z</time></trkpt><trkpt lat="44.485098957198815" lon="9.755083969413885"><ele>428.0</ele><time>2026-04-04T13:38:12Z</time></trkpt><trkpt lat="44.48508612307013" lon="9.75523801648244"><ele>427.0</ele><time>2026-04-04T13:38:13Z</time></trkpt><trkpt lat="44.48508308952185" lon="9.755407640228817"><ele>426.0</ele><time>2026-04-04T13:38:14Z</time></trkpt><trkpt lat="44.48507463587172" lon="9.755579769895302"><ele>425.0</ele><time>2026-04-04T13:38:15Z</time></trkpt><trkpt lat="44.485062975700295" lon="9.755764124805566"><ele>424.0</ele><time>2026-04-04T13:38:16Z</time></trkpt><trkpt lat="44.485058609194006" lon="9.7559596079771"><ele>424.2</ele><time>2026-04-04T13:38:17Z</time></trkpt><trkpt lat="44.48505086047369" lon="9.756127278277802"><ele>424.4</ele><time>2026-04-04T13:38:18Z</time></trkpt><trkpt lat="44.48504970251214" lon="9.756279354002665"><ele>424.6</ele><time>2026-04-04T13:38:19Z</time></trkpt><trkpt lat="44.485030394545596" lon="9.756418931284754"><ele>424.8</ele><time>2026-04-04T13:38:20Z</time></trkpt><trkpt lat="44.48502470504356" lon="9.756553494126148"><ele>425.0</ele><time>2026-04-04T13:38:21Z</time></trkpt><trkpt lat="44.485033744489805" lon="9.756687850799166"><ele>425.0</ele><time>2026-04-04T13:38:22Z</time></trkpt><trkpt lat="44.48502960136554" lon="9.756844973679739"><ele>425.0</ele><time>2026-04-04T13:38:23Z</time></trkpt><trkpt lat="44.485020796255846" lon="9.756992882093378"><ele>425.0</ele><time>2026-04-04T13:38:24Z</time></trkpt><trkpt lat="44.485006508382625" lon="9.75712921250423"><ele>425.0</ele><time>2026-04-04T13:38:25Z</time></trkpt><trkpt lat="44.484979124317945" lon="9.757270311967627"><ele>425.0</ele><time>2026-04-04T13:38:26Z</time></trkpt><trkpt lat="44.48492521967687" lon="9.757395535970241"><ele>425.4</ele><time>2026-04-04T13:38:27Z</time></trkpt><trkpt lat="44.484893775742485" lon="9.757513246535341"><ele>425.8</ele><time>2026-04-04T13:38:28Z</time></trkpt><trkpt lat="44.484836475260906" lon="9.75763926298732"><ele>426.20000000000005</ele><time>2026-04-04T13:38:29Z</time></trkpt><trkpt lat="44.484800989694165" lon="9.757772320398585"><ele>426.6</ele><time>2026-04-04T13:38:30Z</time></trkpt><trkpt lat="44.48478955524009" lon="9.757907254164463"><ele>427.0</ele><time>2026-04-04T13:38:31Z</time></trkpt><trkpt lat="44.484784895343445" lon="9.758057018654283"><ele>425.75</ele><time>2026-04-04T13:38:32Z</time></trkpt><trkpt lat="44.48480765775106" lon="9.75817669820206"><ele>424.5</ele><time>2026-04-04T13:38:33Z</time></trkpt><trkpt lat="44.48485984614454" lon="9.758336208619008"><ele>423.25</ele><time>2026-04-04T13:38:34Z</time></trkpt><trkpt lat="44.48490721268495" lon="9.758480886419541"><ele>422.0</ele><time>2026-04-04T13:38:35Z</time></trkpt><trkpt lat="44.4849912891255" lon="9.758636173087542"><ele>423.0</ele><time>2026-04-04T13:38:36Z</time></trkpt><trkpt lat="44.48508261682611" lon="9.758761305326487"><ele>424.0</ele><time>2026-04-04T13:38:37Z</time></trkpt><trkpt lat="44.48517394479465" lon="9.75883430733673"><ele>425.00000000000006</ele><time>2026-04-04T13:38:38Z</time></trkpt><trkpt lat="44.48525522945563" lon="9.75890924085894"><ele>426.0</ele><time>2026-04-04T13:38:39Z</time></trkpt><trkpt lat="44.48534493906858" lon="9.758956314916778"><ele>427.0</ele><time>2026-04-04T13:38:40Z</time></trkpt><trkpt lat="44.485434406988226" lon="9.758984863394256"><ele>427.0</ele><time>2026-04-04T13:38:41Z</time></trkpt><trkpt lat="44.4855222039973" lon="9.759013522575591"><ele>427.00000000000006</ele><time>2026-04-04T13:38:42Z</time></trkpt><trkpt lat="44.4856202478186" lon="9.759047216708755"><ele>427.00000000000006</ele><time>2026-04-04T13:38:43Z</time></trkpt><trkpt lat="44.48572260007574" lon="9.759087091693816"><ele>427.0</ele><time>2026-04-04T13:38:44Z</time></trkpt><trkpt lat="44.485819263160714" lon="9.759141748055946"><ele>427.0</ele><time>2026-04-04T13:38:45Z</time></trkpt><trkpt lat="44.485877954061706" lon="9.759225554303011"><ele>427.0</ele><time>2026-04-04T13:38:46Z</time></trkpt><trkpt lat="44.48592042922123" lon="9.759355227183633"><ele>427.00000000000006</ele><time>2026-04-04T13:38:47Z</time></trkpt><trkpt lat="44.48597415703227" lon="9.759509983041214"><ele>427.00000000000006</ele><time>2026-04-04T13:38:48Z</time></trkpt><trkpt lat="44.48601951316277" lon="9.759628433413718"><ele>427.0</ele><time>2026-04-04T13:38:49Z</time></trkpt><trkpt lat="44.48607585165747" lon="9.759776960702377"><ele>427.0</ele><time>2026-04-04T13:38:50Z</time></trkpt><trkpt lat="44.48612227067015" lon="9.759900890299745"><ele>427.0</ele><time>2026-04-04T13:38:51Z</time></trkpt><trkpt lat="44.48616188152913" lon="9.760006643415045"><ele>427.00000000000006</ele><time>2026-04-04T13:38:52Z</time></trkpt><trkpt lat="44.48620392183888" lon="9.760118882677425"><ele>427.00000000000006</ele><time>2026-04-04T13:38:53Z</time></trkpt><trkpt lat="44.48624931108966" lon="9.760239976594653"><ele>427.0</ele><time>2026-04-04T13:38:54Z</time></trkpt><trkpt lat="44.486290842205854" lon="9.760350263552168"><ele>427.0</ele><time>2026-04-04T13:38:55Z</time></trkpt><trkpt lat="44.48633180517122" lon="9.76045904184865"><ele>427.00000000000006</ele><time>2026-04-04T13:38:56Z</time></trkpt><trkpt lat="44.48636961324138" lon="9.760559962167267"><ele>427.0</ele><time>2026-04-04T13:38:57Z</time></trkpt><trkpt lat="44.48640903834002" lon="9.760666774652519"><ele>427.0</ele><time>2026-04-04T13:38:58Z</time></trkpt><trkpt lat="44.48644331884588" lon="9.760759649169964"><ele>427.0</ele><time>2026-04-04T13:38:59Z</time></trkpt><trkpt lat="44.4865011210863" lon="9.760916249926963"><ele>427.00000000000006</ele><time>2026-04-04T13:39:01Z</time></trkpt><trkpt lat="44.48653211849498" lon="9.761000229248715"><ele>427.0</ele><time>2026-04-04T13:39:02Z</time></trkpt><trkpt lat="44.48656574443026" lon="9.76109132919112"><ele>426.33333333333337</ele><time>2026-04-04T13:39:03Z</time></trkpt><trkpt lat="44.48660225843263" lon="9.76118902945918"><ele>425.6666666666667</ele><time>2026-04-04T13:39:04Z</time></trkpt><trkpt lat="44.48664085295763" lon="9.761293024315846"><ele>425.0</ele><time>2026-04-04T13:39:05Z</time></trkpt><trkpt lat="44.48668084805338" lon="9.761401762178727"><ele>424.33333333333337</ele><time>2026-04-04T13:39:06Z</time></trkpt><trkpt lat="44.48671925173596" lon="9.761500462345584"><ele>423.6666666666667</ele><time>2026-04-04T13:39:07Z</time></trkpt><trkpt lat="44.486761748442625" lon="9.761609681919198"><ele>423.0</ele><time>2026-04-04T13:39:08Z</time></trkpt><trkpt lat="44.48680185490434" lon="9.761713590932544"><ele>423.0</ele><time>2026-04-04T13:39:09Z</time></trkpt><trkpt lat="44.48684254646651" lon="9.76182179912728"><ele>423.0</ele><time>2026-04-04T13:39:10Z</time></trkpt><trkpt lat="44.48687600091968" lon="9.76191076218972"><ele>423.0</ele><time>2026-04-04T13:39:11Z</time></trkpt><trkpt lat="44.486913210221545" lon="9.76200971025791"><ele>423.0</ele><time>2026-04-04T13:39:12Z</time></trkpt><trkpt lat="44.486946253721285" lon="9.762097580530652"><ele>423.0</ele><time>2026-04-04T13:39:13Z</time></trkpt><trkpt lat="44.486985456008284" lon="9.7622018283642"><ele>423.0</ele><time>2026-04-04T13:39:14Z</time></trkpt><trkpt lat="44.48701487857871" lon="9.762280368319264"><ele>423.0</ele><time>2026-04-04T13:39:15Z</time></trkpt><trkpt lat="44.48705344405612" lon="9.762383379262095"><ele>423.0</ele><time>2026-04-04T13:39:16Z</time></trkpt><trkpt lat="44.487088562421576" lon="9.76247718253208"><ele>423.0</ele><time>2026-04-04T13:39:17Z</time></trkpt><trkpt lat="44.48712319117614" lon="9.762569037217112"><ele>423.0</ele><time>2026-04-04T13:39:18Z</time></trkpt><trkpt lat="44.48715834857768" lon="9.762662416139143"><ele>423.0</ele><time>2026-04-04T13:39:19Z</time></trkpt><trkpt lat="44.4871981887927" lon="9.762768232733842"><ele>423.0</ele><time>2026-04-04T13:39:20Z</time></trkpt><trkpt lat="44.48723565213029" lon="9.762867736236476"><ele>423.0</ele><time>2026-04-04T13:39:21Z</time></trkpt><trkpt lat="44.48727698640084" lon="9.762977521056147"><ele>423.0</ele><time>2026-04-04T13:39:22Z</time></trkpt><trkpt lat="44.487311557032235" lon="9.763069341521863"><ele>423.0</ele><time>2026-04-04T13:39:23Z</time></trkpt><trkpt lat="44.487345008367626" lon="9.763158189009122"><ele>423.0</ele><time>2026-04-04T13:39:24Z</time></trkpt><trkpt lat="44.4873767353139" lon="9.76324243104062"><ele>423.0</ele><time>2026-04-04T13:39:25Z</time></trkpt><trkpt lat="44.48743967094006" lon="9.763411746611492"><ele>423.0</ele><time>2026-04-04T13:39:27Z</time></trkpt><trkpt lat="44.487511043434154" lon="9.763480155033776"><ele>422.5</ele><time>2026-04-04T13:39:28Z</time></trkpt><trkpt lat="44.48754812149373" lon="9.763562712739665"><ele>422.0</ele><time>2026-04-04T13:39:29Z</time></trkpt><trkpt lat="44.48758080740462" lon="9.763659122296021"><ele>421.5</ele><time>2026-04-04T13:39:30Z</time></trkpt><trkpt lat="44.48761711179534" lon="9.763756064940912"><ele>421.0</ele><time>2026-04-04T13:39:31Z</time></trkpt><trkpt lat="44.4876556337505" lon="9.763846663828808"><ele>420.5</ele><time>2026-04-04T13:39:32Z</time></trkpt><trkpt lat="44.48765243998103" lon="9.763977359046311"><ele>420.0</ele><time>2026-04-04T13:39:33Z</time></trkpt><trkpt lat="44.48770830838594" lon="9.764135528075633"><ele>420.0</ele><time>2026-04-04T13:39:35Z</time></trkpt><trkpt lat="44.48774227792538" lon="9.764281243344083"><ele>420.0</ele><time>2026-04-04T13:39:37Z</time></trkpt><trkpt lat="44.4877533759807" lon="9.764424733600391"><ele>420.0</ele><time>2026-04-04T13:39:39Z</time></trkpt><trkpt lat="44.48787232781407" lon="9.76455941578574"><ele>420.0</ele><time>2026-04-04T13:39:41Z</time></trkpt><trkpt lat="44.487882225619366" lon="9.764698368586009"><ele>420.0</ele><time>2026-04-04T13:39:42Z</time></trkpt><trkpt lat="44.48794444341691" lon="9.764838246109354"><ele>420.0</ele><time>2026-04-04T13:39:44Z</time></trkpt><trkpt lat="44.4879841622333" lon="9.764911005116888"><ele>420.0</ele><time>2026-04-04T13:39:45Z</time></trkpt><trkpt lat="44.4880327044286" lon="9.764998914066277"><ele>420.0</ele><time>2026-04-04T13:39:46Z</time></trkpt><trkpt lat="44.48806276363965" lon="9.765089287695965"><ele>420.0</ele><time>2026-04-04T13:39:47Z</time></trkpt><trkpt lat="44.48813169040513" lon="9.765223843023332"><ele>419.8</ele><time>2026-04-04T13:39:49Z</time></trkpt><trkpt lat="44.488170394926655" lon="9.765303826492453"><ele>419.6</ele><time>2026-04-04T13:39:50Z</time></trkpt><trkpt lat="44.48826923161315" lon="9.76545854909655"><ele>419.4</ele><time>2026-04-04T13:39:52Z</time></trkpt><trkpt lat="44.48834648507634" lon="9.765574370862119"><ele>419.2</ele><time>2026-04-04T13:39:54Z</time></trkpt><trkpt lat="44.488399192230816" lon="9.7656797273724"><ele>419.0</ele><time>2026-04-04T13:39:55Z</time></trkpt><trkpt lat="44.48846525633449" lon="9.765789435223105"><ele>419.0</ele><time>2026-04-04T13:39:56Z</time></trkpt><trkpt lat="44.488510738133584" lon="9.765902883029229"><ele>419.0</ele><time>2026-04-04T13:39:57Z</time></trkpt><trkpt lat="44.48859786847917" lon="9.76591097195737"><ele>419.0</ele><time>2026-04-04T13:39:58Z</time></trkpt><trkpt lat="44.488600834370146" lon="9.76601337248224"><ele>419.0</ele><time>2026-04-04T13:39:59Z</time></trkpt><trkpt lat="44.488656746202075" lon="9.766152886980889"><ele>419.0</ele><time>2026-04-04T13:40:00Z</time></trkpt><trkpt lat="44.48871881401685" lon="9.766231605037262"><ele>419.2</ele><time>2026-04-04T13:40:01Z</time></trkpt><trkpt lat="44.48876512833046" lon="9.766340211550405"><ele>419.4</ele><time>2026-04-04T13:40:02Z</time></trkpt><trkpt lat="44.48881020840999" lon="9.766438379072506"><ele>419.6</ele><time>2026-04-04T13:40:03Z</time></trkpt><trkpt lat="44.488877375471596" lon="9.76652401119822"><ele>419.8</ele><time>2026-04-04T13:40:04Z</time></trkpt><trkpt lat="44.488925186290516" lon="9.76665883905414"><ele>420.0</ele><time>2026-04-04T13:40:05Z</time></trkpt><trkpt lat="44.48901590052714" lon="9.766687747313762"><ele>420.0</ele><time>2026-04-04T13:40:06Z</time></trkpt><trkpt lat="44.489026425023795" lon="9.766841102717862"><ele>420.0</ele><time>2026-04-04T13:40:07Z</time></trkpt><trkpt lat="44.48912253401065" lon="9.766947161485719"><ele>420.0</ele><time>2026-04-04T13:40:09Z</time></trkpt><trkpt lat="44.489180877637175" lon="9.767093583724884"><ele>420.0</ele><time>2026-04-04T13:40:10Z</time></trkpt><trkpt lat="44.48922920386633" lon="9.767196131139594"><ele>420.0</ele><time>2026-04-04T13:40:11Z</time></trkpt><trkpt lat="44.489279462054455" lon="9.767321699360973"><ele>419.8333333333333</ele><time>2026-04-04T13:40:12Z</time></trkpt><trkpt lat="44.48932945379021" lon="9.767406582887237"><ele>419.66666666666663</ele><time>2026-04-04T13:40:13Z</time></trkpt><trkpt lat="44.489382073163156" lon="9.767477970406482"><ele>419.5</ele><time>2026-04-04T13:40:14Z</time></trkpt><trkpt lat="44.48943862035521" lon="9.767567064355106"><ele>419.3333333333333</ele><time>2026-04-04T13:40:15Z</time></trkpt><trkpt lat="44.48948857866472" lon="9.767663133537242"><ele>419.16666666666663</ele><time>2026-04-04T13:40:16Z</time></trkpt><trkpt lat="44.48955526815712" lon="9.76778949964629"><ele>419.0</ele><time>2026-04-04T13:40:18Z</time></trkpt><trkpt lat="44.4896227380123" lon="9.767798671344899"><ele>418.99999999999994</ele><time>2026-04-04T13:40:19Z</time></trkpt><trkpt lat="44.4896238301792" lon="9.767899035735024"><ele>419.0</ele><time>2026-04-04T13:40:20Z</time></trkpt><trkpt lat="44.48968304720513" lon="9.767986181817824"><ele>419.0</ele><time>2026-04-04T13:40:22Z</time></trkpt><trkpt lat="44.489749431087525" lon="9.768061174891002"><ele>419.0</ele><time>2026-04-04T13:40:27Z</time></trkpt><trkpt lat="44.489750924403346" lon="9.768193954923337"><ele>418.99999999999994</ele><time>2026-04-04T13:40:30Z</time></trkpt><trkpt lat="44.48974279506091" lon="9.76829761932255"><ele>419.0</ele><time>2026-04-04T13:40:31Z</time></trkpt><trkpt lat="44.48972665185444" lon="9.76844126600114"><ele>419.0</ele><time>2026-04-04T13:40:33Z</time></trkpt><trkpt lat="44.48966903571192" lon="9.768535007367955"><ele>411.0</ele><time>2026-04-04T13:40:36Z</time></trkpt></trkseg></trk></gpx>